<?xml version="1.0" encoding="UTF-8" standalone="no" ?>
<gpx xmlns="http://www.topografix.com/GPX/1/1" xmlns:xsi="http://www.w3.org/2001/XMLSchema-instance" xsi:schemaLocation="http://www.topografix.com/GPX/1/1 http://www.topografix.com/GPX/1/1/gpx.xsd" version="1.1" creator="VisuGPX - https://www.visugpx.com">
  <metadata>
    <name>Chemin de Stevenson (Francis)</name>
    <desc><![CDATA[Le chemin de Stevenson optimisé. ]]></desc>
  </metadata>
  <trk>
    <name><![CDATA[20180402185546-bjbMY]]></name>
    <trkseg>
      <trkpt lat="45.04535" lon="3.88603">
        <ele>673</ele>
      </trkpt>
      <trkpt lat="45.0451" lon="3.88537">
        <ele>680</ele>
      </trkpt>
      <trkpt lat="45.04483" lon="3.88499">
        <ele>672</ele>
      </trkpt>
      <trkpt lat="45.04474" lon="3.88463">
        <ele>667</ele>
      </trkpt>
      <trkpt lat="45.04473" lon="3.88434">
        <ele>666</ele>
      </trkpt>
      <trkpt lat="45.04477" lon="3.88406">
        <ele>662</ele>
        <time>2018-03-30T09:25:01Z</time>
      </trkpt>
      <trkpt lat="45.0447" lon="3.88388">
        <ele>660</ele>
        <time>2018-03-30T09:26:01Z</time>
      </trkpt>
      <trkpt lat="45.04397" lon="3.88364">
        <ele>647</ele>
        <time>2018-03-30T09:27:01Z</time>
      </trkpt>
      <trkpt lat="45.04398" lon="3.88421">
        <ele>649</ele>
        <time>2018-03-30T09:28:01Z</time>
      </trkpt>
      <trkpt lat="45.04403" lon="3.8849">
        <ele>651</ele>
        <time>2018-03-30T09:29:01Z</time>
      </trkpt>
      <trkpt lat="45.04375" lon="3.88506">
        <ele>646</ele>
        <time>2018-03-30T09:30:01Z</time>
      </trkpt>
      <trkpt lat="45.0436" lon="3.88517">
        <ele>645</ele>
        <time>2018-03-30T09:31:01Z</time>
      </trkpt>
      <trkpt lat="45.0433" lon="3.88532">
        <ele>636</ele>
        <time>2018-03-30T09:32:01Z</time>
      </trkpt>
      <trkpt lat="45.04297" lon="3.88543">
        <ele>634</ele>
        <time>2018-03-30T09:33:01Z</time>
      </trkpt>
      <trkpt lat="45.04213" lon="3.8856">
        <ele>627</ele>
        <time>2018-03-30T09:34:01Z</time>
      </trkpt>
      <trkpt lat="45.04219" lon="3.88698">
        <ele>626</ele>
        <time>2018-03-30T09:35:01Z</time>
      </trkpt>
      <trkpt lat="45.04134" lon="3.88772">
        <ele>625</ele>
        <time>2018-03-30T09:36:01Z</time>
      </trkpt>
      <trkpt lat="45.04115" lon="3.88853">
        <ele>626</ele>
        <time>2018-03-30T09:37:01Z</time>
      </trkpt>
      <trkpt lat="45.04108" lon="3.88948">
        <ele>631</ele>
        <time>2018-03-30T09:38:01Z</time>
      </trkpt>
      <trkpt lat="45.04126" lon="3.89069">
        <ele>636</ele>
        <time>2018-03-30T09:39:01Z</time>
      </trkpt>
      <trkpt lat="45.04152" lon="3.89177">
        <ele>643</ele>
        <time>2018-03-30T09:40:01Z</time>
      </trkpt>
      <trkpt lat="45.04081" lon="3.89258">
        <ele>655</ele>
        <time>2018-03-30T09:41:01Z</time>
      </trkpt>
      <trkpt lat="45.04044" lon="3.89336">
        <ele>662</ele>
        <time>2018-03-30T09:42:01Z</time>
      </trkpt>
      <trkpt lat="45.04029" lon="3.89438">
        <ele>667</ele>
        <time>2018-03-30T09:43:01Z</time>
      </trkpt>
      <trkpt lat="45.03995" lon="3.89564">
        <ele>677</ele>
        <time>2018-03-30T09:44:01Z</time>
      </trkpt>
      <trkpt lat="45.03939" lon="3.89601">
        <ele>685</ele>
        <time>2018-03-30T09:45:01Z</time>
      </trkpt>
      <trkpt lat="45.03877" lon="3.89677">
        <ele>698</ele>
        <time>2018-03-30T09:46:01Z</time>
      </trkpt>
      <trkpt lat="45.03872" lon="3.89703">
        <ele>699</ele>
        <time>2018-03-30T09:47:01Z</time>
      </trkpt>
      <trkpt lat="45.03764" lon="3.89698">
        <ele>704</ele>
        <time>2018-03-30T09:48:01Z</time>
      </trkpt>
      <trkpt lat="45.03754" lon="3.89709">
        <ele>704</ele>
        <time>2018-03-30T09:49:01Z</time>
      </trkpt>
      <trkpt lat="45.03747" lon="3.89735">
        <ele>712</ele>
        <time>2018-03-30T09:50:01Z</time>
      </trkpt>
      <trkpt lat="45.03718" lon="3.89768">
        <ele>716</ele>
        <time>2018-03-30T09:51:01Z</time>
      </trkpt>
      <trkpt lat="45.03673" lon="3.898">
        <ele>721</ele>
        <time>2018-03-30T09:52:01Z</time>
      </trkpt>
      <trkpt lat="45.03606" lon="3.89862">
        <ele>740</ele>
        <time>2018-03-30T09:53:01Z</time>
      </trkpt>
      <trkpt lat="45.03567" lon="3.89907">
        <ele>753</ele>
        <time>2018-03-30T09:54:01Z</time>
      </trkpt>
      <trkpt lat="45.03554" lon="3.89934">
        <ele>755</ele>
        <time>2018-03-30T09:55:01Z</time>
      </trkpt>
      <trkpt lat="45.03541" lon="3.89997">
        <ele>757</ele>
        <time>2018-03-30T09:56:01Z</time>
      </trkpt>
      <trkpt lat="45.0353" lon="3.90021">
        <ele>761</ele>
        <time>2018-03-30T09:57:01Z</time>
      </trkpt>
      <trkpt lat="45.03529" lon="3.9004">
        <ele>761</ele>
        <time>2018-03-30T09:58:01Z</time>
      </trkpt>
      <trkpt lat="45.03497" lon="3.9007">
        <ele>774</ele>
        <time>2018-03-30T09:59:01Z</time>
      </trkpt>
      <trkpt lat="45.03483" lon="3.90116">
        <ele>776</ele>
        <time>2018-03-30T10:00:01Z</time>
      </trkpt>
      <trkpt lat="45.03367" lon="3.90157">
        <ele>780</ele>
        <time>2018-03-30T10:01:01Z</time>
      </trkpt>
      <trkpt lat="45.03307" lon="3.90205">
        <ele>775</ele>
        <time>2018-03-30T10:02:01Z</time>
      </trkpt>
      <trkpt lat="45.03277" lon="3.90186">
        <ele>773</ele>
        <time>2018-03-30T10:03:01Z</time>
      </trkpt>
      <trkpt lat="45.03264" lon="3.90175">
        <ele>773</ele>
        <time>2018-03-30T10:04:01Z</time>
      </trkpt>
      <trkpt lat="45.03247" lon="3.90178">
        <ele>769</ele>
        <time>2018-03-30T10:05:01Z</time>
      </trkpt>
      <trkpt lat="45.03233" lon="3.90186">
        <ele>767</ele>
        <time>2018-03-30T10:06:01Z</time>
      </trkpt>
      <trkpt lat="45.03219" lon="3.90212">
        <ele>765</ele>
        <time>2018-03-30T10:07:01Z</time>
      </trkpt>
      <trkpt lat="45.03217" lon="3.90242">
        <ele>764</ele>
        <time>2018-03-30T10:08:01Z</time>
      </trkpt>
      <trkpt lat="45.03209" lon="3.90257">
        <ele>759</ele>
        <time>2018-03-30T10:09:01Z</time>
      </trkpt>
      <trkpt lat="45.03165" lon="3.90266">
        <ele>755</ele>
        <time>2018-03-30T10:10:01Z</time>
      </trkpt>
      <trkpt lat="45.03153" lon="3.90282">
        <ele>754</ele>
        <time>2018-03-30T10:11:01Z</time>
      </trkpt>
      <trkpt lat="45.03152" lon="3.90308">
        <ele>753</ele>
        <time>2018-03-30T10:12:01Z</time>
      </trkpt>
      <trkpt lat="45.03173" lon="3.90468">
        <ele>748</ele>
        <time>2018-03-30T10:13:01Z</time>
      </trkpt>
      <trkpt lat="45.03171" lon="3.90542">
        <ele>748</ele>
        <time>2018-03-30T10:14:01Z</time>
      </trkpt>
      <trkpt lat="45.03114" lon="3.90609">
        <ele>751</ele>
        <time>2018-03-30T10:15:01Z</time>
      </trkpt>
      <trkpt lat="45.03115" lon="3.90699">
        <ele>756</ele>
        <time>2018-03-30T10:16:01Z</time>
      </trkpt>
      <trkpt lat="45.0307" lon="3.90737">
        <ele>756</ele>
        <time>2018-03-30T10:17:01Z</time>
      </trkpt>
      <trkpt lat="45.03032" lon="3.90747">
        <ele>757</ele>
        <time>2018-03-30T10:18:01Z</time>
      </trkpt>
      <trkpt lat="45.03004" lon="3.90769">
        <ele>761</ele>
        <time>2018-03-30T10:19:01Z</time>
      </trkpt>
      <trkpt lat="45.02984" lon="3.90802">
        <ele>767</ele>
        <time>2018-03-30T10:20:01Z</time>
      </trkpt>
      <trkpt lat="45.02965" lon="3.90826">
        <ele>768</ele>
        <time>2018-03-30T10:21:01Z</time>
      </trkpt>
      <trkpt lat="45.02938" lon="3.90877">
        <ele>777</ele>
        <time>2018-03-30T10:22:01Z</time>
      </trkpt>
      <trkpt lat="45.02909" lon="3.90903">
        <ele>786</ele>
        <time>2018-03-30T10:23:01Z</time>
      </trkpt>
      <trkpt lat="45.02884" lon="3.90913">
        <ele>788</ele>
        <time>2018-03-30T10:24:01Z</time>
      </trkpt>
      <trkpt lat="45.0285" lon="3.90942">
        <ele>797</ele>
        <time>2018-03-30T10:25:01Z</time>
      </trkpt>
      <trkpt lat="45.02807" lon="3.90967">
        <ele>803</ele>
        <time>2018-03-30T10:26:01Z</time>
      </trkpt>
      <trkpt lat="45.02742" lon="3.90991">
        <ele>810</ele>
        <time>2018-03-30T10:27:01Z</time>
      </trkpt>
      <trkpt lat="45.02723" lon="3.91013">
        <ele>814</ele>
        <time>2018-03-30T10:28:01Z</time>
      </trkpt>
      <trkpt lat="45.02703" lon="3.91016">
        <ele>815</ele>
        <time>2018-03-30T10:29:01Z</time>
      </trkpt>
      <trkpt lat="45.02671" lon="3.91013">
        <ele>815</ele>
        <time>2018-03-30T10:30:01Z</time>
      </trkpt>
      <trkpt lat="45.02617" lon="3.91014">
        <ele>819</ele>
        <time>2018-03-30T10:31:01Z</time>
      </trkpt>
      <trkpt lat="45.02565" lon="3.91026">
        <ele>822</ele>
        <time>2018-03-30T10:32:01Z</time>
      </trkpt>
      <trkpt lat="45.02516" lon="3.91048">
        <ele>824</ele>
        <time>2018-03-30T10:33:01Z</time>
      </trkpt>
      <trkpt lat="45.02504" lon="3.91059">
        <ele>824</ele>
        <time>2018-03-30T10:34:01Z</time>
      </trkpt>
      <trkpt lat="45.02443" lon="3.91051">
        <ele>827</ele>
        <time>2018-03-30T10:35:01Z</time>
      </trkpt>
      <trkpt lat="45.02391" lon="3.91066">
        <ele>830</ele>
        <time>2018-03-30T10:36:01Z</time>
      </trkpt>
      <trkpt lat="45.02362" lon="3.91091">
        <ele>831</ele>
        <time>2018-03-30T10:37:01Z</time>
      </trkpt>
      <trkpt lat="45.02343" lon="3.91098">
        <ele>831</ele>
        <time>2018-03-30T10:38:01Z</time>
      </trkpt>
      <trkpt lat="45.023" lon="3.9113">
        <ele>832</ele>
        <time>2018-03-30T10:39:01Z</time>
      </trkpt>
      <trkpt lat="45.02259" lon="3.91148">
        <ele>832</ele>
        <time>2018-03-30T10:40:01Z</time>
      </trkpt>
      <trkpt lat="45.02184" lon="3.91204">
        <ele>830</ele>
        <time>2018-03-30T10:41:01Z</time>
      </trkpt>
      <trkpt lat="45.02094" lon="3.91332">
        <ele>825</ele>
        <time>2018-03-30T10:42:01Z</time>
      </trkpt>
      <trkpt lat="45.02031" lon="3.91333">
        <ele>820</ele>
        <time>2018-03-30T10:43:01Z</time>
      </trkpt>
      <trkpt lat="45.01988" lon="3.9135">
        <ele>813</ele>
        <time>2018-03-30T10:44:01Z</time>
      </trkpt>
      <trkpt lat="45.01883" lon="3.91387">
        <ele>803</ele>
        <time>2018-03-30T10:45:01Z</time>
      </trkpt>
      <trkpt lat="45.01808" lon="3.91399">
        <ele>798</ele>
        <time>2018-03-30T10:46:01Z</time>
      </trkpt>
      <trkpt lat="45.01768" lon="3.9141">
        <ele>797</ele>
        <time>2018-03-30T10:47:01Z</time>
      </trkpt>
      <trkpt lat="45.01728" lon="3.91414">
        <ele>795</ele>
        <time>2018-03-30T10:48:01Z</time>
      </trkpt>
      <trkpt lat="45.017" lon="3.91429">
        <ele>794</ele>
        <time>2018-03-30T10:49:01Z</time>
      </trkpt>
      <trkpt lat="45.01665" lon="3.91462">
        <ele>792</ele>
        <time>2018-03-30T10:50:01Z</time>
      </trkpt>
      <trkpt lat="45.01624" lon="3.91484">
        <ele>791</ele>
        <time>2018-03-30T10:51:01Z</time>
      </trkpt>
      <trkpt lat="45.01595" lon="3.91486">
        <ele>791</ele>
        <time>2018-03-30T10:52:01Z</time>
      </trkpt>
      <trkpt lat="45.01589" lon="3.91458">
        <ele>791</ele>
        <time>2018-03-30T10:53:01Z</time>
      </trkpt>
      <trkpt lat="45.01565" lon="3.91389">
        <ele>787</ele>
        <time>2018-03-30T10:54:01Z</time>
      </trkpt>
      <trkpt lat="45.01553" lon="3.91365">
        <ele>787</ele>
        <time>2018-03-30T10:55:01Z</time>
      </trkpt>
      <trkpt lat="45.01536" lon="3.91361">
        <ele>787</ele>
        <time>2018-03-30T10:56:01Z</time>
      </trkpt>
      <trkpt lat="45.01505" lon="3.91382">
        <ele>787</ele>
        <time>2018-03-30T10:57:01Z</time>
      </trkpt>
      <trkpt lat="45.01463" lon="3.91374">
        <ele>785</ele>
        <time>2018-03-30T10:58:01Z</time>
      </trkpt>
      <trkpt lat="45.0142" lon="3.91343">
        <ele>784</ele>
        <time>2018-03-30T10:59:01Z</time>
      </trkpt>
      <trkpt lat="45.01409" lon="3.9135">
        <ele>784</ele>
        <time>2018-03-30T11:00:01Z</time>
      </trkpt>
      <trkpt lat="45.01395" lon="3.91379">
        <ele>784</ele>
        <time>2018-03-30T11:01:01Z</time>
      </trkpt>
      <trkpt lat="45.01365" lon="3.91387">
        <ele>784</ele>
        <time>2018-03-30T11:02:01Z</time>
      </trkpt>
      <trkpt lat="45.01343" lon="3.91408">
        <ele>783</ele>
        <time>2018-03-30T11:03:01Z</time>
      </trkpt>
      <trkpt lat="45.01332" lon="3.91362">
        <ele>784</ele>
        <time>2018-03-30T11:04:01Z</time>
      </trkpt>
      <trkpt lat="45.01306" lon="3.91283">
        <ele>786</ele>
        <time>2018-03-30T11:05:01Z</time>
      </trkpt>
      <trkpt lat="45.013" lon="3.91234">
        <ele>787</ele>
        <time>2018-03-30T11:06:01Z</time>
      </trkpt>
      <trkpt lat="45.01343" lon="3.91008">
        <ele>791</ele>
        <time>2018-03-30T11:07:01Z</time>
      </trkpt>
      <trkpt lat="45.01341" lon="3.90938">
        <ele>795</ele>
        <time>2018-03-30T11:08:01Z</time>
      </trkpt>
      <trkpt lat="45.0135" lon="3.90898">
        <ele>799</ele>
        <time>2018-03-30T11:09:01Z</time>
      </trkpt>
      <trkpt lat="45.01349" lon="3.90881">
        <ele>801</ele>
        <time>2018-03-30T11:10:01Z</time>
      </trkpt>
      <trkpt lat="45.01336" lon="3.90866">
        <ele>801</ele>
        <time>2018-03-30T11:11:01Z</time>
      </trkpt>
      <trkpt lat="45.01282" lon="3.90757">
        <ele>805</ele>
        <time>2018-03-30T11:12:01Z</time>
      </trkpt>
      <trkpt lat="45.01249" lon="3.90705">
        <ele>807</ele>
        <time>2018-03-30T11:13:01Z</time>
      </trkpt>
      <trkpt lat="45.01242" lon="3.9067">
        <ele>808</ele>
        <time>2018-03-30T11:14:01Z</time>
      </trkpt>
      <trkpt lat="45.01228" lon="3.90678">
        <ele>807</ele>
        <time>2018-03-30T11:15:01Z</time>
      </trkpt>
      <trkpt lat="45.01138" lon="3.90785">
        <ele>807</ele>
        <time>2018-03-30T11:16:01Z</time>
      </trkpt>
      <trkpt lat="45.01087" lon="3.90907">
        <ele>802</ele>
        <time>2018-03-30T11:17:01Z</time>
      </trkpt>
      <trkpt lat="45.01048" lon="3.91014">
        <ele>798</ele>
        <time>2018-03-30T11:18:01Z</time>
      </trkpt>
      <trkpt lat="45.01005" lon="3.91091">
        <ele>792</ele>
        <time>2018-03-30T11:19:01Z</time>
      </trkpt>
      <trkpt lat="45.00986" lon="3.91108">
        <ele>786</ele>
        <time>2018-03-30T11:20:01Z</time>
      </trkpt>
      <trkpt lat="45.00967" lon="3.91106">
        <ele>784</ele>
        <time>2018-03-30T11:21:01Z</time>
      </trkpt>
      <trkpt lat="45.00906" lon="3.91074">
        <ele>790</ele>
        <time>2018-03-30T11:22:01Z</time>
      </trkpt>
      <trkpt lat="45.00861" lon="3.91062">
        <ele>790</ele>
        <time>2018-03-30T11:23:01Z</time>
      </trkpt>
      <trkpt lat="45.0077" lon="3.91062">
        <ele>774</ele>
        <time>2018-03-30T11:24:01Z</time>
      </trkpt>
      <trkpt lat="45.00726" lon="3.91075">
        <ele>763</ele>
        <time>2018-03-30T11:25:01Z</time>
      </trkpt>
      <trkpt lat="45.0061" lon="3.9119">
        <ele>742</ele>
        <time>2018-03-30T11:26:01Z</time>
      </trkpt>
      <trkpt lat="45.0061" lon="3.91221">
        <ele>740</ele>
        <time>2018-03-30T11:27:01Z</time>
      </trkpt>
      <trkpt lat="45.00599" lon="3.91234">
        <ele>738</ele>
        <time>2018-03-30T11:28:01Z</time>
      </trkpt>
      <trkpt lat="45.00573" lon="3.91239">
        <ele>735</ele>
        <time>2018-03-30T11:29:01Z</time>
      </trkpt>
      <trkpt lat="45.00553" lon="3.91236">
        <ele>734</ele>
        <time>2018-03-30T11:30:01Z</time>
      </trkpt>
      <trkpt lat="45.00506" lon="3.91266">
        <ele>727</ele>
        <time>2018-03-30T11:31:01Z</time>
      </trkpt>
      <trkpt lat="45.0047" lon="3.91307">
        <ele>721</ele>
        <time>2018-03-30T11:32:01Z</time>
      </trkpt>
      <trkpt lat="45.00457" lon="3.91302">
        <ele>721</ele>
        <time>2018-03-30T11:33:01Z</time>
      </trkpt>
      <trkpt lat="45.00437" lon="3.91269">
        <ele>721</ele>
        <time>2018-03-30T11:34:01Z</time>
      </trkpt>
      <trkpt lat="45.00412" lon="3.91297">
        <ele>715</ele>
        <time>2018-03-30T11:35:01Z</time>
      </trkpt>
      <trkpt lat="45.00384" lon="3.9131">
        <ele>714</ele>
        <time>2018-03-30T11:36:01Z</time>
      </trkpt>
      <trkpt lat="45.00365" lon="3.91301">
        <ele>712</ele>
        <time>2018-03-30T11:37:01Z</time>
      </trkpt>
      <trkpt lat="45.00347" lon="3.91304">
        <ele>711</ele>
        <time>2018-03-30T11:38:01Z</time>
      </trkpt>
      <trkpt lat="45.0032" lon="3.91296">
        <ele>705</ele>
        <time>2018-03-30T11:39:01Z</time>
      </trkpt>
      <trkpt lat="45.00307" lon="3.91305">
        <ele>704</ele>
        <time>2018-03-30T11:40:01Z</time>
      </trkpt>
      <trkpt lat="45.00307" lon="3.91337">
        <ele>701</ele>
        <time>2018-03-30T11:41:01Z</time>
      </trkpt>
      <trkpt lat="45.00314" lon="3.91417">
        <ele>696</ele>
        <time>2018-03-30T11:42:01Z</time>
      </trkpt>
      <trkpt lat="45.003" lon="3.91437">
        <ele>693</ele>
        <time>2018-03-30T11:43:01Z</time>
      </trkpt>
      <trkpt lat="45.00215" lon="3.915">
        <ele>683</ele>
        <time>2018-03-30T11:44:01Z</time>
      </trkpt>
      <trkpt lat="45.00149" lon="3.9154">
        <ele>676</ele>
        <time>2018-03-30T11:45:01Z</time>
      </trkpt>
      <trkpt lat="45.00075" lon="3.91578">
        <ele>669</ele>
        <time>2018-03-30T11:46:01Z</time>
      </trkpt>
      <trkpt lat="45.00078" lon="3.9159">
        <ele>667</ele>
        <time>2018-03-30T11:47:01Z</time>
      </trkpt>
      <trkpt lat="45.001" lon="3.91616">
        <ele>668</ele>
        <time>2018-03-30T11:48:01Z</time>
      </trkpt>
      <trkpt lat="45.00108" lon="3.91633">
        <ele>667</ele>
        <time>2018-03-30T11:49:01Z</time>
      </trkpt>
      <trkpt lat="45.00101" lon="3.91701">
        <ele>662</ele>
        <time>2018-03-30T11:50:01Z</time>
      </trkpt>
      <trkpt lat="44.99969" lon="3.91705">
        <ele>645</ele>
        <time>2018-03-30T11:51:01Z</time>
      </trkpt>
      <trkpt lat="44.99942" lon="3.91699">
        <ele>643</ele>
        <time>2018-03-30T11:52:01Z</time>
      </trkpt>
      <trkpt lat="44.99919" lon="3.91713">
        <ele>642</ele>
        <time>2018-03-30T11:53:01Z</time>
      </trkpt>
      <trkpt lat="44.99886" lon="3.91748">
        <ele>633</ele>
        <time>2018-03-30T11:54:01Z</time>
      </trkpt>
      <trkpt lat="44.99874" lon="3.91698">
        <ele>632</ele>
        <time>2018-03-30T11:55:01Z</time>
      </trkpt>
      <trkpt lat="44.99748" lon="3.91736">
        <ele>630</ele>
        <time>2018-03-30T11:56:01Z</time>
      </trkpt>
      <trkpt lat="44.99716" lon="3.91802">
        <ele>632</ele>
        <time>2018-03-30T11:57:01Z</time>
      </trkpt>
      <trkpt lat="44.99683" lon="3.91831">
        <ele>632</ele>
        <time>2018-03-30T11:58:01Z</time>
      </trkpt>
      <trkpt lat="44.99636" lon="3.91842">
        <ele>634</ele>
        <time>2018-03-30T11:59:01Z</time>
      </trkpt>
      <trkpt lat="44.99571" lon="3.91821">
        <ele>637</ele>
        <time>2018-03-30T12:00:01Z</time>
      </trkpt>
      <trkpt lat="44.99491" lon="3.91778">
        <ele>647</ele>
        <time>2018-03-30T12:01:01Z</time>
      </trkpt>
      <trkpt lat="44.99472" lon="3.91777">
        <ele>648</ele>
        <time>2018-03-30T12:02:01Z</time>
      </trkpt>
      <trkpt lat="44.99462" lon="3.91787">
        <ele>649</ele>
        <time>2018-03-30T12:03:01Z</time>
      </trkpt>
      <trkpt lat="44.99437" lon="3.91823">
        <ele>650</ele>
        <time>2018-03-30T12:04:01Z</time>
      </trkpt>
      <trkpt lat="44.99365" lon="3.91899">
        <ele>663</ele>
        <time>2018-03-30T12:05:01Z</time>
      </trkpt>
      <trkpt lat="44.9932" lon="3.91997">
        <ele>674</ele>
        <time>2018-03-30T12:06:01Z</time>
      </trkpt>
      <trkpt lat="44.99273" lon="3.92073">
        <ele>678</ele>
        <time>2018-03-30T12:07:01Z</time>
      </trkpt>
      <trkpt lat="44.99179" lon="3.92053">
        <ele>686</ele>
        <time>2018-03-30T12:08:01Z</time>
      </trkpt>
      <trkpt lat="44.9916" lon="3.92031">
        <ele>694</ele>
        <time>2018-03-30T12:09:01Z</time>
      </trkpt>
      <trkpt lat="44.99132" lon="3.91954">
        <ele>701</ele>
        <time>2018-03-30T12:10:01Z</time>
      </trkpt>
      <trkpt lat="44.99066" lon="3.91871">
        <ele>716</ele>
        <time>2018-03-30T12:11:01Z</time>
      </trkpt>
      <trkpt lat="44.99058" lon="3.91831">
        <ele>721</ele>
        <time>2018-03-30T12:12:01Z</time>
      </trkpt>
      <trkpt lat="44.99076" lon="3.91697">
        <ele>734</ele>
        <time>2018-03-30T12:13:01Z</time>
      </trkpt>
      <trkpt lat="44.99028" lon="3.91671">
        <ele>737</ele>
        <time>2018-03-30T12:14:01Z</time>
      </trkpt>
      <trkpt lat="44.99029" lon="3.91657">
        <ele>743</ele>
        <time>2018-03-30T12:15:01Z</time>
      </trkpt>
      <trkpt lat="44.99093" lon="3.91575">
        <ele>743</ele>
        <time>2018-03-30T12:16:01Z</time>
      </trkpt>
      <trkpt lat="44.99091" lon="3.91561">
        <ele>742</ele>
        <time>2018-03-30T12:17:01Z</time>
      </trkpt>
      <trkpt lat="44.99" lon="3.91535">
        <ele>755</ele>
        <time>2018-03-30T12:18:01Z</time>
      </trkpt>
      <trkpt lat="44.98969" lon="3.91505">
        <ele>767</ele>
        <time>2018-03-30T12:19:01Z</time>
      </trkpt>
      <trkpt lat="44.98932" lon="3.91429">
        <ele>773</ele>
        <time>2018-03-30T12:20:01Z</time>
      </trkpt>
      <trkpt lat="44.98908" lon="3.91392">
        <ele>777</ele>
        <time>2018-03-30T12:21:01Z</time>
      </trkpt>
      <trkpt lat="44.98872" lon="3.91354">
        <ele>776</ele>
        <time>2018-03-30T12:22:01Z</time>
      </trkpt>
      <trkpt lat="44.98839" lon="3.91344">
        <ele>777</ele>
        <time>2018-03-30T12:23:01Z</time>
      </trkpt>
      <trkpt lat="44.98803" lon="3.91343">
        <ele>784</ele>
        <time>2018-03-30T12:24:01Z</time>
      </trkpt>
      <trkpt lat="44.98702" lon="3.9138">
        <ele>791</ele>
        <time>2018-03-30T12:25:01Z</time>
      </trkpt>
      <trkpt lat="44.98657" lon="3.91378">
        <ele>796</ele>
        <time>2018-03-30T12:26:01Z</time>
      </trkpt>
      <trkpt lat="44.98607" lon="3.91384">
        <ele>799</ele>
        <time>2018-03-30T12:27:01Z</time>
      </trkpt>
      <trkpt lat="44.98528" lon="3.91442">
        <ele>809</ele>
        <time>2018-03-30T12:28:01Z</time>
      </trkpt>
      <trkpt lat="44.9851" lon="3.91446">
        <ele>809</ele>
        <time>2018-03-30T12:29:01Z</time>
      </trkpt>
      <trkpt lat="44.98497" lon="3.91462">
        <ele>811</ele>
        <time>2018-03-30T12:30:01Z</time>
      </trkpt>
      <trkpt lat="44.98481" lon="3.91487">
        <ele>811</ele>
        <time>2018-03-30T12:31:01Z</time>
      </trkpt>
      <trkpt lat="44.98448" lon="3.91524">
        <ele>812</ele>
        <time>2018-03-30T12:32:01Z</time>
      </trkpt>
      <trkpt lat="44.98432" lon="3.91539">
        <ele>813</ele>
        <time>2018-03-30T12:33:01Z</time>
      </trkpt>
      <trkpt lat="44.98417" lon="3.91539">
        <ele>813</ele>
        <time>2018-03-30T12:34:01Z</time>
      </trkpt>
      <trkpt lat="44.98394" lon="3.91529">
        <ele>815</ele>
        <time>2018-03-30T12:35:01Z</time>
      </trkpt>
      <trkpt lat="44.98363" lon="3.9158">
        <ele>816</ele>
        <time>2018-03-30T12:36:01Z</time>
      </trkpt>
      <trkpt lat="44.98268" lon="3.91695">
        <ele>824</ele>
        <time>2018-03-30T12:37:01Z</time>
      </trkpt>
      <trkpt lat="44.98243" lon="3.91699">
        <ele>830</ele>
        <time>2018-03-30T12:38:01Z</time>
      </trkpt>
      <trkpt lat="44.98212" lon="3.91684">
        <ele>831</ele>
        <time>2018-03-30T12:39:01Z</time>
      </trkpt>
      <trkpt lat="44.98178" lon="3.91687">
        <ele>833</ele>
        <time>2018-03-30T12:40:01Z</time>
      </trkpt>
      <trkpt lat="44.98157" lon="3.91714">
        <ele>839</ele>
        <time>2018-03-30T12:41:01Z</time>
      </trkpt>
      <trkpt lat="44.98141" lon="3.91774">
        <ele>840</ele>
        <time>2018-03-30T12:42:01Z</time>
      </trkpt>
      <trkpt lat="44.98146" lon="3.91839">
        <ele>841</ele>
        <time>2018-03-30T12:43:01Z</time>
      </trkpt>
      <trkpt lat="44.98136" lon="3.91863">
        <ele>842</ele>
        <time>2018-03-30T12:44:01Z</time>
      </trkpt>
      <trkpt lat="44.97993" lon="3.92095">
        <ele>855</ele>
        <time>2018-03-30T12:45:01Z</time>
      </trkpt>
      <trkpt lat="44.97946" lon="3.92162">
        <ele>858</ele>
        <time>2018-03-30T12:46:01Z</time>
      </trkpt>
      <trkpt lat="44.97886" lon="3.92291">
        <ele>870</ele>
        <time>2018-03-30T12:47:01Z</time>
      </trkpt>
      <trkpt lat="44.97764" lon="3.92503">
        <ele>882</ele>
        <time>2018-03-30T12:48:01Z</time>
      </trkpt>
      <trkpt lat="44.97707" lon="3.92557">
        <ele>886</ele>
        <time>2018-03-30T12:49:01Z</time>
      </trkpt>
      <trkpt lat="44.97655" lon="3.92635">
        <ele>890</ele>
        <time>2018-03-30T12:50:01Z</time>
      </trkpt>
      <trkpt lat="44.97605" lon="3.92722">
        <ele>887</ele>
        <time>2018-03-30T12:51:01Z</time>
      </trkpt>
      <trkpt lat="44.97569" lon="3.92752">
        <ele>884</ele>
        <time>2018-03-30T12:52:01Z</time>
      </trkpt>
      <trkpt lat="44.97502" lon="3.92789">
        <ele>882</ele>
        <time>2018-03-30T12:53:01Z</time>
      </trkpt>
      <trkpt lat="44.97451" lon="3.92801">
        <ele>881</ele>
        <time>2018-03-30T12:54:01Z</time>
      </trkpt>
      <trkpt lat="44.97403" lon="3.92833">
        <ele>880</ele>
        <time>2018-03-30T12:55:01Z</time>
      </trkpt>
      <trkpt lat="44.97348" lon="3.92913">
        <ele>878</ele>
        <time>2018-03-30T12:56:01Z</time>
      </trkpt>
      <trkpt lat="44.97348" lon="3.92913">
        <ele>878</ele>
        <time>2018-03-30T12:57:01Z</time>
      </trkpt>
      <trkpt lat="44.97322" lon="3.92977">
        <ele>877</ele>
        <time>2018-03-30T12:58:01Z</time>
      </trkpt>
      <trkpt lat="44.97305" lon="3.93004">
        <ele>876</ele>
        <time>2018-03-30T12:59:01Z</time>
      </trkpt>
      <trkpt lat="44.97145" lon="3.93431">
        <ele>883</ele>
        <time>2018-03-30T13:00:01Z</time>
      </trkpt>
      <trkpt lat="44.9711" lon="3.93489">
        <ele>882</ele>
        <time>2018-03-30T13:01:01Z</time>
      </trkpt>
      <trkpt lat="44.97069" lon="3.93547">
        <ele>882</ele>
        <time>2018-03-30T13:02:01Z</time>
      </trkpt>
      <trkpt lat="44.97059" lon="3.93579">
        <ele>884</ele>
        <time>2018-03-30T13:03:01Z</time>
      </trkpt>
      <trkpt lat="44.96964" lon="3.93753">
        <ele>890</ele>
        <time>2018-03-30T13:04:01Z</time>
      </trkpt>
      <trkpt lat="44.96919" lon="3.93864">
        <ele>891</ele>
        <time>2018-03-30T13:05:01Z</time>
      </trkpt>
      <trkpt lat="44.96885" lon="3.93925">
        <ele>888</ele>
        <time>2018-03-30T13:06:01Z</time>
      </trkpt>
      <trkpt lat="44.96817" lon="3.94012">
        <ele>891</ele>
        <time>2018-03-30T13:07:01Z</time>
      </trkpt>
      <trkpt lat="44.96722" lon="3.94102">
        <ele>891</ele>
        <time>2018-03-30T13:08:01Z</time>
      </trkpt>
      <trkpt lat="44.96683" lon="3.94133">
        <ele>890</ele>
        <time>2018-03-30T13:09:01Z</time>
      </trkpt>
      <trkpt lat="44.96614" lon="3.9422">
        <ele>889</ele>
        <time>2018-03-30T13:10:01Z</time>
      </trkpt>
      <trkpt lat="44.96565" lon="3.94266">
        <ele>890</ele>
        <time>2018-03-30T13:11:01Z</time>
      </trkpt>
      <trkpt lat="44.96493" lon="3.94369">
        <ele>891</ele>
        <time>2018-03-30T13:12:01Z</time>
      </trkpt>
      <trkpt lat="44.96437" lon="3.94469">
        <ele>888</ele>
        <time>2018-03-30T13:13:01Z</time>
      </trkpt>
      <trkpt lat="44.96398" lon="3.94545">
        <ele>887</ele>
        <time>2018-03-30T13:14:01Z</time>
      </trkpt>
      <trkpt lat="44.96357" lon="3.94605">
        <ele>889</ele>
        <time>2018-03-30T13:15:01Z</time>
      </trkpt>
      <trkpt lat="44.96246" lon="3.94747">
        <ele>890</ele>
        <time>2018-03-30T13:16:01Z</time>
      </trkpt>
      <trkpt lat="44.962" lon="3.94827">
        <ele>892</ele>
        <time>2018-03-30T13:17:01Z</time>
      </trkpt>
      <trkpt lat="44.96189" lon="3.94872">
        <ele>896</ele>
        <time>2018-03-30T13:18:01Z</time>
      </trkpt>
      <trkpt lat="44.96191" lon="3.94947">
        <ele>902</ele>
        <time>2018-03-30T13:19:01Z</time>
      </trkpt>
      <trkpt lat="44.96207" lon="3.95062">
        <ele>909</ele>
        <time>2018-03-30T13:20:01Z</time>
      </trkpt>
      <trkpt lat="44.96234" lon="3.95571">
        <ele>912</ele>
        <time>2018-03-30T13:21:01Z</time>
      </trkpt>
      <trkpt lat="44.96249" lon="3.95722">
        <ele>917</ele>
        <time>2018-03-30T13:22:01Z</time>
      </trkpt>
      <trkpt lat="44.96258" lon="3.95866">
        <ele>895</ele>
        <time>2018-03-30T13:23:01Z</time>
      </trkpt>
      <trkpt lat="44.96227" lon="3.95933">
        <ele>896</ele>
        <time>2018-03-30T13:24:01Z</time>
      </trkpt>
      <trkpt lat="44.96182" lon="3.96004">
        <ele>893</ele>
        <time>2018-03-30T13:25:01Z</time>
      </trkpt>
      <trkpt lat="44.96132" lon="3.96146">
        <ele>889</ele>
        <time>2018-03-30T13:26:01Z</time>
      </trkpt>
      <trkpt lat="44.96119" lon="3.96144">
        <ele>890</ele>
        <time>2018-03-30T13:27:01Z</time>
      </trkpt>
      <trkpt lat="44.9609" lon="3.96181">
        <ele>885</ele>
        <time>2018-03-30T13:28:01Z</time>
      </trkpt>
      <trkpt lat="44.9605" lon="3.96182">
        <ele>892</ele>
        <time>2018-03-30T13:29:01Z</time>
      </trkpt>
      <trkpt lat="44.96022" lon="3.96195">
        <ele>895</ele>
        <time>2018-03-30T13:30:01Z</time>
      </trkpt>
      <trkpt lat="44.96006" lon="3.96222">
        <ele>893</ele>
        <time>2018-03-30T13:31:01Z</time>
      </trkpt>
      <trkpt lat="44.95984" lon="3.96285">
        <ele>895</ele>
        <time>2018-03-30T13:32:01Z</time>
      </trkpt>
      <trkpt lat="44.9593" lon="3.96334">
        <ele>896</ele>
        <time>2018-03-30T13:33:01Z</time>
      </trkpt>
      <trkpt lat="44.95907" lon="3.96388">
        <ele>905</ele>
        <time>2018-03-30T13:34:01Z</time>
      </trkpt>
      <trkpt lat="44.95889" lon="3.96469">
        <ele>899</ele>
        <time>2018-03-30T13:35:01Z</time>
      </trkpt>
      <trkpt lat="44.95827" lon="3.96586">
        <ele>895</ele>
        <time>2018-03-30T13:36:01Z</time>
      </trkpt>
      <trkpt lat="44.95743" lon="3.96659">
        <ele>896</ele>
        <time>2018-03-30T13:37:01Z</time>
      </trkpt>
      <trkpt lat="44.9571" lon="3.9669">
        <ele>895</ele>
        <time>2018-03-30T13:38:01Z</time>
      </trkpt>
      <trkpt lat="44.95672" lon="3.96744">
        <ele>895</ele>
        <time>2018-03-30T13:39:01Z</time>
      </trkpt>
      <trkpt lat="44.95564" lon="3.96917">
        <ele>895</ele>
        <time>2018-03-30T13:40:01Z</time>
      </trkpt>
      <trkpt lat="44.95552" lon="3.96949">
        <ele>896</ele>
        <time>2018-03-30T13:41:01Z</time>
      </trkpt>
      <trkpt lat="44.95543" lon="3.9701">
        <ele>893</ele>
        <time>2018-03-30T13:42:01Z</time>
      </trkpt>
      <trkpt lat="44.95535" lon="3.97034">
        <ele>893</ele>
        <time>2018-03-30T13:43:01Z</time>
      </trkpt>
      <trkpt lat="44.95544" lon="3.97116">
        <ele>891</ele>
        <time>2018-03-30T13:44:01Z</time>
      </trkpt>
      <trkpt lat="44.95525" lon="3.97223">
        <ele>890</ele>
        <time>2018-03-30T13:45:01Z</time>
      </trkpt>
      <trkpt lat="44.95507" lon="3.97267">
        <ele>892</ele>
        <time>2018-03-30T13:46:01Z</time>
      </trkpt>
      <trkpt lat="44.95493" lon="3.97374">
        <ele>901</ele>
        <time>2018-03-30T13:47:01Z</time>
      </trkpt>
      <trkpt lat="44.95496" lon="3.97427">
        <ele>900</ele>
        <time>2018-03-30T13:48:01Z</time>
      </trkpt>
      <trkpt lat="44.95487" lon="3.97577">
        <ele>904</ele>
        <time>2018-03-30T13:49:01Z</time>
      </trkpt>
      <trkpt lat="44.95489" lon="3.97603">
        <ele>906</ele>
        <time>2018-03-30T13:50:01Z</time>
      </trkpt>
      <trkpt lat="44.95475" lon="3.97689">
        <ele>911</ele>
        <time>2018-03-30T13:51:01Z</time>
      </trkpt>
      <trkpt lat="44.95472" lon="3.97786">
        <ele>916</ele>
        <time>2018-03-30T13:52:01Z</time>
      </trkpt>
      <trkpt lat="44.95501" lon="3.9788">
        <ele>910</ele>
        <time>2018-03-30T13:53:01Z</time>
      </trkpt>
      <trkpt lat="44.95503" lon="3.97912">
        <ele>914</ele>
        <time>2018-03-30T13:54:01Z</time>
      </trkpt>
      <trkpt lat="44.95478" lon="3.98097">
        <ele>916</ele>
        <time>2018-03-30T13:55:01Z</time>
      </trkpt>
      <trkpt lat="44.95462" lon="3.98132">
        <ele>917</ele>
        <time>2018-03-30T13:56:01Z</time>
      </trkpt>
      <trkpt lat="44.95452" lon="3.98167">
        <ele>915</ele>
        <time>2018-03-30T13:57:01Z</time>
      </trkpt>
      <trkpt lat="44.95371" lon="3.98291">
        <ele>924</ele>
        <time>2018-03-30T13:58:01Z</time>
      </trkpt>
      <trkpt lat="44.95274" lon="3.98404">
        <ele>929</ele>
        <time>2018-03-30T13:59:01Z</time>
      </trkpt>
      <trkpt lat="44.95143" lon="3.98506">
        <ele>926</ele>
        <time>2018-03-30T14:00:01Z</time>
      </trkpt>
      <trkpt lat="44.95093" lon="3.98519">
        <ele>928</ele>
        <time>2018-03-30T14:01:01Z</time>
      </trkpt>
      <trkpt lat="44.94973" lon="3.9852">
        <ele>933</ele>
        <time>2018-03-30T14:02:01Z</time>
      </trkpt>
      <trkpt lat="44.94936" lon="3.98538">
        <ele>932</ele>
        <time>2018-03-30T14:03:01Z</time>
      </trkpt>
      <trkpt lat="44.94748" lon="3.98751">
        <ele>931</ele>
        <time>2018-03-30T14:04:01Z</time>
      </trkpt>
      <trkpt lat="44.94712" lon="3.98829">
        <ele>931</ele>
        <time>2018-03-30T14:05:01Z</time>
      </trkpt>
      <trkpt lat="44.94702" lon="3.98865">
        <ele>931</ele>
        <time>2018-03-30T14:06:01Z</time>
      </trkpt>
      <trkpt lat="44.94689" lon="3.98874">
        <ele>931</ele>
        <time>2018-03-30T14:07:01Z</time>
      </trkpt>
      <trkpt lat="44.94669" lon="3.98917">
        <ele>931</ele>
        <time>2018-03-30T14:08:01Z</time>
      </trkpt>
      <trkpt lat="44.94644" lon="3.98946">
        <ele>932</ele>
        <time>2018-03-30T14:09:01Z</time>
      </trkpt>
      <trkpt lat="44.94487" lon="3.99055">
        <ele>935</ele>
        <time>2018-03-30T14:10:01Z</time>
      </trkpt>
      <trkpt lat="44.94403" lon="3.99102">
        <ele>935</ele>
        <time>2018-03-30T14:11:01Z</time>
      </trkpt>
      <trkpt lat="44.94352" lon="3.99158">
        <ele>934</ele>
        <time>2018-03-30T14:12:01Z</time>
      </trkpt>
      <trkpt lat="44.94302" lon="3.99223">
        <ele>933</ele>
        <time>2018-03-30T14:13:01Z</time>
      </trkpt>
      <trkpt lat="44.94146" lon="3.99321">
        <ele>931</ele>
        <time>2018-03-30T14:14:01Z</time>
      </trkpt>
      <trkpt lat="44.94099" lon="3.99329">
        <ele>931</ele>
        <time>2018-03-30T14:15:01Z</time>
      </trkpt>
      <trkpt lat="44.94068" lon="3.9935">
        <ele>933</ele>
        <time>2018-03-30T14:16:01Z</time>
      </trkpt>
      <trkpt lat="44.9401" lon="3.99403">
        <ele>933</ele>
        <time>2018-03-30T14:17:01Z</time>
      </trkpt>
      <trkpt lat="44.93994" lon="3.99407">
        <ele>931</ele>
        <time>2018-03-30T14:18:01Z</time>
      </trkpt>
      <trkpt lat="44.93999" lon="3.99425">
        <ele>935</ele>
        <time>2018-03-30T14:19:01Z</time>
      </trkpt>
      <trkpt lat="44.94016" lon="3.99464">
        <ele>941</ele>
        <time>2018-03-30T14:20:01Z</time>
      </trkpt>
      <trkpt lat="44.94003" lon="3.99475">
        <ele>942</ele>
        <time>2018-03-30T14:21:01Z</time>
      </trkpt>
      <trkpt lat="44.93987" lon="3.99441">
        <ele>936</ele>
        <time>2018-03-30T14:22:01Z</time>
      </trkpt>
      <trkpt lat="44.93976" lon="3.99439">
        <ele>936</ele>
        <time>2018-03-30T14:23:01Z</time>
      </trkpt>
      <trkpt lat="44.93958" lon="3.99447">
        <ele>936</ele>
        <time>2018-03-30T14:24:01Z</time>
      </trkpt>
      <trkpt lat="44.9394" lon="3.99456">
        <ele>936</ele>
        <time>2018-03-30T14:25:01Z</time>
      </trkpt>
      <trkpt lat="44.9393" lon="3.99435">
        <ele>934</ele>
        <time>2018-03-30T14:26:01Z</time>
      </trkpt>
      <trkpt lat="44.93899" lon="3.99485">
        <ele>935</ele>
        <time>2018-03-30T14:27:01Z</time>
      </trkpt>
      <trkpt lat="44.93887" lon="3.99527">
        <ele>942</ele>
        <time>2018-03-30T14:28:01Z</time>
      </trkpt>
      <trkpt lat="44.93833" lon="3.99548">
        <ele>943</ele>
        <time>2018-03-30T14:29:01Z</time>
      </trkpt>
      <trkpt lat="44.93768" lon="3.99553">
        <ele>943</ele>
        <time>2018-03-30T14:30:01Z</time>
      </trkpt>
      <trkpt lat="44.93738" lon="3.99569">
        <ele>942</ele>
        <time>2018-03-30T14:31:01Z</time>
      </trkpt>
      <trkpt lat="44.93681" lon="3.99578">
        <ele>940</ele>
        <time>2018-03-30T14:32:01Z</time>
      </trkpt>
      <trkpt lat="44.93632" lon="3.99611">
        <ele>941</ele>
        <time>2018-03-30T14:33:01Z</time>
      </trkpt>
      <trkpt lat="44.93568" lon="3.99635">
        <ele>936</ele>
        <time>2018-03-30T14:34:01Z</time>
      </trkpt>
      <trkpt lat="44.9354" lon="3.99639">
        <ele>935</ele>
        <time>2018-03-30T14:35:01Z</time>
      </trkpt>
      <trkpt lat="44.9353" lon="3.99614">
        <ele>933</ele>
        <time>2018-03-30T14:36:01Z</time>
      </trkpt>
      <trkpt lat="44.93525" lon="3.99573">
        <ele>924</ele>
        <time>2018-03-30T14:37:01Z</time>
      </trkpt>
      <trkpt lat="44.9353" lon="3.99545">
        <ele>923</ele>
        <time>2018-03-30T14:38:01Z</time>
      </trkpt>
      <trkpt lat="44.93566" lon="3.99476">
        <ele>913</ele>
        <time>2018-03-30T14:39:01Z</time>
      </trkpt>
      <trkpt lat="44.93598" lon="3.9938">
        <ele>901</ele>
        <time>2018-03-30T14:40:01Z</time>
      </trkpt>
      <trkpt lat="44.93607" lon="3.99338">
        <ele>897</ele>
        <time>2018-03-30T14:41:01Z</time>
      </trkpt>
      <trkpt lat="44.93621" lon="3.99304">
        <ele>890</ele>
        <time>2018-03-30T14:42:01Z</time>
      </trkpt>
      <trkpt lat="44.93633" lon="3.99246">
        <ele>883</ele>
        <time>2018-03-30T14:43:01Z</time>
      </trkpt>
      <trkpt lat="44.93638" lon="3.99178">
        <ele>881</ele>
        <time>2018-03-30T14:44:01Z</time>
      </trkpt>
      <trkpt lat="44.93636" lon="3.99115">
        <ele>876</ele>
        <time>2018-03-30T14:45:01Z</time>
      </trkpt>
      <trkpt lat="44.93648" lon="3.99015">
        <ele>868</ele>
        <time>2018-03-30T14:46:01Z</time>
      </trkpt>
      <trkpt lat="44.93662" lon="3.98951">
        <ele>861</ele>
        <time>2018-03-30T14:47:01Z</time>
      </trkpt>
      <trkpt lat="44.93685" lon="3.98903">
        <ele>856</ele>
        <time>2018-03-30T14:48:01Z</time>
      </trkpt>
      <trkpt lat="44.93691" lon="3.98803">
        <ele>848</ele>
        <time>2018-03-30T14:49:01Z</time>
      </trkpt>
      <trkpt lat="44.93718" lon="3.98742">
        <ele>841</ele>
        <time>2018-03-30T14:50:01Z</time>
      </trkpt>
      <trkpt lat="44.93721" lon="3.98725">
        <ele>840</ele>
        <time>2018-03-30T14:51:01Z</time>
      </trkpt>
      <trkpt lat="44.9372" lon="3.98707">
        <ele>839</ele>
        <time>2018-03-30T14:52:01Z</time>
      </trkpt>
      <trkpt lat="44.93692" lon="3.9858">
        <ele>828</ele>
        <time>2018-03-30T14:53:01Z</time>
      </trkpt>
      <trkpt lat="44.93659" lon="3.98448">
        <ele>820</ele>
        <time>2018-03-30T14:54:01Z</time>
      </trkpt>
      <trkpt lat="44.93625" lon="3.9841">
        <ele>818</ele>
        <time>2018-03-30T14:55:01Z</time>
      </trkpt>
      <trkpt lat="44.9356" lon="3.98364">
        <ele>818</ele>
        <time>2018-03-30T14:56:01Z</time>
      </trkpt>
      <trkpt lat="44.93523" lon="3.98365">
        <ele>818</ele>
        <time>2018-03-30T14:57:01Z</time>
      </trkpt>
      <trkpt lat="44.93504" lon="3.98357">
        <ele>819</ele>
        <time>2018-03-30T14:58:01Z</time>
      </trkpt>
      <trkpt lat="44.93469" lon="3.98322">
        <ele>825</ele>
        <time>2018-03-30T14:59:01Z</time>
      </trkpt>
      <trkpt lat="44.93446" lon="3.98322">
        <ele>828</ele>
        <time>2018-03-30T15:00:01Z</time>
      </trkpt>
      <trkpt lat="44.93411" lon="3.98305">
        <ele>836</ele>
        <time>2018-03-30T15:01:01Z</time>
      </trkpt>
      <trkpt lat="44.93405" lon="3.98294">
        <ele>837</ele>
        <time>2018-03-30T15:02:01Z</time>
      </trkpt>
      <trkpt lat="44.93427" lon="3.98236">
        <ele>835</ele>
        <time>2018-03-30T15:03:01Z</time>
      </trkpt>
      <trkpt lat="44.9342" lon="3.98194">
        <ele>838</ele>
        <time>2018-03-30T15:04:01Z</time>
      </trkpt>
      <trkpt lat="44.93422" lon="3.98167">
        <ele>843</ele>
        <time>2018-03-30T15:05:01Z</time>
      </trkpt>
      <trkpt lat="44.93414" lon="3.98141">
        <ele>851</ele>
        <time>2018-03-30T15:06:01Z</time>
      </trkpt>
      <trkpt lat="44.93408" lon="3.98097">
        <ele>853</ele>
        <time>2018-03-30T15:07:01Z</time>
      </trkpt>
      <trkpt lat="44.93397" lon="3.98065">
        <ele>858</ele>
        <time>2018-03-30T15:08:01Z</time>
      </trkpt>
      <trkpt lat="44.93385" lon="3.98039">
        <ele>860</ele>
        <time>2018-03-30T15:09:01Z</time>
      </trkpt>
      <trkpt lat="44.93374" lon="3.98012">
        <ele>861</ele>
        <time>2018-03-30T15:10:01Z</time>
      </trkpt>
      <trkpt lat="44.93365" lon="3.97942">
        <ele>865</ele>
        <time>2018-03-30T15:11:01Z</time>
      </trkpt>
      <trkpt lat="44.93353" lon="3.97894">
        <ele>868</ele>
        <time>2018-03-30T15:12:01Z</time>
      </trkpt>
      <trkpt lat="44.93351" lon="3.9787">
        <ele>868</ele>
        <time>2018-03-30T15:13:01Z</time>
      </trkpt>
      <trkpt lat="44.93353" lon="3.97846">
        <ele>869</ele>
        <time>2018-03-30T15:14:01Z</time>
      </trkpt>
      <trkpt lat="44.93373" lon="3.97813">
        <ele>866</ele>
        <time>2018-03-30T15:15:01Z</time>
      </trkpt>
      <trkpt lat="44.93374" lon="3.978">
        <ele>866</ele>
        <time>2018-03-30T15:16:01Z</time>
      </trkpt>
      <trkpt lat="44.93373" lon="3.97787">
        <ele>866</ele>
        <time>2018-03-30T15:17:01Z</time>
      </trkpt>
      <trkpt lat="44.93371" lon="3.97775">
        <ele>866</ele>
        <time>2018-03-30T15:18:01Z</time>
      </trkpt>
      <trkpt lat="44.93364" lon="3.9775">
        <ele>867</ele>
        <time>2018-03-30T15:19:01Z</time>
      </trkpt>
      <trkpt lat="44.93352" lon="3.97718">
        <ele>866</ele>
        <time>2018-03-30T15:20:01Z</time>
      </trkpt>
      <trkpt lat="44.93318" lon="3.97662">
        <ele>882</ele>
        <time>2018-03-30T15:21:01Z</time>
      </trkpt>
      <trkpt lat="44.93314" lon="3.97645">
        <ele>887</ele>
        <time>2018-03-30T15:22:01Z</time>
      </trkpt>
      <trkpt lat="44.93317" lon="3.97622">
        <ele>889</ele>
        <time>2018-03-30T15:23:01Z</time>
      </trkpt>
      <trkpt lat="44.9336" lon="3.97504">
        <ele>884</ele>
        <time>2018-03-30T15:24:01Z</time>
      </trkpt>
      <trkpt lat="44.93371" lon="3.9745">
        <ele>888</ele>
        <time>2018-03-30T15:25:01Z</time>
      </trkpt>
      <trkpt lat="44.93374" lon="3.9743">
        <ele>888</ele>
        <time>2018-03-30T15:26:01Z</time>
      </trkpt>
      <trkpt lat="44.93372" lon="3.97403">
        <ele>892</ele>
        <time>2018-03-30T15:27:01Z</time>
      </trkpt>
      <trkpt lat="44.93358" lon="3.97347">
        <ele>897</ele>
        <time>2018-03-30T15:28:01Z</time>
      </trkpt>
      <trkpt lat="44.93351" lon="3.97288">
        <ele>903</ele>
        <time>2018-03-30T15:29:01Z</time>
      </trkpt>
      <trkpt lat="44.93352" lon="3.97254">
        <ele>908</ele>
        <time>2018-03-30T15:30:01Z</time>
      </trkpt>
      <trkpt lat="44.93353" lon="3.9722">
        <ele>910</ele>
        <time>2018-03-30T15:31:01Z</time>
      </trkpt>
      <trkpt lat="44.93359" lon="3.97157">
        <ele>913</ele>
        <time>2018-03-30T15:32:01Z</time>
      </trkpt>
      <trkpt lat="44.93359" lon="3.97131">
        <ele>911</ele>
        <time>2018-03-30T15:33:01Z</time>
      </trkpt>
      <trkpt lat="44.93355" lon="3.9712">
        <ele>911</ele>
        <time>2018-03-30T15:34:01Z</time>
      </trkpt>
      <trkpt lat="44.93348" lon="3.97112">
        <ele>913</ele>
        <time>2018-03-30T15:35:01Z</time>
      </trkpt>
      <trkpt lat="44.93314" lon="3.97106">
        <ele>930</ele>
        <time>2018-03-30T15:36:01Z</time>
      </trkpt>
      <trkpt lat="44.93287" lon="3.97096">
        <ele>932</ele>
        <time>2018-03-30T15:37:01Z</time>
      </trkpt>
      <trkpt lat="44.93264" lon="3.97074">
        <ele>935</ele>
        <time>2018-03-30T15:38:01Z</time>
      </trkpt>
      <trkpt lat="44.93251" lon="3.97012">
        <ele>937</ele>
        <time>2018-03-30T15:39:01Z</time>
      </trkpt>
      <trkpt lat="44.93255" lon="3.96949">
        <ele>937</ele>
        <time>2018-03-30T15:40:01Z</time>
      </trkpt>
      <trkpt lat="44.93263" lon="3.96885">
        <ele>939</ele>
        <time>2018-03-30T15:41:01Z</time>
      </trkpt>
      <trkpt lat="44.93262" lon="3.96866">
        <ele>940</ele>
        <time>2018-03-30T15:42:01Z</time>
      </trkpt>
      <trkpt lat="44.93258" lon="3.9685">
        <ele>941</ele>
        <time>2018-03-30T15:43:01Z</time>
      </trkpt>
      <trkpt lat="44.93208" lon="3.96734">
        <ele>948</ele>
        <time>2018-03-30T15:44:01Z</time>
      </trkpt>
      <trkpt lat="44.93187" lon="3.96702">
        <ele>949</ele>
        <time>2018-03-30T15:45:01Z</time>
      </trkpt>
      <trkpt lat="44.93163" lon="3.96672">
        <ele>952</ele>
        <time>2018-03-30T15:46:01Z</time>
      </trkpt>
      <trkpt lat="44.93155" lon="3.96657">
        <ele>952</ele>
        <time>2018-03-30T15:47:01Z</time>
      </trkpt>
      <trkpt lat="44.93142" lon="3.96644">
        <ele>952</ele>
        <time>2018-03-30T15:48:01Z</time>
      </trkpt>
      <trkpt lat="44.93112" lon="3.96631">
        <ele>953</ele>
        <time>2018-03-30T15:49:01Z</time>
      </trkpt>
      <trkpt lat="44.93064" lon="3.96591">
        <ele>956</ele>
        <time>2018-03-30T15:50:01Z</time>
      </trkpt>
      <trkpt lat="44.93029" lon="3.96574">
        <ele>954</ele>
        <time>2018-03-30T15:51:01Z</time>
      </trkpt>
      <trkpt lat="44.93004" lon="3.96583">
        <ele>958</ele>
        <time>2018-03-30T15:52:01Z</time>
      </trkpt>
      <trkpt lat="44.92962" lon="3.96543">
        <ele>951</ele>
        <time>2018-03-30T15:53:01Z</time>
      </trkpt>
      <trkpt lat="44.92935" lon="3.96529">
        <ele>949</ele>
        <time>2018-03-30T15:54:01Z</time>
      </trkpt>
      <trkpt lat="44.92916" lon="3.96537">
        <ele>946</ele>
        <time>2018-03-30T15:55:01Z</time>
      </trkpt>
      <trkpt lat="44.92891" lon="3.96535">
        <ele>946</ele>
        <time>2018-03-30T15:56:01Z</time>
      </trkpt>
      <trkpt lat="44.92864" lon="3.96518">
        <ele>945</ele>
        <time>2018-03-30T15:57:01Z</time>
      </trkpt>
      <trkpt lat="44.92809" lon="3.96392">
        <ele>934</ele>
        <time>2018-03-30T15:58:01Z</time>
      </trkpt>
      <trkpt lat="44.92761" lon="3.96345">
        <ele>932</ele>
        <time>2018-03-30T15:59:01Z</time>
      </trkpt>
      <trkpt lat="44.92741" lon="3.96308">
        <ele>935</ele>
        <time>2018-03-30T16:00:01Z</time>
      </trkpt>
      <trkpt lat="44.92712" lon="3.96285">
        <ele>937</ele>
        <time>2018-03-30T16:01:01Z</time>
      </trkpt>
      <trkpt lat="44.9269" lon="3.96277">
        <ele>938</ele>
        <time>2018-03-30T16:02:01Z</time>
      </trkpt>
      <trkpt lat="44.92662" lon="3.9622">
        <ele>948</ele>
        <time>2018-03-30T16:03:01Z</time>
      </trkpt>
      <trkpt lat="44.92646" lon="3.9621">
        <ele>949</ele>
        <time>2018-03-30T16:04:01Z</time>
      </trkpt>
      <trkpt lat="44.92622" lon="3.96203">
        <ele>951</ele>
        <time>2018-03-30T16:05:01Z</time>
      </trkpt>
      <trkpt lat="44.92611" lon="3.96187">
        <ele>952</ele>
        <time>2018-03-30T16:06:01Z</time>
      </trkpt>
      <trkpt lat="44.92608" lon="3.96116">
        <ele>958</ele>
        <time>2018-03-30T16:07:01Z</time>
      </trkpt>
      <trkpt lat="44.92585" lon="3.96059">
        <ele>960</ele>
        <time>2018-03-30T16:08:01Z</time>
      </trkpt>
      <trkpt lat="44.92545" lon="3.95992">
        <ele>957</ele>
        <time>2018-03-30T16:09:01Z</time>
      </trkpt>
      <trkpt lat="44.92543" lon="3.95971">
        <ele>957</ele>
        <time>2018-03-30T16:10:01Z</time>
      </trkpt>
      <trkpt lat="44.92553" lon="3.95953">
        <ele>956</ele>
        <time>2018-03-30T16:11:01Z</time>
      </trkpt>
      <trkpt lat="44.92526" lon="3.95933">
        <ele>955</ele>
        <time>2018-03-30T16:12:01Z</time>
      </trkpt>
      <trkpt lat="44.92523" lon="3.95915">
        <ele>953</ele>
        <time>2018-03-30T16:13:01Z</time>
      </trkpt>
      <trkpt lat="44.92532" lon="3.95874">
        <ele>953</ele>
        <time>2018-03-30T16:14:01Z</time>
      </trkpt>
      <trkpt lat="44.92527" lon="3.95849">
        <ele>953</ele>
        <time>2018-03-30T16:15:01Z</time>
      </trkpt>
      <trkpt lat="44.92492" lon="3.95763">
        <ele>962</ele>
        <time>2018-03-30T16:16:01Z</time>
      </trkpt>
      <trkpt lat="44.92474" lon="3.95725">
        <ele>964</ele>
        <time>2018-03-30T16:17:01Z</time>
      </trkpt>
      <trkpt lat="44.92453" lon="3.95657">
        <ele>966</ele>
        <time>2018-03-30T16:18:01Z</time>
      </trkpt>
      <trkpt lat="44.92453" lon="3.95657">
        <ele>966</ele>
        <time>2018-03-30T16:19:01Z</time>
      </trkpt>
      <trkpt lat="44.92427" lon="3.95634">
        <ele>967</ele>
        <time>2018-03-30T16:20:01Z</time>
      </trkpt>
      <trkpt lat="44.92396" lon="3.95617">
        <ele>973</ele>
        <time>2018-03-30T16:21:01Z</time>
      </trkpt>
      <trkpt lat="44.9239" lon="3.95598">
        <ele>973</ele>
        <time>2018-03-30T16:22:01Z</time>
      </trkpt>
      <trkpt lat="44.92396" lon="3.95564">
        <ele>972</ele>
        <time>2018-03-30T16:23:01Z</time>
      </trkpt>
      <trkpt lat="44.92391" lon="3.95498">
        <ele>970</ele>
        <time>2018-03-30T16:24:01Z</time>
      </trkpt>
      <trkpt lat="44.92398" lon="3.95461">
        <ele>970</ele>
        <time>2018-03-30T16:25:01Z</time>
      </trkpt>
      <trkpt lat="44.9243" lon="3.95428">
        <ele>965</ele>
        <time>2018-03-30T16:26:01Z</time>
      </trkpt>
      <trkpt lat="44.92412" lon="3.95276">
        <ele>963</ele>
        <time>2018-03-30T16:27:01Z</time>
      </trkpt>
      <trkpt lat="44.92405" lon="3.95197">
        <ele>960</ele>
        <time>2018-03-30T16:28:01Z</time>
      </trkpt>
      <trkpt lat="44.92389" lon="3.95118">
        <ele>959</ele>
        <time>2018-03-30T16:29:01Z</time>
      </trkpt>
      <trkpt lat="44.92373" lon="3.95002">
        <ele>959</ele>
        <time>2018-03-30T16:30:01Z</time>
      </trkpt>
      <trkpt lat="44.92361" lon="3.94953">
        <ele>957</ele>
        <time>2018-03-30T16:31:01Z</time>
      </trkpt>
      <trkpt lat="44.92326" lon="3.94876">
        <ele>957</ele>
        <time>2018-03-30T16:32:01Z</time>
      </trkpt>
      <trkpt lat="44.92283" lon="3.94802">
        <ele>956</ele>
        <time>2018-03-30T16:33:01Z</time>
      </trkpt>
      <trkpt lat="44.9223" lon="3.94752">
        <ele>954</ele>
        <time>2018-03-30T16:34:01Z</time>
      </trkpt>
      <trkpt lat="44.92102" lon="3.94664">
        <ele>934</ele>
        <time>2018-03-30T16:35:01Z</time>
      </trkpt>
      <trkpt lat="44.92084" lon="3.94664">
        <ele>932</ele>
        <time>2018-03-30T16:36:01Z</time>
      </trkpt>
      <trkpt lat="44.92062" lon="3.94689">
        <ele>932</ele>
        <time>2018-03-30T16:37:01Z</time>
      </trkpt>
      <trkpt lat="44.92043" lon="3.94706">
        <ele>932</ele>
        <time>2018-03-30T16:38:01Z</time>
      </trkpt>
      <trkpt lat="44.9202" lon="3.94705">
        <ele>931</ele>
        <time>2018-03-30T16:39:01Z</time>
      </trkpt>
      <trkpt lat="44.9201" lon="3.94688">
        <ele>929</ele>
        <time>2018-03-30T16:40:01Z</time>
      </trkpt>
      <trkpt lat="44.92006" lon="3.94664">
        <ele>925</ele>
        <time>2018-03-30T16:41:01Z</time>
      </trkpt>
      <trkpt lat="44.92012" lon="3.94508">
        <ele>927</ele>
        <time>2018-03-30T16:42:01Z</time>
      </trkpt>
      <trkpt lat="44.91966" lon="3.94355">
        <ele>935</ele>
        <time>2018-03-30T16:43:01Z</time>
      </trkpt>
      <trkpt lat="44.91938" lon="3.94309">
        <ele>935</ele>
        <time>2018-03-30T16:44:01Z</time>
      </trkpt>
      <trkpt lat="44.91891" lon="3.94245">
        <ele>937</ele>
        <time>2018-03-30T16:45:01Z</time>
      </trkpt>
      <trkpt lat="44.91869" lon="3.94242">
        <ele>938</ele>
        <time>2018-03-30T16:46:01Z</time>
      </trkpt>
      <trkpt lat="44.9186" lon="3.94218">
        <ele>938</ele>
        <time>2018-03-30T16:47:01Z</time>
      </trkpt>
      <trkpt lat="44.91856" lon="3.94182">
        <ele>937</ele>
        <time>2018-03-30T16:48:01Z</time>
      </trkpt>
      <trkpt lat="44.9185" lon="3.94161">
        <ele>937</ele>
        <time>2018-03-30T16:49:01Z</time>
      </trkpt>
      <trkpt lat="44.91851" lon="3.94136">
        <ele>937</ele>
        <time>2018-03-30T16:50:01Z</time>
      </trkpt>
      <trkpt lat="44.91842" lon="3.94108">
        <ele>937</ele>
        <time>2018-03-30T16:51:01Z</time>
      </trkpt>
      <trkpt lat="44.91819" lon="3.94086">
        <ele>940</ele>
        <time>2018-03-30T16:52:01Z</time>
      </trkpt>
      <trkpt lat="44.91853" lon="3.94016">
        <ele>939</ele>
        <time>2018-03-30T16:53:01Z</time>
      </trkpt>
      <trkpt lat="44.91857" lon="3.93985">
        <ele>939</ele>
        <time>2018-03-30T16:54:01Z</time>
      </trkpt>
      <trkpt lat="44.91846" lon="3.93963">
        <ele>939</ele>
        <time>2018-03-30T16:55:01Z</time>
      </trkpt>
      <trkpt lat="44.9179" lon="3.93954">
        <ele>941</ele>
        <time>2018-03-30T16:56:01Z</time>
      </trkpt>
      <trkpt lat="44.91779" lon="3.93938">
        <ele>942</ele>
        <time>2018-03-30T16:57:01Z</time>
      </trkpt>
      <trkpt lat="44.91756" lon="3.93889">
        <ele>941</ele>
        <time>2018-03-30T16:58:01Z</time>
      </trkpt>
      <trkpt lat="44.91727" lon="3.93851">
        <ele>942</ele>
        <time>2018-03-30T16:59:01Z</time>
      </trkpt>
      <trkpt lat="44.9166" lon="3.93867">
        <ele>943</ele>
        <time>2018-03-30T17:00:01Z</time>
      </trkpt>
      <trkpt lat="44.91623" lon="3.93869">
        <ele>944</ele>
        <time>2018-03-30T17:01:01Z</time>
      </trkpt>
      <trkpt lat="44.91587" lon="3.93878">
        <ele>944</ele>
        <time>2018-03-30T17:02:01Z</time>
      </trkpt>
      <trkpt lat="44.91539" lon="3.93873">
        <ele>946</ele>
        <time>2018-03-30T17:03:01Z</time>
      </trkpt>
      <trkpt lat="44.91479" lon="3.93855">
        <ele>949</ele>
        <time>2018-03-30T17:04:01Z</time>
      </trkpt>
      <trkpt lat="44.91411" lon="3.93813">
        <ele>952</ele>
        <time>2018-03-30T17:05:01Z</time>
      </trkpt>
      <trkpt lat="44.91316" lon="3.93785">
        <ele>959</ele>
        <time>2018-03-30T17:06:01Z</time>
      </trkpt>
      <trkpt lat="44.9129" lon="3.93764">
        <ele>959</ele>
        <time>2018-03-30T17:07:01Z</time>
      </trkpt>
      <trkpt lat="44.91173" lon="3.93756">
        <ele>969</ele>
        <time>2018-03-30T17:08:01Z</time>
      </trkpt>
      <trkpt lat="44.91142" lon="3.93727">
        <ele>972</ele>
        <time>2018-03-30T17:09:01Z</time>
      </trkpt>
      <trkpt lat="44.91114" lon="3.93693">
        <ele>973</ele>
        <time>2018-03-30T17:10:01Z</time>
      </trkpt>
      <trkpt lat="44.91064" lon="3.93683">
        <ele>978</ele>
        <time>2018-03-30T17:11:01Z</time>
      </trkpt>
      <trkpt lat="44.90975" lon="3.93625">
        <ele>985</ele>
        <time>2018-03-30T17:12:01Z</time>
      </trkpt>
      <trkpt lat="44.90904" lon="3.93591">
        <ele>994</ele>
        <time>2018-03-30T17:13:01Z</time>
      </trkpt>
      <trkpt lat="44.90867" lon="3.93601">
        <ele>998</ele>
        <time>2018-03-30T17:14:01Z</time>
      </trkpt>
      <trkpt lat="44.90798" lon="3.93563">
        <ele>1001</ele>
        <time>2018-03-30T17:15:01Z</time>
      </trkpt>
      <trkpt lat="44.90766" lon="3.9357">
        <ele>1003</ele>
        <time>2018-03-30T17:16:01Z</time>
      </trkpt>
      <trkpt lat="44.90749" lon="3.9357">
        <ele>1007</ele>
        <time>2018-03-30T17:17:01Z</time>
      </trkpt>
      <trkpt lat="44.9069" lon="3.93586">
        <ele>1013</ele>
        <time>2018-03-30T17:18:01Z</time>
      </trkpt>
      <trkpt lat="44.90583" lon="3.93578">
        <ele>1011</ele>
        <time>2018-03-30T17:19:01Z</time>
      </trkpt>
      <trkpt lat="44.9057" lon="3.93519">
        <ele>1008</ele>
        <time>2018-03-30T17:20:01Z</time>
      </trkpt>
      <trkpt lat="44.90561" lon="3.93518">
        <ele>1008</ele>
        <time>2018-03-30T17:21:01Z</time>
      </trkpt>
      <trkpt lat="44.90548" lon="3.935">
        <ele>1006</ele>
        <time>2018-03-30T17:22:01Z</time>
      </trkpt>
      <trkpt lat="44.90558" lon="3.93439">
        <ele>1002</ele>
        <time>2018-03-30T17:23:01Z</time>
      </trkpt>
      <trkpt lat="44.90524" lon="3.93447">
        <ele>1002</ele>
        <time>2018-03-30T17:24:01Z</time>
      </trkpt>
      <trkpt lat="44.90501" lon="3.93432">
        <ele>1001</ele>
        <time>2018-03-30T17:25:01Z</time>
      </trkpt>
      <trkpt lat="44.90496" lon="3.93418">
        <ele>1000</ele>
        <time>2018-03-30T17:26:01Z</time>
      </trkpt>
      <trkpt lat="44.90482" lon="3.93404">
        <ele>999</ele>
        <time>2018-03-30T17:27:01Z</time>
      </trkpt>
      <trkpt lat="44.90457" lon="3.93329">
        <ele>992</ele>
        <time>2018-03-30T17:28:01Z</time>
      </trkpt>
      <trkpt lat="44.90407" lon="3.93301">
        <ele>1000</ele>
        <time>2018-03-30T17:29:01Z</time>
      </trkpt>
      <trkpt lat="44.90377" lon="3.93273">
        <ele>1001</ele>
        <time>2018-03-30T17:30:01Z</time>
      </trkpt>
      <trkpt lat="44.90337" lon="3.93212">
        <ele>996</ele>
        <time>2018-03-30T17:31:01Z</time>
      </trkpt>
      <trkpt lat="44.90264" lon="3.93142">
        <ele>997</ele>
        <time>2018-03-30T17:32:01Z</time>
      </trkpt>
      <trkpt lat="44.90208" lon="3.93152">
        <ele>1001</ele>
        <time>2018-03-30T17:33:01Z</time>
      </trkpt>
      <trkpt lat="44.90161" lon="3.93138">
        <ele>1004</ele>
        <time>2018-03-30T17:34:01Z</time>
      </trkpt>
      <trkpt lat="44.901" lon="3.93099">
        <ele>1002</ele>
        <time>2018-03-30T17:35:01Z</time>
      </trkpt>
      <trkpt lat="44.90051" lon="3.93086">
        <ele>1004</ele>
        <time>2018-03-30T17:36:01Z</time>
      </trkpt>
      <trkpt lat="44.89983" lon="3.93097">
        <ele>1005</ele>
        <time>2018-03-30T17:37:01Z</time>
      </trkpt>
      <trkpt lat="44.89904" lon="3.9312">
        <ele>1003</ele>
        <time>2018-03-30T17:38:01Z</time>
      </trkpt>
      <trkpt lat="44.89866" lon="3.9311">
        <ele>1002</ele>
        <time>2018-03-30T17:39:01Z</time>
      </trkpt>
      <trkpt lat="44.89786" lon="3.93113">
        <ele>995</ele>
        <time>2018-03-30T17:40:01Z</time>
      </trkpt>
      <trkpt lat="44.89653" lon="3.93142">
        <ele>985</ele>
        <time>2018-03-30T17:41:01Z</time>
      </trkpt>
      <trkpt lat="44.89563" lon="3.93155">
        <ele>983</ele>
        <time>2018-03-30T17:42:01Z</time>
      </trkpt>
      <trkpt lat="44.89512" lon="3.93146">
        <ele>982</ele>
        <time>2018-03-30T17:43:01Z</time>
      </trkpt>
      <trkpt lat="44.89471" lon="3.93104">
        <ele>979</ele>
        <time>2018-03-30T17:44:01Z</time>
      </trkpt>
      <trkpt lat="44.89427" lon="3.9307">
        <ele>976</ele>
        <time>2018-03-30T17:45:01Z</time>
      </trkpt>
      <trkpt lat="44.89411" lon="3.93043">
        <ele>972</ele>
        <time>2018-03-30T17:46:01Z</time>
      </trkpt>
      <trkpt lat="44.89411" lon="3.93016">
        <ele>972</ele>
        <time>2018-03-30T17:47:01Z</time>
      </trkpt>
      <trkpt lat="44.89429" lon="3.92969">
        <ele>968</ele>
        <time>2018-03-30T17:48:01Z</time>
      </trkpt>
      <trkpt lat="44.89406" lon="3.92938">
        <ele>965</ele>
        <time>2018-03-30T17:49:01Z</time>
      </trkpt>
      <trkpt lat="44.8938" lon="3.92911">
        <ele>958</ele>
        <time>2018-03-30T17:50:01Z</time>
      </trkpt>
      <trkpt lat="44.8936" lon="3.92899">
        <ele>957</ele>
        <time>2018-03-30T17:51:01Z</time>
      </trkpt>
      <trkpt lat="44.89353" lon="3.92875">
        <ele>955</ele>
        <time>2018-03-30T17:52:01Z</time>
      </trkpt>
      <trkpt lat="44.89351" lon="3.92788">
        <ele>942</ele>
        <time>2018-03-30T17:53:01Z</time>
      </trkpt>
      <trkpt lat="44.89376" lon="3.92723">
        <ele>930</ele>
        <time>2018-03-30T17:54:01Z</time>
      </trkpt>
      <trkpt lat="44.89375" lon="3.92714">
        <ele>929</ele>
        <time>2018-03-30T17:55:01Z</time>
      </trkpt>
      <trkpt lat="44.89366" lon="3.9268">
        <ele>927</ele>
        <time>2018-03-30T17:56:01Z</time>
      </trkpt>
      <trkpt lat="44.89368" lon="3.92669">
        <ele>926</ele>
        <time>2018-03-30T17:57:01Z</time>
      </trkpt>
      <trkpt lat="44.89366" lon="3.92654">
        <ele>917</ele>
        <time>2018-03-30T17:58:01Z</time>
      </trkpt>
      <trkpt lat="44.8936" lon="3.92639">
        <ele>916</ele>
        <time>2018-03-30T17:59:01Z</time>
      </trkpt>
      <trkpt lat="44.89352" lon="3.92624">
        <ele>914</ele>
        <time>2018-03-30T18:00:01Z</time>
      </trkpt>
      <trkpt lat="44.89348" lon="3.9261">
        <ele>913</ele>
        <time>2018-03-30T18:01:01Z</time>
      </trkpt>
      <trkpt lat="44.8935" lon="3.92603">
        <ele>912</ele>
        <time>2018-03-30T18:02:01Z</time>
      </trkpt>
      <trkpt lat="44.89351" lon="3.92599">
        <ele>912</ele>
        <time>2018-03-30T18:03:01Z</time>
      </trkpt>
      <trkpt lat="44.89347" lon="3.92594">
        <ele>911</ele>
        <time>2018-03-30T18:04:01Z</time>
      </trkpt>
      <trkpt lat="44.89344" lon="3.9258">
        <ele>904</ele>
        <time>2018-03-30T18:05:01Z</time>
      </trkpt>
      <trkpt lat="44.89342" lon="3.92562">
        <ele>901</ele>
        <time>2018-03-30T18:06:01Z</time>
      </trkpt>
      <trkpt lat="44.89343" lon="3.92534">
        <ele>897</ele>
        <time>2018-03-30T18:07:01Z</time>
      </trkpt>
      <trkpt lat="44.8934" lon="3.92515">
        <ele>894</ele>
        <time>2018-03-30T18:08:01Z</time>
      </trkpt>
      <trkpt lat="44.89344" lon="3.92459">
        <ele>882</ele>
        <time>2018-03-30T18:09:01Z</time>
      </trkpt>
      <trkpt lat="44.89355" lon="3.92404">
        <ele>869</ele>
        <time>2018-03-30T18:10:01Z</time>
      </trkpt>
      <trkpt lat="44.89353" lon="3.92398">
        <ele>869</ele>
        <time>2018-03-30T18:11:01Z</time>
      </trkpt>
      <trkpt lat="44.89349" lon="3.92396">
        <ele>869</ele>
        <time>2018-03-30T18:12:01Z</time>
      </trkpt>
      <trkpt lat="44.89342" lon="3.92398">
        <ele>870</ele>
        <time>2018-03-30T18:13:01Z</time>
      </trkpt>
      <trkpt lat="44.89331" lon="3.92408">
        <ele>869</ele>
        <time>2018-03-30T18:14:01Z</time>
      </trkpt>
      <trkpt lat="44.89319" lon="3.92419">
        <ele>873</ele>
        <time>2018-03-30T18:15:01Z</time>
      </trkpt>
      <trkpt lat="44.89312" lon="3.92428">
        <ele>872</ele>
        <time>2018-03-30T18:16:01Z</time>
      </trkpt>
      <trkpt lat="44.89307" lon="3.92435">
        <ele>871</ele>
        <time>2018-03-30T18:17:01Z</time>
      </trkpt>
      <trkpt lat="44.89302" lon="3.92437">
        <ele>871</ele>
        <time>2018-03-30T18:18:01Z</time>
      </trkpt>
      <trkpt lat="44.89302" lon="3.92431">
        <ele>870</ele>
        <time>2018-03-30T18:19:01Z</time>
      </trkpt>
      <trkpt lat="44.89319" lon="3.92377">
        <ele>858</ele>
        <time>2018-03-30T18:20:01Z</time>
      </trkpt>
      <trkpt lat="44.89332" lon="3.92326">
        <ele>852</ele>
        <time>2018-03-30T18:21:01Z</time>
      </trkpt>
      <trkpt lat="44.89339" lon="3.92315">
        <ele>852</ele>
        <time>2018-03-30T18:22:01Z</time>
      </trkpt>
      <trkpt lat="44.89346" lon="3.92305">
        <ele>850</ele>
        <time>2018-03-30T18:23:01Z</time>
      </trkpt>
      <trkpt lat="44.89352" lon="3.92302">
        <ele>849</ele>
        <time>2018-03-30T18:24:01Z</time>
      </trkpt>
      <trkpt lat="44.8937" lon="3.92304">
        <ele>849</ele>
        <time>2018-03-30T18:25:01Z</time>
      </trkpt>
      <trkpt lat="44.8937" lon="3.92301">
        <ele>849</ele>
        <time>2018-03-30T18:26:01Z</time>
      </trkpt>
      <trkpt lat="44.8937" lon="3.92297">
        <ele>848</ele>
        <time>2018-03-30T18:27:01Z</time>
      </trkpt>
      <trkpt lat="44.89365" lon="3.92293">
        <ele>848</ele>
        <time>2018-03-30T18:28:01Z</time>
      </trkpt>
      <trkpt lat="44.89358" lon="3.9229">
        <ele>847</ele>
        <time>2018-03-30T18:29:01Z</time>
      </trkpt>
      <trkpt lat="44.89353" lon="3.92281">
        <ele>846</ele>
        <time>2018-03-30T18:30:01Z</time>
      </trkpt>
      <trkpt lat="44.8935" lon="3.92275">
        <ele>845</ele>
        <time>2018-03-30T18:31:01Z</time>
      </trkpt>
      <trkpt lat="44.89345" lon="3.92272">
        <ele>844</ele>
        <time>2018-03-30T18:32:01Z</time>
      </trkpt>
      <trkpt lat="44.89337" lon="3.92269">
        <ele>843</ele>
        <time>2018-03-30T18:33:01Z</time>
      </trkpt>
      <trkpt lat="44.8933" lon="3.92268">
        <ele>836</ele>
        <time>2018-03-30T18:34:01Z</time>
      </trkpt>
      <trkpt lat="44.89327" lon="3.92265">
        <ele>836</ele>
        <time>2018-03-30T18:35:01Z</time>
      </trkpt>
      <trkpt lat="44.89332" lon="3.9226">
        <ele>836</ele>
        <time>2018-03-30T18:36:01Z</time>
      </trkpt>
      <trkpt lat="44.89341" lon="3.92255">
        <ele>840</ele>
        <time>2018-03-30T18:37:01Z</time>
      </trkpt>
      <trkpt lat="44.89343" lon="3.92251">
        <ele>840</ele>
        <time>2018-03-30T18:38:01Z</time>
      </trkpt>
      <trkpt lat="44.8934" lon="3.92245">
        <ele>836</ele>
        <time>2018-03-30T18:39:01Z</time>
      </trkpt>
      <trkpt lat="44.89321" lon="3.92242">
        <ele>827</ele>
        <time>2018-03-30T18:40:01Z</time>
      </trkpt>
      <trkpt lat="44.89312" lon="3.92244">
        <ele>823</ele>
        <time>2018-03-30T18:41:01Z</time>
      </trkpt>
      <trkpt lat="44.89304" lon="3.92252">
        <ele>832</ele>
        <time>2018-03-30T18:42:01Z</time>
      </trkpt>
      <trkpt lat="44.8929" lon="3.92267">
        <ele>830</ele>
        <time>2018-03-30T18:43:01Z</time>
      </trkpt>
      <trkpt lat="44.89198" lon="3.92373">
        <ele>818</ele>
        <time>2018-03-30T18:44:01Z</time>
      </trkpt>
      <trkpt lat="44.89115" lon="3.92501">
        <ele>810</ele>
        <time>2018-03-30T18:45:01Z</time>
      </trkpt>
      <trkpt lat="44.89109" lon="3.92506">
        <ele>808</ele>
        <time>2018-03-30T18:46:01Z</time>
      </trkpt>
      <trkpt lat="44.891" lon="3.92502">
        <ele>805</ele>
        <time>2018-03-30T18:47:01Z</time>
      </trkpt>
      <trkpt lat="44.89091" lon="3.92494">
        <ele>798</ele>
        <time>2018-03-30T18:48:01Z</time>
      </trkpt>
      <trkpt lat="44.89084" lon="3.92484">
        <ele>798</ele>
        <time>2018-03-30T18:49:01Z</time>
      </trkpt>
      <trkpt lat="44.89081" lon="3.92488">
        <ele>791</ele>
        <time>2018-03-30T18:50:01Z</time>
      </trkpt>
      <trkpt lat="44.89006" lon="3.92447">
        <ele>780</ele>
        <time>2018-03-30T18:51:01Z</time>
      </trkpt>
      <trkpt lat="44.88982" lon="3.92474">
        <ele>776</ele>
        <time>2018-03-30T18:52:01Z</time>
      </trkpt>
      <trkpt lat="44.88915" lon="3.92459">
        <ele>772</ele>
        <time>2018-03-30T18:53:01Z</time>
      </trkpt>
      <trkpt lat="44.88926" lon="3.92405">
        <ele>770</ele>
        <time>2018-03-30T18:54:01Z</time>
      </trkpt>
      <trkpt lat="44.8892" lon="3.92351">
        <ele>770</ele>
        <time>2018-03-30T18:55:01Z</time>
      </trkpt>
      <trkpt lat="44.88931" lon="3.92307">
        <ele>767</ele>
        <time>2018-03-30T18:56:01Z</time>
      </trkpt>
      <trkpt lat="44.88888" lon="3.92248">
        <ele>769</ele>
        <time>2018-03-30T18:57:01Z</time>
      </trkpt>
      <trkpt lat="44.88892" lon="3.92229">
        <ele>769</ele>
        <time>2018-03-30T18:58:01Z</time>
      </trkpt>
      <trkpt lat="44.88935" lon="3.92196">
        <ele>766</ele>
        <time>2018-03-30T18:59:01Z</time>
      </trkpt>
      <trkpt lat="44.88966" lon="3.92184">
        <ele>766</ele>
        <time>2018-03-30T19:00:01Z</time>
      </trkpt>
      <trkpt lat="44.88982" lon="3.92109">
        <ele>771</ele>
        <time>2018-03-30T19:01:01Z</time>
      </trkpt>
      <trkpt lat="44.88985" lon="3.9206">
        <ele>776</ele>
        <time>2018-03-30T19:02:01Z</time>
      </trkpt>
      <trkpt lat="44.89019" lon="3.91904">
        <ele>790</ele>
        <time>2018-03-30T19:03:01Z</time>
      </trkpt>
      <trkpt lat="44.89048" lon="3.91643">
        <ele>794</ele>
        <time>2018-03-30T19:04:01Z</time>
      </trkpt>
      <trkpt lat="44.89034" lon="3.91636">
        <ele>795</ele>
        <time>2018-03-30T19:05:01Z</time>
      </trkpt>
      <trkpt lat="44.89022" lon="3.91583">
        <ele>797</ele>
        <time>2018-03-30T19:06:01Z</time>
      </trkpt>
      <trkpt lat="44.89023" lon="3.91459">
        <ele>805</ele>
        <time>2018-03-30T19:07:01Z</time>
      </trkpt>
      <trkpt lat="44.89027" lon="3.91433">
        <ele>807</ele>
        <time>2018-03-30T19:08:01Z</time>
      </trkpt>
      <trkpt lat="44.8902" lon="3.91408">
        <ele>813</ele>
        <time>2018-03-30T19:09:01Z</time>
      </trkpt>
      <trkpt lat="44.89004" lon="3.91417">
        <ele>808</ele>
        <time>2018-03-30T19:10:01Z</time>
      </trkpt>
      <trkpt lat="44.88973" lon="3.91408">
        <ele>823</ele>
        <time>2018-03-30T19:11:01Z</time>
      </trkpt>
      <trkpt lat="44.88968" lon="3.91382">
        <ele>829</ele>
        <time>2018-03-30T19:12:01Z</time>
      </trkpt>
      <trkpt lat="44.88934" lon="3.91386">
        <ele>832</ele>
        <time>2018-03-30T19:13:01Z</time>
      </trkpt>
      <trkpt lat="44.88921" lon="3.9137">
        <ele>836</ele>
        <time>2018-03-30T19:14:01Z</time>
      </trkpt>
      <trkpt lat="44.88898" lon="3.91366">
        <ele>847</ele>
        <time>2018-03-30T19:15:01Z</time>
      </trkpt>
      <trkpt lat="44.88836" lon="3.91348">
        <ele>857</ele>
        <time>2018-03-30T19:16:01Z</time>
      </trkpt>
      <trkpt lat="44.88721" lon="3.91327">
        <ele>893</ele>
        <time>2018-03-30T19:17:01Z</time>
      </trkpt>
      <trkpt lat="44.88705" lon="3.91336">
        <ele>882</ele>
        <time>2018-03-30T19:18:01Z</time>
      </trkpt>
      <trkpt lat="44.88672" lon="3.91374">
        <ele>881</ele>
        <time>2018-03-30T19:19:01Z</time>
      </trkpt>
      <trkpt lat="44.88638" lon="3.91392">
        <ele>888</ele>
        <time>2018-03-30T19:20:01Z</time>
      </trkpt>
      <trkpt lat="44.88587" lon="3.91397">
        <ele>889</ele>
        <time>2018-03-30T19:21:01Z</time>
      </trkpt>
      <trkpt lat="44.88572" lon="3.91383">
        <ele>888</ele>
        <time>2018-03-30T19:22:01Z</time>
      </trkpt>
      <trkpt lat="44.88566" lon="3.91365">
        <ele>889</ele>
        <time>2018-03-30T19:23:01Z</time>
      </trkpt>
      <trkpt lat="44.88564" lon="3.91334">
        <ele>891</ele>
        <time>2018-03-30T19:24:01Z</time>
      </trkpt>
      <trkpt lat="44.88574" lon="3.91297">
        <ele>900</ele>
        <time>2018-03-30T19:25:01Z</time>
      </trkpt>
      <trkpt lat="44.88576" lon="3.9125">
        <ele>909</ele>
        <time>2018-03-30T19:26:01Z</time>
      </trkpt>
      <trkpt lat="44.88583" lon="3.91204">
        <ele>919</ele>
        <time>2018-03-30T19:27:01Z</time>
      </trkpt>
      <trkpt lat="44.88574" lon="3.91179">
        <ele>924</ele>
        <time>2018-03-30T19:28:01Z</time>
      </trkpt>
      <trkpt lat="44.88551" lon="3.91155">
        <ele>935</ele>
        <time>2018-03-30T19:29:01Z</time>
      </trkpt>
      <trkpt lat="44.88574" lon="3.91154">
        <ele>933</ele>
        <time>2018-03-30T19:30:01Z</time>
      </trkpt>
      <trkpt lat="44.88612" lon="3.91146">
        <ele>935</ele>
        <time>2018-03-30T19:31:01Z</time>
      </trkpt>
      <trkpt lat="44.8862" lon="3.91127">
        <ele>937</ele>
        <time>2018-03-30T19:32:01Z</time>
      </trkpt>
      <trkpt lat="44.88615" lon="3.91031">
        <ele>947</ele>
        <time>2018-03-30T19:33:01Z</time>
      </trkpt>
      <trkpt lat="44.88617" lon="3.90905">
        <ele>955</ele>
        <time>2018-03-30T19:34:01Z</time>
      </trkpt>
      <trkpt lat="44.88622" lon="3.90862">
        <ele>955</ele>
        <time>2018-03-30T19:35:01Z</time>
      </trkpt>
      <trkpt lat="44.88613" lon="3.90815">
        <ele>955</ele>
        <time>2018-03-30T19:36:01Z</time>
      </trkpt>
      <trkpt lat="44.88619" lon="3.90792">
        <ele>955</ele>
        <time>2018-03-30T19:37:01Z</time>
      </trkpt>
      <trkpt lat="44.88622" lon="3.90715">
        <ele>952</ele>
        <time>2018-03-30T19:38:01Z</time>
      </trkpt>
      <trkpt lat="44.88616" lon="3.90661">
        <ele>950</ele>
        <time>2018-03-30T19:39:01Z</time>
      </trkpt>
      <trkpt lat="44.88592" lon="3.90618">
        <ele>949</ele>
        <time>2018-03-30T19:40:01Z</time>
      </trkpt>
      <trkpt lat="44.88582" lon="3.90572">
        <ele>948</ele>
        <time>2018-03-30T19:41:01Z</time>
      </trkpt>
      <trkpt lat="44.88588" lon="3.90523">
        <ele>949</ele>
        <time>2018-03-30T19:42:01Z</time>
      </trkpt>
      <trkpt lat="44.88572" lon="3.9049">
        <ele>949</ele>
        <time>2018-03-30T19:43:01Z</time>
      </trkpt>
      <trkpt lat="44.88611" lon="3.90359">
        <ele>955</ele>
        <time>2018-03-30T19:44:01Z</time>
      </trkpt>
      <trkpt lat="44.88636" lon="3.90276">
        <ele>961</ele>
        <time>2018-03-30T19:45:01Z</time>
      </trkpt>
      <trkpt lat="44.88639" lon="3.90243">
        <ele>966</ele>
        <time>2018-03-30T19:46:01Z</time>
      </trkpt>
      <trkpt lat="44.88637" lon="3.90217">
        <ele>967</ele>
        <time>2018-03-30T19:47:01Z</time>
      </trkpt>
      <trkpt lat="44.88629" lon="3.90187">
        <ele>968</ele>
        <time>2018-03-30T19:48:01Z</time>
      </trkpt>
      <trkpt lat="44.88631" lon="3.90161">
        <ele>974</ele>
        <time>2018-03-30T19:49:01Z</time>
      </trkpt>
      <trkpt lat="44.88641" lon="3.90125">
        <ele>975</ele>
        <time>2018-03-30T19:50:01Z</time>
      </trkpt>
      <trkpt lat="44.88636" lon="3.90109">
        <ele>976</ele>
        <time>2018-03-30T19:51:01Z</time>
      </trkpt>
      <trkpt lat="44.88597" lon="3.90072">
        <ele>980</ele>
        <time>2018-03-30T19:52:01Z</time>
      </trkpt>
      <trkpt lat="44.88591" lon="3.89993">
        <ele>984</ele>
        <time>2018-03-30T19:53:01Z</time>
      </trkpt>
      <trkpt lat="44.88559" lon="3.898">
        <ele>990</ele>
        <time>2018-03-30T19:54:01Z</time>
      </trkpt>
      <trkpt lat="44.88522" lon="3.89635">
        <ele>990</ele>
        <time>2018-03-30T19:55:01Z</time>
      </trkpt>
      <trkpt lat="44.88523" lon="3.89584">
        <ele>990</ele>
        <time>2018-03-30T19:56:01Z</time>
      </trkpt>
      <trkpt lat="44.8853" lon="3.8954">
        <ele>990</ele>
        <time>2018-03-30T19:57:01Z</time>
      </trkpt>
      <trkpt lat="44.88526" lon="3.89512">
        <ele>990</ele>
        <time>2018-03-30T19:58:01Z</time>
      </trkpt>
      <trkpt lat="44.88464" lon="3.8933">
        <ele>990</ele>
        <time>2018-03-30T19:59:01Z</time>
      </trkpt>
      <trkpt lat="44.88498" lon="3.89317">
        <ele>990</ele>
        <time>2018-03-30T20:00:01Z</time>
      </trkpt>
      <trkpt lat="44.88506" lon="3.89292">
        <ele>982</ele>
        <time>2018-03-30T20:01:01Z</time>
      </trkpt>
      <trkpt lat="44.88507" lon="3.89264">
        <ele>981</ele>
        <time>2018-03-30T20:02:01Z</time>
      </trkpt>
      <trkpt lat="44.88462" lon="3.89227">
        <ele>977</ele>
        <time>2018-03-30T20:03:01Z</time>
      </trkpt>
      <trkpt lat="44.88378" lon="3.89183">
        <ele>978</ele>
        <time>2018-03-30T20:04:01Z</time>
      </trkpt>
      <trkpt lat="44.88301" lon="3.89124">
        <ele>978</ele>
        <time>2018-03-30T20:05:01Z</time>
      </trkpt>
      <trkpt lat="44.8828" lon="3.89092">
        <ele>979</ele>
        <time>2018-03-30T20:06:01Z</time>
      </trkpt>
      <trkpt lat="44.88268" lon="3.89061">
        <ele>976</ele>
        <time>2018-03-30T20:07:01Z</time>
      </trkpt>
      <trkpt lat="44.88268" lon="3.89033">
        <ele>976</ele>
        <time>2018-03-30T20:08:01Z</time>
      </trkpt>
      <trkpt lat="44.88276" lon="3.89011">
        <ele>976</ele>
        <time>2018-03-30T20:09:01Z</time>
      </trkpt>
      <trkpt lat="44.88301" lon="3.88999">
        <ele>975</ele>
        <time>2018-03-30T20:10:01Z</time>
      </trkpt>
      <trkpt lat="44.88334" lon="3.89004">
        <ele>969</ele>
        <time>2018-03-30T20:11:01Z</time>
      </trkpt>
      <trkpt lat="44.88405" lon="3.8902">
        <ele>974</ele>
        <time>2018-03-30T20:12:01Z</time>
      </trkpt>
      <trkpt lat="44.88476" lon="3.89045">
        <ele>977</ele>
        <time>2018-03-30T20:13:01Z</time>
      </trkpt>
      <trkpt lat="44.88556" lon="3.8904">
        <ele>983</ele>
        <time>2018-03-30T20:14:01Z</time>
      </trkpt>
      <trkpt lat="44.88613" lon="3.88996">
        <ele>994</ele>
        <time>2018-03-30T20:15:01Z</time>
      </trkpt>
      <trkpt lat="44.88673" lon="3.88947">
        <ele>997</ele>
        <time>2018-03-30T20:16:01Z</time>
      </trkpt>
      <trkpt lat="44.88698" lon="3.88892">
        <ele>999</ele>
        <time>2018-03-30T20:17:01Z</time>
      </trkpt>
      <trkpt lat="44.8871" lon="3.88768">
        <ele>1002</ele>
        <time>2018-03-30T20:18:01Z</time>
      </trkpt>
      <trkpt lat="44.88686" lon="3.88572">
        <ele>1008</ele>
        <time>2018-03-30T20:19:01Z</time>
      </trkpt>
      <trkpt lat="44.88682" lon="3.88442">
        <ele>1010</ele>
        <time>2018-03-30T20:20:01Z</time>
      </trkpt>
      <trkpt lat="44.88665" lon="3.88272">
        <ele>1016</ele>
        <time>2018-03-30T20:21:01Z</time>
      </trkpt>
      <trkpt lat="44.88678" lon="3.88245">
        <ele>1020</ele>
        <time>2018-03-30T20:22:01Z</time>
      </trkpt>
      <trkpt lat="44.887" lon="3.88242">
        <ele>1021</ele>
        <time>2018-03-30T20:23:01Z</time>
      </trkpt>
      <trkpt lat="44.88749" lon="3.88242">
        <ele>1021</ele>
        <time>2018-03-30T20:24:01Z</time>
      </trkpt>
      <trkpt lat="44.88754" lon="3.88178">
        <ele>1025</ele>
        <time>2018-03-30T20:25:01Z</time>
      </trkpt>
      <trkpt lat="44.88749" lon="3.88121">
        <ele>1027</ele>
        <time>2018-03-30T20:26:01Z</time>
      </trkpt>
      <trkpt lat="44.88725" lon="3.88082">
        <ele>1028</ele>
        <time>2018-03-30T20:27:01Z</time>
      </trkpt>
      <trkpt lat="44.88691" lon="3.88062">
        <ele>1028</ele>
        <time>2018-03-30T20:28:01Z</time>
      </trkpt>
      <trkpt lat="44.88645" lon="3.88048">
        <ele>1028</ele>
        <time>2018-03-30T20:29:01Z</time>
      </trkpt>
      <trkpt lat="44.88622" lon="3.88031">
        <ele>1028</ele>
        <time>2018-03-30T20:30:01Z</time>
      </trkpt>
      <trkpt lat="44.88606" lon="3.88017">
        <ele>1028</ele>
        <time>2018-03-30T20:31:01Z</time>
      </trkpt>
      <trkpt lat="44.88572" lon="3.88002">
        <ele>1028</ele>
        <time>2018-03-30T20:32:01Z</time>
      </trkpt>
      <trkpt lat="44.88575" lon="3.87912">
        <ele>1029</ele>
        <time>2018-03-30T20:33:01Z</time>
      </trkpt>
      <trkpt lat="44.88565" lon="3.87781">
        <ele>1034</ele>
        <time>2018-03-30T20:34:01Z</time>
      </trkpt>
      <trkpt lat="44.88562" lon="3.87692">
        <ele>1037</ele>
        <time>2018-03-30T20:35:01Z</time>
      </trkpt>
      <trkpt lat="44.88509" lon="3.87684">
        <ele>1038</ele>
        <time>2018-03-30T20:36:01Z</time>
      </trkpt>
      <trkpt lat="44.88482" lon="3.87675">
        <ele>1038</ele>
        <time>2018-03-30T20:37:01Z</time>
      </trkpt>
      <trkpt lat="44.88443" lon="3.87653">
        <ele>1040</ele>
        <time>2018-03-30T20:38:01Z</time>
      </trkpt>
      <trkpt lat="44.88445" lon="3.87614">
        <ele>1041</ele>
        <time>2018-03-30T20:39:01Z</time>
      </trkpt>
      <trkpt lat="44.88445" lon="3.87572">
        <ele>1043</ele>
        <time>2018-03-30T20:40:01Z</time>
      </trkpt>
      <trkpt lat="44.88438" lon="3.87471">
        <ele>1044</ele>
        <time>2018-03-30T20:41:01Z</time>
      </trkpt>
      <trkpt lat="44.88412" lon="3.87403">
        <ele>1046</ele>
        <time>2018-03-30T20:42:01Z</time>
      </trkpt>
      <trkpt lat="44.88422" lon="3.87323">
        <ele>1044</ele>
        <time>2018-03-30T20:43:01Z</time>
      </trkpt>
      <trkpt lat="44.88428" lon="3.87242">
        <ele>1046</ele>
        <time>2018-03-30T20:44:01Z</time>
      </trkpt>
      <trkpt lat="44.88457" lon="3.87115">
        <ele>1044</ele>
        <time>2018-03-30T20:45:01Z</time>
      </trkpt>
      <trkpt lat="44.88438" lon="3.87015">
        <ele>1046</ele>
        <time>2018-03-30T20:46:01Z</time>
      </trkpt>
      <trkpt lat="44.88431" lon="3.86946">
        <ele>1046</ele>
        <time>2018-03-30T20:47:01Z</time>
      </trkpt>
      <trkpt lat="44.88425" lon="3.8686">
        <ele>1047</ele>
        <time>2018-03-30T20:48:01Z</time>
      </trkpt>
      <trkpt lat="44.88413" lon="3.86771">
        <ele>1052</ele>
        <time>2018-03-30T20:49:01Z</time>
      </trkpt>
      <trkpt lat="44.88408" lon="3.8669">
        <ele>1054</ele>
        <time>2018-03-30T20:50:01Z</time>
      </trkpt>
      <trkpt lat="44.8839" lon="3.86557">
        <ele>1057</ele>
        <time>2018-03-30T20:51:01Z</time>
      </trkpt>
      <trkpt lat="44.8838" lon="3.86517">
        <ele>1058</ele>
        <time>2018-03-30T20:52:01Z</time>
      </trkpt>
      <trkpt lat="44.88372" lon="3.86427">
        <ele>1059</ele>
        <time>2018-03-30T20:53:01Z</time>
      </trkpt>
      <trkpt lat="44.88346" lon="3.8633">
        <ele>1062</ele>
        <time>2018-03-30T20:54:01Z</time>
      </trkpt>
      <trkpt lat="44.8833" lon="3.86282">
        <ele>1066</ele>
        <time>2018-03-30T20:55:01Z</time>
      </trkpt>
      <trkpt lat="44.88277" lon="3.8619">
        <ele>1069</ele>
        <time>2018-03-30T20:56:01Z</time>
      </trkpt>
      <trkpt lat="44.88254" lon="3.86143">
        <ele>1070</ele>
        <time>2018-03-30T20:57:01Z</time>
      </trkpt>
      <trkpt lat="44.88241" lon="3.86088">
        <ele>1073</ele>
        <time>2018-03-30T20:58:01Z</time>
      </trkpt>
      <trkpt lat="44.88218" lon="3.86026">
        <ele>1075</ele>
        <time>2018-03-30T20:59:01Z</time>
      </trkpt>
      <trkpt lat="44.88187" lon="3.85894">
        <ele>1078</ele>
        <time>2018-03-30T21:00:01Z</time>
      </trkpt>
      <trkpt lat="44.8816" lon="3.85711">
        <ele>1086</ele>
        <time>2018-03-30T21:01:01Z</time>
      </trkpt>
      <trkpt lat="44.88131" lon="3.85575">
        <ele>1089</ele>
        <time>2018-03-30T21:02:01Z</time>
      </trkpt>
      <trkpt lat="44.88099" lon="3.85474">
        <ele>1088</ele>
        <time>2018-03-30T21:03:01Z</time>
      </trkpt>
      <trkpt lat="44.88085" lon="3.85424">
        <ele>1086</ele>
        <time>2018-03-30T21:04:01Z</time>
      </trkpt>
      <trkpt lat="44.88077" lon="3.85373">
        <ele>1084</ele>
        <time>2018-03-30T21:05:01Z</time>
      </trkpt>
      <trkpt lat="44.88069" lon="3.85236">
        <ele>1082</ele>
        <time>2018-03-30T21:06:01Z</time>
      </trkpt>
      <trkpt lat="44.88042" lon="3.85051">
        <ele>1090</ele>
        <time>2018-03-30T21:07:01Z</time>
      </trkpt>
      <trkpt lat="44.88029" lon="3.85007">
        <ele>1092</ele>
        <time>2018-03-30T21:08:01Z</time>
      </trkpt>
      <trkpt lat="44.88014" lon="3.84979">
        <ele>1093</ele>
        <time>2018-03-30T21:09:01Z</time>
      </trkpt>
      <trkpt lat="44.88022" lon="3.84961">
        <ele>1093</ele>
        <time>2018-03-30T21:10:01Z</time>
      </trkpt>
      <trkpt lat="44.88024" lon="3.84923">
        <ele>1093</ele>
        <time>2018-03-30T21:11:01Z</time>
      </trkpt>
      <trkpt lat="44.88022" lon="3.84904">
        <ele>1092</ele>
        <time>2018-03-30T21:12:01Z</time>
      </trkpt>
      <trkpt lat="44.88014" lon="3.84878">
        <ele>1091</ele>
        <time>2018-03-30T21:13:01Z</time>
      </trkpt>
      <trkpt lat="44.87997" lon="3.8485">
        <ele>1093</ele>
        <time>2018-03-30T21:14:01Z</time>
      </trkpt>
      <trkpt lat="44.8799" lon="3.84831">
        <ele>1092</ele>
        <time>2018-03-30T21:15:01Z</time>
      </trkpt>
      <trkpt lat="44.87987" lon="3.8481">
        <ele>1092</ele>
        <time>2018-03-30T21:16:01Z</time>
      </trkpt>
      <trkpt lat="44.87979" lon="3.84758">
        <ele>1091</ele>
        <time>2018-03-30T21:17:01Z</time>
      </trkpt>
      <trkpt lat="44.88036" lon="3.84743">
        <ele>1088</ele>
        <time>2018-03-30T21:18:01Z</time>
      </trkpt>
      <trkpt lat="44.88042" lon="3.84729">
        <ele>1088</ele>
        <time>2018-03-30T21:19:01Z</time>
      </trkpt>
      <trkpt lat="44.88039" lon="3.84632">
        <ele>1090</ele>
        <time>2018-03-30T21:20:01Z</time>
      </trkpt>
      <trkpt lat="44.88054" lon="3.84618">
        <ele>1090</ele>
        <time>2018-03-30T21:21:01Z</time>
      </trkpt>
      <trkpt lat="44.88101" lon="3.84607">
        <ele>1091</ele>
        <time>2018-03-30T21:22:01Z</time>
      </trkpt>
      <trkpt lat="44.88153" lon="3.84556">
        <ele>1094</ele>
        <time>2018-03-30T21:23:01Z</time>
      </trkpt>
      <trkpt lat="44.88163" lon="3.84524">
        <ele>1096</ele>
        <time>2018-03-30T21:24:01Z</time>
      </trkpt>
      <trkpt lat="44.8817" lon="3.84498">
        <ele>1098</ele>
        <time>2018-03-30T21:25:01Z</time>
      </trkpt>
      <trkpt lat="44.88181" lon="3.84472">
        <ele>1100</ele>
        <time>2018-03-30T21:26:01Z</time>
      </trkpt>
      <trkpt lat="44.88207" lon="3.84419">
        <ele>1102</ele>
        <time>2018-03-30T21:27:01Z</time>
      </trkpt>
      <trkpt lat="44.88263" lon="3.84345">
        <ele>1108</ele>
        <time>2018-03-30T21:28:01Z</time>
      </trkpt>
      <trkpt lat="44.88295" lon="3.84279">
        <ele>1112</ele>
        <time>2018-03-30T21:29:01Z</time>
      </trkpt>
      <trkpt lat="44.88324" lon="3.84241">
        <ele>1114</ele>
        <time>2018-03-30T21:30:01Z</time>
      </trkpt>
      <trkpt lat="44.88362" lon="3.84201">
        <ele>1117</ele>
        <time>2018-03-30T21:31:01Z</time>
      </trkpt>
      <trkpt lat="44.88434" lon="3.84099">
        <ele>1127</ele>
        <time>2018-03-30T21:32:01Z</time>
      </trkpt>
      <trkpt lat="44.88453" lon="3.84053">
        <ele>1128</ele>
        <time>2018-03-30T21:33:01Z</time>
      </trkpt>
      <trkpt lat="44.88456" lon="3.83944">
        <ele>1127</ele>
        <time>2018-03-30T21:34:01Z</time>
      </trkpt>
      <trkpt lat="44.88468" lon="3.83867">
        <ele>1125</ele>
        <time>2018-03-30T21:35:01Z</time>
      </trkpt>
      <trkpt lat="44.88503" lon="3.83708">
        <ele>1114</ele>
        <time>2018-03-30T21:36:01Z</time>
      </trkpt>
      <trkpt lat="44.8852" lon="3.83556">
        <ele>1119</ele>
        <time>2018-03-30T21:37:01Z</time>
      </trkpt>
      <trkpt lat="44.88567" lon="3.83393">
        <ele>1124</ele>
        <time>2018-03-30T21:38:01Z</time>
      </trkpt>
      <trkpt lat="44.88571" lon="3.83348">
        <ele>1127</ele>
        <time>2018-03-30T21:39:01Z</time>
      </trkpt>
      <trkpt lat="44.88583" lon="3.83282">
        <ele>1131</ele>
        <time>2018-03-30T21:40:01Z</time>
      </trkpt>
      <trkpt lat="44.88585" lon="3.83225">
        <ele>1130</ele>
        <time>2018-03-30T21:41:01Z</time>
      </trkpt>
      <trkpt lat="44.88592" lon="3.83149">
        <ele>1132</ele>
        <time>2018-03-30T21:42:01Z</time>
      </trkpt>
      <trkpt lat="44.88601" lon="3.83135">
        <ele>1132</ele>
        <time>2018-03-30T21:43:01Z</time>
      </trkpt>
      <trkpt lat="44.88606" lon="3.83082">
        <ele>1134</ele>
        <time>2018-03-30T21:44:01Z</time>
      </trkpt>
      <trkpt lat="44.88605" lon="3.83048">
        <ele>1135</ele>
        <time>2018-03-30T21:45:01Z</time>
      </trkpt>
      <trkpt lat="44.88617" lon="3.82953">
        <ele>1138</ele>
        <time>2018-03-30T21:46:01Z</time>
      </trkpt>
      <trkpt lat="44.88619" lon="3.82813">
        <ele>1141</ele>
        <time>2018-03-30T21:47:01Z</time>
      </trkpt>
      <trkpt lat="44.88611" lon="3.82755">
        <ele>1142</ele>
        <time>2018-03-30T21:48:01Z</time>
      </trkpt>
      <trkpt lat="44.88596" lon="3.82707">
        <ele>1146</ele>
        <time>2018-03-30T21:49:01Z</time>
      </trkpt>
      <trkpt lat="44.88594" lon="3.82666">
        <ele>1150</ele>
        <time>2018-03-30T21:50:01Z</time>
      </trkpt>
      <trkpt lat="44.88613" lon="3.8261">
        <ele>1150</ele>
        <time>2018-03-30T21:51:01Z</time>
      </trkpt>
      <trkpt lat="44.88624" lon="3.82561">
        <ele>1151</ele>
        <time>2018-03-30T21:52:01Z</time>
      </trkpt>
      <trkpt lat="44.88639" lon="3.82536">
        <ele>1150</ele>
        <time>2018-03-30T21:53:01Z</time>
      </trkpt>
      <trkpt lat="44.88654" lon="3.82487">
        <ele>1149</ele>
        <time>2018-03-30T21:54:01Z</time>
      </trkpt>
      <trkpt lat="44.88658" lon="3.82425">
        <ele>1149</ele>
        <time>2018-03-30T21:55:01Z</time>
      </trkpt>
      <trkpt lat="44.88673" lon="3.82315">
        <ele>1145</ele>
        <time>2018-03-30T21:56:01Z</time>
      </trkpt>
      <trkpt lat="44.88695" lon="3.82284">
        <ele>1144</ele>
        <time>2018-03-30T21:57:01Z</time>
      </trkpt>
      <trkpt lat="44.88718" lon="3.82237">
        <ele>1143</ele>
        <time>2018-03-30T21:58:01Z</time>
      </trkpt>
      <trkpt lat="44.88746" lon="3.82221">
        <ele>1143</ele>
        <time>2018-03-30T21:59:01Z</time>
      </trkpt>
      <trkpt lat="44.88815" lon="3.81992">
        <ele>1152</ele>
        <time>2018-03-30T22:00:01Z</time>
      </trkpt>
      <trkpt lat="44.88793" lon="3.81884">
        <ele>1154</ele>
        <time>2018-03-30T22:01:01Z</time>
      </trkpt>
      <trkpt lat="44.88815" lon="3.81797">
        <ele>1155</ele>
        <time>2018-03-30T22:02:01Z</time>
      </trkpt>
      <trkpt lat="44.88834" lon="3.81762">
        <ele>1158</ele>
        <time>2018-03-30T22:03:01Z</time>
      </trkpt>
      <trkpt lat="44.88843" lon="3.81549">
        <ele>1159</ele>
        <time>2018-03-30T22:04:01Z</time>
      </trkpt>
      <trkpt lat="44.8884" lon="3.81409">
        <ele>1159</ele>
        <time>2018-03-30T22:05:01Z</time>
      </trkpt>
      <trkpt lat="44.88862" lon="3.81372">
        <ele>1159</ele>
        <time>2018-03-30T22:06:01Z</time>
      </trkpt>
      <trkpt lat="44.889" lon="3.8129">
        <ele>1164</ele>
        <time>2018-03-30T22:07:01Z</time>
      </trkpt>
      <trkpt lat="44.88934" lon="3.81235">
        <ele>1168</ele>
        <time>2018-03-30T22:08:01Z</time>
      </trkpt>
      <trkpt lat="44.88942" lon="3.81154">
        <ele>1177</ele>
        <time>2018-03-30T22:09:01Z</time>
      </trkpt>
      <trkpt lat="44.88966" lon="3.8096">
        <ele>1195</ele>
        <time>2018-03-30T22:10:01Z</time>
      </trkpt>
      <trkpt lat="44.88983" lon="3.80902">
        <ele>1198</ele>
        <time>2018-03-30T22:11:01Z</time>
      </trkpt>
      <trkpt lat="44.88974" lon="3.80802">
        <ele>1205</ele>
        <time>2018-03-30T22:12:01Z</time>
      </trkpt>
      <trkpt lat="44.88978" lon="3.80719">
        <ele>1207</ele>
        <time>2018-03-30T22:13:01Z</time>
      </trkpt>
      <trkpt lat="44.8895" lon="3.80655">
        <ele>1206</ele>
        <time>2018-03-30T22:14:01Z</time>
      </trkpt>
      <trkpt lat="44.88931" lon="3.80553">
        <ele>1205</ele>
        <time>2018-03-30T22:15:01Z</time>
      </trkpt>
      <trkpt lat="44.88934" lon="3.80501">
        <ele>1205</ele>
        <time>2018-03-30T22:16:01Z</time>
      </trkpt>
      <trkpt lat="44.88926" lon="3.80457">
        <ele>1206</ele>
        <time>2018-03-30T22:17:01Z</time>
      </trkpt>
      <trkpt lat="44.88945" lon="3.80412">
        <ele>1206</ele>
        <time>2018-03-30T22:18:01Z</time>
      </trkpt>
      <trkpt lat="44.88984" lon="3.80287">
        <ele>1205</ele>
        <time>2018-03-30T22:19:01Z</time>
      </trkpt>
      <trkpt lat="44.89" lon="3.80204">
        <ele>1206</ele>
        <time>2018-03-30T22:20:01Z</time>
      </trkpt>
      <trkpt lat="44.88999" lon="3.80166">
        <ele>1206</ele>
        <time>2018-03-30T22:21:01Z</time>
      </trkpt>
      <trkpt lat="44.8892" lon="3.80115">
        <ele>1209</ele>
        <time>2018-03-30T22:22:01Z</time>
      </trkpt>
      <trkpt lat="44.88949" lon="3.79968">
        <ele>1211</ele>
        <time>2018-03-30T22:23:01Z</time>
      </trkpt>
      <trkpt lat="44.88992" lon="3.7963">
        <ele>1213</ele>
        <time>2018-03-30T22:24:01Z</time>
      </trkpt>
      <trkpt lat="44.89002" lon="3.79608">
        <ele>1213</ele>
        <time>2018-03-30T22:25:01Z</time>
      </trkpt>
      <trkpt lat="44.89042" lon="3.79572">
        <ele>1214</ele>
        <time>2018-03-30T22:26:01Z</time>
      </trkpt>
      <trkpt lat="44.89045" lon="3.79488">
        <ele>1215</ele>
        <time>2018-03-30T22:27:01Z</time>
      </trkpt>
      <trkpt lat="44.89057" lon="3.79444">
        <ele>1215</ele>
        <time>2018-03-30T22:28:01Z</time>
      </trkpt>
      <trkpt lat="44.89039" lon="3.79353">
        <ele>1215</ele>
        <time>2018-03-30T22:29:01Z</time>
      </trkpt>
      <trkpt lat="44.89" lon="3.79188">
        <ele>1218</ele>
        <time>2018-03-30T22:30:01Z</time>
      </trkpt>
      <trkpt lat="44.88974" lon="3.79103">
        <ele>1219</ele>
        <time>2018-03-30T22:31:01Z</time>
      </trkpt>
      <trkpt lat="44.89042" lon="3.79086">
        <ele>1220</ele>
        <time>2018-03-30T22:32:01Z</time>
      </trkpt>
      <trkpt lat="44.89058" lon="3.79021">
        <ele>1224</ele>
        <time>2018-03-30T22:33:01Z</time>
      </trkpt>
      <trkpt lat="44.89119" lon="3.7889">
        <ele>1227</ele>
        <time>2018-03-30T22:34:01Z</time>
      </trkpt>
      <trkpt lat="44.89094" lon="3.78824">
        <ele>1227</ele>
        <time>2018-03-30T22:35:01Z</time>
      </trkpt>
      <trkpt lat="44.88993" lon="3.78902">
        <ele>1225</ele>
        <time>2018-03-30T22:36:01Z</time>
      </trkpt>
      <trkpt lat="44.88917" lon="3.78958">
        <ele>1221</ele>
        <time>2018-03-30T22:37:01Z</time>
      </trkpt>
      <trkpt lat="44.88881" lon="3.78993">
        <ele>1219</ele>
        <time>2018-03-30T22:38:01Z</time>
      </trkpt>
      <trkpt lat="44.88852" lon="3.7902">
        <ele>1218</ele>
        <time>2018-03-30T22:39:01Z</time>
      </trkpt>
      <trkpt lat="44.88834" lon="3.79007">
        <ele>1217</ele>
        <time>2018-03-30T22:40:01Z</time>
      </trkpt>
      <trkpt lat="44.88817" lon="3.79008">
        <ele>1217</ele>
        <time>2018-03-30T22:41:01Z</time>
      </trkpt>
      <trkpt lat="44.88755" lon="3.79024">
        <ele>1217</ele>
        <time>2018-03-30T22:42:01Z</time>
      </trkpt>
      <trkpt lat="44.88682" lon="3.7904">
        <ele>1217</ele>
        <time>2018-03-30T22:43:01Z</time>
      </trkpt>
      <trkpt lat="44.88559" lon="3.79058">
        <ele>1218</ele>
        <time>2018-03-30T22:44:01Z</time>
      </trkpt>
      <trkpt lat="44.88443" lon="3.79083">
        <ele>1216</ele>
        <time>2018-03-30T22:45:01Z</time>
      </trkpt>
      <trkpt lat="44.88209" lon="3.79171">
        <ele>1210</ele>
        <time>2018-03-30T22:46:01Z</time>
      </trkpt>
      <trkpt lat="44.88107" lon="3.79221">
        <ele>1208</ele>
        <time>2018-03-30T22:47:01Z</time>
      </trkpt>
      <trkpt lat="44.88025" lon="3.7927">
        <ele>1204</ele>
        <time>2018-03-30T22:48:01Z</time>
      </trkpt>
      <trkpt lat="44.87842" lon="3.79401">
        <ele>1195</ele>
        <time>2018-03-30T22:49:01Z</time>
      </trkpt>
      <trkpt lat="44.87812" lon="3.79444">
        <ele>1193</ele>
        <time>2018-03-30T22:50:01Z</time>
      </trkpt>
      <trkpt lat="44.87684" lon="3.79581">
        <ele>1193</ele>
        <time>2018-03-30T22:51:01Z</time>
      </trkpt>
      <trkpt lat="44.87611" lon="3.7964">
        <ele>1193</ele>
        <time>2018-03-30T22:52:01Z</time>
      </trkpt>
      <trkpt lat="44.87572" lon="3.79654">
        <ele>1192</ele>
        <time>2018-03-30T22:53:01Z</time>
      </trkpt>
      <trkpt lat="44.87361" lon="3.79777">
        <ele>1193</ele>
        <time>2018-03-30T22:54:01Z</time>
      </trkpt>
      <trkpt lat="44.87207" lon="3.79868">
        <ele>1189</ele>
        <time>2018-03-30T22:55:01Z</time>
      </trkpt>
      <trkpt lat="44.87076" lon="3.79967">
        <ele>1180</ele>
        <time>2018-03-30T22:56:01Z</time>
      </trkpt>
      <trkpt lat="44.87031" lon="3.80007">
        <ele>1178</ele>
        <time>2018-03-30T22:57:01Z</time>
      </trkpt>
      <trkpt lat="44.86899" lon="3.80099">
        <ele>1172</ele>
        <time>2018-03-30T22:58:01Z</time>
      </trkpt>
      <trkpt lat="44.86867" lon="3.80126">
        <ele>1172</ele>
        <time>2018-03-30T22:59:01Z</time>
      </trkpt>
      <trkpt lat="44.86741" lon="3.80188">
        <ele>1167</ele>
        <time>2018-03-30T23:00:01Z</time>
      </trkpt>
      <trkpt lat="44.86686" lon="3.80226">
        <ele>1167</ele>
        <time>2018-03-30T23:01:01Z</time>
      </trkpt>
      <trkpt lat="44.86525" lon="3.80371">
        <ele>1162</ele>
        <time>2018-03-30T23:02:01Z</time>
      </trkpt>
      <trkpt lat="44.86491" lon="3.80389">
        <ele>1161</ele>
        <time>2018-03-30T23:03:01Z</time>
      </trkpt>
      <trkpt lat="44.86459" lon="3.80426">
        <ele>1161</ele>
        <time>2018-03-30T23:04:01Z</time>
      </trkpt>
      <trkpt lat="44.8644" lon="3.80492">
        <ele>1162</ele>
        <time>2018-03-30T23:05:01Z</time>
      </trkpt>
      <trkpt lat="44.86343" lon="3.8071">
        <ele>1156</ele>
        <time>2018-03-30T23:06:01Z</time>
      </trkpt>
      <trkpt lat="44.86273" lon="3.8081">
        <ele>1154</ele>
        <time>2018-03-30T23:07:01Z</time>
      </trkpt>
      <trkpt lat="44.86222" lon="3.80877">
        <ele>1152</ele>
        <time>2018-03-30T23:08:01Z</time>
      </trkpt>
      <trkpt lat="44.86193" lon="3.80938">
        <ele>1151</ele>
        <time>2018-03-30T23:09:01Z</time>
      </trkpt>
      <trkpt lat="44.86121" lon="3.80991">
        <ele>1151</ele>
        <time>2018-03-30T23:10:01Z</time>
      </trkpt>
      <trkpt lat="44.8608" lon="3.81019">
        <ele>1151</ele>
        <time>2018-03-30T23:11:01Z</time>
      </trkpt>
      <trkpt lat="44.86027" lon="3.81069">
        <ele>1151</ele>
        <time>2018-03-30T23:12:01Z</time>
      </trkpt>
      <trkpt lat="44.86006" lon="3.811">
        <ele>1150</ele>
        <time>2018-03-30T23:13:01Z</time>
      </trkpt>
      <trkpt lat="44.85984" lon="3.81148">
        <ele>1150</ele>
        <time>2018-03-30T23:14:01Z</time>
      </trkpt>
      <trkpt lat="44.85954" lon="3.81177">
        <ele>1149</ele>
        <time>2018-03-30T23:15:01Z</time>
      </trkpt>
      <trkpt lat="44.85901" lon="3.81196">
        <ele>1149</ele>
        <time>2018-03-30T23:16:01Z</time>
      </trkpt>
      <trkpt lat="44.8585" lon="3.81201">
        <ele>1149</ele>
        <time>2018-03-30T23:17:01Z</time>
      </trkpt>
      <trkpt lat="44.858" lon="3.81222">
        <ele>1148</ele>
        <time>2018-03-30T23:18:01Z</time>
      </trkpt>
      <trkpt lat="44.85748" lon="3.81234">
        <ele>1147</ele>
        <time>2018-03-30T23:19:01Z</time>
      </trkpt>
      <trkpt lat="44.85685" lon="3.81268">
        <ele>1146</ele>
        <time>2018-03-30T23:20:01Z</time>
      </trkpt>
      <trkpt lat="44.85592" lon="3.81338">
        <ele>1146</ele>
        <time>2018-03-30T23:21:01Z</time>
      </trkpt>
      <trkpt lat="44.85532" lon="3.81358">
        <ele>1144</ele>
        <time>2018-03-30T23:22:01Z</time>
      </trkpt>
      <trkpt lat="44.85474" lon="3.81401">
        <ele>1143</ele>
        <time>2018-03-30T23:23:01Z</time>
      </trkpt>
      <trkpt lat="44.85368" lon="3.8146">
        <ele>1142</ele>
        <time>2018-03-30T23:24:01Z</time>
      </trkpt>
      <trkpt lat="44.85309" lon="3.81496">
        <ele>1142</ele>
        <time>2018-03-30T23:25:01Z</time>
      </trkpt>
      <trkpt lat="44.85173" lon="3.81568">
        <ele>1140</ele>
        <time>2018-03-30T23:26:01Z</time>
      </trkpt>
      <trkpt lat="44.8514" lon="3.81598">
        <ele>1139</ele>
        <time>2018-03-30T23:27:01Z</time>
      </trkpt>
      <trkpt lat="44.85104" lon="3.81597">
        <ele>1140</ele>
        <time>2018-03-30T23:28:01Z</time>
      </trkpt>
      <trkpt lat="44.85047" lon="3.81713">
        <ele>1139</ele>
        <time>2018-03-30T23:29:01Z</time>
      </trkpt>
      <trkpt lat="44.84993" lon="3.81796">
        <ele>1139</ele>
        <time>2018-03-30T23:30:01Z</time>
      </trkpt>
      <trkpt lat="44.84951" lon="3.81948">
        <ele>1137</ele>
        <time>2018-03-30T23:31:01Z</time>
      </trkpt>
      <trkpt lat="44.84919" lon="3.82007">
        <ele>1137</ele>
        <time>2018-03-30T23:32:01Z</time>
      </trkpt>
      <trkpt lat="44.84903" lon="3.82052">
        <ele>1138</ele>
        <time>2018-03-30T23:33:01Z</time>
      </trkpt>
      <trkpt lat="44.84888" lon="3.82178">
        <ele>1135</ele>
        <time>2018-03-30T23:34:01Z</time>
      </trkpt>
      <trkpt lat="44.8488" lon="3.82256">
        <ele>1134</ele>
        <time>2018-03-30T23:35:01Z</time>
      </trkpt>
      <trkpt lat="44.84832" lon="3.82337">
        <ele>1130</ele>
        <time>2018-03-30T23:36:01Z</time>
      </trkpt>
      <trkpt lat="44.84805" lon="3.8237">
        <ele>1130</ele>
        <time>2018-03-30T23:37:01Z</time>
      </trkpt>
      <trkpt lat="44.84724" lon="3.82566">
        <ele>1119</ele>
        <time>2018-03-30T23:38:01Z</time>
      </trkpt>
      <trkpt lat="44.84699" lon="3.8262">
        <ele>1112</ele>
        <time>2018-03-30T23:39:01Z</time>
      </trkpt>
      <trkpt lat="44.84647" lon="3.82694">
        <ele>1106</ele>
        <time>2018-03-30T23:40:01Z</time>
      </trkpt>
      <trkpt lat="44.84622" lon="3.82726">
        <ele>1105</ele>
        <time>2018-03-30T23:41:01Z</time>
      </trkpt>
      <trkpt lat="44.84613" lon="3.82742">
        <ele>1104</ele>
        <time>2018-03-30T23:42:01Z</time>
      </trkpt>
      <trkpt lat="44.8461" lon="3.82763">
        <ele>1106</ele>
        <time>2018-03-30T23:43:01Z</time>
      </trkpt>
      <trkpt lat="44.84579" lon="3.82781">
        <ele>1103</ele>
        <time>2018-03-30T23:44:01Z</time>
      </trkpt>
      <trkpt lat="44.84539" lon="3.82816">
        <ele>1102</ele>
        <time>2018-03-30T23:45:01Z</time>
      </trkpt>
      <trkpt lat="44.8448" lon="3.82876">
        <ele>1099</ele>
        <time>2018-03-30T23:46:01Z</time>
      </trkpt>
      <trkpt lat="44.8446" lon="3.8289">
        <ele>1099</ele>
        <time>2018-03-30T23:47:01Z</time>
      </trkpt>
      <trkpt lat="44.8439" lon="3.8296">
        <ele>1096</ele>
        <time>2018-03-30T23:48:01Z</time>
      </trkpt>
      <trkpt lat="44.84378" lon="3.8298">
        <ele>1096</ele>
        <time>2018-03-30T23:49:01Z</time>
      </trkpt>
      <trkpt lat="44.84374" lon="3.83001">
        <ele>1099</ele>
        <time>2018-03-30T23:50:01Z</time>
      </trkpt>
      <trkpt lat="44.84306" lon="3.82993">
        <ele>1096</ele>
        <time>2018-03-30T23:51:01Z</time>
      </trkpt>
      <trkpt lat="44.84298" lon="3.82984">
        <ele>1096</ele>
        <time>2018-03-30T23:52:01Z</time>
      </trkpt>
      <trkpt lat="44.84265" lon="3.82998">
        <ele>1097</ele>
        <time>2018-03-30T23:53:01Z</time>
      </trkpt>
      <trkpt lat="44.84194" lon="3.82977">
        <ele>1096</ele>
        <time>2018-03-30T23:54:01Z</time>
      </trkpt>
      <trkpt lat="44.84168" lon="3.8298">
        <ele>1096</ele>
        <time>2018-03-30T23:55:01Z</time>
      </trkpt>
      <trkpt lat="44.84137" lon="3.82992">
        <ele>1094</ele>
        <time>2018-03-30T23:56:01Z</time>
      </trkpt>
      <trkpt lat="44.84107" lon="3.83021">
        <ele>1099</ele>
        <time>2018-03-30T23:57:01Z</time>
      </trkpt>
      <trkpt lat="44.84083" lon="3.83039">
        <ele>1095</ele>
        <time>2018-03-30T23:58:01Z</time>
      </trkpt>
      <trkpt lat="44.84065" lon="3.83062">
        <ele>1095</ele>
        <time>2018-03-30T23:59:01Z</time>
      </trkpt>
      <trkpt lat="44.84041" lon="3.83072">
        <ele>1094</ele>
        <time>2018-03-31T00:00:01Z</time>
      </trkpt>
      <trkpt lat="44.84026" lon="3.8309">
        <ele>1096</ele>
        <time>2018-03-31T00:01:01Z</time>
      </trkpt>
      <trkpt lat="44.84008" lon="3.8314">
        <ele>1099</ele>
        <time>2018-03-31T00:02:01Z</time>
      </trkpt>
      <trkpt lat="44.83963" lon="3.83188">
        <ele>1098</ele>
        <time>2018-03-31T00:03:01Z</time>
      </trkpt>
      <trkpt lat="44.83944" lon="3.8322">
        <ele>1099</ele>
        <time>2018-03-31T00:04:01Z</time>
      </trkpt>
      <trkpt lat="44.83899" lon="3.83265">
        <ele>1101</ele>
        <time>2018-03-31T00:05:01Z</time>
      </trkpt>
      <trkpt lat="44.83854" lon="3.83284">
        <ele>1100</ele>
        <time>2018-03-31T00:06:01Z</time>
      </trkpt>
      <trkpt lat="44.8383" lon="3.83279">
        <ele>1097</ele>
        <time>2018-03-31T00:07:01Z</time>
      </trkpt>
      <trkpt lat="44.83754" lon="3.83283">
        <ele>1098</ele>
        <time>2018-03-31T00:08:01Z</time>
      </trkpt>
      <trkpt lat="44.83669" lon="3.83296">
        <ele>1099</ele>
        <time>2018-03-31T00:09:01Z</time>
      </trkpt>
      <trkpt lat="44.83526" lon="3.83302">
        <ele>1102</ele>
        <time>2018-03-31T00:10:01Z</time>
      </trkpt>
      <trkpt lat="44.83494" lon="3.8332">
        <ele>1104</ele>
        <time>2018-03-31T00:11:01Z</time>
      </trkpt>
      <trkpt lat="44.83439" lon="3.83249">
        <ele>1103</ele>
        <time>2018-03-31T00:12:01Z</time>
      </trkpt>
      <trkpt lat="44.83396" lon="3.83196">
        <ele>1107</ele>
        <time>2018-03-31T00:13:01Z</time>
      </trkpt>
      <trkpt lat="44.83302" lon="3.83104">
        <ele>1113</ele>
        <time>2018-03-31T00:14:01Z</time>
      </trkpt>
      <trkpt lat="44.83244" lon="3.83058">
        <ele>1115</ele>
        <time>2018-03-31T00:15:01Z</time>
      </trkpt>
      <trkpt lat="44.83191" lon="3.83">
        <ele>1115</ele>
        <time>2018-03-31T00:16:01Z</time>
      </trkpt>
      <trkpt lat="44.83172" lon="3.82971">
        <ele>1112</ele>
        <time>2018-03-31T00:17:01Z</time>
      </trkpt>
      <trkpt lat="44.83144" lon="3.82938">
        <ele>1112</ele>
        <time>2018-03-31T00:18:01Z</time>
      </trkpt>
      <trkpt lat="44.83106" lon="3.8286">
        <ele>1109</ele>
        <time>2018-03-31T00:19:01Z</time>
      </trkpt>
      <trkpt lat="44.83063" lon="3.82735">
        <ele>1106</ele>
        <time>2018-03-31T00:20:01Z</time>
      </trkpt>
      <trkpt lat="44.83047" lon="3.82694">
        <ele>1106</ele>
        <time>2018-03-31T00:21:01Z</time>
      </trkpt>
      <trkpt lat="44.83025" lon="3.82601">
        <ele>1108</ele>
        <time>2018-03-31T00:22:01Z</time>
      </trkpt>
      <trkpt lat="44.82998" lon="3.82498">
        <ele>1113</ele>
        <time>2018-03-31T00:23:01Z</time>
      </trkpt>
      <trkpt lat="44.82914" lon="3.82375">
        <ele>1112</ele>
        <time>2018-03-31T00:24:01Z</time>
      </trkpt>
      <trkpt lat="44.82868" lon="3.82346">
        <ele>1111</ele>
        <time>2018-03-31T00:25:01Z</time>
      </trkpt>
      <trkpt lat="44.82769" lon="3.823">
        <ele>1108</ele>
        <time>2018-03-31T00:26:01Z</time>
      </trkpt>
      <trkpt lat="44.82707" lon="3.8223">
        <ele>1105</ele>
        <time>2018-03-31T00:27:01Z</time>
      </trkpt>
      <trkpt lat="44.82684" lon="3.82184">
        <ele>1105</ele>
        <time>2018-03-31T00:28:01Z</time>
      </trkpt>
      <trkpt lat="44.82571" lon="3.82019">
        <ele>1093</ele>
        <time>2018-03-31T00:29:01Z</time>
      </trkpt>
      <trkpt lat="44.82514" lon="3.81968">
        <ele>1091</ele>
        <time>2018-03-31T00:30:01Z</time>
      </trkpt>
      <trkpt lat="44.82468" lon="3.81936">
        <ele>1089</ele>
        <time>2018-03-31T00:31:01Z</time>
      </trkpt>
      <trkpt lat="44.82333" lon="3.81803">
        <ele>1079</ele>
        <time>2018-03-31T00:32:01Z</time>
      </trkpt>
      <trkpt lat="44.82272" lon="3.81693">
        <ele>1074</ele>
        <time>2018-03-31T00:33:01Z</time>
      </trkpt>
      <trkpt lat="44.82214" lon="3.8155">
        <ele>1067</ele>
        <time>2018-03-31T00:34:01Z</time>
      </trkpt>
      <trkpt lat="44.82192" lon="3.81456">
        <ele>1064</ele>
        <time>2018-03-31T00:35:01Z</time>
      </trkpt>
      <trkpt lat="44.82185" lon="3.81409">
        <ele>1061</ele>
        <time>2018-03-31T00:36:01Z</time>
      </trkpt>
      <trkpt lat="44.82153" lon="3.81338">
        <ele>1059</ele>
        <time>2018-03-31T00:37:01Z</time>
      </trkpt>
      <trkpt lat="44.82145" lon="3.81278">
        <ele>1056</ele>
        <time>2018-03-31T00:38:01Z</time>
      </trkpt>
      <trkpt lat="44.82112" lon="3.81189">
        <ele>1050</ele>
        <time>2018-03-31T00:39:01Z</time>
      </trkpt>
      <trkpt lat="44.82096" lon="3.81204">
        <ele>1050</ele>
        <time>2018-03-31T00:40:01Z</time>
      </trkpt>
      <trkpt lat="44.82051" lon="3.81212">
        <ele>1049</ele>
        <time>2018-03-31T00:41:01Z</time>
      </trkpt>
      <trkpt lat="44.82018" lon="3.81195">
        <ele>1049</ele>
        <time>2018-03-31T00:42:01Z</time>
      </trkpt>
      <trkpt lat="44.81946" lon="3.81128">
        <ele>1045</ele>
        <time>2018-03-31T00:43:01Z</time>
      </trkpt>
      <trkpt lat="44.81929" lon="3.81126">
        <ele>1045</ele>
        <time>2018-03-31T00:44:01Z</time>
      </trkpt>
      <trkpt lat="44.81884" lon="3.81149">
        <ele>1045</ele>
        <time>2018-03-31T00:45:01Z</time>
      </trkpt>
      <trkpt lat="44.81822" lon="3.81188">
        <ele>1037</ele>
        <time>2018-03-31T00:46:01Z</time>
      </trkpt>
      <trkpt lat="44.81823" lon="3.8121">
        <ele>1035</ele>
        <time>2018-03-31T00:47:01Z</time>
      </trkpt>
      <trkpt lat="44.8185" lon="3.81253">
        <ele>1037</ele>
        <time>2018-03-31T00:48:01Z</time>
      </trkpt>
      <trkpt lat="44.81886" lon="3.81348">
        <ele>1034</ele>
        <time>2018-03-31T00:49:01Z</time>
      </trkpt>
      <trkpt lat="44.81894" lon="3.81392">
        <ele>1034</ele>
        <time>2018-03-31T00:50:01Z</time>
      </trkpt>
      <trkpt lat="44.81892" lon="3.81455">
        <ele>1031</ele>
        <time>2018-03-31T00:51:01Z</time>
      </trkpt>
      <trkpt lat="44.81859" lon="3.81511">
        <ele>1027</ele>
        <time>2018-03-31T00:52:01Z</time>
      </trkpt>
      <trkpt lat="44.81829" lon="3.81568">
        <ele>1026</ele>
        <time>2018-03-31T00:53:01Z</time>
      </trkpt>
      <trkpt lat="44.81813" lon="3.81571">
        <ele>1027</ele>
        <time>2018-03-31T00:54:01Z</time>
      </trkpt>
      <trkpt lat="44.81792" lon="3.81558">
        <ele>1029</ele>
        <time>2018-03-31T00:55:01Z</time>
      </trkpt>
      <trkpt lat="44.8176" lon="3.81527">
        <ele>1029</ele>
        <time>2018-03-31T00:56:01Z</time>
      </trkpt>
      <trkpt lat="44.81726" lon="3.81503">
        <ele>1036</ele>
        <time>2018-03-31T00:57:01Z</time>
      </trkpt>
      <trkpt lat="44.81689" lon="3.81469">
        <ele>1034</ele>
        <time>2018-03-31T00:58:01Z</time>
      </trkpt>
      <trkpt lat="44.81667" lon="3.81461">
        <ele>1034</ele>
        <time>2018-03-31T00:59:01Z</time>
      </trkpt>
      <trkpt lat="44.81648" lon="3.81439">
        <ele>1038</ele>
        <time>2018-03-31T01:00:01Z</time>
      </trkpt>
      <trkpt lat="44.81619" lon="3.81436">
        <ele>1040</ele>
        <time>2018-03-31T01:01:01Z</time>
      </trkpt>
      <trkpt lat="44.81549" lon="3.81445">
        <ele>1042</ele>
        <time>2018-03-31T01:02:01Z</time>
      </trkpt>
      <trkpt lat="44.81508" lon="3.81443">
        <ele>1041</ele>
        <time>2018-03-31T01:03:01Z</time>
      </trkpt>
      <trkpt lat="44.81478" lon="3.81454">
        <ele>1041</ele>
        <time>2018-03-31T01:04:01Z</time>
      </trkpt>
      <trkpt lat="44.81443" lon="3.81475">
        <ele>1041</ele>
        <time>2018-03-31T01:05:01Z</time>
      </trkpt>
      <trkpt lat="44.81415" lon="3.8147">
        <ele>1039</ele>
        <time>2018-03-31T01:06:01Z</time>
      </trkpt>
      <trkpt lat="44.81324" lon="3.81612">
        <ele>1042</ele>
        <time>2018-03-31T01:07:01Z</time>
      </trkpt>
      <trkpt lat="44.81295" lon="3.81638">
        <ele>1042</ele>
        <time>2018-03-31T01:08:01Z</time>
      </trkpt>
      <trkpt lat="44.81254" lon="3.81648">
        <ele>1041</ele>
        <time>2018-03-31T01:09:01Z</time>
      </trkpt>
      <trkpt lat="44.81189" lon="3.8175">
        <ele>1040</ele>
        <time>2018-03-31T01:10:01Z</time>
      </trkpt>
      <trkpt lat="44.81177" lon="3.81756">
        <ele>1040</ele>
        <time>2018-03-31T01:11:01Z</time>
      </trkpt>
      <trkpt lat="44.81152" lon="3.81728">
        <ele>1038</ele>
        <time>2018-03-31T01:12:01Z</time>
      </trkpt>
      <trkpt lat="44.81141" lon="3.81729">
        <ele>1037</ele>
        <time>2018-03-31T01:13:01Z</time>
      </trkpt>
      <trkpt lat="44.81086" lon="3.81843">
        <ele>1037</ele>
        <time>2018-03-31T01:14:01Z</time>
      </trkpt>
      <trkpt lat="44.81064" lon="3.8188">
        <ele>1036</ele>
        <time>2018-03-31T01:15:01Z</time>
      </trkpt>
      <trkpt lat="44.8104" lon="3.81948">
        <ele>1036</ele>
        <time>2018-03-31T01:16:01Z</time>
      </trkpt>
      <trkpt lat="44.81007" lon="3.82003">
        <ele>1035</ele>
        <time>2018-03-31T01:17:01Z</time>
      </trkpt>
      <trkpt lat="44.80921" lon="3.82214">
        <ele>1024</ele>
        <time>2018-03-31T01:18:01Z</time>
      </trkpt>
      <trkpt lat="44.80897" lon="3.82247">
        <ele>1020</ele>
        <time>2018-03-31T01:19:01Z</time>
      </trkpt>
      <trkpt lat="44.80902" lon="3.82281">
        <ele>1020</ele>
        <time>2018-03-31T01:20:01Z</time>
      </trkpt>
      <trkpt lat="44.80899" lon="3.82332">
        <ele>1022</ele>
        <time>2018-03-31T01:21:01Z</time>
      </trkpt>
      <trkpt lat="44.80813" lon="3.82344">
        <ele>1018</ele>
        <time>2018-03-31T01:22:01Z</time>
      </trkpt>
      <trkpt lat="44.80747" lon="3.82342">
        <ele>1012</ele>
        <time>2018-03-31T01:23:01Z</time>
      </trkpt>
      <trkpt lat="44.80688" lon="3.82378">
        <ele>1007</ele>
        <time>2018-03-31T01:24:01Z</time>
      </trkpt>
      <trkpt lat="44.80685" lon="3.82486">
        <ele>1007</ele>
        <time>2018-03-31T01:25:01Z</time>
      </trkpt>
      <trkpt lat="44.80673" lon="3.82534">
        <ele>1005</ele>
        <time>2018-03-31T01:26:01Z</time>
      </trkpt>
      <trkpt lat="44.80673" lon="3.82582">
        <ele>997</ele>
        <time>2018-03-31T01:27:01Z</time>
      </trkpt>
      <trkpt lat="44.80684" lon="3.82608">
        <ele>996</ele>
        <time>2018-03-31T01:28:01Z</time>
      </trkpt>
      <trkpt lat="44.80722" lon="3.82647">
        <ele>997</ele>
        <time>2018-03-31T01:29:01Z</time>
      </trkpt>
      <trkpt lat="44.80737" lon="3.82674">
        <ele>994</ele>
        <time>2018-03-31T01:30:01Z</time>
      </trkpt>
      <trkpt lat="44.80752" lon="3.82755">
        <ele>991</ele>
        <time>2018-03-31T01:31:01Z</time>
      </trkpt>
      <trkpt lat="44.80743" lon="3.82783">
        <ele>992</ele>
        <time>2018-03-31T01:32:01Z</time>
      </trkpt>
      <trkpt lat="44.80728" lon="3.82792">
        <ele>993</ele>
        <time>2018-03-31T01:33:01Z</time>
      </trkpt>
      <trkpt lat="44.80676" lon="3.82766">
        <ele>989</ele>
        <time>2018-03-31T01:34:01Z</time>
      </trkpt>
      <trkpt lat="44.8065" lon="3.82746">
        <ele>986</ele>
        <time>2018-03-31T01:35:01Z</time>
      </trkpt>
      <trkpt lat="44.80591" lon="3.82745">
        <ele>992</ele>
        <time>2018-03-31T01:36:01Z</time>
      </trkpt>
      <trkpt lat="44.80546" lon="3.82765">
        <ele>1004</ele>
        <time>2018-03-31T01:37:01Z</time>
      </trkpt>
      <trkpt lat="44.80468" lon="3.82786">
        <ele>1007</ele>
        <time>2018-03-31T01:38:01Z</time>
      </trkpt>
      <trkpt lat="44.80424" lon="3.82829">
        <ele>1009</ele>
        <time>2018-03-31T01:39:01Z</time>
      </trkpt>
      <trkpt lat="44.80422" lon="3.82848">
        <ele>1011</ele>
        <time>2018-03-31T01:40:01Z</time>
      </trkpt>
      <trkpt lat="44.80415" lon="3.82863">
        <ele>1010</ele>
        <time>2018-03-31T01:41:01Z</time>
      </trkpt>
      <trkpt lat="44.80345" lon="3.82937">
        <ele>1017</ele>
        <time>2018-03-31T01:42:01Z</time>
      </trkpt>
      <trkpt lat="44.80326" lon="3.8297">
        <ele>1019</ele>
        <time>2018-03-31T01:43:01Z</time>
      </trkpt>
      <trkpt lat="44.80328" lon="3.83022">
        <ele>1024</ele>
        <time>2018-03-31T01:44:01Z</time>
      </trkpt>
      <trkpt lat="44.80405" lon="3.83019">
        <ele>1025</ele>
        <time>2018-03-31T01:45:01Z</time>
      </trkpt>
      <trkpt lat="44.80497" lon="3.83038">
        <ele>1029</ele>
        <time>2018-03-31T01:46:01Z</time>
      </trkpt>
      <trkpt lat="44.80618" lon="3.83085">
        <ele>1039</ele>
        <time>2018-03-31T01:47:01Z</time>
      </trkpt>
      <trkpt lat="44.80668" lon="3.83088">
        <ele>1035</ele>
        <time>2018-03-31T01:48:01Z</time>
      </trkpt>
      <trkpt lat="44.80642" lon="3.83245">
        <ele>1055</ele>
        <time>2018-03-31T01:49:01Z</time>
      </trkpt>
      <trkpt lat="44.80613" lon="3.83347">
        <ele>1068</ele>
        <time>2018-03-31T01:50:01Z</time>
      </trkpt>
      <trkpt lat="44.80583" lon="3.83399">
        <ele>1073</ele>
        <time>2018-03-31T01:51:01Z</time>
      </trkpt>
      <trkpt lat="44.80548" lon="3.83447">
        <ele>1078</ele>
        <time>2018-03-31T01:52:01Z</time>
      </trkpt>
      <trkpt lat="44.80498" lon="3.83533">
        <ele>1085</ele>
        <time>2018-03-31T01:53:01Z</time>
      </trkpt>
      <trkpt lat="44.80477" lon="3.83556">
        <ele>1086</ele>
        <time>2018-03-31T01:54:01Z</time>
      </trkpt>
      <trkpt lat="44.80388" lon="3.83722">
        <ele>1098</ele>
        <time>2018-03-31T01:55:01Z</time>
      </trkpt>
      <trkpt lat="44.80373" lon="3.83776">
        <ele>1102</ele>
        <time>2018-03-31T01:56:01Z</time>
      </trkpt>
      <trkpt lat="44.80372" lon="3.83807">
        <ele>1102</ele>
        <time>2018-03-31T01:57:01Z</time>
      </trkpt>
      <trkpt lat="44.80297" lon="3.83972">
        <ele>1112</ele>
        <time>2018-03-31T01:58:01Z</time>
      </trkpt>
      <trkpt lat="44.80241" lon="3.84104">
        <ele>1126</ele>
        <time>2018-03-31T01:59:01Z</time>
      </trkpt>
      <trkpt lat="44.80213" lon="3.842">
        <ele>1133</ele>
        <time>2018-03-31T02:00:01Z</time>
      </trkpt>
      <trkpt lat="44.80197" lon="3.84309">
        <ele>1139</ele>
        <time>2018-03-31T02:01:01Z</time>
      </trkpt>
      <trkpt lat="44.80169" lon="3.84363">
        <ele>1143</ele>
        <time>2018-03-31T02:02:01Z</time>
      </trkpt>
      <trkpt lat="44.80133" lon="3.84454">
        <ele>1151</ele>
        <time>2018-03-31T02:03:01Z</time>
      </trkpt>
      <trkpt lat="44.80117" lon="3.84515">
        <ele>1154</ele>
        <time>2018-03-31T02:04:01Z</time>
      </trkpt>
      <trkpt lat="44.80098" lon="3.84561">
        <ele>1154</ele>
        <time>2018-03-31T02:05:01Z</time>
      </trkpt>
      <trkpt lat="44.80092" lon="3.84633">
        <ele>1154</ele>
        <time>2018-03-31T02:06:01Z</time>
      </trkpt>
      <trkpt lat="44.80066" lon="3.84696">
        <ele>1149</ele>
        <time>2018-03-31T02:07:01Z</time>
      </trkpt>
      <trkpt lat="44.80069" lon="3.8482">
        <ele>1145</ele>
        <time>2018-03-31T02:08:01Z</time>
      </trkpt>
      <trkpt lat="44.80082" lon="3.84972">
        <ele>1140</ele>
        <time>2018-03-31T02:09:01Z</time>
      </trkpt>
      <trkpt lat="44.80076" lon="3.85033">
        <ele>1139</ele>
        <time>2018-03-31T02:10:01Z</time>
      </trkpt>
      <trkpt lat="44.80069" lon="3.85053">
        <ele>1139</ele>
        <time>2018-03-31T02:11:01Z</time>
      </trkpt>
      <trkpt lat="44.80075" lon="3.85083">
        <ele>1139</ele>
        <time>2018-03-31T02:12:01Z</time>
      </trkpt>
      <trkpt lat="44.80018" lon="3.85159">
        <ele>1142</ele>
        <time>2018-03-31T02:13:01Z</time>
      </trkpt>
      <trkpt lat="44.80003" lon="3.8517">
        <ele>1144</ele>
        <time>2018-03-31T02:14:01Z</time>
      </trkpt>
      <trkpt lat="44.79914" lon="3.853">
        <ele>1144</ele>
        <time>2018-03-31T02:15:01Z</time>
      </trkpt>
      <trkpt lat="44.79768" lon="3.85435">
        <ele>1151</ele>
        <time>2018-03-31T02:16:01Z</time>
      </trkpt>
      <trkpt lat="44.79731" lon="3.8548">
        <ele>1149</ele>
        <time>2018-03-31T02:17:01Z</time>
      </trkpt>
      <trkpt lat="44.79706" lon="3.85524">
        <ele>1157</ele>
        <time>2018-03-31T02:18:01Z</time>
      </trkpt>
      <trkpt lat="44.79651" lon="3.85549">
        <ele>1152</ele>
        <time>2018-03-31T02:19:01Z</time>
      </trkpt>
      <trkpt lat="44.79525" lon="3.8565">
        <ele>1151</ele>
        <time>2018-03-31T02:20:01Z</time>
      </trkpt>
      <trkpt lat="44.79487" lon="3.85689">
        <ele>1149</ele>
        <time>2018-03-31T02:21:01Z</time>
      </trkpt>
      <trkpt lat="44.79424" lon="3.858">
        <ele>1154</ele>
        <time>2018-03-31T02:22:01Z</time>
      </trkpt>
      <trkpt lat="44.79376" lon="3.85859">
        <ele>1156</ele>
        <time>2018-03-31T02:23:01Z</time>
      </trkpt>
      <trkpt lat="44.79355" lon="3.85874">
        <ele>1156</ele>
        <time>2018-03-31T02:24:01Z</time>
      </trkpt>
      <trkpt lat="44.79343" lon="3.85867">
        <ele>1156</ele>
        <time>2018-03-31T02:25:01Z</time>
      </trkpt>
      <trkpt lat="44.79277" lon="3.8589">
        <ele>1157</ele>
        <time>2018-03-31T02:26:01Z</time>
      </trkpt>
      <trkpt lat="44.79202" lon="3.85873">
        <ele>1156</ele>
        <time>2018-03-31T02:27:01Z</time>
      </trkpt>
      <trkpt lat="44.79143" lon="3.8588">
        <ele>1156</ele>
        <time>2018-03-31T02:28:01Z</time>
      </trkpt>
      <trkpt lat="44.79096" lon="3.85904">
        <ele>1157</ele>
        <time>2018-03-31T02:29:01Z</time>
      </trkpt>
      <trkpt lat="44.79043" lon="3.85918">
        <ele>1158</ele>
        <time>2018-03-31T02:30:01Z</time>
      </trkpt>
      <trkpt lat="44.79006" lon="3.85937">
        <ele>1156</ele>
        <time>2018-03-31T02:31:01Z</time>
      </trkpt>
      <trkpt lat="44.78969" lon="3.85967">
        <ele>1151</ele>
        <time>2018-03-31T02:32:01Z</time>
      </trkpt>
      <trkpt lat="44.78962" lon="3.85999">
        <ele>1151</ele>
        <time>2018-03-31T02:33:01Z</time>
      </trkpt>
      <trkpt lat="44.78965" lon="3.86027">
        <ele>1155</ele>
        <time>2018-03-31T02:34:01Z</time>
      </trkpt>
      <trkpt lat="44.78959" lon="3.86072">
        <ele>1155</ele>
        <time>2018-03-31T02:35:01Z</time>
      </trkpt>
      <trkpt lat="44.78945" lon="3.86095">
        <ele>1157</ele>
        <time>2018-03-31T02:36:01Z</time>
      </trkpt>
      <trkpt lat="44.7893" lon="3.86106">
        <ele>1156</ele>
        <time>2018-03-31T02:37:01Z</time>
      </trkpt>
      <trkpt lat="44.78885" lon="3.86051">
        <ele>1152</ele>
        <time>2018-03-31T02:38:01Z</time>
      </trkpt>
      <trkpt lat="44.78864" lon="3.86036">
        <ele>1152</ele>
        <time>2018-03-31T02:39:01Z</time>
      </trkpt>
      <trkpt lat="44.78853" lon="3.86052">
        <ele>1154</ele>
        <time>2018-03-31T02:40:01Z</time>
      </trkpt>
      <trkpt lat="44.78823" lon="3.86069">
        <ele>1159</ele>
        <time>2018-03-31T02:41:01Z</time>
      </trkpt>
      <trkpt lat="44.78796" lon="3.86082">
        <ele>1160</ele>
        <time>2018-03-31T02:42:01Z</time>
      </trkpt>
      <trkpt lat="44.78742" lon="3.86138">
        <ele>1172</ele>
        <time>2018-03-31T02:43:01Z</time>
      </trkpt>
      <trkpt lat="44.78725" lon="3.86147">
        <ele>1172</ele>
        <time>2018-03-31T02:44:01Z</time>
      </trkpt>
      <trkpt lat="44.78646" lon="3.86345">
        <ele>1191</ele>
        <time>2018-03-31T02:45:01Z</time>
      </trkpt>
      <trkpt lat="44.78551" lon="3.86531">
        <ele>1205</ele>
        <time>2018-03-31T02:46:01Z</time>
      </trkpt>
      <trkpt lat="44.78537" lon="3.8658">
        <ele>1207</ele>
        <time>2018-03-31T02:47:01Z</time>
      </trkpt>
      <trkpt lat="44.78394" lon="3.86763">
        <ele>1214</ele>
        <time>2018-03-31T02:48:01Z</time>
      </trkpt>
      <trkpt lat="44.78372" lon="3.86802">
        <ele>1215</ele>
        <time>2018-03-31T02:49:01Z</time>
      </trkpt>
      <trkpt lat="44.78315" lon="3.86934">
        <ele>1225</ele>
        <time>2018-03-31T02:50:01Z</time>
      </trkpt>
      <trkpt lat="44.78248" lon="3.87062">
        <ele>1230</ele>
        <time>2018-03-31T02:51:01Z</time>
      </trkpt>
      <trkpt lat="44.78241" lon="3.8709">
        <ele>1231</ele>
        <time>2018-03-31T02:52:01Z</time>
      </trkpt>
      <trkpt lat="44.78244" lon="3.87121">
        <ele>1230</ele>
        <time>2018-03-31T02:53:01Z</time>
      </trkpt>
      <trkpt lat="44.78304" lon="3.87251">
        <ele>1232</ele>
        <time>2018-03-31T02:54:01Z</time>
      </trkpt>
      <trkpt lat="44.78295" lon="3.87388">
        <ele>1229</ele>
        <time>2018-03-31T02:55:01Z</time>
      </trkpt>
      <trkpt lat="44.78286" lon="3.87441">
        <ele>1228</ele>
        <time>2018-03-31T02:56:01Z</time>
      </trkpt>
      <trkpt lat="44.7828" lon="3.87487">
        <ele>1228</ele>
        <time>2018-03-31T02:57:01Z</time>
      </trkpt>
      <trkpt lat="44.78282" lon="3.87533">
        <ele>1229</ele>
        <time>2018-03-31T02:58:01Z</time>
      </trkpt>
      <trkpt lat="44.78293" lon="3.8757">
        <ele>1229</ele>
        <time>2018-03-31T02:59:01Z</time>
      </trkpt>
      <trkpt lat="44.783" lon="3.87604">
        <ele>1230</ele>
        <time>2018-03-31T03:00:01Z</time>
      </trkpt>
      <trkpt lat="44.78279" lon="3.87626">
        <ele>1230</ele>
        <time>2018-03-31T03:01:01Z</time>
      </trkpt>
      <trkpt lat="44.7825" lon="3.87648">
        <ele>1229</ele>
        <time>2018-03-31T03:02:01Z</time>
      </trkpt>
      <trkpt lat="44.7814" lon="3.87686">
        <ele>1223</ele>
        <time>2018-03-31T03:03:01Z</time>
      </trkpt>
      <trkpt lat="44.78104" lon="3.87691">
        <ele>1220</ele>
        <time>2018-03-31T03:04:01Z</time>
      </trkpt>
      <trkpt lat="44.78066" lon="3.87735">
        <ele>1212</ele>
        <time>2018-03-31T03:05:01Z</time>
      </trkpt>
      <trkpt lat="44.7801" lon="3.87769">
        <ele>1209</ele>
        <time>2018-03-31T03:06:01Z</time>
      </trkpt>
      <trkpt lat="44.77988" lon="3.87843">
        <ele>1207</ele>
        <time>2018-03-31T03:07:01Z</time>
      </trkpt>
      <trkpt lat="44.77972" lon="3.87859">
        <ele>1206</ele>
        <time>2018-03-31T03:08:01Z</time>
      </trkpt>
      <trkpt lat="44.7795" lon="3.87862">
        <ele>1204</ele>
        <time>2018-03-31T03:09:01Z</time>
      </trkpt>
      <trkpt lat="44.77909" lon="3.87857">
        <ele>1189</ele>
        <time>2018-03-31T03:10:01Z</time>
      </trkpt>
      <trkpt lat="44.77884" lon="3.87884">
        <ele>1186</ele>
        <time>2018-03-31T03:11:01Z</time>
      </trkpt>
      <trkpt lat="44.77872" lon="3.87913">
        <ele>1184</ele>
        <time>2018-03-31T03:12:01Z</time>
      </trkpt>
      <trkpt lat="44.77833" lon="3.87985">
        <ele>1172</ele>
        <time>2018-03-31T03:13:01Z</time>
      </trkpt>
      <trkpt lat="44.77721" lon="3.88152">
        <ele>1151</ele>
        <time>2018-03-31T03:14:01Z</time>
      </trkpt>
      <trkpt lat="44.77655" lon="3.88309">
        <ele>1151</ele>
        <time>2018-03-31T03:15:01Z</time>
      </trkpt>
      <trkpt lat="44.77632" lon="3.8833">
        <ele>1151</ele>
        <time>2018-03-31T03:16:01Z</time>
      </trkpt>
      <trkpt lat="44.7761" lon="3.88308">
        <ele>1150</ele>
        <time>2018-03-31T03:17:01Z</time>
      </trkpt>
      <trkpt lat="44.77575" lon="3.8824">
        <ele>1143</ele>
        <time>2018-03-31T03:18:01Z</time>
      </trkpt>
      <trkpt lat="44.7754" lon="3.88203">
        <ele>1141</ele>
        <time>2018-03-31T03:19:01Z</time>
      </trkpt>
      <trkpt lat="44.77517" lon="3.88195">
        <ele>1142</ele>
        <time>2018-03-31T03:20:01Z</time>
      </trkpt>
      <trkpt lat="44.7749" lon="3.88203">
        <ele>1143</ele>
        <time>2018-03-31T03:21:01Z</time>
      </trkpt>
      <trkpt lat="44.77381" lon="3.88296">
        <ele>1151</ele>
        <time>2018-03-31T03:22:01Z</time>
      </trkpt>
      <trkpt lat="44.77314" lon="3.88301">
        <ele>1151</ele>
        <time>2018-03-31T03:23:01Z</time>
      </trkpt>
      <trkpt lat="44.77173" lon="3.88366">
        <ele>1165</ele>
        <time>2018-03-31T03:24:01Z</time>
      </trkpt>
      <trkpt lat="44.77063" lon="3.88303">
        <ele>1156</ele>
        <time>2018-03-31T03:25:01Z</time>
      </trkpt>
      <trkpt lat="44.77037" lon="3.88299">
        <ele>1155</ele>
        <time>2018-03-31T03:26:01Z</time>
      </trkpt>
      <trkpt lat="44.77006" lon="3.88312">
        <ele>1156</ele>
        <time>2018-03-31T03:27:01Z</time>
      </trkpt>
      <trkpt lat="44.76983" lon="3.88288">
        <ele>1153</ele>
        <time>2018-03-31T03:28:01Z</time>
      </trkpt>
      <trkpt lat="44.76974" lon="3.88294">
        <ele>1153</ele>
        <time>2018-03-31T03:29:01Z</time>
      </trkpt>
      <trkpt lat="44.76968" lon="3.88297">
        <ele>1154</ele>
        <time>2018-03-31T03:30:01Z</time>
      </trkpt>
      <trkpt lat="44.76945" lon="3.88278">
        <ele>1153</ele>
        <time>2018-03-31T03:31:01Z</time>
      </trkpt>
      <trkpt lat="44.76931" lon="3.88267">
        <ele>1152</ele>
        <time>2018-03-31T03:32:01Z</time>
      </trkpt>
      <trkpt lat="44.76923" lon="3.8824">
        <ele>1150</ele>
        <time>2018-03-31T03:33:01Z</time>
      </trkpt>
      <trkpt lat="44.7691" lon="3.88232">
        <ele>1147</ele>
        <time>2018-03-31T03:34:01Z</time>
      </trkpt>
      <trkpt lat="44.76898" lon="3.88217">
        <ele>1145</ele>
        <time>2018-03-31T03:35:01Z</time>
      </trkpt>
      <trkpt lat="44.76887" lon="3.88229">
        <ele>1144</ele>
        <time>2018-03-31T03:36:01Z</time>
      </trkpt>
      <trkpt lat="44.76876" lon="3.88236">
        <ele>1143</ele>
        <time>2018-03-31T03:37:01Z</time>
      </trkpt>
      <trkpt lat="44.76856" lon="3.88246">
        <ele>1142</ele>
        <time>2018-03-31T03:38:01Z</time>
      </trkpt>
      <trkpt lat="44.7684" lon="3.88254">
        <ele>1142</ele>
        <time>2018-03-31T03:39:01Z</time>
      </trkpt>
      <trkpt lat="44.76826" lon="3.88255">
        <ele>1139</ele>
        <time>2018-03-31T03:40:01Z</time>
      </trkpt>
      <trkpt lat="44.76788" lon="3.88274">
        <ele>1136</ele>
        <time>2018-03-31T03:41:01Z</time>
      </trkpt>
      <trkpt lat="44.76761" lon="3.88297">
        <ele>1135</ele>
        <time>2018-03-31T03:42:01Z</time>
      </trkpt>
      <trkpt lat="44.76744" lon="3.88309">
        <ele>1129</ele>
        <time>2018-03-31T03:43:01Z</time>
      </trkpt>
      <trkpt lat="44.76726" lon="3.88319">
        <ele>1128</ele>
        <time>2018-03-31T03:44:01Z</time>
      </trkpt>
      <trkpt lat="44.76703" lon="3.88321">
        <ele>1126</ele>
        <time>2018-03-31T03:45:01Z</time>
      </trkpt>
      <trkpt lat="44.76693" lon="3.88316">
        <ele>1125</ele>
        <time>2018-03-31T03:46:01Z</time>
      </trkpt>
      <trkpt lat="44.76662" lon="3.88324">
        <ele>1121</ele>
        <time>2018-03-31T03:47:01Z</time>
      </trkpt>
      <trkpt lat="44.7664" lon="3.88311">
        <ele>1120</ele>
        <time>2018-03-31T03:48:01Z</time>
      </trkpt>
      <trkpt lat="44.76558" lon="3.88257">
        <ele>1113</ele>
        <time>2018-03-31T03:49:01Z</time>
      </trkpt>
      <trkpt lat="44.76446" lon="3.88194">
        <ele>1105</ele>
        <time>2018-03-31T03:50:01Z</time>
      </trkpt>
      <trkpt lat="44.76328" lon="3.88143">
        <ele>1095</ele>
        <time>2018-03-31T03:51:01Z</time>
      </trkpt>
      <trkpt lat="44.76189" lon="3.88016">
        <ele>1086</ele>
        <time>2018-03-31T03:52:01Z</time>
      </trkpt>
      <trkpt lat="44.76168" lon="3.87984">
        <ele>1085</ele>
        <time>2018-03-31T03:53:01Z</time>
      </trkpt>
      <trkpt lat="44.76154" lon="3.8794">
        <ele>1078</ele>
        <time>2018-03-31T03:54:01Z</time>
      </trkpt>
      <trkpt lat="44.76131" lon="3.87889">
        <ele>1074</ele>
        <time>2018-03-31T03:55:01Z</time>
      </trkpt>
      <trkpt lat="44.76121" lon="3.87848">
        <ele>1072</ele>
        <time>2018-03-31T03:56:01Z</time>
      </trkpt>
      <trkpt lat="44.76081" lon="3.87761">
        <ele>1064</ele>
        <time>2018-03-31T03:57:01Z</time>
      </trkpt>
      <trkpt lat="44.76024" lon="3.87657">
        <ele>1062</ele>
        <time>2018-03-31T03:58:01Z</time>
      </trkpt>
      <trkpt lat="44.75986" lon="3.87507">
        <ele>1055</ele>
        <time>2018-03-31T03:59:01Z</time>
      </trkpt>
      <trkpt lat="44.75964" lon="3.87468">
        <ele>1050</ele>
        <time>2018-03-31T04:00:01Z</time>
      </trkpt>
      <trkpt lat="44.7585" lon="3.87369">
        <ele>1039</ele>
        <time>2018-03-31T04:01:01Z</time>
      </trkpt>
      <trkpt lat="44.75669" lon="3.87236">
        <ele>1024</ele>
        <time>2018-03-31T04:02:01Z</time>
      </trkpt>
      <trkpt lat="44.75628" lon="3.87188">
        <ele>1022</ele>
        <time>2018-03-31T04:03:01Z</time>
      </trkpt>
      <trkpt lat="44.75522" lon="3.87033">
        <ele>1015</ele>
        <time>2018-03-31T04:04:01Z</time>
      </trkpt>
      <trkpt lat="44.755" lon="3.86955">
        <ele>1014</ele>
        <time>2018-03-31T04:05:01Z</time>
      </trkpt>
      <trkpt lat="44.75454" lon="3.86873">
        <ele>1011</ele>
        <time>2018-03-31T04:06:01Z</time>
      </trkpt>
      <trkpt lat="44.75397" lon="3.86796">
        <ele>1009</ele>
        <time>2018-03-31T04:07:01Z</time>
      </trkpt>
      <trkpt lat="44.7531" lon="3.86723">
        <ele>1010</ele>
        <time>2018-03-31T04:08:01Z</time>
      </trkpt>
      <trkpt lat="44.75214" lon="3.86587">
        <ele>1012</ele>
        <time>2018-03-31T04:09:01Z</time>
      </trkpt>
      <trkpt lat="44.75155" lon="3.86479">
        <ele>1015</ele>
        <time>2018-03-31T04:10:01Z</time>
      </trkpt>
      <trkpt lat="44.75108" lon="3.86364">
        <ele>1011</ele>
        <time>2018-03-31T04:11:01Z</time>
      </trkpt>
      <trkpt lat="44.74973" lon="3.86205">
        <ele>1008</ele>
        <time>2018-03-31T04:12:01Z</time>
      </trkpt>
      <trkpt lat="44.74875" lon="3.86169">
        <ele>1003</ele>
        <time>2018-03-31T04:13:01Z</time>
      </trkpt>
      <trkpt lat="44.74805" lon="3.86136">
        <ele>997</ele>
        <time>2018-03-31T04:14:01Z</time>
      </trkpt>
      <trkpt lat="44.74751" lon="3.86097">
        <ele>993</ele>
        <time>2018-03-31T04:15:01Z</time>
      </trkpt>
      <trkpt lat="44.74712" lon="3.86051">
        <ele>986</ele>
        <time>2018-03-31T04:16:01Z</time>
      </trkpt>
      <trkpt lat="44.74573" lon="3.85942">
        <ele>974</ele>
        <time>2018-03-31T04:17:01Z</time>
      </trkpt>
      <trkpt lat="44.74551" lon="3.85935">
        <ele>974</ele>
        <time>2018-03-31T04:18:01Z</time>
      </trkpt>
      <trkpt lat="44.74529" lon="3.85947">
        <ele>974</ele>
        <time>2018-03-31T04:19:01Z</time>
      </trkpt>
      <trkpt lat="44.74478" lon="3.85998">
        <ele>971</ele>
        <time>2018-03-31T04:20:01Z</time>
      </trkpt>
      <trkpt lat="44.7445" lon="3.86013">
        <ele>966</ele>
        <time>2018-03-31T04:21:01Z</time>
      </trkpt>
      <trkpt lat="44.74414" lon="3.86013">
        <ele>968</ele>
        <time>2018-03-31T04:22:01Z</time>
      </trkpt>
      <trkpt lat="44.74271" lon="3.85969">
        <ele>969</ele>
        <time>2018-03-31T04:23:01Z</time>
      </trkpt>
      <trkpt lat="44.74229" lon="3.85942">
        <ele>963</ele>
        <time>2018-03-31T04:24:01Z</time>
      </trkpt>
      <trkpt lat="44.742" lon="3.85904">
        <ele>963</ele>
        <time>2018-03-31T04:25:01Z</time>
      </trkpt>
      <trkpt lat="44.74182" lon="3.85846">
        <ele>961</ele>
        <time>2018-03-31T04:26:01Z</time>
      </trkpt>
      <trkpt lat="44.7418" lon="3.85789">
        <ele>962</ele>
        <time>2018-03-31T04:27:01Z</time>
      </trkpt>
      <trkpt lat="44.74167" lon="3.85756">
        <ele>959</ele>
        <time>2018-03-31T04:28:01Z</time>
      </trkpt>
      <trkpt lat="44.74137" lon="3.85723">
        <ele>954</ele>
        <time>2018-03-31T04:29:01Z</time>
      </trkpt>
      <trkpt lat="44.74086" lon="3.85698">
        <ele>951</ele>
        <time>2018-03-31T04:30:01Z</time>
      </trkpt>
      <trkpt lat="44.7404" lon="3.85656">
        <ele>942</ele>
        <time>2018-03-31T04:31:01Z</time>
      </trkpt>
      <trkpt lat="44.7402" lon="3.85652">
        <ele>940</ele>
        <time>2018-03-31T04:32:01Z</time>
      </trkpt>
      <trkpt lat="44.73957" lon="3.85686">
        <ele>932</ele>
        <time>2018-03-31T04:33:01Z</time>
      </trkpt>
      <trkpt lat="44.73904" lon="3.85739">
        <ele>922</ele>
        <time>2018-03-31T04:34:01Z</time>
      </trkpt>
      <trkpt lat="44.73882" lon="3.85744">
        <ele>920</ele>
        <time>2018-03-31T04:35:01Z</time>
      </trkpt>
      <trkpt lat="44.73721" lon="3.85697">
        <ele>905</ele>
        <time>2018-03-31T04:36:01Z</time>
      </trkpt>
      <trkpt lat="44.73697" lon="3.85765">
        <ele>908</ele>
        <time>2018-03-31T04:37:01Z</time>
      </trkpt>
      <trkpt lat="44.73653" lon="3.85761">
        <ele>906</ele>
        <time>2018-03-31T04:38:01Z</time>
      </trkpt>
      <trkpt lat="44.7355" lon="3.85845">
        <ele>910</ele>
        <time>2018-03-31T04:39:01Z</time>
      </trkpt>
      <trkpt lat="44.73514" lon="3.85836">
        <ele>907</ele>
        <time>2018-03-31T04:40:01Z</time>
      </trkpt>
      <trkpt lat="44.73465" lon="3.85733">
        <ele>902</ele>
        <time>2018-03-31T04:41:01Z</time>
      </trkpt>
      <trkpt lat="44.73439" lon="3.85712">
        <ele>903</ele>
        <time>2018-03-31T04:42:01Z</time>
      </trkpt>
      <trkpt lat="44.7355" lon="3.85514">
        <ele>902</ele>
        <time>2018-03-31T04:43:01Z</time>
      </trkpt>
      <trkpt lat="44.73493" lon="3.85475">
        <ele>908</ele>
        <time>2018-03-31T04:44:01Z</time>
      </trkpt>
      <trkpt lat="44.73442" lon="3.85417">
        <ele>911</ele>
        <time>2018-03-31T04:45:01Z</time>
      </trkpt>
      <trkpt lat="44.73368" lon="3.85464">
        <ele>915</ele>
        <time>2018-03-31T04:46:01Z</time>
      </trkpt>
      <trkpt lat="44.73298" lon="3.85574">
        <ele>917</ele>
        <time>2018-03-31T04:47:01Z</time>
      </trkpt>
      <trkpt lat="44.7328" lon="3.85586">
        <ele>915</ele>
        <time>2018-03-31T04:48:01Z</time>
      </trkpt>
      <trkpt lat="44.73223" lon="3.85577">
        <ele>922</ele>
        <time>2018-03-31T04:49:01Z</time>
      </trkpt>
      <trkpt lat="44.73169" lon="3.85579">
        <ele>923</ele>
        <time>2018-03-31T04:50:01Z</time>
      </trkpt>
      <trkpt lat="44.73131" lon="3.85589">
        <ele>922</ele>
        <time>2018-03-31T04:51:01Z</time>
      </trkpt>
      <trkpt lat="44.73116" lon="3.85615">
        <ele>921</ele>
        <time>2018-03-31T04:52:01Z</time>
      </trkpt>
      <trkpt lat="44.731" lon="3.85629">
        <ele>921</ele>
        <time>2018-03-31T04:53:01Z</time>
      </trkpt>
      <trkpt lat="44.73068" lon="3.85628">
        <ele>919</ele>
        <time>2018-03-31T04:54:01Z</time>
      </trkpt>
      <trkpt lat="44.73023" lon="3.85612">
        <ele>919</ele>
        <time>2018-03-31T04:55:01Z</time>
      </trkpt>
      <trkpt lat="44.72984" lon="3.8559">
        <ele>918</ele>
        <time>2018-03-31T04:56:01Z</time>
      </trkpt>
      <trkpt lat="44.72921" lon="3.85575">
        <ele>920</ele>
        <time>2018-03-31T04:57:01Z</time>
      </trkpt>
      <trkpt lat="44.72859" lon="3.85584">
        <ele>913</ele>
        <time>2018-03-31T04:58:01Z</time>
      </trkpt>
      <trkpt lat="44.72738" lon="3.85548">
        <ele>916</ele>
        <time>2018-03-31T04:59:01Z</time>
      </trkpt>
      <trkpt lat="44.7271" lon="3.8559">
        <ele>913</ele>
        <time>2018-03-31T05:00:01Z</time>
      </trkpt>
      <trkpt lat="44.72696" lon="3.8562">
        <ele>912</ele>
        <time>2018-03-31T05:01:01Z</time>
      </trkpt>
      <trkpt lat="44.72676" lon="3.85617">
        <ele>912</ele>
        <time>2018-03-31T05:02:01Z</time>
      </trkpt>
      <trkpt lat="44.72646" lon="3.85597">
        <ele>912</ele>
        <time>2018-03-31T05:03:01Z</time>
      </trkpt>
      <trkpt lat="44.72626" lon="3.85563">
        <ele>914</ele>
        <time>2018-03-31T05:04:01Z</time>
      </trkpt>
      <trkpt lat="44.72567" lon="3.85633">
        <ele>911</ele>
        <time>2018-03-31T05:05:01Z</time>
      </trkpt>
      <trkpt lat="44.72546" lon="3.85641">
        <ele>912</ele>
        <time>2018-03-31T05:06:01Z</time>
      </trkpt>
      <trkpt lat="44.72534" lon="3.85653">
        <ele>912</ele>
        <time>2018-03-31T05:07:01Z</time>
      </trkpt>
      <trkpt lat="44.72519" lon="3.85638">
        <ele>912</ele>
        <time>2018-03-31T05:08:01Z</time>
      </trkpt>
      <trkpt lat="44.72486" lon="3.85656">
        <ele>916</ele>
        <time>2018-03-31T05:09:01Z</time>
      </trkpt>
      <trkpt lat="44.72476" lon="3.85634">
        <ele>916</ele>
        <time>2018-03-31T05:10:01Z</time>
      </trkpt>
      <trkpt lat="44.72437" lon="3.85599">
        <ele>916</ele>
        <time>2018-03-31T05:11:01Z</time>
      </trkpt>
      <trkpt lat="44.723" lon="3.85627">
        <ele>927</ele>
        <time>2018-03-31T05:12:01Z</time>
      </trkpt>
      <trkpt lat="44.72278" lon="3.85597">
        <ele>926</ele>
        <time>2018-03-31T05:13:01Z</time>
      </trkpt>
      <trkpt lat="44.72245" lon="3.85562">
        <ele>929</ele>
        <time>2018-03-31T05:14:01Z</time>
      </trkpt>
      <trkpt lat="44.7221" lon="3.8555">
        <ele>931</ele>
        <time>2018-03-31T05:15:01Z</time>
      </trkpt>
      <trkpt lat="44.72151" lon="3.85558">
        <ele>937</ele>
        <time>2018-03-31T05:16:01Z</time>
      </trkpt>
      <trkpt lat="44.72078" lon="3.85586">
        <ele>942</ele>
        <time>2018-03-31T05:17:01Z</time>
      </trkpt>
      <trkpt lat="44.7198" lon="3.8558">
        <ele>943</ele>
        <time>2018-03-31T05:18:01Z</time>
      </trkpt>
      <trkpt lat="44.71886" lon="3.85614">
        <ele>949</ele>
        <time>2018-03-31T05:19:01Z</time>
      </trkpt>
      <trkpt lat="44.71726" lon="3.85599">
        <ele>957</ele>
        <time>2018-03-31T05:20:01Z</time>
      </trkpt>
      <trkpt lat="44.71652" lon="3.85598">
        <ele>961</ele>
        <time>2018-03-31T05:21:01Z</time>
      </trkpt>
      <trkpt lat="44.7155" lon="3.85629">
        <ele>963</ele>
        <time>2018-03-31T05:22:01Z</time>
      </trkpt>
      <trkpt lat="44.71445" lon="3.85643">
        <ele>962</ele>
        <time>2018-03-31T05:23:01Z</time>
      </trkpt>
      <trkpt lat="44.71406" lon="3.85656">
        <ele>961</ele>
        <time>2018-03-31T05:24:01Z</time>
      </trkpt>
      <trkpt lat="44.71214" lon="3.85667">
        <ele>968</ele>
        <time>2018-03-31T05:25:01Z</time>
      </trkpt>
      <trkpt lat="44.71146" lon="3.85649">
        <ele>971</ele>
        <time>2018-03-31T05:26:01Z</time>
      </trkpt>
      <trkpt lat="44.71008" lon="3.85639">
        <ele>971</ele>
        <time>2018-03-31T05:27:01Z</time>
      </trkpt>
      <trkpt lat="44.70799" lon="3.85688">
        <ele>978</ele>
        <time>2018-03-31T05:28:01Z</time>
      </trkpt>
      <trkpt lat="44.70721" lon="3.85696">
        <ele>978</ele>
        <time>2018-03-31T05:29:01Z</time>
      </trkpt>
      <trkpt lat="44.70662" lon="3.85685">
        <ele>976</ele>
        <time>2018-03-31T05:30:01Z</time>
      </trkpt>
      <trkpt lat="44.70612" lon="3.85645">
        <ele>976</ele>
        <time>2018-03-31T05:31:01Z</time>
      </trkpt>
      <trkpt lat="44.70591" lon="3.85645">
        <ele>975</ele>
        <time>2018-03-31T05:32:01Z</time>
      </trkpt>
      <trkpt lat="44.70535" lon="3.85663">
        <ele>975</ele>
        <time>2018-03-31T05:33:01Z</time>
      </trkpt>
      <trkpt lat="44.70456" lon="3.85679">
        <ele>977</ele>
        <time>2018-03-31T05:34:01Z</time>
      </trkpt>
      <trkpt lat="44.70422" lon="3.85675">
        <ele>978</ele>
        <time>2018-03-31T05:35:01Z</time>
      </trkpt>
      <trkpt lat="44.70353" lon="3.85681">
        <ele>983</ele>
        <time>2018-03-31T05:36:01Z</time>
      </trkpt>
      <trkpt lat="44.70104" lon="3.85775">
        <ele>999</ele>
        <time>2018-03-31T05:37:01Z</time>
      </trkpt>
      <trkpt lat="44.70005" lon="3.85793">
        <ele>1003</ele>
        <time>2018-03-31T05:38:01Z</time>
      </trkpt>
      <trkpt lat="44.69921" lon="3.85818">
        <ele>1005</ele>
        <time>2018-03-31T05:39:01Z</time>
      </trkpt>
      <trkpt lat="44.69881" lon="3.85772">
        <ele>1007</ele>
        <time>2018-03-31T05:40:01Z</time>
      </trkpt>
      <trkpt lat="44.69849" lon="3.85711">
        <ele>1009</ele>
        <time>2018-03-31T05:41:01Z</time>
      </trkpt>
      <trkpt lat="44.69796" lon="3.8564">
        <ele>1015</ele>
        <time>2018-03-31T05:42:01Z</time>
      </trkpt>
      <trkpt lat="44.69754" lon="3.85586">
        <ele>1020</ele>
        <time>2018-03-31T05:43:01Z</time>
      </trkpt>
      <trkpt lat="44.69725" lon="3.85496">
        <ele>1026</ele>
        <time>2018-03-31T05:44:01Z</time>
      </trkpt>
      <trkpt lat="44.69684" lon="3.85407">
        <ele>1030</ele>
        <time>2018-03-31T05:45:01Z</time>
      </trkpt>
      <trkpt lat="44.6963" lon="3.85328">
        <ele>1036</ele>
        <time>2018-03-31T05:46:01Z</time>
      </trkpt>
      <trkpt lat="44.69659" lon="3.85271">
        <ele>1036</ele>
        <time>2018-03-31T05:47:01Z</time>
      </trkpt>
      <trkpt lat="44.69681" lon="3.85222">
        <ele>1034</ele>
        <time>2018-03-31T05:48:01Z</time>
      </trkpt>
      <trkpt lat="44.69748" lon="3.85157">
        <ele>1031</ele>
        <time>2018-03-31T05:49:01Z</time>
      </trkpt>
      <trkpt lat="44.69793" lon="3.85133">
        <ele>1029</ele>
        <time>2018-03-31T05:50:01Z</time>
      </trkpt>
      <trkpt lat="44.69807" lon="3.85085">
        <ele>1029</ele>
        <time>2018-03-31T05:51:01Z</time>
      </trkpt>
      <trkpt lat="44.6982" lon="3.85006">
        <ele>1028</ele>
        <time>2018-03-31T05:52:01Z</time>
      </trkpt>
      <trkpt lat="44.6985" lon="3.84908">
        <ele>1024</ele>
        <time>2018-03-31T05:53:01Z</time>
      </trkpt>
      <trkpt lat="44.69879" lon="3.84737">
        <ele>1021</ele>
        <time>2018-03-31T05:54:01Z</time>
      </trkpt>
      <trkpt lat="44.69876" lon="3.84652">
        <ele>1016</ele>
        <time>2018-03-31T05:55:01Z</time>
      </trkpt>
      <trkpt lat="44.69861" lon="3.84581">
        <ele>1014</ele>
        <time>2018-03-31T05:56:01Z</time>
      </trkpt>
      <trkpt lat="44.69895" lon="3.84481">
        <ele>1012</ele>
        <time>2018-03-31T05:57:01Z</time>
      </trkpt>
      <trkpt lat="44.699" lon="3.84441">
        <ele>1014</ele>
        <time>2018-03-31T05:58:01Z</time>
      </trkpt>
      <trkpt lat="44.69937" lon="3.84344">
        <ele>1012</ele>
        <time>2018-03-31T05:59:01Z</time>
      </trkpt>
      <trkpt lat="44.69946" lon="3.84292">
        <ele>1015</ele>
        <time>2018-03-31T06:00:01Z</time>
      </trkpt>
      <trkpt lat="44.69934" lon="3.84222">
        <ele>1017</ele>
        <time>2018-03-31T06:01:01Z</time>
      </trkpt>
      <trkpt lat="44.69944" lon="3.8418">
        <ele>1016</ele>
        <time>2018-03-31T06:02:01Z</time>
      </trkpt>
      <trkpt lat="44.69962" lon="3.84156">
        <ele>1015</ele>
        <time>2018-03-31T06:03:01Z</time>
      </trkpt>
      <trkpt lat="44.69985" lon="3.8415">
        <ele>1014</ele>
        <time>2018-03-31T06:04:01Z</time>
      </trkpt>
      <trkpt lat="44.69958" lon="3.84129">
        <ele>1015</ele>
        <time>2018-03-31T06:05:01Z</time>
      </trkpt>
      <trkpt lat="44.6994" lon="3.84093">
        <ele>1014</ele>
        <time>2018-03-31T06:06:01Z</time>
      </trkpt>
      <trkpt lat="44.69921" lon="3.84068">
        <ele>1013</ele>
        <time>2018-03-31T06:07:01Z</time>
      </trkpt>
      <trkpt lat="44.69876" lon="3.84065">
        <ele>1009</ele>
        <time>2018-03-31T06:08:01Z</time>
      </trkpt>
      <trkpt lat="44.69847" lon="3.8405">
        <ele>1008</ele>
        <time>2018-03-31T06:09:01Z</time>
      </trkpt>
      <trkpt lat="44.69811" lon="3.83997">
        <ele>999</ele>
        <time>2018-03-31T06:10:01Z</time>
      </trkpt>
      <trkpt lat="44.6973" lon="3.83958">
        <ele>996</ele>
        <time>2018-03-31T06:11:01Z</time>
      </trkpt>
      <trkpt lat="44.69667" lon="3.8394">
        <ele>992</ele>
        <time>2018-03-31T06:12:01Z</time>
      </trkpt>
      <trkpt lat="44.69625" lon="3.83946">
        <ele>986</ele>
        <time>2018-03-31T06:13:01Z</time>
      </trkpt>
      <trkpt lat="44.6962" lon="3.83934">
        <ele>985</ele>
        <time>2018-03-31T06:14:01Z</time>
      </trkpt>
      <trkpt lat="44.69631" lon="3.83891">
        <ele>979</ele>
        <time>2018-03-31T06:15:01Z</time>
      </trkpt>
      <trkpt lat="44.69676" lon="3.83829">
        <ele>975</ele>
        <time>2018-03-31T06:16:01Z</time>
      </trkpt>
      <trkpt lat="44.69703" lon="3.83811">
        <ele>973</ele>
        <time>2018-03-31T06:17:01Z</time>
      </trkpt>
      <trkpt lat="44.69717" lon="3.83795">
        <ele>971</ele>
        <time>2018-03-31T06:18:01Z</time>
      </trkpt>
      <trkpt lat="44.69714" lon="3.83781">
        <ele>970</ele>
        <time>2018-03-31T06:19:01Z</time>
      </trkpt>
      <trkpt lat="44.69661" lon="3.83752">
        <ele>968</ele>
        <time>2018-03-31T06:20:01Z</time>
      </trkpt>
      <trkpt lat="44.69649" lon="3.83726">
        <ele>967</ele>
        <time>2018-03-31T06:21:01Z</time>
      </trkpt>
      <trkpt lat="44.69654" lon="3.83703">
        <ele>967</ele>
        <time>2018-03-31T06:22:01Z</time>
      </trkpt>
      <trkpt lat="44.69676" lon="3.83676">
        <ele>962</ele>
        <time>2018-03-31T06:23:01Z</time>
      </trkpt>
      <trkpt lat="44.69686" lon="3.83655">
        <ele>959</ele>
        <time>2018-03-31T06:24:01Z</time>
      </trkpt>
      <trkpt lat="44.69677" lon="3.83642">
        <ele>958</ele>
        <time>2018-03-31T06:25:01Z</time>
      </trkpt>
      <trkpt lat="44.69645" lon="3.83622">
        <ele>964</ele>
        <time>2018-03-31T06:26:01Z</time>
      </trkpt>
      <trkpt lat="44.69621" lon="3.83574">
        <ele>961</ele>
        <time>2018-03-31T06:27:01Z</time>
      </trkpt>
      <trkpt lat="44.6958" lon="3.83441">
        <ele>965</ele>
        <time>2018-03-31T06:28:01Z</time>
      </trkpt>
      <trkpt lat="44.69654" lon="3.83426">
        <ele>961</ele>
        <time>2018-03-31T06:29:01Z</time>
      </trkpt>
      <trkpt lat="44.69733" lon="3.83438">
        <ele>969</ele>
        <time>2018-03-31T06:30:01Z</time>
      </trkpt>
      <trkpt lat="44.69772" lon="3.83467">
        <ele>974</ele>
        <time>2018-03-31T06:31:01Z</time>
      </trkpt>
      <trkpt lat="44.69779" lon="3.83457">
        <ele>975</ele>
        <time>2018-03-31T06:32:01Z</time>
      </trkpt>
      <trkpt lat="44.69754" lon="3.83346">
        <ele>993</ele>
        <time>2018-03-31T06:33:01Z</time>
      </trkpt>
      <trkpt lat="44.69711" lon="3.8322">
        <ele>1004</ele>
        <time>2018-03-31T06:34:01Z</time>
      </trkpt>
      <trkpt lat="44.69651" lon="3.83121">
        <ele>1011</ele>
        <time>2018-03-31T06:35:01Z</time>
      </trkpt>
      <trkpt lat="44.6961" lon="3.83017">
        <ele>1023</ele>
        <time>2018-03-31T06:36:01Z</time>
      </trkpt>
      <trkpt lat="44.69613" lon="3.82938">
        <ele>1032</ele>
        <time>2018-03-31T06:37:01Z</time>
      </trkpt>
      <trkpt lat="44.69596" lon="3.82855">
        <ele>1037</ele>
        <time>2018-03-31T06:38:01Z</time>
      </trkpt>
      <trkpt lat="44.69585" lon="3.82715">
        <ele>1044</ele>
        <time>2018-03-31T06:39:01Z</time>
      </trkpt>
      <trkpt lat="44.69592" lon="3.82621">
        <ele>1049</ele>
        <time>2018-03-31T06:40:01Z</time>
      </trkpt>
      <trkpt lat="44.69582" lon="3.82573">
        <ele>1050</ele>
        <time>2018-03-31T06:41:01Z</time>
      </trkpt>
      <trkpt lat="44.69466" lon="3.82516">
        <ele>1049</ele>
        <time>2018-03-31T06:42:01Z</time>
      </trkpt>
      <trkpt lat="44.69427" lon="3.82483">
        <ele>1051</ele>
        <time>2018-03-31T06:43:01Z</time>
      </trkpt>
      <trkpt lat="44.69384" lon="3.82454">
        <ele>1047</ele>
        <time>2018-03-31T06:44:01Z</time>
      </trkpt>
      <trkpt lat="44.69317" lon="3.8235">
        <ele>1045</ele>
        <time>2018-03-31T06:45:01Z</time>
      </trkpt>
      <trkpt lat="44.69283" lon="3.8228">
        <ele>1045</ele>
        <time>2018-03-31T06:46:01Z</time>
      </trkpt>
      <trkpt lat="44.69261" lon="3.82257">
        <ele>1045</ele>
        <time>2018-03-31T06:47:01Z</time>
      </trkpt>
      <trkpt lat="44.6921" lon="3.82254">
        <ele>1048</ele>
        <time>2018-03-31T06:48:01Z</time>
      </trkpt>
      <trkpt lat="44.69176" lon="3.82221">
        <ele>1052</ele>
        <time>2018-03-31T06:49:01Z</time>
      </trkpt>
      <trkpt lat="44.6914" lon="3.82162">
        <ele>1058</ele>
        <time>2018-03-31T06:50:01Z</time>
      </trkpt>
      <trkpt lat="44.69115" lon="3.82105">
        <ele>1058</ele>
        <time>2018-03-31T06:51:01Z</time>
      </trkpt>
      <trkpt lat="44.69101" lon="3.82089">
        <ele>1059</ele>
        <time>2018-03-31T06:52:01Z</time>
      </trkpt>
      <trkpt lat="44.69088" lon="3.82022">
        <ele>1061</ele>
        <time>2018-03-31T06:53:01Z</time>
      </trkpt>
      <trkpt lat="44.69074" lon="3.81997">
        <ele>1062</ele>
        <time>2018-03-31T06:54:01Z</time>
      </trkpt>
      <trkpt lat="44.68971" lon="3.81928">
        <ele>1071</ele>
        <time>2018-03-31T06:55:01Z</time>
      </trkpt>
      <trkpt lat="44.68923" lon="3.81932">
        <ele>1074</ele>
        <time>2018-03-31T06:56:01Z</time>
      </trkpt>
      <trkpt lat="44.68893" lon="3.81948">
        <ele>1077</ele>
        <time>2018-03-31T06:57:01Z</time>
      </trkpt>
      <trkpt lat="44.68802" lon="3.81983">
        <ele>1083</ele>
        <time>2018-03-31T06:58:01Z</time>
      </trkpt>
      <trkpt lat="44.6873" lon="3.81969">
        <ele>1090</ele>
        <time>2018-03-31T06:59:01Z</time>
      </trkpt>
      <trkpt lat="44.68703" lon="3.81955">
        <ele>1091</ele>
        <time>2018-03-31T07:00:01Z</time>
      </trkpt>
      <trkpt lat="44.68662" lon="3.81946">
        <ele>1098</ele>
        <time>2018-03-31T07:01:01Z</time>
      </trkpt>
      <trkpt lat="44.6863" lon="3.81923">
        <ele>1099</ele>
        <time>2018-03-31T07:02:01Z</time>
      </trkpt>
      <trkpt lat="44.68605" lon="3.81892">
        <ele>1104</ele>
        <time>2018-03-31T07:03:01Z</time>
      </trkpt>
      <trkpt lat="44.68597" lon="3.81847">
        <ele>1106</ele>
        <time>2018-03-31T07:04:01Z</time>
      </trkpt>
      <trkpt lat="44.68582" lon="3.81817">
        <ele>1113</ele>
        <time>2018-03-31T07:05:01Z</time>
      </trkpt>
      <trkpt lat="44.6853" lon="3.81766">
        <ele>1119</ele>
        <time>2018-03-31T07:06:01Z</time>
      </trkpt>
      <trkpt lat="44.68461" lon="3.81776">
        <ele>1124</ele>
        <time>2018-03-31T07:07:01Z</time>
      </trkpt>
      <trkpt lat="44.68401" lon="3.81771">
        <ele>1133</ele>
        <time>2018-03-31T07:08:01Z</time>
      </trkpt>
      <trkpt lat="44.68317" lon="3.81793">
        <ele>1139</ele>
        <time>2018-03-31T07:09:01Z</time>
      </trkpt>
      <trkpt lat="44.68254" lon="3.81838">
        <ele>1138</ele>
        <time>2018-03-31T07:10:01Z</time>
      </trkpt>
      <trkpt lat="44.6822" lon="3.81858">
        <ele>1136</ele>
        <time>2018-03-31T07:11:01Z</time>
      </trkpt>
      <trkpt lat="44.68158" lon="3.81866">
        <ele>1135</ele>
        <time>2018-03-31T07:12:01Z</time>
      </trkpt>
      <trkpt lat="44.68127" lon="3.81864">
        <ele>1134</ele>
        <time>2018-03-31T07:13:01Z</time>
      </trkpt>
      <trkpt lat="44.68052" lon="3.81664">
        <ele>1145</ele>
        <time>2018-03-31T07:14:01Z</time>
      </trkpt>
      <trkpt lat="44.6805" lon="3.81636">
        <ele>1145</ele>
        <time>2018-03-31T07:15:01Z</time>
      </trkpt>
      <trkpt lat="44.68041" lon="3.81624">
        <ele>1144</ele>
        <time>2018-03-31T07:16:01Z</time>
      </trkpt>
      <trkpt lat="44.68042" lon="3.81601">
        <ele>1145</ele>
        <time>2018-03-31T07:17:01Z</time>
      </trkpt>
      <trkpt lat="44.68035" lon="3.81565">
        <ele>1143</ele>
        <time>2018-03-31T07:18:01Z</time>
      </trkpt>
      <trkpt lat="44.68016" lon="3.8152">
        <ele>1141</ele>
        <time>2018-03-31T07:19:01Z</time>
      </trkpt>
      <trkpt lat="44.68015" lon="3.81352">
        <ele>1136</ele>
        <time>2018-03-31T07:20:01Z</time>
      </trkpt>
      <trkpt lat="44.67988" lon="3.81259">
        <ele>1141</ele>
        <time>2018-03-31T07:21:01Z</time>
      </trkpt>
      <trkpt lat="44.67984" lon="3.81221">
        <ele>1141</ele>
        <time>2018-03-31T07:22:01Z</time>
      </trkpt>
      <trkpt lat="44.67971" lon="3.81165">
        <ele>1140</ele>
        <time>2018-03-31T07:23:01Z</time>
      </trkpt>
      <trkpt lat="44.67955" lon="3.81116">
        <ele>1140</ele>
        <time>2018-03-31T07:24:01Z</time>
      </trkpt>
      <trkpt lat="44.67938" lon="3.81084">
        <ele>1140</ele>
        <time>2018-03-31T07:25:01Z</time>
      </trkpt>
      <trkpt lat="44.67933" lon="3.81055">
        <ele>1139</ele>
        <time>2018-03-31T07:26:01Z</time>
      </trkpt>
      <trkpt lat="44.67926" lon="3.81039">
        <ele>1138</ele>
        <time>2018-03-31T07:27:01Z</time>
      </trkpt>
      <trkpt lat="44.67921" lon="3.81012">
        <ele>1138</ele>
        <time>2018-03-31T07:28:01Z</time>
      </trkpt>
      <trkpt lat="44.67958" lon="3.80965">
        <ele>1139</ele>
        <time>2018-03-31T07:29:01Z</time>
      </trkpt>
      <trkpt lat="44.67976" lon="3.80927">
        <ele>1140</ele>
        <time>2018-03-31T07:30:01Z</time>
      </trkpt>
      <trkpt lat="44.67917" lon="3.80863">
        <ele>1141</ele>
        <time>2018-03-31T07:31:01Z</time>
      </trkpt>
      <trkpt lat="44.67864" lon="3.80817">
        <ele>1144</ele>
        <time>2018-03-31T07:32:01Z</time>
      </trkpt>
      <trkpt lat="44.67831" lon="3.80753">
        <ele>1149</ele>
        <time>2018-03-31T07:33:01Z</time>
      </trkpt>
      <trkpt lat="44.67814" lon="3.80693">
        <ele>1152</ele>
        <time>2018-03-31T07:34:01Z</time>
      </trkpt>
      <trkpt lat="44.67807" lon="3.80613">
        <ele>1154</ele>
        <time>2018-03-31T07:35:01Z</time>
      </trkpt>
      <trkpt lat="44.67772" lon="3.80518">
        <ele>1155</ele>
        <time>2018-03-31T07:36:01Z</time>
      </trkpt>
      <trkpt lat="44.67741" lon="3.80468">
        <ele>1156</ele>
        <time>2018-03-31T07:37:01Z</time>
      </trkpt>
      <trkpt lat="44.67714" lon="3.80446">
        <ele>1157</ele>
        <time>2018-03-31T07:38:01Z</time>
      </trkpt>
      <trkpt lat="44.67671" lon="3.80426">
        <ele>1160</ele>
        <time>2018-03-31T07:39:01Z</time>
      </trkpt>
      <trkpt lat="44.67666" lon="3.80393">
        <ele>1163</ele>
        <time>2018-03-31T07:40:01Z</time>
      </trkpt>
      <trkpt lat="44.67641" lon="3.80365">
        <ele>1164</ele>
        <time>2018-03-31T07:41:01Z</time>
      </trkpt>
      <trkpt lat="44.67596" lon="3.80291">
        <ele>1168</ele>
        <time>2018-03-31T07:42:01Z</time>
      </trkpt>
      <trkpt lat="44.67568" lon="3.80214">
        <ele>1173</ele>
        <time>2018-03-31T07:43:01Z</time>
      </trkpt>
      <trkpt lat="44.67535" lon="3.8016">
        <ele>1175</ele>
        <time>2018-03-31T07:44:01Z</time>
      </trkpt>
      <trkpt lat="44.67492" lon="3.80117">
        <ele>1179</ele>
        <time>2018-03-31T07:45:01Z</time>
      </trkpt>
      <trkpt lat="44.67475" lon="3.80081">
        <ele>1179</ele>
        <time>2018-03-31T07:46:01Z</time>
      </trkpt>
      <trkpt lat="44.6746" lon="3.80028">
        <ele>1180</ele>
        <time>2018-03-31T07:47:01Z</time>
      </trkpt>
      <trkpt lat="44.67412" lon="3.79957">
        <ele>1177</ele>
        <time>2018-03-31T07:48:01Z</time>
      </trkpt>
      <trkpt lat="44.67374" lon="3.79934">
        <ele>1177</ele>
        <time>2018-03-31T07:49:01Z</time>
      </trkpt>
      <trkpt lat="44.67302" lon="3.79909">
        <ele>1173</ele>
        <time>2018-03-31T07:50:01Z</time>
      </trkpt>
      <trkpt lat="44.67186" lon="3.79848">
        <ele>1172</ele>
        <time>2018-03-31T07:51:01Z</time>
      </trkpt>
      <trkpt lat="44.67086" lon="3.79775">
        <ele>1171</ele>
        <time>2018-03-31T07:52:01Z</time>
      </trkpt>
      <trkpt lat="44.67013" lon="3.79704">
        <ele>1170</ele>
        <time>2018-03-31T07:53:01Z</time>
      </trkpt>
      <trkpt lat="44.66922" lon="3.79593">
        <ele>1171</ele>
        <time>2018-03-31T07:54:01Z</time>
      </trkpt>
      <trkpt lat="44.66906" lon="3.79558">
        <ele>1172</ele>
        <time>2018-03-31T07:55:01Z</time>
      </trkpt>
      <trkpt lat="44.66805" lon="3.79394">
        <ele>1185</ele>
        <time>2018-03-31T07:56:01Z</time>
      </trkpt>
      <trkpt lat="44.6675" lon="3.79347">
        <ele>1194</ele>
        <time>2018-03-31T07:57:01Z</time>
      </trkpt>
      <trkpt lat="44.66716" lon="3.79324">
        <ele>1199</ele>
        <time>2018-03-31T07:58:01Z</time>
      </trkpt>
      <trkpt lat="44.66672" lon="3.79278">
        <ele>1202</ele>
        <time>2018-03-31T07:59:01Z</time>
      </trkpt>
      <trkpt lat="44.66648" lon="3.79238">
        <ele>1207</ele>
        <time>2018-03-31T08:00:01Z</time>
      </trkpt>
      <trkpt lat="44.66616" lon="3.792">
        <ele>1208</ele>
        <time>2018-03-31T08:01:01Z</time>
      </trkpt>
      <trkpt lat="44.66606" lon="3.79173">
        <ele>1208</ele>
        <time>2018-03-31T08:02:01Z</time>
      </trkpt>
      <trkpt lat="44.66591" lon="3.79146">
        <ele>1212</ele>
        <time>2018-03-31T08:03:01Z</time>
      </trkpt>
      <trkpt lat="44.6658" lon="3.7911">
        <ele>1210</ele>
        <time>2018-03-31T08:04:01Z</time>
      </trkpt>
      <trkpt lat="44.66525" lon="3.79035">
        <ele>1213</ele>
        <time>2018-03-31T08:05:01Z</time>
      </trkpt>
      <trkpt lat="44.66501" lon="3.78985">
        <ele>1215</ele>
        <time>2018-03-31T08:06:01Z</time>
      </trkpt>
      <trkpt lat="44.66458" lon="3.78918">
        <ele>1215</ele>
        <time>2018-03-31T08:07:01Z</time>
      </trkpt>
      <trkpt lat="44.66418" lon="3.7888">
        <ele>1218</ele>
        <time>2018-03-31T08:08:01Z</time>
      </trkpt>
      <trkpt lat="44.66412" lon="3.78865">
        <ele>1217</ele>
        <time>2018-03-31T08:09:01Z</time>
      </trkpt>
      <trkpt lat="44.66344" lon="3.78818">
        <ele>1218</ele>
        <time>2018-03-31T08:10:01Z</time>
      </trkpt>
      <trkpt lat="44.66314" lon="3.78746">
        <ele>1217</ele>
        <time>2018-03-31T08:11:01Z</time>
      </trkpt>
      <trkpt lat="44.66297" lon="3.78692">
        <ele>1217</ele>
        <time>2018-03-31T08:12:01Z</time>
      </trkpt>
      <trkpt lat="44.66189" lon="3.7849">
        <ele>1215</ele>
        <time>2018-03-31T08:13:01Z</time>
      </trkpt>
      <trkpt lat="44.66142" lon="3.78431">
        <ele>1217</ele>
        <time>2018-03-31T08:14:01Z</time>
      </trkpt>
      <trkpt lat="44.66097" lon="3.78399">
        <ele>1220</ele>
        <time>2018-03-31T08:15:01Z</time>
      </trkpt>
      <trkpt lat="44.66069" lon="3.78324">
        <ele>1219</ele>
        <time>2018-03-31T08:16:01Z</time>
      </trkpt>
      <trkpt lat="44.66072" lon="3.78269">
        <ele>1220</ele>
        <time>2018-03-31T08:17:01Z</time>
      </trkpt>
      <trkpt lat="44.66038" lon="3.78172">
        <ele>1219</ele>
        <time>2018-03-31T08:18:01Z</time>
      </trkpt>
      <trkpt lat="44.66001" lon="3.78086">
        <ele>1222</ele>
        <time>2018-03-31T08:19:01Z</time>
      </trkpt>
      <trkpt lat="44.65979" lon="3.78051">
        <ele>1222</ele>
        <time>2018-03-31T08:20:01Z</time>
      </trkpt>
      <trkpt lat="44.65941" lon="3.78085">
        <ele>1220</ele>
        <time>2018-03-31T08:21:01Z</time>
      </trkpt>
      <trkpt lat="44.65825" lon="3.7801">
        <ele>1228</ele>
        <time>2018-03-31T08:22:01Z</time>
      </trkpt>
      <trkpt lat="44.65752" lon="3.78096">
        <ele>1226</ele>
        <time>2018-03-31T08:23:01Z</time>
      </trkpt>
      <trkpt lat="44.65716" lon="3.78143">
        <ele>1230</ele>
        <time>2018-03-31T08:24:01Z</time>
      </trkpt>
      <trkpt lat="44.65675" lon="3.78231">
        <ele>1228</ele>
        <time>2018-03-31T08:25:01Z</time>
      </trkpt>
      <trkpt lat="44.65629" lon="3.78306">
        <ele>1233</ele>
        <time>2018-03-31T08:26:01Z</time>
      </trkpt>
      <trkpt lat="44.65602" lon="3.78399">
        <ele>1234</ele>
        <time>2018-03-31T08:27:01Z</time>
      </trkpt>
      <trkpt lat="44.65599" lon="3.78471">
        <ele>1234</ele>
        <time>2018-03-31T08:28:01Z</time>
      </trkpt>
      <trkpt lat="44.65585" lon="3.78589">
        <ele>1235</ele>
        <time>2018-03-31T08:29:01Z</time>
      </trkpt>
      <trkpt lat="44.65563" lon="3.7879">
        <ele>1226</ele>
        <time>2018-03-31T08:30:01Z</time>
      </trkpt>
      <trkpt lat="44.65538" lon="3.78909">
        <ele>1221</ele>
        <time>2018-03-31T08:31:01Z</time>
      </trkpt>
      <trkpt lat="44.65507" lon="3.79201">
        <ele>1216</ele>
        <time>2018-03-31T08:32:01Z</time>
      </trkpt>
      <trkpt lat="44.6552" lon="3.79257">
        <ele>1213</ele>
        <time>2018-03-31T08:33:01Z</time>
      </trkpt>
      <trkpt lat="44.65515" lon="3.79328">
        <ele>1212</ele>
        <time>2018-03-31T08:34:01Z</time>
      </trkpt>
      <trkpt lat="44.65501" lon="3.79391">
        <ele>1206</ele>
        <time>2018-03-31T08:35:01Z</time>
      </trkpt>
      <trkpt lat="44.65489" lon="3.79488">
        <ele>1204</ele>
        <time>2018-03-31T08:36:01Z</time>
      </trkpt>
      <trkpt lat="44.65487" lon="3.7953">
        <ele>1204</ele>
        <time>2018-03-31T08:37:01Z</time>
      </trkpt>
      <trkpt lat="44.65483" lon="3.79638">
        <ele>1199</ele>
        <time>2018-03-31T08:38:01Z</time>
      </trkpt>
      <trkpt lat="44.65442" lon="3.79763">
        <ele>1189</ele>
        <time>2018-03-31T08:39:01Z</time>
      </trkpt>
      <trkpt lat="44.65402" lon="3.79854">
        <ele>1178</ele>
        <time>2018-03-31T08:40:01Z</time>
      </trkpt>
      <trkpt lat="44.65362" lon="3.79892">
        <ele>1175</ele>
        <time>2018-03-31T08:41:01Z</time>
      </trkpt>
      <trkpt lat="44.65322" lon="3.79915">
        <ele>1173</ele>
        <time>2018-03-31T08:42:01Z</time>
      </trkpt>
      <trkpt lat="44.65305" lon="3.79938">
        <ele>1168</ele>
        <time>2018-03-31T08:43:01Z</time>
      </trkpt>
      <trkpt lat="44.65296" lon="3.79981">
        <ele>1166</ele>
        <time>2018-03-31T08:44:01Z</time>
      </trkpt>
      <trkpt lat="44.65234" lon="3.8008">
        <ele>1158</ele>
        <time>2018-03-31T08:45:01Z</time>
      </trkpt>
      <trkpt lat="44.65231" lon="3.80115">
        <ele>1154</ele>
        <time>2018-03-31T08:46:01Z</time>
      </trkpt>
      <trkpt lat="44.65234" lon="3.80156">
        <ele>1151</ele>
        <time>2018-03-31T08:47:01Z</time>
      </trkpt>
      <trkpt lat="44.65229" lon="3.80194">
        <ele>1146</ele>
        <time>2018-03-31T08:48:01Z</time>
      </trkpt>
      <trkpt lat="44.65208" lon="3.80226">
        <ele>1146</ele>
        <time>2018-03-31T08:49:01Z</time>
      </trkpt>
      <trkpt lat="44.65111" lon="3.80281">
        <ele>1139</ele>
        <time>2018-03-31T08:50:01Z</time>
      </trkpt>
      <trkpt lat="44.65026" lon="3.80315">
        <ele>1137</ele>
        <time>2018-03-31T08:51:01Z</time>
      </trkpt>
      <trkpt lat="44.64927" lon="3.80325">
        <ele>1132</ele>
        <time>2018-03-31T08:52:01Z</time>
      </trkpt>
      <trkpt lat="44.64861" lon="3.80329">
        <ele>1126</ele>
        <time>2018-03-31T08:53:01Z</time>
      </trkpt>
      <trkpt lat="44.64813" lon="3.80338">
        <ele>1119</ele>
        <time>2018-03-31T08:54:01Z</time>
      </trkpt>
      <trkpt lat="44.64762" lon="3.8032">
        <ele>1121</ele>
        <time>2018-03-31T08:55:01Z</time>
      </trkpt>
      <trkpt lat="44.64757" lon="3.80305">
        <ele>1122</ele>
        <time>2018-03-31T08:56:01Z</time>
      </trkpt>
      <trkpt lat="44.6475" lon="3.80325">
        <ele>1120</ele>
        <time>2018-03-31T08:57:01Z</time>
      </trkpt>
      <trkpt lat="44.64708" lon="3.80327">
        <ele>1124</ele>
        <time>2018-03-31T08:58:01Z</time>
      </trkpt>
      <trkpt lat="44.64675" lon="3.80336">
        <ele>1122</ele>
        <time>2018-03-31T08:59:01Z</time>
      </trkpt>
      <trkpt lat="44.64629" lon="3.80323">
        <ele>1127</ele>
        <time>2018-03-31T09:00:01Z</time>
      </trkpt>
      <trkpt lat="44.64613" lon="3.8033">
        <ele>1126</ele>
        <time>2018-03-31T09:01:01Z</time>
      </trkpt>
      <trkpt lat="44.64581" lon="3.80376">
        <ele>1130</ele>
        <time>2018-03-31T09:02:01Z</time>
      </trkpt>
      <trkpt lat="44.64577" lon="3.80401">
        <ele>1129</ele>
        <time>2018-03-31T09:03:01Z</time>
      </trkpt>
      <trkpt lat="44.64583" lon="3.80432">
        <ele>1131</ele>
        <time>2018-03-31T09:04:01Z</time>
      </trkpt>
      <trkpt lat="44.64524" lon="3.80517">
        <ele>1141</ele>
        <time>2018-03-31T09:05:01Z</time>
      </trkpt>
      <trkpt lat="44.64503" lon="3.80561">
        <ele>1142</ele>
        <time>2018-03-31T09:06:01Z</time>
      </trkpt>
      <trkpt lat="44.64501" lon="3.80604">
        <ele>1149</ele>
        <time>2018-03-31T09:07:01Z</time>
      </trkpt>
      <trkpt lat="44.64493" lon="3.80616">
        <ele>1150</ele>
        <time>2018-03-31T09:08:01Z</time>
      </trkpt>
      <trkpt lat="44.64486" lon="3.8067">
        <ele>1153</ele>
        <time>2018-03-31T09:09:01Z</time>
      </trkpt>
      <trkpt lat="44.64491" lon="3.80737">
        <ele>1156</ele>
        <time>2018-03-31T09:10:01Z</time>
      </trkpt>
      <trkpt lat="44.64487" lon="3.8075">
        <ele>1157</ele>
        <time>2018-03-31T09:11:01Z</time>
      </trkpt>
      <trkpt lat="44.64455" lon="3.80785">
        <ele>1157</ele>
        <time>2018-03-31T09:12:01Z</time>
      </trkpt>
      <trkpt lat="44.64426" lon="3.80875">
        <ele>1164</ele>
        <time>2018-03-31T09:13:01Z</time>
      </trkpt>
      <trkpt lat="44.64391" lon="3.80917">
        <ele>1165</ele>
        <time>2018-03-31T09:14:01Z</time>
      </trkpt>
      <trkpt lat="44.64334" lon="3.80967">
        <ele>1166</ele>
        <time>2018-03-31T09:15:01Z</time>
      </trkpt>
      <trkpt lat="44.64277" lon="3.80968">
        <ele>1171</ele>
        <time>2018-03-31T09:16:01Z</time>
      </trkpt>
      <trkpt lat="44.64167" lon="3.81014">
        <ele>1181</ele>
        <time>2018-03-31T09:17:01Z</time>
      </trkpt>
      <trkpt lat="44.64092" lon="3.81031">
        <ele>1185</ele>
        <time>2018-03-31T09:18:01Z</time>
      </trkpt>
      <trkpt lat="44.64058" lon="3.81055">
        <ele>1189</ele>
        <time>2018-03-31T09:19:01Z</time>
      </trkpt>
      <trkpt lat="44.64019" lon="3.81069">
        <ele>1191</ele>
        <time>2018-03-31T09:20:01Z</time>
      </trkpt>
      <trkpt lat="44.63892" lon="3.81073">
        <ele>1197</ele>
        <time>2018-03-31T09:21:01Z</time>
      </trkpt>
      <trkpt lat="44.63836" lon="3.81093">
        <ele>1200</ele>
        <time>2018-03-31T09:22:01Z</time>
      </trkpt>
      <trkpt lat="44.6379" lon="3.8116">
        <ele>1204</ele>
        <time>2018-03-31T09:23:01Z</time>
      </trkpt>
      <trkpt lat="44.63762" lon="3.81265">
        <ele>1219</ele>
        <time>2018-03-31T09:24:01Z</time>
      </trkpt>
      <trkpt lat="44.63702" lon="3.81347">
        <ele>1227</ele>
        <time>2018-03-31T09:25:01Z</time>
      </trkpt>
      <trkpt lat="44.63671" lon="3.81424">
        <ele>1236</ele>
        <time>2018-03-31T09:26:01Z</time>
      </trkpt>
      <trkpt lat="44.63656" lon="3.81481">
        <ele>1239</ele>
        <time>2018-03-31T09:27:01Z</time>
      </trkpt>
      <trkpt lat="44.63655" lon="3.81525">
        <ele>1245</ele>
        <time>2018-03-31T09:28:01Z</time>
      </trkpt>
      <trkpt lat="44.6366" lon="3.81553">
        <ele>1246</ele>
        <time>2018-03-31T09:29:01Z</time>
      </trkpt>
      <trkpt lat="44.63675" lon="3.8157">
        <ele>1248</ele>
        <time>2018-03-31T09:30:01Z</time>
      </trkpt>
      <trkpt lat="44.6379" lon="3.8154">
        <ele>1242</ele>
        <time>2018-03-31T09:31:01Z</time>
      </trkpt>
      <trkpt lat="44.6381" lon="3.81543">
        <ele>1241</ele>
        <time>2018-03-31T09:32:01Z</time>
      </trkpt>
      <trkpt lat="44.63844" lon="3.81581">
        <ele>1238</ele>
        <time>2018-03-31T09:33:01Z</time>
      </trkpt>
      <trkpt lat="44.64029" lon="3.81813">
        <ele>1220</ele>
        <time>2018-03-31T09:34:01Z</time>
      </trkpt>
      <trkpt lat="44.64053" lon="3.81876">
        <ele>1217</ele>
        <time>2018-03-31T09:35:01Z</time>
      </trkpt>
      <trkpt lat="44.64045" lon="3.81894">
        <ele>1216</ele>
        <time>2018-03-31T09:36:01Z</time>
      </trkpt>
      <trkpt lat="44.64009" lon="3.81886">
        <ele>1214</ele>
        <time>2018-03-31T09:37:01Z</time>
      </trkpt>
      <trkpt lat="44.63962" lon="3.81881">
        <ele>1208</ele>
        <time>2018-03-31T09:38:01Z</time>
      </trkpt>
      <trkpt lat="44.63938" lon="3.81876">
        <ele>1207</ele>
        <time>2018-03-31T09:39:01Z</time>
      </trkpt>
      <trkpt lat="44.63925" lon="3.81848">
        <ele>1210</ele>
        <time>2018-03-31T09:40:01Z</time>
      </trkpt>
      <trkpt lat="44.63906" lon="3.81848">
        <ele>1211</ele>
        <time>2018-03-31T09:41:01Z</time>
      </trkpt>
      <trkpt lat="44.63777" lon="3.82087">
        <ele>1181</ele>
        <time>2018-03-31T09:42:01Z</time>
      </trkpt>
      <trkpt lat="44.63753" lon="3.8217">
        <ele>1174</ele>
        <time>2018-03-31T09:43:01Z</time>
      </trkpt>
      <trkpt lat="44.63727" lon="3.82222">
        <ele>1168</ele>
        <time>2018-03-31T09:44:01Z</time>
      </trkpt>
      <trkpt lat="44.63765" lon="3.8224">
        <ele>1160</ele>
        <time>2018-03-31T09:45:01Z</time>
      </trkpt>
      <trkpt lat="44.63808" lon="3.82247">
        <ele>1157</ele>
        <time>2018-03-31T09:46:01Z</time>
      </trkpt>
      <trkpt lat="44.63821" lon="3.82189">
        <ele>1161</ele>
        <time>2018-03-31T09:47:01Z</time>
      </trkpt>
      <trkpt lat="44.63835" lon="3.82138">
        <ele>1167</ele>
        <time>2018-03-31T09:48:01Z</time>
      </trkpt>
      <trkpt lat="44.63851" lon="3.82126">
        <ele>1168</ele>
        <time>2018-03-31T09:49:01Z</time>
      </trkpt>
      <trkpt lat="44.6387" lon="3.82125">
        <ele>1169</ele>
        <time>2018-03-31T09:50:01Z</time>
      </trkpt>
      <trkpt lat="44.63908" lon="3.82197">
        <ele>1161</ele>
        <time>2018-03-31T09:51:01Z</time>
      </trkpt>
      <trkpt lat="44.63965" lon="3.82272">
        <ele>1164</ele>
        <time>2018-03-31T09:52:01Z</time>
      </trkpt>
      <trkpt lat="44.63979" lon="3.82391">
        <ele>1153</ele>
        <time>2018-03-31T09:53:01Z</time>
      </trkpt>
      <trkpt lat="44.63999" lon="3.82514">
        <ele>1141</ele>
        <time>2018-03-31T09:54:01Z</time>
      </trkpt>
      <trkpt lat="44.64018" lon="3.82558">
        <ele>1151</ele>
        <time>2018-03-31T09:55:01Z</time>
      </trkpt>
      <trkpt lat="44.64022" lon="3.82591">
        <ele>1145</ele>
        <time>2018-03-31T09:56:01Z</time>
      </trkpt>
      <trkpt lat="44.64015" lon="3.82692">
        <ele>1137</ele>
        <time>2018-03-31T09:57:01Z</time>
      </trkpt>
      <trkpt lat="44.64032" lon="3.82762">
        <ele>1129</ele>
        <time>2018-03-31T09:58:01Z</time>
      </trkpt>
      <trkpt lat="44.64044" lon="3.82836">
        <ele>1118</ele>
        <time>2018-03-31T09:59:01Z</time>
      </trkpt>
      <trkpt lat="44.64056" lon="3.82866">
        <ele>1117</ele>
        <time>2018-03-31T10:00:01Z</time>
      </trkpt>
      <trkpt lat="44.64078" lon="3.82882">
        <ele>1117</ele>
        <time>2018-03-31T10:01:01Z</time>
      </trkpt>
      <trkpt lat="44.64269" lon="3.82919">
        <ele>1108</ele>
        <time>2018-03-31T10:02:01Z</time>
      </trkpt>
      <trkpt lat="44.64298" lon="3.82913">
        <ele>1111</ele>
        <time>2018-03-31T10:03:01Z</time>
      </trkpt>
      <trkpt lat="44.64317" lon="3.82895">
        <ele>1110</ele>
        <time>2018-03-31T10:04:01Z</time>
      </trkpt>
      <trkpt lat="44.64354" lon="3.8284">
        <ele>1107</ele>
        <time>2018-03-31T10:05:01Z</time>
      </trkpt>
      <trkpt lat="44.64338" lon="3.82931">
        <ele>1100</ele>
        <time>2018-03-31T10:06:01Z</time>
      </trkpt>
      <trkpt lat="44.64323" lon="3.82975">
        <ele>1098</ele>
        <time>2018-03-31T10:07:01Z</time>
      </trkpt>
      <trkpt lat="44.64308" lon="3.83003">
        <ele>1091</ele>
        <time>2018-03-31T10:08:01Z</time>
      </trkpt>
      <trkpt lat="44.64273" lon="3.83021">
        <ele>1091</ele>
        <time>2018-03-31T10:09:01Z</time>
      </trkpt>
      <trkpt lat="44.64256" lon="3.8304">
        <ele>1090</ele>
        <time>2018-03-31T10:10:01Z</time>
      </trkpt>
      <trkpt lat="44.64253" lon="3.83085">
        <ele>1083</ele>
        <time>2018-03-31T10:11:01Z</time>
      </trkpt>
      <trkpt lat="44.64266" lon="3.83146">
        <ele>1082</ele>
        <time>2018-03-31T10:12:01Z</time>
      </trkpt>
      <trkpt lat="44.64263" lon="3.83179">
        <ele>1083</ele>
        <time>2018-03-31T10:13:01Z</time>
      </trkpt>
      <trkpt lat="44.64244" lon="3.83233">
        <ele>1087</ele>
        <time>2018-03-31T10:14:01Z</time>
      </trkpt>
      <trkpt lat="44.64254" lon="3.83259">
        <ele>1088</ele>
        <time>2018-03-31T10:15:01Z</time>
      </trkpt>
      <trkpt lat="44.64283" lon="3.83286">
        <ele>1093</ele>
        <time>2018-03-31T10:16:01Z</time>
      </trkpt>
      <trkpt lat="44.64328" lon="3.83298">
        <ele>1095</ele>
        <time>2018-03-31T10:17:01Z</time>
      </trkpt>
      <trkpt lat="44.64354" lon="3.83303">
        <ele>1099</ele>
        <time>2018-03-31T10:18:01Z</time>
      </trkpt>
      <trkpt lat="44.64383" lon="3.833">
        <ele>1099</ele>
        <time>2018-03-31T10:19:01Z</time>
      </trkpt>
      <trkpt lat="44.64395" lon="3.83308">
        <ele>1101</ele>
        <time>2018-03-31T10:20:01Z</time>
      </trkpt>
      <trkpt lat="44.64394" lon="3.83325">
        <ele>1103</ele>
        <time>2018-03-31T10:21:01Z</time>
      </trkpt>
      <trkpt lat="44.64385" lon="3.83336">
        <ele>1114</ele>
        <time>2018-03-31T10:22:01Z</time>
      </trkpt>
      <trkpt lat="44.64354" lon="3.8335">
        <ele>1112</ele>
        <time>2018-03-31T10:23:01Z</time>
      </trkpt>
      <trkpt lat="44.64317" lon="3.83385">
        <ele>1111</ele>
        <time>2018-03-31T10:24:01Z</time>
      </trkpt>
      <trkpt lat="44.64308" lon="3.83397">
        <ele>1111</ele>
        <time>2018-03-31T10:25:01Z</time>
      </trkpt>
      <trkpt lat="44.6431" lon="3.83408">
        <ele>1113</ele>
        <time>2018-03-31T10:26:01Z</time>
      </trkpt>
      <trkpt lat="44.64315" lon="3.83411">
        <ele>1114</ele>
        <time>2018-03-31T10:27:01Z</time>
      </trkpt>
      <trkpt lat="44.64363" lon="3.83395">
        <ele>1119</ele>
        <time>2018-03-31T10:28:01Z</time>
      </trkpt>
      <trkpt lat="44.64462" lon="3.83418">
        <ele>1140</ele>
        <time>2018-03-31T10:29:01Z</time>
      </trkpt>
      <trkpt lat="44.6448" lon="3.83421">
        <ele>1140</ele>
        <time>2018-03-31T10:30:01Z</time>
      </trkpt>
      <trkpt lat="44.64499" lon="3.83415">
        <ele>1136</ele>
        <time>2018-03-31T10:31:01Z</time>
      </trkpt>
      <trkpt lat="44.64518" lon="3.83411">
        <ele>1135</ele>
        <time>2018-03-31T10:32:01Z</time>
      </trkpt>
      <trkpt lat="44.64552" lon="3.83413">
        <ele>1137</ele>
        <time>2018-03-31T10:33:01Z</time>
      </trkpt>
      <trkpt lat="44.64593" lon="3.83394">
        <ele>1146</ele>
        <time>2018-03-31T10:34:01Z</time>
      </trkpt>
      <trkpt lat="44.64618" lon="3.83383">
        <ele>1146</ele>
        <time>2018-03-31T10:35:01Z</time>
      </trkpt>
      <trkpt lat="44.64643" lon="3.83374">
        <ele>1148</ele>
        <time>2018-03-31T10:36:01Z</time>
      </trkpt>
      <trkpt lat="44.64698" lon="3.83344">
        <ele>1156</ele>
        <time>2018-03-31T10:37:01Z</time>
      </trkpt>
      <trkpt lat="44.64743" lon="3.83336">
        <ele>1158</ele>
        <time>2018-03-31T10:38:01Z</time>
      </trkpt>
      <trkpt lat="44.64785" lon="3.83322">
        <ele>1156</ele>
        <time>2018-03-31T10:39:01Z</time>
      </trkpt>
      <trkpt lat="44.64849" lon="3.83286">
        <ele>1161</ele>
        <time>2018-03-31T10:40:01Z</time>
      </trkpt>
      <trkpt lat="44.64883" lon="3.83291">
        <ele>1162</ele>
        <time>2018-03-31T10:41:01Z</time>
      </trkpt>
      <trkpt lat="44.64916" lon="3.83325">
        <ele>1166</ele>
        <time>2018-03-31T10:42:01Z</time>
      </trkpt>
      <trkpt lat="44.6494" lon="3.83369">
        <ele>1164</ele>
        <time>2018-03-31T10:43:01Z</time>
      </trkpt>
      <trkpt lat="44.65009" lon="3.83529">
        <ele>1166</ele>
        <time>2018-03-31T10:44:01Z</time>
      </trkpt>
      <trkpt lat="44.65086" lon="3.83575">
        <ele>1169</ele>
        <time>2018-03-31T10:45:01Z</time>
      </trkpt>
      <trkpt lat="44.65132" lon="3.83631">
        <ele>1175</ele>
        <time>2018-03-31T10:46:01Z</time>
      </trkpt>
      <trkpt lat="44.65043" lon="3.83665">
        <ele>1181</ele>
        <time>2018-03-31T10:47:01Z</time>
      </trkpt>
      <trkpt lat="44.64993" lon="3.83703">
        <ele>1190</ele>
        <time>2018-03-31T10:48:01Z</time>
      </trkpt>
      <trkpt lat="44.6492" lon="3.83739">
        <ele>1193</ele>
        <time>2018-03-31T10:49:01Z</time>
      </trkpt>
      <trkpt lat="44.64867" lon="3.83779">
        <ele>1200</ele>
        <time>2018-03-31T10:50:01Z</time>
      </trkpt>
      <trkpt lat="44.64823" lon="3.83904">
        <ele>1204</ele>
        <time>2018-03-31T10:51:01Z</time>
      </trkpt>
      <trkpt lat="44.64804" lon="3.84049">
        <ele>1203</ele>
        <time>2018-03-31T10:52:01Z</time>
      </trkpt>
      <trkpt lat="44.64802" lon="3.841">
        <ele>1200</ele>
        <time>2018-03-31T10:53:01Z</time>
      </trkpt>
      <trkpt lat="44.64791" lon="3.84173">
        <ele>1197</ele>
        <time>2018-03-31T10:54:01Z</time>
      </trkpt>
      <trkpt lat="44.64789" lon="3.84225">
        <ele>1196</ele>
        <time>2018-03-31T10:55:01Z</time>
      </trkpt>
      <trkpt lat="44.6478" lon="3.8429">
        <ele>1193</ele>
        <time>2018-03-31T10:56:01Z</time>
      </trkpt>
      <trkpt lat="44.64773" lon="3.84385">
        <ele>1186</ele>
        <time>2018-03-31T10:57:01Z</time>
      </trkpt>
      <trkpt lat="44.64688" lon="3.84625">
        <ele>1191</ele>
        <time>2018-03-31T10:58:01Z</time>
      </trkpt>
      <trkpt lat="44.64657" lon="3.84897">
        <ele>1196</ele>
        <time>2018-03-31T10:59:01Z</time>
      </trkpt>
      <trkpt lat="44.64639" lon="3.84984">
        <ele>1196</ele>
        <time>2018-03-31T11:00:01Z</time>
      </trkpt>
      <trkpt lat="44.64616" lon="3.85216">
        <ele>1194</ele>
        <time>2018-03-31T11:01:01Z</time>
      </trkpt>
      <trkpt lat="44.64609" lon="3.85369">
        <ele>1195</ele>
        <time>2018-03-31T11:02:01Z</time>
      </trkpt>
      <trkpt lat="44.64544" lon="3.85514">
        <ele>1200</ele>
        <time>2018-03-31T11:03:01Z</time>
      </trkpt>
      <trkpt lat="44.64501" lon="3.85558">
        <ele>1201</ele>
        <time>2018-03-31T11:04:01Z</time>
      </trkpt>
      <trkpt lat="44.64458" lon="3.85578">
        <ele>1210</ele>
        <time>2018-03-31T11:05:01Z</time>
      </trkpt>
      <trkpt lat="44.64416" lon="3.85605">
        <ele>1211</ele>
        <time>2018-03-31T11:06:01Z</time>
      </trkpt>
      <trkpt lat="44.64341" lon="3.85647">
        <ele>1211</ele>
        <time>2018-03-31T11:07:01Z</time>
      </trkpt>
      <trkpt lat="44.6432" lon="3.85666">
        <ele>1212</ele>
        <time>2018-03-31T11:08:01Z</time>
      </trkpt>
      <trkpt lat="44.64262" lon="3.85677">
        <ele>1211</ele>
        <time>2018-03-31T11:09:01Z</time>
      </trkpt>
      <trkpt lat="44.64224" lon="3.85688">
        <ele>1212</ele>
        <time>2018-03-31T11:10:01Z</time>
      </trkpt>
      <trkpt lat="44.64269" lon="3.85854">
        <ele>1214</ele>
        <time>2018-03-31T11:11:01Z</time>
      </trkpt>
      <trkpt lat="44.64333" lon="3.85875">
        <ele>1216</ele>
        <time>2018-03-31T11:12:01Z</time>
      </trkpt>
      <trkpt lat="44.64389" lon="3.85938">
        <ele>1223</ele>
        <time>2018-03-31T11:13:01Z</time>
      </trkpt>
      <trkpt lat="44.64443" lon="3.8596">
        <ele>1225</ele>
        <time>2018-03-31T11:14:01Z</time>
      </trkpt>
      <trkpt lat="44.64505" lon="3.85991">
        <ele>1228</ele>
        <time>2018-03-31T11:15:01Z</time>
      </trkpt>
      <trkpt lat="44.64531" lon="3.86023">
        <ele>1232</ele>
        <time>2018-03-31T11:16:01Z</time>
      </trkpt>
      <trkpt lat="44.64545" lon="3.86048">
        <ele>1233</ele>
        <time>2018-03-31T11:17:01Z</time>
      </trkpt>
      <trkpt lat="44.64576" lon="3.86077">
        <ele>1233</ele>
        <time>2018-03-31T11:18:01Z</time>
      </trkpt>
      <trkpt lat="44.64709" lon="3.86134">
        <ele>1234</ele>
        <time>2018-03-31T11:19:01Z</time>
      </trkpt>
      <trkpt lat="44.64818" lon="3.8618">
        <ele>1228</ele>
        <time>2018-03-31T11:20:01Z</time>
      </trkpt>
      <trkpt lat="44.64882" lon="3.86246">
        <ele>1225</ele>
        <time>2018-03-31T11:21:01Z</time>
      </trkpt>
      <trkpt lat="44.64921" lon="3.86322">
        <ele>1226</ele>
        <time>2018-03-31T11:22:01Z</time>
      </trkpt>
      <trkpt lat="44.64947" lon="3.86385">
        <ele>1227</ele>
        <time>2018-03-31T11:23:01Z</time>
      </trkpt>
      <trkpt lat="44.64954" lon="3.86446">
        <ele>1227</ele>
        <time>2018-03-31T11:24:01Z</time>
      </trkpt>
      <trkpt lat="44.6496" lon="3.86573">
        <ele>1228</ele>
        <time>2018-03-31T11:25:01Z</time>
      </trkpt>
      <trkpt lat="44.64959" lon="3.86725">
        <ele>1232</ele>
        <time>2018-03-31T11:26:01Z</time>
      </trkpt>
      <trkpt lat="44.64937" lon="3.86812">
        <ele>1233</ele>
        <time>2018-03-31T11:27:01Z</time>
      </trkpt>
      <trkpt lat="44.64923" lon="3.86906">
        <ele>1235</ele>
        <time>2018-03-31T11:28:01Z</time>
      </trkpt>
      <trkpt lat="44.64918" lon="3.86998">
        <ele>1235</ele>
        <time>2018-03-31T11:29:01Z</time>
      </trkpt>
      <trkpt lat="44.64922" lon="3.87081">
        <ele>1233</ele>
        <time>2018-03-31T11:30:01Z</time>
      </trkpt>
      <trkpt lat="44.64923" lon="3.87226">
        <ele>1229</ele>
        <time>2018-03-31T11:31:01Z</time>
      </trkpt>
      <trkpt lat="44.64898" lon="3.87301">
        <ele>1230</ele>
        <time>2018-03-31T11:32:01Z</time>
      </trkpt>
      <trkpt lat="44.6493" lon="3.87567">
        <ele>1219</ele>
        <time>2018-03-31T11:33:01Z</time>
      </trkpt>
      <trkpt lat="44.64951" lon="3.8758">
        <ele>1218</ele>
        <time>2018-03-31T11:34:01Z</time>
      </trkpt>
      <trkpt lat="44.64986" lon="3.8756">
        <ele>1216</ele>
        <time>2018-03-31T11:35:01Z</time>
      </trkpt>
      <trkpt lat="44.65025" lon="3.87639">
        <ele>1210</ele>
        <time>2018-03-31T11:36:01Z</time>
      </trkpt>
      <trkpt lat="44.65051" lon="3.87658">
        <ele>1208</ele>
        <time>2018-03-31T11:37:01Z</time>
      </trkpt>
      <trkpt lat="44.65095" lon="3.87724">
        <ele>1196</ele>
        <time>2018-03-31T11:38:01Z</time>
      </trkpt>
      <trkpt lat="44.65115" lon="3.87768">
        <ele>1187</ele>
        <time>2018-03-31T11:39:01Z</time>
      </trkpt>
      <trkpt lat="44.65171" lon="3.87766">
        <ele>1177</ele>
        <time>2018-03-31T11:40:01Z</time>
      </trkpt>
      <trkpt lat="44.65217" lon="3.87724">
        <ele>1180</ele>
        <time>2018-03-31T11:41:01Z</time>
      </trkpt>
      <trkpt lat="44.65199" lon="3.87829">
        <ele>1167</ele>
        <time>2018-03-31T11:42:01Z</time>
      </trkpt>
      <trkpt lat="44.65168" lon="3.87906">
        <ele>1155</ele>
        <time>2018-03-31T11:43:01Z</time>
      </trkpt>
      <trkpt lat="44.65151" lon="3.87958">
        <ele>1152</ele>
        <time>2018-03-31T11:44:01Z</time>
      </trkpt>
      <trkpt lat="44.65123" lon="3.88039">
        <ele>1137</ele>
        <time>2018-03-31T11:45:01Z</time>
      </trkpt>
      <trkpt lat="44.65097" lon="3.88115">
        <ele>1128</ele>
        <time>2018-03-31T11:46:01Z</time>
      </trkpt>
      <trkpt lat="44.65098" lon="3.88144">
        <ele>1127</ele>
        <time>2018-03-31T11:47:01Z</time>
      </trkpt>
      <trkpt lat="44.65101" lon="3.88172">
        <ele>1124</ele>
        <time>2018-03-31T11:48:01Z</time>
      </trkpt>
      <trkpt lat="44.65115" lon="3.88252">
        <ele>1115</ele>
        <time>2018-03-31T11:49:01Z</time>
      </trkpt>
      <trkpt lat="44.65117" lon="3.88296">
        <ele>1112</ele>
        <time>2018-03-31T11:50:01Z</time>
      </trkpt>
      <trkpt lat="44.65117" lon="3.88339">
        <ele>1107</ele>
        <time>2018-03-31T11:51:01Z</time>
      </trkpt>
      <trkpt lat="44.65096" lon="3.88513">
        <ele>1091</ele>
        <time>2018-03-31T11:52:01Z</time>
      </trkpt>
      <trkpt lat="44.65075" lon="3.88603">
        <ele>1090</ele>
        <time>2018-03-31T11:53:01Z</time>
      </trkpt>
      <trkpt lat="44.65033" lon="3.88712">
        <ele>1074</ele>
        <time>2018-03-31T11:54:01Z</time>
      </trkpt>
      <trkpt lat="44.651" lon="3.88768">
        <ele>1058</ele>
        <time>2018-03-31T11:55:01Z</time>
      </trkpt>
      <trkpt lat="44.65169" lon="3.88814">
        <ele>1048</ele>
        <time>2018-03-31T11:56:01Z</time>
      </trkpt>
      <trkpt lat="44.65179" lon="3.88889">
        <ele>1046</ele>
        <time>2018-03-31T11:57:01Z</time>
      </trkpt>
      <trkpt lat="44.65162" lon="3.88945">
        <ele>1036</ele>
        <time>2018-03-31T11:58:01Z</time>
      </trkpt>
      <trkpt lat="44.65162" lon="3.88965">
        <ele>1033</ele>
        <time>2018-03-31T11:59:01Z</time>
      </trkpt>
      <trkpt lat="44.65099" lon="3.88976">
        <ele>1028</ele>
        <time>2018-03-31T12:00:01Z</time>
      </trkpt>
      <trkpt lat="44.65051" lon="3.88966">
        <ele>1024</ele>
        <time>2018-03-31T12:01:01Z</time>
      </trkpt>
      <trkpt lat="44.65038" lon="3.88987">
        <ele>1022</ele>
        <time>2018-03-31T12:02:01Z</time>
      </trkpt>
      <trkpt lat="44.65023" lon="3.88996">
        <ele>1020</ele>
        <time>2018-03-31T12:03:01Z</time>
      </trkpt>
      <trkpt lat="44.65013" lon="3.89003">
        <ele>1013</ele>
        <time>2018-03-31T12:04:01Z</time>
      </trkpt>
      <trkpt lat="44.64999" lon="3.89008">
        <ele>1012</ele>
        <time>2018-03-31T12:05:01Z</time>
      </trkpt>
      <trkpt lat="44.64973" lon="3.8901">
        <ele>1009</ele>
        <time>2018-03-31T12:06:01Z</time>
      </trkpt>
      <trkpt lat="44.64928" lon="3.89023">
        <ele>1006</ele>
        <time>2018-03-31T12:07:01Z</time>
      </trkpt>
      <trkpt lat="44.64923" lon="3.89035">
        <ele>1005</ele>
        <time>2018-03-31T12:08:01Z</time>
      </trkpt>
      <trkpt lat="44.64905" lon="3.89034">
        <ele>1005</ele>
        <time>2018-03-31T12:09:01Z</time>
      </trkpt>
      <trkpt lat="44.64874" lon="3.89027">
        <ele>1005</ele>
        <time>2018-03-31T12:10:01Z</time>
      </trkpt>
      <trkpt lat="44.64842" lon="3.89063">
        <ele>1003</ele>
        <time>2018-03-31T12:11:01Z</time>
      </trkpt>
      <trkpt lat="44.64785" lon="3.89118">
        <ele>1003</ele>
        <time>2018-03-31T12:12:01Z</time>
      </trkpt>
      <trkpt lat="44.64759" lon="3.89121">
        <ele>1004</ele>
        <time>2018-03-31T12:13:01Z</time>
      </trkpt>
      <trkpt lat="44.64725" lon="3.8914">
        <ele>1008</ele>
        <time>2018-03-31T12:14:01Z</time>
      </trkpt>
      <trkpt lat="44.64666" lon="3.89163">
        <ele>1007</ele>
        <time>2018-03-31T12:15:01Z</time>
      </trkpt>
      <trkpt lat="44.64643" lon="3.89172">
        <ele>1006</ele>
        <time>2018-03-31T12:16:01Z</time>
      </trkpt>
      <trkpt lat="44.64604" lon="3.89232">
        <ele>1005</ele>
        <time>2018-03-31T12:17:01Z</time>
      </trkpt>
      <trkpt lat="44.64583" lon="3.89273">
        <ele>1004</ele>
        <time>2018-03-31T12:18:01Z</time>
      </trkpt>
      <trkpt lat="44.64544" lon="3.89317">
        <ele>1002</ele>
        <time>2018-03-31T12:19:01Z</time>
      </trkpt>
      <trkpt lat="44.64511" lon="3.89348">
        <ele>995</ele>
        <time>2018-03-31T12:20:01Z</time>
      </trkpt>
      <trkpt lat="44.64457" lon="3.89383">
        <ele>994</ele>
        <time>2018-03-31T12:21:01Z</time>
      </trkpt>
      <trkpt lat="44.64398" lon="3.89413">
        <ele>992</ele>
        <time>2018-03-31T12:22:01Z</time>
      </trkpt>
      <trkpt lat="44.64343" lon="3.89422">
        <ele>984</ele>
        <time>2018-03-31T12:23:01Z</time>
      </trkpt>
      <trkpt lat="44.64309" lon="3.89417">
        <ele>981</ele>
        <time>2018-03-31T12:24:01Z</time>
      </trkpt>
      <trkpt lat="44.64265" lon="3.89396">
        <ele>988</ele>
        <time>2018-03-31T12:25:01Z</time>
      </trkpt>
      <trkpt lat="44.64203" lon="3.89347">
        <ele>983</ele>
        <time>2018-03-31T12:26:01Z</time>
      </trkpt>
      <trkpt lat="44.64128" lon="3.89268">
        <ele>986</ele>
        <time>2018-03-31T12:27:01Z</time>
      </trkpt>
      <trkpt lat="44.64056" lon="3.89237">
        <ele>984</ele>
        <time>2018-03-31T12:28:01Z</time>
      </trkpt>
      <trkpt lat="44.63931" lon="3.89245">
        <ele>977</ele>
        <time>2018-03-31T12:29:01Z</time>
      </trkpt>
      <trkpt lat="44.63857" lon="3.89235">
        <ele>980</ele>
        <time>2018-03-31T12:30:01Z</time>
      </trkpt>
      <trkpt lat="44.63807" lon="3.89264">
        <ele>979</ele>
        <time>2018-03-31T12:31:01Z</time>
      </trkpt>
      <trkpt lat="44.63758" lon="3.89305">
        <ele>979</ele>
        <time>2018-03-31T12:32:01Z</time>
      </trkpt>
      <trkpt lat="44.63746" lon="3.8933">
        <ele>980</ele>
        <time>2018-03-31T12:33:01Z</time>
      </trkpt>
      <trkpt lat="44.63735" lon="3.8936">
        <ele>977</ele>
        <time>2018-03-31T12:34:01Z</time>
      </trkpt>
      <trkpt lat="44.63686" lon="3.89362">
        <ele>978</ele>
        <time>2018-03-31T12:35:01Z</time>
      </trkpt>
      <trkpt lat="44.63632" lon="3.89384">
        <ele>978</ele>
        <time>2018-03-31T12:36:01Z</time>
      </trkpt>
      <trkpt lat="44.6348" lon="3.89419">
        <ele>974</ele>
        <time>2018-03-31T12:37:01Z</time>
      </trkpt>
      <trkpt lat="44.63478" lon="3.89468">
        <ele>974</ele>
        <time>2018-03-31T12:38:01Z</time>
      </trkpt>
      <trkpt lat="44.63474" lon="3.89495">
        <ele>974</ele>
        <time>2018-03-31T12:39:01Z</time>
      </trkpt>
      <trkpt lat="44.63428" lon="3.89471">
        <ele>973</ele>
        <time>2018-03-31T12:40:01Z</time>
      </trkpt>
      <trkpt lat="44.63353" lon="3.89444">
        <ele>972</ele>
        <time>2018-03-31T12:41:01Z</time>
      </trkpt>
      <trkpt lat="44.63291" lon="3.89442">
        <ele>974</ele>
        <time>2018-03-31T12:42:01Z</time>
      </trkpt>
      <trkpt lat="44.63201" lon="3.89468">
        <ele>974</ele>
        <time>2018-03-31T12:43:01Z</time>
      </trkpt>
      <trkpt lat="44.63145" lon="3.89492">
        <ele>974</ele>
        <time>2018-03-31T12:44:01Z</time>
      </trkpt>
      <trkpt lat="44.63044" lon="3.89487">
        <ele>975</ele>
        <time>2018-03-31T12:45:01Z</time>
      </trkpt>
      <trkpt lat="44.63025" lon="3.89528">
        <ele>976</ele>
        <time>2018-03-31T12:46:01Z</time>
      </trkpt>
      <trkpt lat="44.63003" lon="3.89543">
        <ele>976</ele>
        <time>2018-03-31T12:47:01Z</time>
      </trkpt>
      <trkpt lat="44.62981" lon="3.89622">
        <ele>981</ele>
        <time>2018-03-31T12:48:01Z</time>
      </trkpt>
      <trkpt lat="44.62965" lon="3.89651">
        <ele>982</ele>
        <time>2018-03-31T12:49:01Z</time>
      </trkpt>
      <trkpt lat="44.6294" lon="3.89707">
        <ele>986</ele>
        <time>2018-03-31T12:50:01Z</time>
      </trkpt>
      <trkpt lat="44.62905" lon="3.89742">
        <ele>989</ele>
        <time>2018-03-31T12:51:01Z</time>
      </trkpt>
      <trkpt lat="44.62886" lon="3.89785">
        <ele>993</ele>
        <time>2018-03-31T12:52:01Z</time>
      </trkpt>
      <trkpt lat="44.62849" lon="3.89844">
        <ele>999</ele>
        <time>2018-03-31T12:53:01Z</time>
      </trkpt>
      <trkpt lat="44.62809" lon="3.89885">
        <ele>1000</ele>
        <time>2018-03-31T12:54:01Z</time>
      </trkpt>
      <trkpt lat="44.62786" lon="3.89895">
        <ele>1000</ele>
        <time>2018-03-31T12:55:01Z</time>
      </trkpt>
      <trkpt lat="44.62752" lon="3.89904">
        <ele>1002</ele>
        <time>2018-03-31T12:56:01Z</time>
      </trkpt>
      <trkpt lat="44.62712" lon="3.89944">
        <ele>1000</ele>
        <time>2018-03-31T12:57:01Z</time>
      </trkpt>
      <trkpt lat="44.62679" lon="3.89987">
        <ele>1000</ele>
        <time>2018-03-31T12:58:01Z</time>
      </trkpt>
      <trkpt lat="44.62664" lon="3.90018">
        <ele>999</ele>
        <time>2018-03-31T12:59:01Z</time>
      </trkpt>
      <trkpt lat="44.62612" lon="3.90077">
        <ele>997</ele>
        <time>2018-03-31T13:00:01Z</time>
      </trkpt>
      <trkpt lat="44.62599" lon="3.90099">
        <ele>998</ele>
        <time>2018-03-31T13:01:01Z</time>
      </trkpt>
      <trkpt lat="44.62597" lon="3.90139">
        <ele>999</ele>
        <time>2018-03-31T13:02:01Z</time>
      </trkpt>
      <trkpt lat="44.6258" lon="3.90198">
        <ele>996</ele>
        <time>2018-03-31T13:03:01Z</time>
      </trkpt>
      <trkpt lat="44.6257" lon="3.90295">
        <ele>998</ele>
        <time>2018-03-31T13:04:01Z</time>
      </trkpt>
      <trkpt lat="44.6256" lon="3.90509">
        <ele>1005</ele>
        <time>2018-03-31T13:05:01Z</time>
      </trkpt>
      <trkpt lat="44.62522" lon="3.90518">
        <ele>1001</ele>
        <time>2018-03-31T13:06:01Z</time>
      </trkpt>
      <trkpt lat="44.62485" lon="3.9056">
        <ele>1000</ele>
        <time>2018-03-31T13:07:01Z</time>
      </trkpt>
      <trkpt lat="44.62439" lon="3.90594">
        <ele>1002</ele>
        <time>2018-03-31T13:08:01Z</time>
      </trkpt>
      <trkpt lat="44.62336" lon="3.90651">
        <ele>1014</ele>
        <time>2018-03-31T13:09:01Z</time>
      </trkpt>
      <trkpt lat="44.62283" lon="3.90699">
        <ele>1024</ele>
        <time>2018-03-31T13:10:01Z</time>
      </trkpt>
      <trkpt lat="44.62259" lon="3.90738">
        <ele>1027</ele>
        <time>2018-03-31T13:11:01Z</time>
      </trkpt>
      <trkpt lat="44.62183" lon="3.90817">
        <ele>1040</ele>
        <time>2018-03-31T13:12:01Z</time>
      </trkpt>
      <trkpt lat="44.62147" lon="3.90861">
        <ele>1052</ele>
        <time>2018-03-31T13:13:01Z</time>
      </trkpt>
      <trkpt lat="44.62108" lon="3.90985">
        <ele>1062</ele>
        <time>2018-03-31T13:14:01Z</time>
      </trkpt>
      <trkpt lat="44.62087" lon="3.91053">
        <ele>1064</ele>
        <time>2018-03-31T13:15:01Z</time>
      </trkpt>
      <trkpt lat="44.62066" lon="3.91128">
        <ele>1076</ele>
        <time>2018-03-31T13:16:01Z</time>
      </trkpt>
      <trkpt lat="44.62046" lon="3.91154">
        <ele>1079</ele>
        <time>2018-03-31T13:17:01Z</time>
      </trkpt>
      <trkpt lat="44.62051" lon="3.91222">
        <ele>1083</ele>
        <time>2018-03-31T13:18:01Z</time>
      </trkpt>
      <trkpt lat="44.62061" lon="3.91299">
        <ele>1088</ele>
        <time>2018-03-31T13:19:01Z</time>
      </trkpt>
      <trkpt lat="44.62059" lon="3.91326">
        <ele>1089</ele>
        <time>2018-03-31T13:20:01Z</time>
      </trkpt>
      <trkpt lat="44.6205" lon="3.91365">
        <ele>1091</ele>
        <time>2018-03-31T13:21:01Z</time>
      </trkpt>
      <trkpt lat="44.62053" lon="3.91425">
        <ele>1088</ele>
        <time>2018-03-31T13:22:01Z</time>
      </trkpt>
      <trkpt lat="44.62042" lon="3.9145">
        <ele>1087</ele>
        <time>2018-03-31T13:23:01Z</time>
      </trkpt>
      <trkpt lat="44.6203" lon="3.9146">
        <ele>1086</ele>
        <time>2018-03-31T13:24:01Z</time>
      </trkpt>
      <trkpt lat="44.62035" lon="3.915">
        <ele>1081</ele>
        <time>2018-03-31T13:25:01Z</time>
      </trkpt>
      <trkpt lat="44.6203" lon="3.91558">
        <ele>1078</ele>
        <time>2018-03-31T13:26:01Z</time>
      </trkpt>
      <trkpt lat="44.62024" lon="3.91588">
        <ele>1074</ele>
        <time>2018-03-31T13:27:01Z</time>
      </trkpt>
      <trkpt lat="44.62002" lon="3.91618">
        <ele>1073</ele>
        <time>2018-03-31T13:28:01Z</time>
      </trkpt>
      <trkpt lat="44.61988" lon="3.91642">
        <ele>1062</ele>
        <time>2018-03-31T13:29:01Z</time>
      </trkpt>
      <trkpt lat="44.61977" lon="3.91743">
        <ele>1057</ele>
        <time>2018-03-31T13:30:01Z</time>
      </trkpt>
      <trkpt lat="44.61935" lon="3.91721">
        <ele>1053</ele>
        <time>2018-03-31T13:31:01Z</time>
      </trkpt>
      <trkpt lat="44.61927" lon="3.91706">
        <ele>1053</ele>
        <time>2018-03-31T13:32:01Z</time>
      </trkpt>
      <trkpt lat="44.61915" lon="3.91666">
        <ele>1050</ele>
        <time>2018-03-31T13:33:01Z</time>
      </trkpt>
      <trkpt lat="44.61896" lon="3.91632">
        <ele>1051</ele>
        <time>2018-03-31T13:34:01Z</time>
      </trkpt>
      <trkpt lat="44.61876" lon="3.9157">
        <ele>1054</ele>
        <time>2018-03-31T13:35:01Z</time>
      </trkpt>
      <trkpt lat="44.61851" lon="3.9153">
        <ele>1054</ele>
        <time>2018-03-31T13:36:01Z</time>
      </trkpt>
      <trkpt lat="44.61806" lon="3.91497">
        <ele>1049</ele>
        <time>2018-03-31T13:37:01Z</time>
      </trkpt>
      <trkpt lat="44.61768" lon="3.91452">
        <ele>1047</ele>
        <time>2018-03-31T13:38:01Z</time>
      </trkpt>
      <trkpt lat="44.61747" lon="3.91409">
        <ele>1039</ele>
        <time>2018-03-31T13:39:01Z</time>
      </trkpt>
      <trkpt lat="44.61729" lon="3.91382">
        <ele>1039</ele>
        <time>2018-03-31T13:40:01Z</time>
      </trkpt>
      <trkpt lat="44.61716" lon="3.91378">
        <ele>1038</ele>
        <time>2018-03-31T13:41:01Z</time>
      </trkpt>
      <trkpt lat="44.61707" lon="3.91321">
        <ele>1042</ele>
        <time>2018-03-31T13:42:01Z</time>
      </trkpt>
      <trkpt lat="44.61699" lon="3.91318">
        <ele>1041</ele>
        <time>2018-03-31T13:43:01Z</time>
      </trkpt>
      <trkpt lat="44.61697" lon="3.91361">
        <ele>1036</ele>
        <time>2018-03-31T13:44:01Z</time>
      </trkpt>
      <trkpt lat="44.61683" lon="3.91363">
        <ele>1035</ele>
        <time>2018-03-31T13:45:01Z</time>
      </trkpt>
      <trkpt lat="44.61674" lon="3.91355">
        <ele>1034</ele>
        <time>2018-03-31T13:46:01Z</time>
      </trkpt>
      <trkpt lat="44.61639" lon="3.91275">
        <ele>1037</ele>
        <time>2018-03-31T13:47:01Z</time>
      </trkpt>
      <trkpt lat="44.61597" lon="3.91178">
        <ele>1036</ele>
        <time>2018-03-31T13:48:01Z</time>
      </trkpt>
      <trkpt lat="44.61573" lon="3.91088">
        <ele>1031</ele>
        <time>2018-03-31T13:49:01Z</time>
      </trkpt>
      <trkpt lat="44.61556" lon="3.91076">
        <ele>1034</ele>
        <time>2018-03-31T13:50:01Z</time>
      </trkpt>
      <trkpt lat="44.61554" lon="3.91061">
        <ele>1035</ele>
        <time>2018-03-31T13:51:01Z</time>
      </trkpt>
      <trkpt lat="44.61563" lon="3.91024">
        <ele>1033</ele>
        <time>2018-03-31T13:52:01Z</time>
      </trkpt>
      <trkpt lat="44.61549" lon="3.90947">
        <ele>1034</ele>
        <time>2018-03-31T13:53:01Z</time>
      </trkpt>
      <trkpt lat="44.61534" lon="3.90919">
        <ele>1036</ele>
        <time>2018-03-31T13:54:01Z</time>
      </trkpt>
      <trkpt lat="44.61536" lon="3.90901">
        <ele>1036</ele>
        <time>2018-03-31T13:55:01Z</time>
      </trkpt>
      <trkpt lat="44.61548" lon="3.90881">
        <ele>1035</ele>
        <time>2018-03-31T13:56:01Z</time>
      </trkpt>
      <trkpt lat="44.61578" lon="3.9073">
        <ele>1036</ele>
        <time>2018-03-31T13:57:01Z</time>
      </trkpt>
      <trkpt lat="44.61556" lon="3.90727">
        <ele>1040</ele>
        <time>2018-03-31T13:58:01Z</time>
      </trkpt>
      <trkpt lat="44.61546" lon="3.9074">
        <ele>1042</ele>
        <time>2018-03-31T13:59:01Z</time>
      </trkpt>
      <trkpt lat="44.61521" lon="3.90794">
        <ele>1043</ele>
        <time>2018-03-31T14:00:01Z</time>
      </trkpt>
      <trkpt lat="44.61505" lon="3.90807">
        <ele>1045</ele>
        <time>2018-03-31T14:01:01Z</time>
      </trkpt>
      <trkpt lat="44.6149" lon="3.90813">
        <ele>1056</ele>
        <time>2018-03-31T14:02:01Z</time>
      </trkpt>
      <trkpt lat="44.61473" lon="3.90812">
        <ele>1059</ele>
        <time>2018-03-31T14:03:01Z</time>
      </trkpt>
      <trkpt lat="44.61474" lon="3.908">
        <ele>1060</ele>
        <time>2018-03-31T14:04:01Z</time>
      </trkpt>
      <trkpt lat="44.6148" lon="3.90775">
        <ele>1061</ele>
        <time>2018-03-31T14:05:01Z</time>
      </trkpt>
      <trkpt lat="44.61478" lon="3.90743">
        <ele>1064</ele>
        <time>2018-03-31T14:06:01Z</time>
      </trkpt>
      <trkpt lat="44.61465" lon="3.90677">
        <ele>1067</ele>
        <time>2018-03-31T14:07:01Z</time>
      </trkpt>
      <trkpt lat="44.61442" lon="3.90612">
        <ele>1064</ele>
        <time>2018-03-31T14:08:01Z</time>
      </trkpt>
      <trkpt lat="44.61434" lon="3.90613">
        <ele>1065</ele>
        <time>2018-03-31T14:09:01Z</time>
      </trkpt>
      <trkpt lat="44.61435" lon="3.9065">
        <ele>1069</ele>
        <time>2018-03-31T14:10:01Z</time>
      </trkpt>
      <trkpt lat="44.61427" lon="3.90711">
        <ele>1072</ele>
        <time>2018-03-31T14:11:01Z</time>
      </trkpt>
      <trkpt lat="44.61418" lon="3.90723">
        <ele>1073</ele>
        <time>2018-03-31T14:12:01Z</time>
      </trkpt>
      <trkpt lat="44.61387" lon="3.9075">
        <ele>1078</ele>
        <time>2018-03-31T14:13:01Z</time>
      </trkpt>
      <trkpt lat="44.6134" lon="3.9078">
        <ele>1080</ele>
        <time>2018-03-31T14:14:01Z</time>
      </trkpt>
      <trkpt lat="44.61324" lon="3.90809">
        <ele>1082</ele>
        <time>2018-03-31T14:15:01Z</time>
      </trkpt>
      <trkpt lat="44.61316" lon="3.90817">
        <ele>1082</ele>
        <time>2018-03-31T14:16:01Z</time>
      </trkpt>
      <trkpt lat="44.61307" lon="3.90862">
        <ele>1091</ele>
        <time>2018-03-31T14:17:01Z</time>
      </trkpt>
      <trkpt lat="44.61312" lon="3.90936">
        <ele>1100</ele>
        <time>2018-03-31T14:18:01Z</time>
      </trkpt>
      <trkpt lat="44.61304" lon="3.90993">
        <ele>1104</ele>
        <time>2018-03-31T14:19:01Z</time>
      </trkpt>
      <trkpt lat="44.61282" lon="3.91039">
        <ele>1110</ele>
        <time>2018-03-31T14:20:01Z</time>
      </trkpt>
      <trkpt lat="44.61212" lon="3.91128">
        <ele>1120</ele>
        <time>2018-03-31T14:21:01Z</time>
      </trkpt>
      <trkpt lat="44.6119" lon="3.91178">
        <ele>1123</ele>
        <time>2018-03-31T14:22:01Z</time>
      </trkpt>
      <trkpt lat="44.61174" lon="3.91232">
        <ele>1126</ele>
        <time>2018-03-31T14:23:01Z</time>
      </trkpt>
      <trkpt lat="44.61168" lon="3.91275">
        <ele>1128</ele>
        <time>2018-03-31T14:24:01Z</time>
      </trkpt>
      <trkpt lat="44.6116" lon="3.91284">
        <ele>1126</ele>
        <time>2018-03-31T14:25:01Z</time>
      </trkpt>
      <trkpt lat="44.61157" lon="3.91324">
        <ele>1129</ele>
        <time>2018-03-31T14:26:01Z</time>
      </trkpt>
      <trkpt lat="44.61159" lon="3.91409">
        <ele>1138</ele>
        <time>2018-03-31T14:27:01Z</time>
      </trkpt>
      <trkpt lat="44.61146" lon="3.91445">
        <ele>1142</ele>
        <time>2018-03-31T14:28:01Z</time>
      </trkpt>
      <trkpt lat="44.61093" lon="3.91496">
        <ele>1149</ele>
        <time>2018-03-31T14:29:01Z</time>
      </trkpt>
      <trkpt lat="44.61054" lon="3.91544">
        <ele>1155</ele>
        <time>2018-03-31T14:30:01Z</time>
      </trkpt>
      <trkpt lat="44.61021" lon="3.91596">
        <ele>1161</ele>
        <time>2018-03-31T14:31:01Z</time>
      </trkpt>
      <trkpt lat="44.61001" lon="3.9164">
        <ele>1163</ele>
        <time>2018-03-31T14:32:01Z</time>
      </trkpt>
      <trkpt lat="44.60983" lon="3.91687">
        <ele>1169</ele>
        <time>2018-03-31T14:33:01Z</time>
      </trkpt>
      <trkpt lat="44.60961" lon="3.91752">
        <ele>1176</ele>
        <time>2018-03-31T14:34:01Z</time>
      </trkpt>
      <trkpt lat="44.60934" lon="3.91907">
        <ele>1189</ele>
        <time>2018-03-31T14:35:01Z</time>
      </trkpt>
      <trkpt lat="44.60929" lon="3.91935">
        <ele>1192</ele>
        <time>2018-03-31T14:36:01Z</time>
      </trkpt>
      <trkpt lat="44.60878" lon="3.92035">
        <ele>1209</ele>
        <time>2018-03-31T14:37:01Z</time>
      </trkpt>
      <trkpt lat="44.60855" lon="3.92107">
        <ele>1216</ele>
        <time>2018-03-31T14:38:01Z</time>
      </trkpt>
      <trkpt lat="44.60875" lon="3.92323">
        <ele>1210</ele>
        <time>2018-03-31T14:39:01Z</time>
      </trkpt>
      <trkpt lat="44.60866" lon="3.92397">
        <ele>1212</ele>
        <time>2018-03-31T14:40:01Z</time>
      </trkpt>
      <trkpt lat="44.6081" lon="3.92569">
        <ele>1217</ele>
        <time>2018-03-31T14:41:01Z</time>
      </trkpt>
      <trkpt lat="44.60811" lon="3.92602">
        <ele>1220</ele>
        <time>2018-03-31T14:42:01Z</time>
      </trkpt>
      <trkpt lat="44.60802" lon="3.92643">
        <ele>1221</ele>
        <time>2018-03-31T14:43:01Z</time>
      </trkpt>
      <trkpt lat="44.6078" lon="3.92704">
        <ele>1224</ele>
        <time>2018-03-31T14:44:01Z</time>
      </trkpt>
      <trkpt lat="44.60765" lon="3.92783">
        <ele>1225</ele>
        <time>2018-03-31T14:45:01Z</time>
      </trkpt>
      <trkpt lat="44.6076" lon="3.92887">
        <ele>1225</ele>
        <time>2018-03-31T14:46:01Z</time>
      </trkpt>
      <trkpt lat="44.60766" lon="3.93002">
        <ele>1226</ele>
        <time>2018-03-31T14:47:01Z</time>
      </trkpt>
      <trkpt lat="44.60794" lon="3.93048">
        <ele>1224</ele>
        <time>2018-03-31T14:48:01Z</time>
      </trkpt>
      <trkpt lat="44.60823" lon="3.93113">
        <ele>1224</ele>
        <time>2018-03-31T14:49:01Z</time>
      </trkpt>
      <trkpt lat="44.60831" lon="3.93151">
        <ele>1224</ele>
        <time>2018-03-31T14:50:01Z</time>
      </trkpt>
      <trkpt lat="44.60812" lon="3.93256">
        <ele>1222</ele>
        <time>2018-03-31T14:51:01Z</time>
      </trkpt>
      <trkpt lat="44.608" lon="3.93304">
        <ele>1220</ele>
        <time>2018-03-31T14:52:01Z</time>
      </trkpt>
      <trkpt lat="44.60748" lon="3.93403">
        <ele>1215</ele>
        <time>2018-03-31T14:53:01Z</time>
      </trkpt>
      <trkpt lat="44.60731" lon="3.93459">
        <ele>1211</ele>
        <time>2018-03-31T14:54:01Z</time>
      </trkpt>
      <trkpt lat="44.60731" lon="3.93512">
        <ele>1211</ele>
        <time>2018-03-31T14:55:01Z</time>
      </trkpt>
      <trkpt lat="44.60741" lon="3.93552">
        <ele>1207</ele>
        <time>2018-03-31T14:56:01Z</time>
      </trkpt>
      <trkpt lat="44.60787" lon="3.93665">
        <ele>1212</ele>
        <time>2018-03-31T14:57:01Z</time>
      </trkpt>
      <trkpt lat="44.60799" lon="3.93745">
        <ele>1206</ele>
        <time>2018-03-31T14:58:01Z</time>
      </trkpt>
      <trkpt lat="44.60802" lon="3.93825">
        <ele>1200</ele>
        <time>2018-03-31T14:59:01Z</time>
      </trkpt>
      <trkpt lat="44.60806" lon="3.93861">
        <ele>1196</ele>
        <time>2018-03-31T15:00:01Z</time>
      </trkpt>
      <trkpt lat="44.60809" lon="3.93899">
        <ele>1196</ele>
        <time>2018-03-31T15:01:01Z</time>
      </trkpt>
      <trkpt lat="44.60816" lon="3.93936">
        <ele>1192</ele>
        <time>2018-03-31T15:02:01Z</time>
      </trkpt>
      <trkpt lat="44.60827" lon="3.93976">
        <ele>1189</ele>
        <time>2018-03-31T15:03:01Z</time>
      </trkpt>
      <trkpt lat="44.60836" lon="3.94003">
        <ele>1191</ele>
        <time>2018-03-31T15:04:01Z</time>
      </trkpt>
      <trkpt lat="44.60839" lon="3.94022">
        <ele>1193</ele>
        <time>2018-03-31T15:05:01Z</time>
      </trkpt>
      <trkpt lat="44.60839" lon="3.94035">
        <ele>1193</ele>
        <time>2018-03-31T15:06:01Z</time>
      </trkpt>
      <trkpt lat="44.6083" lon="3.94122">
        <ele>1178</ele>
        <time>2018-03-31T15:07:01Z</time>
      </trkpt>
      <trkpt lat="44.60806" lon="3.94233">
        <ele>1176</ele>
        <time>2018-03-31T15:08:01Z</time>
      </trkpt>
      <trkpt lat="44.60809" lon="3.94276">
        <ele>1176</ele>
        <time>2018-03-31T15:09:01Z</time>
      </trkpt>
      <trkpt lat="44.60791" lon="3.94312">
        <ele>1173</ele>
        <time>2018-03-31T15:10:01Z</time>
      </trkpt>
      <trkpt lat="44.60778" lon="3.94348">
        <ele>1171</ele>
        <time>2018-03-31T15:11:01Z</time>
      </trkpt>
      <trkpt lat="44.6077" lon="3.9437">
        <ele>1171</ele>
        <time>2018-03-31T15:12:01Z</time>
      </trkpt>
      <trkpt lat="44.60768" lon="3.94397">
        <ele>1170</ele>
        <time>2018-03-31T15:13:01Z</time>
      </trkpt>
      <trkpt lat="44.60769" lon="3.94432">
        <ele>1171</ele>
        <time>2018-03-31T15:14:01Z</time>
      </trkpt>
      <trkpt lat="44.60745" lon="3.94526">
        <ele>1163</ele>
        <time>2018-03-31T15:15:01Z</time>
      </trkpt>
      <trkpt lat="44.60718" lon="3.94595">
        <ele>1169</ele>
        <time>2018-03-31T15:16:01Z</time>
      </trkpt>
      <trkpt lat="44.60688" lon="3.94628">
        <ele>1168</ele>
        <time>2018-03-31T15:17:01Z</time>
      </trkpt>
      <trkpt lat="44.60659" lon="3.9462">
        <ele>1157</ele>
        <time>2018-03-31T15:18:01Z</time>
      </trkpt>
      <trkpt lat="44.6062" lon="3.94651">
        <ele>1157</ele>
        <time>2018-03-31T15:19:01Z</time>
      </trkpt>
      <trkpt lat="44.6058" lon="3.94662">
        <ele>1153</ele>
        <time>2018-03-31T15:20:01Z</time>
      </trkpt>
      <trkpt lat="44.60496" lon="3.9466">
        <ele>1145</ele>
        <time>2018-03-31T15:21:01Z</time>
      </trkpt>
      <trkpt lat="44.6047" lon="3.94666">
        <ele>1146</ele>
        <time>2018-03-31T15:22:01Z</time>
      </trkpt>
      <trkpt lat="44.60456" lon="3.94648">
        <ele>1147</ele>
        <time>2018-03-31T15:23:01Z</time>
      </trkpt>
      <trkpt lat="44.60459" lon="3.94618">
        <ele>1147</ele>
        <time>2018-03-31T15:24:01Z</time>
      </trkpt>
      <trkpt lat="44.60514" lon="3.94564">
        <ele>1143</ele>
        <time>2018-03-31T15:25:01Z</time>
      </trkpt>
      <trkpt lat="44.60539" lon="3.94527">
        <ele>1143</ele>
        <time>2018-03-31T15:26:01Z</time>
      </trkpt>
      <trkpt lat="44.60557" lon="3.94486">
        <ele>1143</ele>
        <time>2018-03-31T15:27:01Z</time>
      </trkpt>
      <trkpt lat="44.6057" lon="3.94402">
        <ele>1142</ele>
        <time>2018-03-31T15:28:01Z</time>
      </trkpt>
      <trkpt lat="44.60569" lon="3.94344">
        <ele>1141</ele>
        <time>2018-03-31T15:29:01Z</time>
      </trkpt>
      <trkpt lat="44.60566" lon="3.94291">
        <ele>1140</ele>
        <time>2018-03-31T15:30:01Z</time>
      </trkpt>
      <trkpt lat="44.60549" lon="3.94224">
        <ele>1137</ele>
        <time>2018-03-31T15:31:01Z</time>
      </trkpt>
      <trkpt lat="44.60526" lon="3.94124">
        <ele>1135</ele>
        <time>2018-03-31T15:32:01Z</time>
      </trkpt>
      <trkpt lat="44.60524" lon="3.94069">
        <ele>1135</ele>
        <time>2018-03-31T15:33:01Z</time>
      </trkpt>
      <trkpt lat="44.6052" lon="3.93966">
        <ele>1132</ele>
        <time>2018-03-31T15:34:01Z</time>
      </trkpt>
      <trkpt lat="44.60514" lon="3.93915">
        <ele>1129</ele>
        <time>2018-03-31T15:35:01Z</time>
      </trkpt>
      <trkpt lat="44.60503" lon="3.93864">
        <ele>1126</ele>
        <time>2018-03-31T15:36:01Z</time>
      </trkpt>
      <trkpt lat="44.60476" lon="3.93777">
        <ele>1120</ele>
        <time>2018-03-31T15:37:01Z</time>
      </trkpt>
      <trkpt lat="44.60454" lon="3.93739">
        <ele>1115</ele>
        <time>2018-03-31T15:38:01Z</time>
      </trkpt>
      <trkpt lat="44.60427" lon="3.9371">
        <ele>1114</ele>
        <time>2018-03-31T15:39:01Z</time>
      </trkpt>
      <trkpt lat="44.6041" lon="3.93686">
        <ele>1111</ele>
        <time>2018-03-31T15:40:01Z</time>
      </trkpt>
      <trkpt lat="44.6038" lon="3.93659">
        <ele>1107</ele>
        <time>2018-03-31T15:41:01Z</time>
      </trkpt>
      <trkpt lat="44.60305" lon="3.93626">
        <ele>1102</ele>
        <time>2018-03-31T15:42:01Z</time>
      </trkpt>
      <trkpt lat="44.60234" lon="3.93614">
        <ele>1093</ele>
        <time>2018-03-31T15:43:01Z</time>
      </trkpt>
      <trkpt lat="44.60171" lon="3.93624">
        <ele>1090</ele>
        <time>2018-03-31T15:44:01Z</time>
      </trkpt>
      <trkpt lat="44.60092" lon="3.93614">
        <ele>1086</ele>
        <time>2018-03-31T15:45:01Z</time>
      </trkpt>
      <trkpt lat="44.60078" lon="3.93584">
        <ele>1083</ele>
        <time>2018-03-31T15:46:01Z</time>
      </trkpt>
      <trkpt lat="44.6005" lon="3.93536">
        <ele>1086</ele>
        <time>2018-03-31T15:47:01Z</time>
      </trkpt>
      <trkpt lat="44.60031" lon="3.93511">
        <ele>1087</ele>
        <time>2018-03-31T15:48:01Z</time>
      </trkpt>
      <trkpt lat="44.60014" lon="3.93486">
        <ele>1090</ele>
        <time>2018-03-31T15:49:01Z</time>
      </trkpt>
      <trkpt lat="44.60025" lon="3.93473">
        <ele>1091</ele>
        <time>2018-03-31T15:50:01Z</time>
      </trkpt>
      <trkpt lat="44.60046" lon="3.93436">
        <ele>1094</ele>
        <time>2018-03-31T15:51:01Z</time>
      </trkpt>
      <trkpt lat="44.60059" lon="3.93382">
        <ele>1100</ele>
        <time>2018-03-31T15:52:01Z</time>
      </trkpt>
      <trkpt lat="44.60062" lon="3.9333">
        <ele>1105</ele>
        <time>2018-03-31T15:53:01Z</time>
      </trkpt>
      <trkpt lat="44.60059" lon="3.93396">
        <ele>1100</ele>
        <time>2018-03-31T15:54:01Z</time>
      </trkpt>
      <trkpt lat="44.6005" lon="3.93426">
        <ele>1094</ele>
        <time>2018-03-31T15:55:01Z</time>
      </trkpt>
      <trkpt lat="44.60031" lon="3.93464">
        <ele>1092</ele>
        <time>2018-03-31T15:56:01Z</time>
      </trkpt>
      <trkpt lat="44.60012" lon="3.9349">
        <ele>1090</ele>
        <time>2018-03-31T15:57:01Z</time>
      </trkpt>
      <trkpt lat="44.59975" lon="3.93393">
        <ele>1090</ele>
        <time>2018-03-31T15:58:01Z</time>
      </trkpt>
      <trkpt lat="44.59952" lon="3.93328">
        <ele>1088</ele>
        <time>2018-03-31T15:59:01Z</time>
      </trkpt>
      <trkpt lat="44.59954" lon="3.93285">
        <ele>1088</ele>
        <time>2018-03-31T16:00:01Z</time>
      </trkpt>
      <trkpt lat="44.59964" lon="3.93218">
        <ele>1090</ele>
        <time>2018-03-31T16:01:01Z</time>
      </trkpt>
      <trkpt lat="44.59944" lon="3.93056">
        <ele>1093</ele>
        <time>2018-03-31T16:02:01Z</time>
      </trkpt>
      <trkpt lat="44.59939" lon="3.9298">
        <ele>1094</ele>
        <time>2018-03-31T16:03:01Z</time>
      </trkpt>
      <trkpt lat="44.59875" lon="3.9294">
        <ele>1086</ele>
        <time>2018-03-31T16:04:01Z</time>
      </trkpt>
      <trkpt lat="44.59854" lon="3.92925">
        <ele>1086</ele>
        <time>2018-03-31T16:05:01Z</time>
      </trkpt>
      <trkpt lat="44.59838" lon="3.92908">
        <ele>1088</ele>
        <time>2018-03-31T16:06:01Z</time>
      </trkpt>
      <trkpt lat="44.59825" lon="3.92887">
        <ele>1085</ele>
        <time>2018-03-31T16:07:01Z</time>
      </trkpt>
      <trkpt lat="44.59818" lon="3.92862">
        <ele>1085</ele>
        <time>2018-03-31T16:08:01Z</time>
      </trkpt>
      <trkpt lat="44.59816" lon="3.92822">
        <ele>1086</ele>
        <time>2018-03-31T16:09:01Z</time>
      </trkpt>
      <trkpt lat="44.59819" lon="3.92782">
        <ele>1085</ele>
        <time>2018-03-31T16:10:01Z</time>
      </trkpt>
      <trkpt lat="44.59824" lon="3.92735">
        <ele>1086</ele>
        <time>2018-03-31T16:11:01Z</time>
      </trkpt>
      <trkpt lat="44.59845" lon="3.92662">
        <ele>1095</ele>
        <time>2018-03-31T16:12:01Z</time>
      </trkpt>
      <trkpt lat="44.59841" lon="3.92633">
        <ele>1098</ele>
        <time>2018-03-31T16:13:01Z</time>
      </trkpt>
      <trkpt lat="44.59822" lon="3.92612">
        <ele>1090</ele>
        <time>2018-03-31T16:14:01Z</time>
      </trkpt>
      <trkpt lat="44.59777" lon="3.92592">
        <ele>1084</ele>
        <time>2018-03-31T16:15:01Z</time>
      </trkpt>
      <trkpt lat="44.59757" lon="3.92573">
        <ele>1084</ele>
        <time>2018-03-31T16:16:01Z</time>
      </trkpt>
      <trkpt lat="44.59741" lon="3.92478">
        <ele>1079</ele>
        <time>2018-03-31T16:17:01Z</time>
      </trkpt>
      <trkpt lat="44.59726" lon="3.92408">
        <ele>1078</ele>
        <time>2018-03-31T16:18:01Z</time>
      </trkpt>
      <trkpt lat="44.59689" lon="3.92329">
        <ele>1070</ele>
        <time>2018-03-31T16:19:01Z</time>
      </trkpt>
      <trkpt lat="44.59676" lon="3.92298">
        <ele>1070</ele>
        <time>2018-03-31T16:20:01Z</time>
      </trkpt>
      <trkpt lat="44.59664" lon="3.92266">
        <ele>1061</ele>
        <time>2018-03-31T16:21:01Z</time>
      </trkpt>
      <trkpt lat="44.59664" lon="3.92224">
        <ele>1057</ele>
        <time>2018-03-31T16:22:01Z</time>
      </trkpt>
      <trkpt lat="44.59688" lon="3.92196">
        <ele>1061</ele>
        <time>2018-03-31T16:23:01Z</time>
      </trkpt>
      <trkpt lat="44.59725" lon="3.92187">
        <ele>1061</ele>
        <time>2018-03-31T16:24:01Z</time>
      </trkpt>
      <trkpt lat="44.59737" lon="3.92186">
        <ele>1061</ele>
        <time>2018-03-31T16:25:01Z</time>
      </trkpt>
      <trkpt lat="44.59744" lon="3.92179">
        <ele>1060</ele>
        <time>2018-03-31T16:26:01Z</time>
      </trkpt>
      <trkpt lat="44.59741" lon="3.92167">
        <ele>1059</ele>
        <time>2018-03-31T16:27:01Z</time>
      </trkpt>
      <trkpt lat="44.59727" lon="3.92162">
        <ele>1057</ele>
        <time>2018-03-31T16:28:01Z</time>
      </trkpt>
      <trkpt lat="44.59699" lon="3.92165">
        <ele>1056</ele>
        <time>2018-03-31T16:29:01Z</time>
      </trkpt>
      <trkpt lat="44.59656" lon="3.92168">
        <ele>1054</ele>
        <time>2018-03-31T16:30:01Z</time>
      </trkpt>
      <trkpt lat="44.59627" lon="3.92165">
        <ele>1050</ele>
        <time>2018-03-31T16:31:01Z</time>
      </trkpt>
      <trkpt lat="44.59598" lon="3.9215">
        <ele>1049</ele>
        <time>2018-03-31T16:32:01Z</time>
      </trkpt>
      <trkpt lat="44.59584" lon="3.92076">
        <ele>1048</ele>
        <time>2018-03-31T16:33:01Z</time>
      </trkpt>
      <trkpt lat="44.59605" lon="3.91963">
        <ele>1053</ele>
        <time>2018-03-31T16:34:01Z</time>
      </trkpt>
      <trkpt lat="44.59623" lon="3.91915">
        <ele>1053</ele>
        <time>2018-03-31T16:35:01Z</time>
      </trkpt>
      <trkpt lat="44.5965" lon="3.91894">
        <ele>1056</ele>
        <time>2018-03-31T16:36:01Z</time>
      </trkpt>
      <trkpt lat="44.59664" lon="3.91868">
        <ele>1056</ele>
        <time>2018-03-31T16:37:01Z</time>
      </trkpt>
      <trkpt lat="44.59682" lon="3.91795">
        <ele>1060</ele>
        <time>2018-03-31T16:38:01Z</time>
      </trkpt>
      <trkpt lat="44.59707" lon="3.9175">
        <ele>1059</ele>
        <time>2018-03-31T16:39:01Z</time>
      </trkpt>
      <trkpt lat="44.59737" lon="3.91715">
        <ele>1058</ele>
        <time>2018-03-31T16:40:01Z</time>
      </trkpt>
      <trkpt lat="44.59827" lon="3.91703">
        <ele>1066</ele>
        <time>2018-03-31T16:41:01Z</time>
      </trkpt>
      <trkpt lat="44.59914" lon="3.91711">
        <ele>1075</ele>
        <time>2018-03-31T16:42:01Z</time>
      </trkpt>
      <trkpt lat="44.59928" lon="3.91696">
        <ele>1083</ele>
        <time>2018-03-31T16:43:01Z</time>
      </trkpt>
      <trkpt lat="44.5993" lon="3.91674">
        <ele>1080</ele>
        <time>2018-03-31T16:44:01Z</time>
      </trkpt>
      <trkpt lat="44.59924" lon="3.91639">
        <ele>1081</ele>
        <time>2018-03-31T16:45:01Z</time>
      </trkpt>
      <trkpt lat="44.59925" lon="3.91611">
        <ele>1082</ele>
        <time>2018-03-31T16:46:01Z</time>
      </trkpt>
      <trkpt lat="44.59912" lon="3.91578">
        <ele>1078</ele>
        <time>2018-03-31T16:47:01Z</time>
      </trkpt>
      <trkpt lat="44.59876" lon="3.9153">
        <ele>1079</ele>
        <time>2018-03-31T16:48:01Z</time>
      </trkpt>
      <trkpt lat="44.59859" lon="3.91487">
        <ele>1086</ele>
        <time>2018-03-31T16:49:01Z</time>
      </trkpt>
      <trkpt lat="44.59827" lon="3.91433">
        <ele>1083</ele>
        <time>2018-03-31T16:50:01Z</time>
      </trkpt>
      <trkpt lat="44.59805" lon="3.91351">
        <ele>1089</ele>
        <time>2018-03-31T16:51:01Z</time>
      </trkpt>
      <trkpt lat="44.59771" lon="3.91323">
        <ele>1091</ele>
        <time>2018-03-31T16:52:01Z</time>
      </trkpt>
      <trkpt lat="44.59739" lon="3.91314">
        <ele>1086</ele>
        <time>2018-03-31T16:53:01Z</time>
      </trkpt>
      <trkpt lat="44.59709" lon="3.91312">
        <ele>1086</ele>
        <time>2018-03-31T16:54:01Z</time>
      </trkpt>
      <trkpt lat="44.59675" lon="3.91279">
        <ele>1086</ele>
        <time>2018-03-31T16:55:01Z</time>
      </trkpt>
      <trkpt lat="44.59578" lon="3.9116">
        <ele>1072</ele>
        <time>2018-03-31T16:56:01Z</time>
      </trkpt>
      <trkpt lat="44.59524" lon="3.91096">
        <ele>1071</ele>
        <time>2018-03-31T16:57:01Z</time>
      </trkpt>
      <trkpt lat="44.59436" lon="3.9097">
        <ele>1062</ele>
        <time>2018-03-31T16:58:01Z</time>
      </trkpt>
      <trkpt lat="44.59394" lon="3.90924">
        <ele>1060</ele>
        <time>2018-03-31T16:59:01Z</time>
      </trkpt>
      <trkpt lat="44.59373" lon="3.90894">
        <ele>1054</ele>
        <time>2018-03-31T17:00:01Z</time>
      </trkpt>
      <trkpt lat="44.59325" lon="3.90828">
        <ele>1044</ele>
        <time>2018-03-31T17:01:01Z</time>
      </trkpt>
      <trkpt lat="44.59293" lon="3.90724">
        <ele>1028</ele>
        <time>2018-03-31T17:02:01Z</time>
      </trkpt>
      <trkpt lat="44.59287" lon="3.90671">
        <ele>1025</ele>
        <time>2018-03-31T17:03:01Z</time>
      </trkpt>
      <trkpt lat="44.59268" lon="3.90639">
        <ele>1019</ele>
        <time>2018-03-31T17:04:01Z</time>
      </trkpt>
      <trkpt lat="44.59237" lon="3.90608">
        <ele>1020</ele>
        <time>2018-03-31T17:05:01Z</time>
      </trkpt>
      <trkpt lat="44.59224" lon="3.9059">
        <ele>1020</ele>
        <time>2018-03-31T17:06:01Z</time>
      </trkpt>
      <trkpt lat="44.59179" lon="3.90581">
        <ele>1022</ele>
        <time>2018-03-31T17:07:01Z</time>
      </trkpt>
      <trkpt lat="44.59175" lon="3.90554">
        <ele>1021</ele>
        <time>2018-03-31T17:08:01Z</time>
      </trkpt>
      <trkpt lat="44.59198" lon="3.90456">
        <ele>1021</ele>
        <time>2018-03-31T17:09:01Z</time>
      </trkpt>
      <trkpt lat="44.59236" lon="3.90445">
        <ele>1021</ele>
        <time>2018-03-31T17:10:01Z</time>
      </trkpt>
      <trkpt lat="44.59332" lon="3.90466">
        <ele>1022</ele>
        <time>2018-03-31T17:11:01Z</time>
      </trkpt>
      <trkpt lat="44.59356" lon="3.90443">
        <ele>1024</ele>
        <time>2018-03-31T17:12:01Z</time>
      </trkpt>
      <trkpt lat="44.59397" lon="3.90428">
        <ele>1025</ele>
        <time>2018-03-31T17:13:01Z</time>
      </trkpt>
      <trkpt lat="44.59431" lon="3.90428">
        <ele>1025</ele>
        <time>2018-03-31T17:14:01Z</time>
      </trkpt>
      <trkpt lat="44.5944" lon="3.90418">
        <ele>1024</ele>
        <time>2018-03-31T17:15:01Z</time>
      </trkpt>
      <trkpt lat="44.59437" lon="3.90392">
        <ele>1029</ele>
        <time>2018-03-31T17:16:01Z</time>
      </trkpt>
      <trkpt lat="44.59412" lon="3.90386">
        <ele>1030</ele>
        <time>2018-03-31T17:17:01Z</time>
      </trkpt>
      <trkpt lat="44.59395" lon="3.90373">
        <ele>1031</ele>
        <time>2018-03-31T17:18:01Z</time>
      </trkpt>
      <trkpt lat="44.59396" lon="3.90287">
        <ele>1044</ele>
        <time>2018-03-31T17:19:01Z</time>
      </trkpt>
      <trkpt lat="44.59402" lon="3.90267">
        <ele>1046</ele>
        <time>2018-03-31T17:20:01Z</time>
      </trkpt>
      <trkpt lat="44.5941" lon="3.90249">
        <ele>1051</ele>
        <time>2018-03-31T17:21:01Z</time>
      </trkpt>
      <trkpt lat="44.59401" lon="3.90239">
        <ele>1056</ele>
        <time>2018-03-31T17:22:01Z</time>
      </trkpt>
      <trkpt lat="44.59366" lon="3.90274">
        <ele>1047</ele>
        <time>2018-03-31T17:23:01Z</time>
      </trkpt>
      <trkpt lat="44.59344" lon="3.90275">
        <ele>1048</ele>
        <time>2018-03-31T17:24:01Z</time>
      </trkpt>
      <trkpt lat="44.59314" lon="3.90267">
        <ele>1051</ele>
        <time>2018-03-31T17:25:01Z</time>
      </trkpt>
      <trkpt lat="44.59279" lon="3.90231">
        <ele>1063</ele>
        <time>2018-03-31T17:26:01Z</time>
      </trkpt>
      <trkpt lat="44.59242" lon="3.90204">
        <ele>1065</ele>
        <time>2018-03-31T17:27:01Z</time>
      </trkpt>
      <trkpt lat="44.59166" lon="3.90163">
        <ele>1074</ele>
        <time>2018-03-31T17:28:01Z</time>
      </trkpt>
      <trkpt lat="44.5902" lon="3.90059">
        <ele>1084</ele>
        <time>2018-03-31T17:29:01Z</time>
      </trkpt>
      <trkpt lat="44.58982" lon="3.90029">
        <ele>1083</ele>
        <time>2018-03-31T17:30:01Z</time>
      </trkpt>
      <trkpt lat="44.58952" lon="3.89996">
        <ele>1085</ele>
        <time>2018-03-31T17:31:01Z</time>
      </trkpt>
      <trkpt lat="44.58949" lon="3.89979">
        <ele>1085</ele>
        <time>2018-03-31T17:32:01Z</time>
      </trkpt>
      <trkpt lat="44.58952" lon="3.89965">
        <ele>1085</ele>
        <time>2018-03-31T17:33:01Z</time>
      </trkpt>
      <trkpt lat="44.58974" lon="3.89938">
        <ele>1086</ele>
        <time>2018-03-31T17:34:01Z</time>
      </trkpt>
      <trkpt lat="44.58999" lon="3.89913">
        <ele>1088</ele>
        <time>2018-03-31T17:35:01Z</time>
      </trkpt>
      <trkpt lat="44.5906" lon="3.89882">
        <ele>1095</ele>
        <time>2018-03-31T17:36:01Z</time>
      </trkpt>
      <trkpt lat="44.59124" lon="3.89861">
        <ele>1104</ele>
        <time>2018-03-31T17:37:01Z</time>
      </trkpt>
      <trkpt lat="44.59221" lon="3.89847">
        <ele>1117</ele>
        <time>2018-03-31T17:38:01Z</time>
      </trkpt>
      <trkpt lat="44.59309" lon="3.8977">
        <ele>1124</ele>
        <time>2018-03-31T17:39:01Z</time>
      </trkpt>
      <trkpt lat="44.59376" lon="3.89699">
        <ele>1129</ele>
        <time>2018-03-31T17:40:01Z</time>
      </trkpt>
      <trkpt lat="44.59292" lon="3.89535">
        <ele>1143</ele>
        <time>2018-03-31T17:41:01Z</time>
      </trkpt>
      <trkpt lat="44.59278" lon="3.89493">
        <ele>1153</ele>
        <time>2018-03-31T17:42:01Z</time>
      </trkpt>
      <trkpt lat="44.59268" lon="3.89449">
        <ele>1156</ele>
        <time>2018-03-31T17:43:01Z</time>
      </trkpt>
      <trkpt lat="44.59253" lon="3.89267">
        <ele>1171</ele>
        <time>2018-03-31T17:44:01Z</time>
      </trkpt>
      <trkpt lat="44.59256" lon="3.89186">
        <ele>1180</ele>
        <time>2018-03-31T17:45:01Z</time>
      </trkpt>
      <trkpt lat="44.59246" lon="3.89147">
        <ele>1178</ele>
        <time>2018-03-31T17:46:01Z</time>
      </trkpt>
      <trkpt lat="44.59193" lon="3.89059">
        <ele>1193</ele>
        <time>2018-03-31T17:47:01Z</time>
      </trkpt>
      <trkpt lat="44.59137" lon="3.88996">
        <ele>1202</ele>
        <time>2018-03-31T17:48:01Z</time>
      </trkpt>
      <trkpt lat="44.59115" lon="3.88971">
        <ele>1202</ele>
        <time>2018-03-31T17:49:01Z</time>
      </trkpt>
      <trkpt lat="44.59062" lon="3.88945">
        <ele>1198</ele>
        <time>2018-03-31T17:50:01Z</time>
      </trkpt>
      <trkpt lat="44.59028" lon="3.88916">
        <ele>1207</ele>
        <time>2018-03-31T17:51:01Z</time>
      </trkpt>
      <trkpt lat="44.58992" lon="3.88846">
        <ele>1202</ele>
        <time>2018-03-31T17:52:01Z</time>
      </trkpt>
      <trkpt lat="44.58986" lon="3.88752">
        <ele>1216</ele>
        <time>2018-03-31T17:53:01Z</time>
      </trkpt>
      <trkpt lat="44.5897" lon="3.88634">
        <ele>1238</ele>
        <time>2018-03-31T17:54:01Z</time>
      </trkpt>
      <trkpt lat="44.58942" lon="3.88562">
        <ele>1253</ele>
        <time>2018-03-31T17:55:01Z</time>
      </trkpt>
      <trkpt lat="44.58922" lon="3.88557">
        <ele>1252</ele>
        <time>2018-03-31T17:56:01Z</time>
      </trkpt>
      <trkpt lat="44.58894" lon="3.88587">
        <ele>1236</ele>
        <time>2018-03-31T17:57:01Z</time>
      </trkpt>
      <trkpt lat="44.58815" lon="3.88617">
        <ele>1240</ele>
        <time>2018-03-31T17:58:01Z</time>
      </trkpt>
      <trkpt lat="44.5879" lon="3.88617">
        <ele>1239</ele>
        <time>2018-03-31T17:59:01Z</time>
      </trkpt>
      <trkpt lat="44.58767" lon="3.88596">
        <ele>1243</ele>
        <time>2018-03-31T18:00:01Z</time>
      </trkpt>
      <trkpt lat="44.58687" lon="3.88487">
        <ele>1275</ele>
        <time>2018-03-31T18:01:01Z</time>
      </trkpt>
      <trkpt lat="44.58676" lon="3.88481">
        <ele>1275</ele>
        <time>2018-03-31T18:02:01Z</time>
      </trkpt>
      <trkpt lat="44.58668" lon="3.88485">
        <ele>1274</ele>
        <time>2018-03-31T18:03:01Z</time>
      </trkpt>
      <trkpt lat="44.58635" lon="3.88502">
        <ele>1259</ele>
        <time>2018-03-31T18:04:01Z</time>
      </trkpt>
      <trkpt lat="44.5859" lon="3.88483">
        <ele>1270</ele>
        <time>2018-03-31T18:05:01Z</time>
      </trkpt>
      <trkpt lat="44.58547" lon="3.88449">
        <ele>1268</ele>
        <time>2018-03-31T18:06:01Z</time>
      </trkpt>
      <trkpt lat="44.58538" lon="3.88414">
        <ele>1274</ele>
        <time>2018-03-31T18:07:01Z</time>
      </trkpt>
      <trkpt lat="44.58535" lon="3.88354">
        <ele>1276</ele>
        <time>2018-03-31T18:08:01Z</time>
      </trkpt>
      <trkpt lat="44.58522" lon="3.88252">
        <ele>1284</ele>
        <time>2018-03-31T18:09:01Z</time>
      </trkpt>
      <trkpt lat="44.58504" lon="3.8821">
        <ele>1290</ele>
        <time>2018-03-31T18:10:01Z</time>
      </trkpt>
      <trkpt lat="44.58363" lon="3.88079">
        <ele>1295</ele>
        <time>2018-03-31T18:11:01Z</time>
      </trkpt>
      <trkpt lat="44.58353" lon="3.88059">
        <ele>1295</ele>
        <time>2018-03-31T18:12:01Z</time>
      </trkpt>
      <trkpt lat="44.58346" lon="3.88038">
        <ele>1296</ele>
        <time>2018-03-31T18:13:01Z</time>
      </trkpt>
      <trkpt lat="44.58345" lon="3.8801">
        <ele>1298</ele>
        <time>2018-03-31T18:14:01Z</time>
      </trkpt>
      <trkpt lat="44.58345" lon="3.87982">
        <ele>1301</ele>
        <time>2018-03-31T18:15:01Z</time>
      </trkpt>
      <trkpt lat="44.58401" lon="3.87961">
        <ele>1303</ele>
        <time>2018-03-31T18:16:01Z</time>
      </trkpt>
      <trkpt lat="44.58458" lon="3.87923">
        <ele>1306</ele>
        <time>2018-03-31T18:17:01Z</time>
      </trkpt>
      <trkpt lat="44.58551" lon="3.87824">
        <ele>1307</ele>
        <time>2018-03-31T18:18:01Z</time>
      </trkpt>
      <trkpt lat="44.58579" lon="3.87653">
        <ele>1307</ele>
        <time>2018-03-31T18:19:01Z</time>
      </trkpt>
      <trkpt lat="44.58611" lon="3.87485">
        <ele>1311</ele>
        <time>2018-03-31T18:20:01Z</time>
      </trkpt>
      <trkpt lat="44.58625" lon="3.87415">
        <ele>1310</ele>
        <time>2018-03-31T18:21:01Z</time>
      </trkpt>
      <trkpt lat="44.58634" lon="3.87271">
        <ele>1309</ele>
        <time>2018-03-31T18:22:01Z</time>
      </trkpt>
      <trkpt lat="44.58616" lon="3.87107">
        <ele>1308</ele>
        <time>2018-03-31T18:23:01Z</time>
      </trkpt>
      <trkpt lat="44.58594" lon="3.87021">
        <ele>1308</ele>
        <time>2018-03-31T18:24:01Z</time>
      </trkpt>
      <trkpt lat="44.58568" lon="3.86911">
        <ele>1307</ele>
        <time>2018-03-31T18:25:01Z</time>
      </trkpt>
      <trkpt lat="44.58544" lon="3.86851">
        <ele>1307</ele>
        <time>2018-03-31T18:26:01Z</time>
      </trkpt>
      <trkpt lat="44.58533" lon="3.86822">
        <ele>1308</ele>
        <time>2018-03-31T18:27:01Z</time>
      </trkpt>
      <trkpt lat="44.58524" lon="3.86793">
        <ele>1308</ele>
        <time>2018-03-31T18:28:01Z</time>
      </trkpt>
      <trkpt lat="44.58482" lon="3.86641">
        <ele>1305</ele>
        <time>2018-03-31T18:29:01Z</time>
      </trkpt>
      <trkpt lat="44.58485" lon="3.86603">
        <ele>1305</ele>
        <time>2018-03-31T18:30:01Z</time>
      </trkpt>
      <trkpt lat="44.5854" lon="3.86422">
        <ele>1304</ele>
        <time>2018-03-31T18:31:01Z</time>
      </trkpt>
      <trkpt lat="44.58534" lon="3.8632">
        <ele>1307</ele>
        <time>2018-03-31T18:32:01Z</time>
      </trkpt>
      <trkpt lat="44.58538" lon="3.86193">
        <ele>1307</ele>
        <time>2018-03-31T18:33:01Z</time>
      </trkpt>
      <trkpt lat="44.58478" lon="3.86043">
        <ele>1298</ele>
        <time>2018-03-31T18:34:01Z</time>
      </trkpt>
      <trkpt lat="44.58437" lon="3.85965">
        <ele>1292</ele>
        <time>2018-03-31T18:35:01Z</time>
      </trkpt>
      <trkpt lat="44.58419" lon="3.85865">
        <ele>1283</ele>
        <time>2018-03-31T18:36:01Z</time>
      </trkpt>
      <trkpt lat="44.58357" lon="3.85727">
        <ele>1283</ele>
        <time>2018-03-31T18:37:01Z</time>
      </trkpt>
      <trkpt lat="44.58247" lon="3.85643">
        <ele>1289</ele>
        <time>2018-03-31T18:38:01Z</time>
      </trkpt>
      <trkpt lat="44.58186" lon="3.85524">
        <ele>1291</ele>
        <time>2018-03-31T18:39:01Z</time>
      </trkpt>
      <trkpt lat="44.58121" lon="3.85357">
        <ele>1297</ele>
        <time>2018-03-31T18:40:01Z</time>
      </trkpt>
      <trkpt lat="44.58086" lon="3.85284">
        <ele>1300</ele>
        <time>2018-03-31T18:41:01Z</time>
      </trkpt>
      <trkpt lat="44.58052" lon="3.85209">
        <ele>1303</ele>
        <time>2018-03-31T18:42:01Z</time>
      </trkpt>
      <trkpt lat="44.58005" lon="3.84985">
        <ele>1304</ele>
        <time>2018-03-31T18:43:01Z</time>
      </trkpt>
      <trkpt lat="44.58001" lon="3.84877">
        <ele>1300</ele>
        <time>2018-03-31T18:44:01Z</time>
      </trkpt>
      <trkpt lat="44.57989" lon="3.84847">
        <ele>1303</ele>
        <time>2018-03-31T18:45:01Z</time>
      </trkpt>
      <trkpt lat="44.57935" lon="3.84779">
        <ele>1304</ele>
        <time>2018-03-31T18:46:01Z</time>
      </trkpt>
      <trkpt lat="44.57894" lon="3.84815">
        <ele>1303</ele>
        <time>2018-03-31T18:47:01Z</time>
      </trkpt>
      <trkpt lat="44.57837" lon="3.84846">
        <ele>1300</ele>
        <time>2018-03-31T18:48:01Z</time>
      </trkpt>
      <trkpt lat="44.57649" lon="3.84898">
        <ele>1280</ele>
        <time>2018-03-31T18:49:01Z</time>
      </trkpt>
      <trkpt lat="44.57611" lon="3.84894">
        <ele>1276</ele>
        <time>2018-03-31T18:50:01Z</time>
      </trkpt>
      <trkpt lat="44.57406" lon="3.84969">
        <ele>1254</ele>
        <time>2018-03-31T18:51:01Z</time>
      </trkpt>
      <trkpt lat="44.57316" lon="3.84966">
        <ele>1247</ele>
        <time>2018-03-31T18:52:01Z</time>
      </trkpt>
      <trkpt lat="44.57261" lon="3.84931">
        <ele>1241</ele>
        <time>2018-03-31T18:53:01Z</time>
      </trkpt>
      <trkpt lat="44.57121" lon="3.8477">
        <ele>1219</ele>
        <time>2018-03-31T18:54:01Z</time>
      </trkpt>
      <trkpt lat="44.56997" lon="3.84742">
        <ele>1206</ele>
        <time>2018-03-31T18:55:01Z</time>
      </trkpt>
      <trkpt lat="44.56866" lon="3.84664">
        <ele>1185</ele>
        <time>2018-03-31T18:56:01Z</time>
      </trkpt>
      <trkpt lat="44.56794" lon="3.84646">
        <ele>1179</ele>
        <time>2018-03-31T18:57:01Z</time>
      </trkpt>
      <trkpt lat="44.56744" lon="3.84654">
        <ele>1174</ele>
        <time>2018-03-31T18:58:01Z</time>
      </trkpt>
      <trkpt lat="44.5669" lon="3.84684">
        <ele>1173</ele>
        <time>2018-03-31T18:59:01Z</time>
      </trkpt>
      <trkpt lat="44.56593" lon="3.8482">
        <ele>1161</ele>
        <time>2018-03-31T19:00:01Z</time>
      </trkpt>
      <trkpt lat="44.56558" lon="3.84852">
        <ele>1153</ele>
        <time>2018-03-31T19:01:01Z</time>
      </trkpt>
      <trkpt lat="44.56525" lon="3.84916">
        <ele>1151</ele>
        <time>2018-03-31T19:02:01Z</time>
      </trkpt>
      <trkpt lat="44.56515" lon="3.84979">
        <ele>1151</ele>
        <time>2018-03-31T19:03:01Z</time>
      </trkpt>
      <trkpt lat="44.5655" lon="3.85083">
        <ele>1151</ele>
        <time>2018-03-31T19:04:01Z</time>
      </trkpt>
      <trkpt lat="44.5657" lon="3.85199">
        <ele>1139</ele>
        <time>2018-03-31T19:05:01Z</time>
      </trkpt>
      <trkpt lat="44.5657" lon="3.85265">
        <ele>1137</ele>
        <time>2018-03-31T19:06:01Z</time>
      </trkpt>
      <trkpt lat="44.56563" lon="3.85332">
        <ele>1136</ele>
        <time>2018-03-31T19:07:01Z</time>
      </trkpt>
      <trkpt lat="44.56547" lon="3.85298">
        <ele>1134</ele>
        <time>2018-03-31T19:08:01Z</time>
      </trkpt>
      <trkpt lat="44.5654" lon="3.85203">
        <ele>1136</ele>
        <time>2018-03-31T19:09:01Z</time>
      </trkpt>
      <trkpt lat="44.56506" lon="3.85122">
        <ele>1138</ele>
        <time>2018-03-31T19:10:01Z</time>
      </trkpt>
      <trkpt lat="44.5646" lon="3.85071">
        <ele>1131</ele>
        <time>2018-03-31T19:11:01Z</time>
      </trkpt>
      <trkpt lat="44.56386" lon="3.85041">
        <ele>1127</ele>
        <time>2018-03-31T19:12:01Z</time>
      </trkpt>
      <trkpt lat="44.56324" lon="3.85044">
        <ele>1137</ele>
        <time>2018-03-31T19:13:01Z</time>
      </trkpt>
      <trkpt lat="44.5629" lon="3.84988">
        <ele>1130</ele>
        <time>2018-03-31T19:14:01Z</time>
      </trkpt>
      <trkpt lat="44.5625" lon="3.84959">
        <ele>1134</ele>
        <time>2018-03-31T19:15:01Z</time>
      </trkpt>
      <trkpt lat="44.56195" lon="3.84938">
        <ele>1137</ele>
        <time>2018-03-31T19:16:01Z</time>
      </trkpt>
      <trkpt lat="44.56138" lon="3.84883">
        <ele>1139</ele>
        <time>2018-03-31T19:17:01Z</time>
      </trkpt>
      <trkpt lat="44.56071" lon="3.84833">
        <ele>1143</ele>
        <time>2018-03-31T19:18:01Z</time>
      </trkpt>
      <trkpt lat="44.56048" lon="3.84773">
        <ele>1148</ele>
        <time>2018-03-31T19:19:01Z</time>
      </trkpt>
      <trkpt lat="44.55987" lon="3.8472">
        <ele>1154</ele>
        <time>2018-03-31T19:20:01Z</time>
      </trkpt>
      <trkpt lat="44.5593" lon="3.84706">
        <ele>1157</ele>
        <time>2018-03-31T19:21:01Z</time>
      </trkpt>
      <trkpt lat="44.55868" lon="3.84704">
        <ele>1159</ele>
        <time>2018-03-31T19:22:01Z</time>
      </trkpt>
      <trkpt lat="44.55822" lon="3.84686">
        <ele>1161</ele>
        <time>2018-03-31T19:23:01Z</time>
      </trkpt>
      <trkpt lat="44.55771" lon="3.84643">
        <ele>1167</ele>
        <time>2018-03-31T19:24:01Z</time>
      </trkpt>
      <trkpt lat="44.55726" lon="3.84578">
        <ele>1168</ele>
        <time>2018-03-31T19:25:01Z</time>
      </trkpt>
      <trkpt lat="44.55709" lon="3.84532">
        <ele>1167</ele>
        <time>2018-03-31T19:26:01Z</time>
      </trkpt>
      <trkpt lat="44.55697" lon="3.84375">
        <ele>1170</ele>
        <time>2018-03-31T19:27:01Z</time>
      </trkpt>
      <trkpt lat="44.55666" lon="3.84187">
        <ele>1169</ele>
        <time>2018-03-31T19:28:01Z</time>
      </trkpt>
      <trkpt lat="44.55671" lon="3.84034">
        <ele>1179</ele>
        <time>2018-03-31T19:29:01Z</time>
      </trkpt>
      <trkpt lat="44.55641" lon="3.83917">
        <ele>1174</ele>
        <time>2018-03-31T19:30:01Z</time>
      </trkpt>
      <trkpt lat="44.55624" lon="3.83875">
        <ele>1173</ele>
        <time>2018-03-31T19:31:01Z</time>
      </trkpt>
      <trkpt lat="44.55559" lon="3.83839">
        <ele>1172</ele>
        <time>2018-03-31T19:32:01Z</time>
      </trkpt>
      <trkpt lat="44.5545" lon="3.83939">
        <ele>1173</ele>
        <time>2018-03-31T19:33:01Z</time>
      </trkpt>
      <trkpt lat="44.55278" lon="3.83514">
        <ele>1169</ele>
        <time>2018-03-31T19:34:01Z</time>
      </trkpt>
      <trkpt lat="44.55203" lon="3.83474">
        <ele>1166</ele>
        <time>2018-03-31T19:35:01Z</time>
      </trkpt>
      <trkpt lat="44.55183" lon="3.83436">
        <ele>1163</ele>
        <time>2018-03-31T19:36:01Z</time>
      </trkpt>
      <trkpt lat="44.55181" lon="3.83353">
        <ele>1161</ele>
        <time>2018-03-31T19:37:01Z</time>
      </trkpt>
      <trkpt lat="44.55159" lon="3.83305">
        <ele>1162</ele>
        <time>2018-03-31T19:38:01Z</time>
      </trkpt>
      <trkpt lat="44.55159" lon="3.83289">
        <ele>1163</ele>
        <time>2018-03-31T19:39:01Z</time>
      </trkpt>
      <trkpt lat="44.55157" lon="3.83274">
        <ele>1164</ele>
        <time>2018-03-31T19:40:01Z</time>
      </trkpt>
      <trkpt lat="44.55119" lon="3.83131">
        <ele>1171</ele>
        <time>2018-03-31T19:41:01Z</time>
      </trkpt>
      <trkpt lat="44.55109" lon="3.82954">
        <ele>1176</ele>
        <time>2018-03-31T19:42:01Z</time>
      </trkpt>
      <trkpt lat="44.55109" lon="3.82904">
        <ele>1177</ele>
        <time>2018-03-31T19:43:01Z</time>
      </trkpt>
      <trkpt lat="44.55121" lon="3.82775">
        <ele>1176</ele>
        <time>2018-03-31T19:44:01Z</time>
      </trkpt>
      <trkpt lat="44.55126" lon="3.8274">
        <ele>1173</ele>
        <time>2018-03-31T19:45:01Z</time>
      </trkpt>
      <trkpt lat="44.5513" lon="3.82685">
        <ele>1171</ele>
        <time>2018-03-31T19:46:01Z</time>
      </trkpt>
      <trkpt lat="44.55125" lon="3.82665">
        <ele>1169</ele>
        <time>2018-03-31T19:47:01Z</time>
      </trkpt>
      <trkpt lat="44.55129" lon="3.8265">
        <ele>1169</ele>
        <time>2018-03-31T19:48:01Z</time>
      </trkpt>
      <trkpt lat="44.55128" lon="3.82632">
        <ele>1169</ele>
        <time>2018-03-31T19:49:01Z</time>
      </trkpt>
      <trkpt lat="44.55141" lon="3.82624">
        <ele>1169</ele>
        <time>2018-03-31T19:50:01Z</time>
      </trkpt>
      <trkpt lat="44.5515" lon="3.82611">
        <ele>1169</ele>
        <time>2018-03-31T19:51:01Z</time>
      </trkpt>
      <trkpt lat="44.55161" lon="3.82599">
        <ele>1170</ele>
        <time>2018-03-31T19:52:01Z</time>
      </trkpt>
      <trkpt lat="44.55152" lon="3.82581">
        <ele>1171</ele>
        <time>2018-03-31T19:53:01Z</time>
      </trkpt>
      <trkpt lat="44.5514" lon="3.82572">
        <ele>1171</ele>
        <time>2018-03-31T19:54:01Z</time>
      </trkpt>
      <trkpt lat="44.55123" lon="3.82563">
        <ele>1171</ele>
        <time>2018-03-31T19:55:01Z</time>
      </trkpt>
      <trkpt lat="44.55115" lon="3.82556">
        <ele>1171</ele>
        <time>2018-03-31T19:56:01Z</time>
      </trkpt>
      <trkpt lat="44.5511" lon="3.82534">
        <ele>1172</ele>
        <time>2018-03-31T19:57:01Z</time>
      </trkpt>
      <trkpt lat="44.55111" lon="3.82517">
        <ele>1173</ele>
        <time>2018-03-31T19:58:01Z</time>
      </trkpt>
      <trkpt lat="44.55117" lon="3.82498">
        <ele>1177</ele>
        <time>2018-03-31T19:59:01Z</time>
      </trkpt>
      <trkpt lat="44.55117" lon="3.82477">
        <ele>1178</ele>
        <time>2018-03-31T20:00:01Z</time>
      </trkpt>
      <trkpt lat="44.55122" lon="3.82456">
        <ele>1178</ele>
        <time>2018-03-31T20:01:01Z</time>
      </trkpt>
      <trkpt lat="44.55108" lon="3.82416">
        <ele>1180</ele>
        <time>2018-03-31T20:02:01Z</time>
      </trkpt>
      <trkpt lat="44.55099" lon="3.82324">
        <ele>1180</ele>
        <time>2018-03-31T20:03:01Z</time>
      </trkpt>
      <trkpt lat="44.55089" lon="3.82255">
        <ele>1177</ele>
        <time>2018-03-31T20:04:01Z</time>
      </trkpt>
      <trkpt lat="44.55092" lon="3.82137">
        <ele>1169</ele>
        <time>2018-03-31T20:05:01Z</time>
      </trkpt>
      <trkpt lat="44.55098" lon="3.8204">
        <ele>1162</ele>
        <time>2018-03-31T20:06:01Z</time>
      </trkpt>
      <trkpt lat="44.55095" lon="3.81994">
        <ele>1158</ele>
        <time>2018-03-31T20:07:01Z</time>
      </trkpt>
      <trkpt lat="44.55089" lon="3.81949">
        <ele>1158</ele>
        <time>2018-03-31T20:08:01Z</time>
      </trkpt>
      <trkpt lat="44.55075" lon="3.81911">
        <ele>1150</ele>
        <time>2018-03-31T20:09:01Z</time>
      </trkpt>
      <trkpt lat="44.55074" lon="3.81912">
        <ele>1150</ele>
        <time>2018-03-31T20:10:01Z</time>
      </trkpt>
      <trkpt lat="44.5495" lon="3.81743">
        <ele>1128</ele>
        <time>2018-03-31T20:11:01Z</time>
      </trkpt>
      <trkpt lat="44.54938" lon="3.81643">
        <ele>1120</ele>
        <time>2018-03-31T20:12:01Z</time>
      </trkpt>
      <trkpt lat="44.54948" lon="3.81614">
        <ele>1120</ele>
        <time>2018-03-31T20:13:01Z</time>
      </trkpt>
      <trkpt lat="44.54942" lon="3.81604">
        <ele>1119</ele>
        <time>2018-03-31T20:14:01Z</time>
      </trkpt>
      <trkpt lat="44.54923" lon="3.81601">
        <ele>1117</ele>
        <time>2018-03-31T20:15:01Z</time>
      </trkpt>
      <trkpt lat="44.54918" lon="3.81591">
        <ele>1114</ele>
        <time>2018-03-31T20:16:01Z</time>
      </trkpt>
      <trkpt lat="44.54917" lon="3.8158">
        <ele>1112</ele>
        <time>2018-03-31T20:17:01Z</time>
      </trkpt>
      <trkpt lat="44.54935" lon="3.81562">
        <ele>1113</ele>
        <time>2018-03-31T20:18:01Z</time>
      </trkpt>
      <trkpt lat="44.54953" lon="3.81557">
        <ele>1113</ele>
        <time>2018-03-31T20:19:01Z</time>
      </trkpt>
      <trkpt lat="44.54975" lon="3.81558">
        <ele>1115</ele>
        <time>2018-03-31T20:20:01Z</time>
      </trkpt>
      <trkpt lat="44.5498" lon="3.81553">
        <ele>1115</ele>
        <time>2018-03-31T20:21:01Z</time>
      </trkpt>
      <trkpt lat="44.5498" lon="3.81546">
        <ele>1115</ele>
        <time>2018-03-31T20:22:01Z</time>
      </trkpt>
      <trkpt lat="44.54972" lon="3.8154">
        <ele>1114</ele>
        <time>2018-03-31T20:23:01Z</time>
      </trkpt>
      <trkpt lat="44.54953" lon="3.81538">
        <ele>1113</ele>
        <time>2018-03-31T20:24:01Z</time>
      </trkpt>
      <trkpt lat="44.54912" lon="3.81528">
        <ele>1104</ele>
        <time>2018-03-31T20:25:01Z</time>
      </trkpt>
      <trkpt lat="44.54903" lon="3.81518">
        <ele>1103</ele>
        <time>2018-03-31T20:26:01Z</time>
      </trkpt>
      <trkpt lat="44.54896" lon="3.81505">
        <ele>1103</ele>
        <time>2018-03-31T20:27:01Z</time>
      </trkpt>
      <trkpt lat="44.5485" lon="3.81454">
        <ele>1099</ele>
        <time>2018-03-31T20:28:01Z</time>
      </trkpt>
      <trkpt lat="44.5481" lon="3.81473">
        <ele>1100</ele>
        <time>2018-03-31T20:29:01Z</time>
      </trkpt>
      <trkpt lat="44.54794" lon="3.81514">
        <ele>1101</ele>
        <time>2018-03-31T20:30:01Z</time>
      </trkpt>
      <trkpt lat="44.54745" lon="3.81542">
        <ele>1105</ele>
        <time>2018-03-31T20:31:01Z</time>
      </trkpt>
      <trkpt lat="44.5469" lon="3.81517">
        <ele>1107</ele>
        <time>2018-03-31T20:32:01Z</time>
      </trkpt>
      <trkpt lat="44.5464" lon="3.81524">
        <ele>1111</ele>
        <time>2018-03-31T20:33:01Z</time>
      </trkpt>
      <trkpt lat="44.54529" lon="3.81565">
        <ele>1115</ele>
        <time>2018-03-31T20:34:01Z</time>
      </trkpt>
      <trkpt lat="44.54486" lon="3.8161">
        <ele>1119</ele>
        <time>2018-03-31T20:35:01Z</time>
      </trkpt>
      <trkpt lat="44.54464" lon="3.81612">
        <ele>1120</ele>
        <time>2018-03-31T20:36:01Z</time>
      </trkpt>
      <trkpt lat="44.54439" lon="3.81605">
        <ele>1120</ele>
        <time>2018-03-31T20:37:01Z</time>
      </trkpt>
      <trkpt lat="44.54424" lon="3.81561">
        <ele>1119</ele>
        <time>2018-03-31T20:38:01Z</time>
      </trkpt>
      <trkpt lat="44.54391" lon="3.81505">
        <ele>1122</ele>
        <time>2018-03-31T20:39:01Z</time>
      </trkpt>
      <trkpt lat="44.54476" lon="3.81404">
        <ele>1129</ele>
        <time>2018-03-31T20:40:01Z</time>
      </trkpt>
      <trkpt lat="44.54501" lon="3.81315">
        <ele>1126</ele>
        <time>2018-03-31T20:41:01Z</time>
      </trkpt>
      <trkpt lat="44.54511" lon="3.81298">
        <ele>1125</ele>
        <time>2018-03-31T20:42:01Z</time>
      </trkpt>
      <trkpt lat="44.54502" lon="3.81243">
        <ele>1122</ele>
        <time>2018-03-31T20:43:01Z</time>
      </trkpt>
      <trkpt lat="44.54454" lon="3.81167">
        <ele>1117</ele>
        <time>2018-03-31T20:44:01Z</time>
      </trkpt>
      <trkpt lat="44.54414" lon="3.81152">
        <ele>1115</ele>
        <time>2018-03-31T20:45:01Z</time>
      </trkpt>
      <trkpt lat="44.54379" lon="3.81134">
        <ele>1115</ele>
        <time>2018-03-31T20:46:01Z</time>
      </trkpt>
      <trkpt lat="44.54371" lon="3.81111">
        <ele>1115</ele>
        <time>2018-03-31T20:47:01Z</time>
      </trkpt>
      <trkpt lat="44.54386" lon="3.81083">
        <ele>1115</ele>
        <time>2018-03-31T20:48:01Z</time>
      </trkpt>
      <trkpt lat="44.54507" lon="3.80976">
        <ele>1121</ele>
        <time>2018-03-31T20:49:01Z</time>
      </trkpt>
      <trkpt lat="44.54514" lon="3.8094">
        <ele>1123</ele>
        <time>2018-03-31T20:50:01Z</time>
      </trkpt>
      <trkpt lat="44.54514" lon="3.80873">
        <ele>1125</ele>
        <time>2018-03-31T20:51:01Z</time>
      </trkpt>
      <trkpt lat="44.54535" lon="3.80705">
        <ele>1126</ele>
        <time>2018-03-31T20:52:01Z</time>
      </trkpt>
      <trkpt lat="44.54535" lon="3.80585">
        <ele>1127</ele>
        <time>2018-03-31T20:53:01Z</time>
      </trkpt>
      <trkpt lat="44.54513" lon="3.80499">
        <ele>1126</ele>
        <time>2018-03-31T20:54:01Z</time>
      </trkpt>
      <trkpt lat="44.54466" lon="3.80418">
        <ele>1133</ele>
        <time>2018-03-31T20:55:01Z</time>
      </trkpt>
      <trkpt lat="44.54423" lon="3.80378">
        <ele>1133</ele>
        <time>2018-03-31T20:56:01Z</time>
      </trkpt>
      <trkpt lat="44.54364" lon="3.80351">
        <ele>1141</ele>
        <time>2018-03-31T20:57:01Z</time>
      </trkpt>
      <trkpt lat="44.54302" lon="3.80332">
        <ele>1141</ele>
        <time>2018-03-31T20:58:01Z</time>
      </trkpt>
      <trkpt lat="44.54282" lon="3.80313">
        <ele>1142</ele>
        <time>2018-03-31T20:59:01Z</time>
      </trkpt>
      <trkpt lat="44.54224" lon="3.80286">
        <ele>1145</ele>
        <time>2018-03-31T21:00:01Z</time>
      </trkpt>
      <trkpt lat="44.5418" lon="3.80279">
        <ele>1145</ele>
        <time>2018-03-31T21:01:01Z</time>
      </trkpt>
      <trkpt lat="44.54106" lon="3.80282">
        <ele>1150</ele>
        <time>2018-03-31T21:02:01Z</time>
      </trkpt>
      <trkpt lat="44.54042" lon="3.80198">
        <ele>1158</ele>
        <time>2018-03-31T21:03:01Z</time>
      </trkpt>
      <trkpt lat="44.54037" lon="3.80149">
        <ele>1160</ele>
        <time>2018-03-31T21:04:01Z</time>
      </trkpt>
      <trkpt lat="44.54003" lon="3.80064">
        <ele>1165</ele>
        <time>2018-03-31T21:05:01Z</time>
      </trkpt>
      <trkpt lat="44.53998" lon="3.80011">
        <ele>1169</ele>
        <time>2018-03-31T21:06:01Z</time>
      </trkpt>
      <trkpt lat="44.54011" lon="3.79982">
        <ele>1171</ele>
        <time>2018-03-31T21:07:01Z</time>
      </trkpt>
      <trkpt lat="44.5404" lon="3.7999">
        <ele>1173</ele>
        <time>2018-03-31T21:08:01Z</time>
      </trkpt>
      <trkpt lat="44.5409" lon="3.80058">
        <ele>1162</ele>
        <time>2018-03-31T21:09:01Z</time>
      </trkpt>
      <trkpt lat="44.54108" lon="3.80054">
        <ele>1162</ele>
        <time>2018-03-31T21:10:01Z</time>
      </trkpt>
      <trkpt lat="44.54145" lon="3.79989">
        <ele>1171</ele>
        <time>2018-03-31T21:11:01Z</time>
      </trkpt>
      <trkpt lat="44.54147" lon="3.79927">
        <ele>1172</ele>
        <time>2018-03-31T21:12:01Z</time>
      </trkpt>
      <trkpt lat="44.54126" lon="3.79862">
        <ele>1177</ele>
        <time>2018-03-31T21:13:01Z</time>
      </trkpt>
      <trkpt lat="44.54086" lon="3.79792">
        <ele>1180</ele>
        <time>2018-03-31T21:14:01Z</time>
      </trkpt>
      <trkpt lat="44.54058" lon="3.797">
        <ele>1189</ele>
        <time>2018-03-31T21:15:01Z</time>
      </trkpt>
      <trkpt lat="44.54029" lon="3.79694">
        <ele>1190</ele>
        <time>2018-03-31T21:16:01Z</time>
      </trkpt>
      <trkpt lat="44.53957" lon="3.79764">
        <ele>1195</ele>
        <time>2018-03-31T21:17:01Z</time>
      </trkpt>
      <trkpt lat="44.53925" lon="3.79781">
        <ele>1196</ele>
        <time>2018-03-31T21:18:01Z</time>
      </trkpt>
      <trkpt lat="44.5392" lon="3.79717">
        <ele>1199</ele>
        <time>2018-03-31T21:19:01Z</time>
      </trkpt>
      <trkpt lat="44.53886" lon="3.79656">
        <ele>1208</ele>
        <time>2018-03-31T21:20:01Z</time>
      </trkpt>
      <trkpt lat="44.53886" lon="3.79656">
        <ele>1208</ele>
        <time>2018-03-31T21:21:01Z</time>
      </trkpt>
      <trkpt lat="44.53831" lon="3.79613">
        <ele>1228</ele>
        <time>2018-03-31T21:22:01Z</time>
      </trkpt>
      <trkpt lat="44.53738" lon="3.79519">
        <ele>1248</ele>
        <time>2018-03-31T21:23:01Z</time>
      </trkpt>
      <trkpt lat="44.53725" lon="3.79495">
        <ele>1243</ele>
        <time>2018-03-31T21:24:01Z</time>
      </trkpt>
      <trkpt lat="44.53681" lon="3.79471">
        <ele>1248</ele>
        <time>2018-03-31T21:25:01Z</time>
      </trkpt>
      <trkpt lat="44.53644" lon="3.79459">
        <ele>1263</ele>
        <time>2018-03-31T21:26:01Z</time>
      </trkpt>
      <trkpt lat="44.53632" lon="3.79443">
        <ele>1263</ele>
        <time>2018-03-31T21:27:01Z</time>
      </trkpt>
      <trkpt lat="44.53616" lon="3.7943">
        <ele>1265</ele>
        <time>2018-03-31T21:28:01Z</time>
      </trkpt>
      <trkpt lat="44.53593" lon="3.79425">
        <ele>1268</ele>
        <time>2018-03-31T21:29:01Z</time>
      </trkpt>
      <trkpt lat="44.53562" lon="3.79432">
        <ele>1282</ele>
        <time>2018-03-31T21:30:01Z</time>
      </trkpt>
      <trkpt lat="44.5353" lon="3.79452">
        <ele>1289</ele>
        <time>2018-03-31T21:31:01Z</time>
      </trkpt>
      <trkpt lat="44.53488" lon="3.79466">
        <ele>1305</ele>
        <time>2018-03-31T21:32:01Z</time>
      </trkpt>
      <trkpt lat="44.53437" lon="3.79469">
        <ele>1310</ele>
        <time>2018-03-31T21:33:01Z</time>
      </trkpt>
      <trkpt lat="44.53411" lon="3.79476">
        <ele>1324</ele>
        <time>2018-03-31T21:34:01Z</time>
      </trkpt>
      <trkpt lat="44.53393" lon="3.79469">
        <ele>1326</ele>
        <time>2018-03-31T21:35:01Z</time>
      </trkpt>
      <trkpt lat="44.53379" lon="3.79462">
        <ele>1327</ele>
        <time>2018-03-31T21:36:01Z</time>
      </trkpt>
      <trkpt lat="44.5336" lon="3.79418">
        <ele>1329</ele>
        <time>2018-03-31T21:37:01Z</time>
      </trkpt>
      <trkpt lat="44.53348" lon="3.79403">
        <ele>1330</ele>
        <time>2018-03-31T21:38:01Z</time>
      </trkpt>
      <trkpt lat="44.53348" lon="3.7945">
        <ele>1331</ele>
        <time>2018-03-31T21:39:01Z</time>
      </trkpt>
      <trkpt lat="44.53351" lon="3.79482">
        <ele>1334</ele>
        <time>2018-03-31T21:40:01Z</time>
      </trkpt>
      <trkpt lat="44.53357" lon="3.79511">
        <ele>1341</ele>
        <time>2018-03-31T21:41:01Z</time>
      </trkpt>
      <trkpt lat="44.53426" lon="3.79593">
        <ele>1339</ele>
        <time>2018-03-31T21:42:01Z</time>
      </trkpt>
      <trkpt lat="44.53444" lon="3.79626">
        <ele>1339</ele>
        <time>2018-03-31T21:43:01Z</time>
      </trkpt>
      <trkpt lat="44.5345" lon="3.79651">
        <ele>1340</ele>
        <time>2018-03-31T21:44:01Z</time>
      </trkpt>
      <trkpt lat="44.53425" lon="3.79617">
        <ele>1340</ele>
        <time>2018-03-31T21:45:01Z</time>
      </trkpt>
      <trkpt lat="44.53371" lon="3.79594">
        <ele>1354</ele>
        <time>2018-03-31T21:46:01Z</time>
      </trkpt>
      <trkpt lat="44.5333" lon="3.79564">
        <ele>1360</ele>
        <time>2018-03-31T21:47:01Z</time>
      </trkpt>
      <trkpt lat="44.53257" lon="3.79463">
        <ele>1358</ele>
        <time>2018-03-31T21:48:01Z</time>
      </trkpt>
      <trkpt lat="44.53217" lon="3.79379">
        <ele>1373</ele>
        <time>2018-03-31T21:49:01Z</time>
      </trkpt>
      <trkpt lat="44.53208" lon="3.79336">
        <ele>1375</ele>
        <time>2018-03-31T21:50:01Z</time>
      </trkpt>
      <trkpt lat="44.53233" lon="3.79287">
        <ele>1377</ele>
        <time>2018-03-31T21:51:01Z</time>
      </trkpt>
      <trkpt lat="44.53252" lon="3.79201">
        <ele>1370</ele>
        <time>2018-03-31T21:52:01Z</time>
      </trkpt>
      <trkpt lat="44.53252" lon="3.79122">
        <ele>1374</ele>
        <time>2018-03-31T21:53:01Z</time>
      </trkpt>
      <trkpt lat="44.53245" lon="3.78968">
        <ele>1393</ele>
        <time>2018-03-31T21:54:01Z</time>
      </trkpt>
      <trkpt lat="44.53232" lon="3.78898">
        <ele>1395</ele>
        <time>2018-03-31T21:55:01Z</time>
      </trkpt>
      <trkpt lat="44.53234" lon="3.7881">
        <ele>1397</ele>
        <time>2018-03-31T21:56:01Z</time>
      </trkpt>
      <trkpt lat="44.53222" lon="3.78738">
        <ele>1396</ele>
        <time>2018-03-31T21:57:01Z</time>
      </trkpt>
      <trkpt lat="44.53198" lon="3.78701">
        <ele>1398</ele>
        <time>2018-03-31T21:58:01Z</time>
      </trkpt>
      <trkpt lat="44.5313" lon="3.78641">
        <ele>1405</ele>
        <time>2018-03-31T21:59:01Z</time>
      </trkpt>
      <trkpt lat="44.53069" lon="3.7859">
        <ele>1411</ele>
        <time>2018-03-31T22:00:01Z</time>
      </trkpt>
      <trkpt lat="44.53014" lon="3.78517">
        <ele>1412</ele>
        <time>2018-03-31T22:01:01Z</time>
      </trkpt>
      <trkpt lat="44.52993" lon="3.78534">
        <ele>1411</ele>
        <time>2018-03-31T22:02:01Z</time>
      </trkpt>
      <trkpt lat="44.52961" lon="3.78596">
        <ele>1410</ele>
        <time>2018-03-31T22:03:01Z</time>
      </trkpt>
      <trkpt lat="44.52863" lon="3.7872">
        <ele>1402</ele>
        <time>2018-03-31T22:04:01Z</time>
      </trkpt>
      <trkpt lat="44.52832" lon="3.78806">
        <ele>1394</ele>
        <time>2018-03-31T22:05:01Z</time>
      </trkpt>
      <trkpt lat="44.52812" lon="3.78876">
        <ele>1396</ele>
        <time>2018-03-31T22:06:01Z</time>
      </trkpt>
      <trkpt lat="44.52782" lon="3.78931">
        <ele>1398</ele>
        <time>2018-03-31T22:07:01Z</time>
      </trkpt>
      <trkpt lat="44.52743" lon="3.78976">
        <ele>1392</ele>
        <time>2018-03-31T22:08:01Z</time>
      </trkpt>
      <trkpt lat="44.52766" lon="3.78907">
        <ele>1391</ele>
        <time>2018-03-31T22:09:01Z</time>
      </trkpt>
      <trkpt lat="44.52781" lon="3.7885">
        <ele>1391</ele>
        <time>2018-03-31T22:10:01Z</time>
      </trkpt>
      <trkpt lat="44.52778" lon="3.78753">
        <ele>1384</ele>
        <time>2018-03-31T22:11:01Z</time>
      </trkpt>
      <trkpt lat="44.52795" lon="3.78648">
        <ele>1379</ele>
        <time>2018-03-31T22:12:01Z</time>
      </trkpt>
      <trkpt lat="44.52825" lon="3.78567">
        <ele>1384</ele>
        <time>2018-03-31T22:13:01Z</time>
      </trkpt>
      <trkpt lat="44.52815" lon="3.78543">
        <ele>1384</ele>
        <time>2018-03-31T22:14:01Z</time>
      </trkpt>
      <trkpt lat="44.5267" lon="3.78551">
        <ele>1364</ele>
        <time>2018-03-31T22:15:01Z</time>
      </trkpt>
      <trkpt lat="44.52639" lon="3.78521">
        <ele>1358</ele>
        <time>2018-03-31T22:16:01Z</time>
      </trkpt>
      <trkpt lat="44.52625" lon="3.78477">
        <ele>1368</ele>
        <time>2018-03-31T22:17:01Z</time>
      </trkpt>
      <trkpt lat="44.52591" lon="3.78428">
        <ele>1369</ele>
        <time>2018-03-31T22:18:01Z</time>
      </trkpt>
      <trkpt lat="44.52454" lon="3.78467">
        <ele>1354</ele>
        <time>2018-03-31T22:19:01Z</time>
      </trkpt>
      <trkpt lat="44.52414" lon="3.78449">
        <ele>1347</ele>
        <time>2018-03-31T22:20:01Z</time>
      </trkpt>
      <trkpt lat="44.52406" lon="3.78405">
        <ele>1348</ele>
        <time>2018-03-31T22:21:01Z</time>
      </trkpt>
      <trkpt lat="44.52449" lon="3.78097">
        <ele>1347</ele>
        <time>2018-03-31T22:22:01Z</time>
      </trkpt>
      <trkpt lat="44.52468" lon="3.7803">
        <ele>1348</ele>
        <time>2018-03-31T22:23:01Z</time>
      </trkpt>
      <trkpt lat="44.52477" lon="3.78001">
        <ele>1348</ele>
        <time>2018-03-31T22:24:01Z</time>
      </trkpt>
      <trkpt lat="44.52449" lon="3.78003">
        <ele>1347</ele>
        <time>2018-03-31T22:25:01Z</time>
      </trkpt>
      <trkpt lat="44.52424" lon="3.78013">
        <ele>1346</ele>
        <time>2018-03-31T22:26:01Z</time>
      </trkpt>
      <trkpt lat="44.52298" lon="3.78185">
        <ele>1333</ele>
        <time>2018-03-31T22:27:01Z</time>
      </trkpt>
      <trkpt lat="44.52187" lon="3.78331">
        <ele>1325</ele>
        <time>2018-03-31T22:28:01Z</time>
      </trkpt>
      <trkpt lat="44.52159" lon="3.78348">
        <ele>1326</ele>
        <time>2018-03-31T22:29:01Z</time>
      </trkpt>
      <trkpt lat="44.52147" lon="3.78395">
        <ele>1325</ele>
        <time>2018-03-31T22:30:01Z</time>
      </trkpt>
      <trkpt lat="44.52125" lon="3.7842">
        <ele>1323</ele>
        <time>2018-03-31T22:31:01Z</time>
      </trkpt>
      <trkpt lat="44.52072" lon="3.78504">
        <ele>1332</ele>
        <time>2018-03-31T22:32:01Z</time>
      </trkpt>
      <trkpt lat="44.5199" lon="3.78593">
        <ele>1345</ele>
        <time>2018-03-31T22:33:01Z</time>
      </trkpt>
      <trkpt lat="44.5188" lon="3.78679">
        <ele>1351</ele>
        <time>2018-03-31T22:34:01Z</time>
      </trkpt>
      <trkpt lat="44.51829" lon="3.78692">
        <ele>1357</ele>
        <time>2018-03-31T22:35:01Z</time>
      </trkpt>
      <trkpt lat="44.51776" lon="3.7868">
        <ele>1357</ele>
        <time>2018-03-31T22:36:01Z</time>
      </trkpt>
      <trkpt lat="44.51708" lon="3.78648">
        <ele>1367</ele>
        <time>2018-03-31T22:37:01Z</time>
      </trkpt>
      <trkpt lat="44.51599" lon="3.78634">
        <ele>1367</ele>
        <time>2018-03-31T22:38:01Z</time>
      </trkpt>
      <trkpt lat="44.51499" lon="3.78592">
        <ele>1362</ele>
        <time>2018-03-31T22:39:01Z</time>
      </trkpt>
      <trkpt lat="44.51521" lon="3.78562">
        <ele>1363</ele>
        <time>2018-03-31T22:40:01Z</time>
      </trkpt>
      <trkpt lat="44.51495" lon="3.78497">
        <ele>1356</ele>
        <time>2018-03-31T22:41:01Z</time>
      </trkpt>
      <trkpt lat="44.51491" lon="3.78438">
        <ele>1351</ele>
        <time>2018-03-31T22:42:01Z</time>
      </trkpt>
      <trkpt lat="44.51444" lon="3.78257">
        <ele>1331</ele>
        <time>2018-03-31T22:43:01Z</time>
      </trkpt>
      <trkpt lat="44.51395" lon="3.78223">
        <ele>1319</ele>
        <time>2018-03-31T22:44:01Z</time>
      </trkpt>
      <trkpt lat="44.51263" lon="3.78136">
        <ele>1313</ele>
        <time>2018-03-31T22:45:01Z</time>
      </trkpt>
      <trkpt lat="44.5125" lon="3.78115">
        <ele>1311</ele>
        <time>2018-03-31T22:46:01Z</time>
      </trkpt>
      <trkpt lat="44.51142" lon="3.77975">
        <ele>1300</ele>
        <time>2018-03-31T22:47:01Z</time>
      </trkpt>
      <trkpt lat="44.51098" lon="3.77957">
        <ele>1299</ele>
        <time>2018-03-31T22:48:01Z</time>
      </trkpt>
      <trkpt lat="44.50991" lon="3.77774">
        <ele>1278</ele>
        <time>2018-03-31T22:49:01Z</time>
      </trkpt>
      <trkpt lat="44.51081" lon="3.7776">
        <ele>1271</ele>
        <time>2018-03-31T22:50:01Z</time>
      </trkpt>
      <trkpt lat="44.51268" lon="3.7779">
        <ele>1265</ele>
        <time>2018-03-31T22:51:01Z</time>
      </trkpt>
      <trkpt lat="44.51275" lon="3.77788">
        <ele>1265</ele>
        <time>2018-03-31T22:52:01Z</time>
      </trkpt>
      <trkpt lat="44.51263" lon="3.77706">
        <ele>1254</ele>
        <time>2018-03-31T22:53:01Z</time>
      </trkpt>
      <trkpt lat="44.51246" lon="3.77678">
        <ele>1248</ele>
        <time>2018-03-31T22:54:01Z</time>
      </trkpt>
      <trkpt lat="44.51222" lon="3.77655">
        <ele>1245</ele>
        <time>2018-03-31T22:55:01Z</time>
      </trkpt>
      <trkpt lat="44.51135" lon="3.77548">
        <ele>1236</ele>
        <time>2018-03-31T22:56:01Z</time>
      </trkpt>
      <trkpt lat="44.51088" lon="3.77537">
        <ele>1234</ele>
        <time>2018-03-31T22:57:01Z</time>
      </trkpt>
      <trkpt lat="44.51055" lon="3.7753">
        <ele>1234</ele>
        <time>2018-03-31T22:58:01Z</time>
      </trkpt>
      <trkpt lat="44.51028" lon="3.77511">
        <ele>1233</ele>
        <time>2018-03-31T22:59:01Z</time>
      </trkpt>
      <trkpt lat="44.50985" lon="3.77452">
        <ele>1232</ele>
        <time>2018-03-31T23:00:01Z</time>
      </trkpt>
      <trkpt lat="44.50954" lon="3.77345">
        <ele>1224</ele>
        <time>2018-03-31T23:01:01Z</time>
      </trkpt>
      <trkpt lat="44.50941" lon="3.77206">
        <ele>1215</ele>
        <time>2018-03-31T23:02:01Z</time>
      </trkpt>
      <trkpt lat="44.50895" lon="3.77085">
        <ele>1206</ele>
        <time>2018-03-31T23:03:01Z</time>
      </trkpt>
      <trkpt lat="44.50837" lon="3.76997">
        <ele>1198</ele>
        <time>2018-03-31T23:04:01Z</time>
      </trkpt>
      <trkpt lat="44.50705" lon="3.76923">
        <ele>1192</ele>
        <time>2018-03-31T23:05:01Z</time>
      </trkpt>
      <trkpt lat="44.50561" lon="3.76869">
        <ele>1177</ele>
        <time>2018-03-31T23:06:01Z</time>
      </trkpt>
      <trkpt lat="44.50473" lon="3.76853">
        <ele>1176</ele>
        <time>2018-03-31T23:07:01Z</time>
      </trkpt>
      <trkpt lat="44.50356" lon="3.76764">
        <ele>1168</ele>
        <time>2018-03-31T23:08:01Z</time>
      </trkpt>
      <trkpt lat="44.50228" lon="3.76741">
        <ele>1159</ele>
        <time>2018-03-31T23:09:01Z</time>
      </trkpt>
      <trkpt lat="44.50196" lon="3.76722">
        <ele>1158</ele>
        <time>2018-03-31T23:10:01Z</time>
      </trkpt>
      <trkpt lat="44.50131" lon="3.76657">
        <ele>1157</ele>
        <time>2018-03-31T23:11:01Z</time>
      </trkpt>
      <trkpt lat="44.50123" lon="3.76608">
        <ele>1161</ele>
        <time>2018-03-31T23:12:01Z</time>
      </trkpt>
      <trkpt lat="44.50042" lon="3.76542">
        <ele>1182</ele>
        <time>2018-03-31T23:13:01Z</time>
      </trkpt>
      <trkpt lat="44.49985" lon="3.76513">
        <ele>1189</ele>
        <time>2018-03-31T23:14:01Z</time>
      </trkpt>
      <trkpt lat="44.49962" lon="3.76476">
        <ele>1196</ele>
        <time>2018-03-31T23:15:01Z</time>
      </trkpt>
      <trkpt lat="44.49958" lon="3.76416">
        <ele>1203</ele>
        <time>2018-03-31T23:16:01Z</time>
      </trkpt>
      <trkpt lat="44.49959" lon="3.76369">
        <ele>1204</ele>
        <time>2018-03-31T23:17:01Z</time>
      </trkpt>
      <trkpt lat="44.49945" lon="3.76284">
        <ele>1207</ele>
        <time>2018-03-31T23:18:01Z</time>
      </trkpt>
      <trkpt lat="44.49934" lon="3.76231">
        <ele>1207</ele>
        <time>2018-03-31T23:19:01Z</time>
      </trkpt>
      <trkpt lat="44.49911" lon="3.7614">
        <ele>1202</ele>
        <time>2018-03-31T23:20:01Z</time>
      </trkpt>
      <trkpt lat="44.49894" lon="3.76052">
        <ele>1199</ele>
        <time>2018-03-31T23:21:01Z</time>
      </trkpt>
      <trkpt lat="44.49897" lon="3.75978">
        <ele>1196</ele>
        <time>2018-03-31T23:22:01Z</time>
      </trkpt>
      <trkpt lat="44.49919" lon="3.75923">
        <ele>1197</ele>
        <time>2018-03-31T23:23:01Z</time>
      </trkpt>
      <trkpt lat="44.49968" lon="3.75868">
        <ele>1191</ele>
        <time>2018-03-31T23:24:01Z</time>
      </trkpt>
      <trkpt lat="44.50005" lon="3.7587">
        <ele>1192</ele>
        <time>2018-03-31T23:25:01Z</time>
      </trkpt>
      <trkpt lat="44.50043" lon="3.75853">
        <ele>1192</ele>
        <time>2018-03-31T23:26:01Z</time>
      </trkpt>
      <trkpt lat="44.50063" lon="3.75809">
        <ele>1185</ele>
        <time>2018-03-31T23:27:01Z</time>
      </trkpt>
      <trkpt lat="44.50094" lon="3.75668">
        <ele>1181</ele>
        <time>2018-03-31T23:28:01Z</time>
      </trkpt>
      <trkpt lat="44.50083" lon="3.75654">
        <ele>1175</ele>
        <time>2018-03-31T23:29:01Z</time>
      </trkpt>
      <trkpt lat="44.5007" lon="3.7565">
        <ele>1174</ele>
        <time>2018-03-31T23:30:01Z</time>
      </trkpt>
      <trkpt lat="44.50064" lon="3.75601">
        <ele>1172</ele>
        <time>2018-03-31T23:31:01Z</time>
      </trkpt>
      <trkpt lat="44.49995" lon="3.7555">
        <ele>1162</ele>
        <time>2018-03-31T23:32:01Z</time>
      </trkpt>
      <trkpt lat="44.49986" lon="3.75528">
        <ele>1162</ele>
        <time>2018-03-31T23:33:01Z</time>
      </trkpt>
      <trkpt lat="44.49979" lon="3.75503">
        <ele>1163</ele>
        <time>2018-03-31T23:34:01Z</time>
      </trkpt>
      <trkpt lat="44.49983" lon="3.75408">
        <ele>1161</ele>
        <time>2018-03-31T23:35:01Z</time>
      </trkpt>
      <trkpt lat="44.49994" lon="3.75369">
        <ele>1160</ele>
        <time>2018-03-31T23:36:01Z</time>
      </trkpt>
      <trkpt lat="44.50002" lon="3.75331">
        <ele>1162</ele>
        <time>2018-03-31T23:37:01Z</time>
      </trkpt>
      <trkpt lat="44.49979" lon="3.75294">
        <ele>1161</ele>
        <time>2018-03-31T23:38:01Z</time>
      </trkpt>
      <trkpt lat="44.49945" lon="3.75253">
        <ele>1161</ele>
        <time>2018-03-31T23:39:01Z</time>
      </trkpt>
      <trkpt lat="44.49914" lon="3.75238">
        <ele>1164</ele>
        <time>2018-03-31T23:40:01Z</time>
      </trkpt>
      <trkpt lat="44.49831" lon="3.7525">
        <ele>1164</ele>
        <time>2018-03-31T23:41:01Z</time>
      </trkpt>
      <trkpt lat="44.49794" lon="3.75205">
        <ele>1165</ele>
        <time>2018-03-31T23:42:01Z</time>
      </trkpt>
      <trkpt lat="44.49766" lon="3.75154">
        <ele>1167</ele>
        <time>2018-03-31T23:43:01Z</time>
      </trkpt>
      <trkpt lat="44.4975" lon="3.7514">
        <ele>1167</ele>
        <time>2018-03-31T23:44:01Z</time>
      </trkpt>
      <trkpt lat="44.49734" lon="3.75124">
        <ele>1163</ele>
        <time>2018-03-31T23:45:01Z</time>
      </trkpt>
      <trkpt lat="44.49724" lon="3.75047">
        <ele>1161</ele>
        <time>2018-03-31T23:46:01Z</time>
      </trkpt>
      <trkpt lat="44.49691" lon="3.74991">
        <ele>1157</ele>
        <time>2018-03-31T23:47:01Z</time>
      </trkpt>
      <trkpt lat="44.49578" lon="3.74883">
        <ele>1145</ele>
        <time>2018-03-31T23:48:01Z</time>
      </trkpt>
      <trkpt lat="44.49513" lon="3.74791">
        <ele>1144</ele>
        <time>2018-03-31T23:49:01Z</time>
      </trkpt>
      <trkpt lat="44.49499" lon="3.74764">
        <ele>1141</ele>
        <time>2018-03-31T23:50:01Z</time>
      </trkpt>
      <trkpt lat="44.49467" lon="3.74715">
        <ele>1139</ele>
        <time>2018-03-31T23:51:01Z</time>
      </trkpt>
      <trkpt lat="44.49432" lon="3.74695">
        <ele>1138</ele>
        <time>2018-03-31T23:52:01Z</time>
      </trkpt>
      <trkpt lat="44.49408" lon="3.74648">
        <ele>1135</ele>
        <time>2018-03-31T23:53:01Z</time>
      </trkpt>
      <trkpt lat="44.49366" lon="3.7451">
        <ele>1129</ele>
        <time>2018-03-31T23:54:01Z</time>
      </trkpt>
      <trkpt lat="44.49343" lon="3.74464">
        <ele>1125</ele>
        <time>2018-03-31T23:55:01Z</time>
      </trkpt>
      <trkpt lat="44.49293" lon="3.74364">
        <ele>1114</ele>
        <time>2018-03-31T23:56:01Z</time>
      </trkpt>
      <trkpt lat="44.49265" lon="3.74337">
        <ele>1111</ele>
        <time>2018-03-31T23:57:01Z</time>
      </trkpt>
      <trkpt lat="44.49241" lon="3.74304">
        <ele>1101</ele>
        <time>2018-03-31T23:58:01Z</time>
      </trkpt>
      <trkpt lat="44.49228" lon="3.74277">
        <ele>1099</ele>
        <time>2018-03-31T23:59:01Z</time>
      </trkpt>
      <trkpt lat="44.49174" lon="3.74194">
        <ele>1089</ele>
        <time>2018-04-01T00:00:01Z</time>
      </trkpt>
      <trkpt lat="44.49161" lon="3.7415">
        <ele>1080</ele>
        <time>2018-04-01T00:01:01Z</time>
      </trkpt>
      <trkpt lat="44.49179" lon="3.74122">
        <ele>1082</ele>
        <time>2018-04-01T00:02:01Z</time>
      </trkpt>
      <trkpt lat="44.49179" lon="3.74111">
        <ele>1081</ele>
        <time>2018-04-01T00:03:01Z</time>
      </trkpt>
      <trkpt lat="44.49153" lon="3.7409">
        <ele>1076</ele>
        <time>2018-04-01T00:04:01Z</time>
      </trkpt>
      <trkpt lat="44.49132" lon="3.74096">
        <ele>1076</ele>
        <time>2018-04-01T00:05:01Z</time>
      </trkpt>
      <trkpt lat="44.49108" lon="3.74095">
        <ele>1075</ele>
        <time>2018-04-01T00:06:01Z</time>
      </trkpt>
      <trkpt lat="44.49027" lon="3.73995">
        <ele>1071</ele>
        <time>2018-04-01T00:07:01Z</time>
      </trkpt>
      <trkpt lat="44.49016" lon="3.73952">
        <ele>1071</ele>
        <time>2018-04-01T00:08:01Z</time>
      </trkpt>
      <trkpt lat="44.48922" lon="3.73925">
        <ele>1068</ele>
        <time>2018-04-01T00:09:01Z</time>
      </trkpt>
      <trkpt lat="44.48899" lon="3.73837">
        <ele>1073</ele>
        <time>2018-04-01T00:10:01Z</time>
      </trkpt>
      <trkpt lat="44.4887" lon="3.73809">
        <ele>1076</ele>
        <time>2018-04-01T00:11:01Z</time>
      </trkpt>
      <trkpt lat="44.48843" lon="3.73793">
        <ele>1077</ele>
        <time>2018-04-01T00:12:01Z</time>
      </trkpt>
      <trkpt lat="44.48831" lon="3.73774">
        <ele>1086</ele>
        <time>2018-04-01T00:13:01Z</time>
      </trkpt>
      <trkpt lat="44.48807" lon="3.73744">
        <ele>1084</ele>
        <time>2018-04-01T00:14:01Z</time>
      </trkpt>
      <trkpt lat="44.48786" lon="3.73709">
        <ele>1086</ele>
        <time>2018-04-01T00:15:01Z</time>
      </trkpt>
      <trkpt lat="44.48762" lon="3.73677">
        <ele>1087</ele>
        <time>2018-04-01T00:16:01Z</time>
      </trkpt>
      <trkpt lat="44.48729" lon="3.73658">
        <ele>1088</ele>
        <time>2018-04-01T00:17:01Z</time>
      </trkpt>
      <trkpt lat="44.48692" lon="3.73655">
        <ele>1090</ele>
        <time>2018-04-01T00:18:01Z</time>
      </trkpt>
      <trkpt lat="44.48641" lon="3.73695">
        <ele>1100</ele>
        <time>2018-04-01T00:19:01Z</time>
      </trkpt>
      <trkpt lat="44.48617" lon="3.73736">
        <ele>1103</ele>
        <time>2018-04-01T00:20:01Z</time>
      </trkpt>
      <trkpt lat="44.48632" lon="3.73757">
        <ele>1110</ele>
        <time>2018-04-01T00:21:01Z</time>
      </trkpt>
      <trkpt lat="44.48606" lon="3.73782">
        <ele>1112</ele>
        <time>2018-04-01T00:22:01Z</time>
      </trkpt>
      <trkpt lat="44.48566" lon="3.73807">
        <ele>1113</ele>
        <time>2018-04-01T00:23:01Z</time>
      </trkpt>
      <trkpt lat="44.48458" lon="3.73911">
        <ele>1121</ele>
        <time>2018-04-01T00:24:01Z</time>
      </trkpt>
      <trkpt lat="44.48355" lon="3.74017">
        <ele>1138</ele>
        <time>2018-04-01T00:25:01Z</time>
      </trkpt>
      <trkpt lat="44.48341" lon="3.74021">
        <ele>1138</ele>
        <time>2018-04-01T00:26:01Z</time>
      </trkpt>
      <trkpt lat="44.48329" lon="3.74015">
        <ele>1142</ele>
        <time>2018-04-01T00:27:01Z</time>
      </trkpt>
      <trkpt lat="44.48279" lon="3.73899">
        <ele>1138</ele>
        <time>2018-04-01T00:28:01Z</time>
      </trkpt>
      <trkpt lat="44.48252" lon="3.73891">
        <ele>1140</ele>
        <time>2018-04-01T00:29:01Z</time>
      </trkpt>
      <trkpt lat="44.48205" lon="3.73904">
        <ele>1143</ele>
        <time>2018-04-01T00:30:01Z</time>
      </trkpt>
      <trkpt lat="44.4816" lon="3.73939">
        <ele>1158</ele>
        <time>2018-04-01T00:31:01Z</time>
      </trkpt>
      <trkpt lat="44.48112" lon="3.7396">
        <ele>1162</ele>
        <time>2018-04-01T00:32:01Z</time>
      </trkpt>
      <trkpt lat="44.48062" lon="3.7397">
        <ele>1168</ele>
        <time>2018-04-01T00:33:01Z</time>
      </trkpt>
      <trkpt lat="44.47934" lon="3.74038">
        <ele>1185</ele>
        <time>2018-04-01T00:34:01Z</time>
      </trkpt>
      <trkpt lat="44.47864" lon="3.74046">
        <ele>1187</ele>
        <time>2018-04-01T00:35:01Z</time>
      </trkpt>
      <trkpt lat="44.4776" lon="3.74044">
        <ele>1185</ele>
        <time>2018-04-01T00:36:01Z</time>
      </trkpt>
      <trkpt lat="44.47707" lon="3.74018">
        <ele>1185</ele>
        <time>2018-04-01T00:37:01Z</time>
      </trkpt>
      <trkpt lat="44.47639" lon="3.74002">
        <ele>1186</ele>
        <time>2018-04-01T00:38:01Z</time>
      </trkpt>
      <trkpt lat="44.47581" lon="3.73992">
        <ele>1192</ele>
        <time>2018-04-01T00:39:01Z</time>
      </trkpt>
      <trkpt lat="44.4754" lon="3.73975">
        <ele>1193</ele>
        <time>2018-04-01T00:40:01Z</time>
      </trkpt>
      <trkpt lat="44.47505" lon="3.73936">
        <ele>1194</ele>
        <time>2018-04-01T00:41:01Z</time>
      </trkpt>
      <trkpt lat="44.47488" lon="3.7391">
        <ele>1194</ele>
        <time>2018-04-01T00:42:01Z</time>
      </trkpt>
      <trkpt lat="44.47456" lon="3.73869">
        <ele>1194</ele>
        <time>2018-04-01T00:43:01Z</time>
      </trkpt>
      <trkpt lat="44.47354" lon="3.73831">
        <ele>1198</ele>
        <time>2018-04-01T00:44:01Z</time>
      </trkpt>
      <trkpt lat="44.47297" lon="3.73832">
        <ele>1208</ele>
        <time>2018-04-01T00:45:01Z</time>
      </trkpt>
      <trkpt lat="44.47266" lon="3.73825">
        <ele>1212</ele>
        <time>2018-04-01T00:46:01Z</time>
      </trkpt>
      <trkpt lat="44.47237" lon="3.73808">
        <ele>1221</ele>
        <time>2018-04-01T00:47:01Z</time>
      </trkpt>
      <trkpt lat="44.47185" lon="3.7381">
        <ele>1225</ele>
        <time>2018-04-01T00:48:01Z</time>
      </trkpt>
      <trkpt lat="44.47097" lon="3.73859">
        <ele>1239</ele>
        <time>2018-04-01T00:49:01Z</time>
      </trkpt>
      <trkpt lat="44.47051" lon="3.73955">
        <ele>1250</ele>
        <time>2018-04-01T00:50:01Z</time>
      </trkpt>
      <trkpt lat="44.47008" lon="3.74019">
        <ele>1252</ele>
        <time>2018-04-01T00:51:01Z</time>
      </trkpt>
      <trkpt lat="44.46941" lon="3.74087">
        <ele>1259</ele>
        <time>2018-04-01T00:52:01Z</time>
      </trkpt>
      <trkpt lat="44.46881" lon="3.74161">
        <ele>1272</ele>
        <time>2018-04-01T00:53:01Z</time>
      </trkpt>
      <trkpt lat="44.46845" lon="3.74236">
        <ele>1275</ele>
        <time>2018-04-01T00:54:01Z</time>
      </trkpt>
      <trkpt lat="44.46843" lon="3.74271">
        <ele>1275</ele>
        <time>2018-04-01T00:55:01Z</time>
      </trkpt>
      <trkpt lat="44.46861" lon="3.74411">
        <ele>1274</ele>
        <time>2018-04-01T00:56:01Z</time>
      </trkpt>
      <trkpt lat="44.46854" lon="3.74447">
        <ele>1272</ele>
        <time>2018-04-01T00:57:01Z</time>
      </trkpt>
      <trkpt lat="44.46807" lon="3.74519">
        <ele>1293</ele>
        <time>2018-04-01T00:58:01Z</time>
      </trkpt>
      <trkpt lat="44.46751" lon="3.74578">
        <ele>1302</ele>
        <time>2018-04-01T00:59:01Z</time>
      </trkpt>
      <trkpt lat="44.46678" lon="3.74639">
        <ele>1320</ele>
        <time>2018-04-01T01:00:01Z</time>
      </trkpt>
      <trkpt lat="44.46579" lon="3.74663">
        <ele>1345</ele>
        <time>2018-04-01T01:01:01Z</time>
      </trkpt>
      <trkpt lat="44.46535" lon="3.74723">
        <ele>1344</ele>
        <time>2018-04-01T01:02:01Z</time>
      </trkpt>
      <trkpt lat="44.46483" lon="3.74769">
        <ele>1352</ele>
        <time>2018-04-01T01:03:01Z</time>
      </trkpt>
      <trkpt lat="44.46399" lon="3.74825">
        <ele>1370</ele>
        <time>2018-04-01T01:04:01Z</time>
      </trkpt>
      <trkpt lat="44.46313" lon="3.74829">
        <ele>1385</ele>
        <time>2018-04-01T01:05:01Z</time>
      </trkpt>
      <trkpt lat="44.46247" lon="3.74811">
        <ele>1393</ele>
        <time>2018-04-01T01:06:01Z</time>
      </trkpt>
      <trkpt lat="44.46147" lon="3.74789">
        <ele>1403</ele>
        <time>2018-04-01T01:07:01Z</time>
      </trkpt>
      <trkpt lat="44.46002" lon="3.74827">
        <ele>1409</ele>
        <time>2018-04-01T01:08:01Z</time>
      </trkpt>
      <trkpt lat="44.45821" lon="3.74888">
        <ele>1403</ele>
        <time>2018-04-01T01:09:01Z</time>
      </trkpt>
      <trkpt lat="44.45686" lon="3.74952">
        <ele>1402</ele>
        <time>2018-04-01T01:10:01Z</time>
      </trkpt>
      <trkpt lat="44.45639" lon="3.74941">
        <ele>1401</ele>
        <time>2018-04-01T01:11:01Z</time>
      </trkpt>
      <trkpt lat="44.45424" lon="3.74929">
        <ele>1411</ele>
        <time>2018-04-01T01:12:01Z</time>
      </trkpt>
      <trkpt lat="44.4536" lon="3.7491">
        <ele>1416</ele>
        <time>2018-04-01T01:13:01Z</time>
      </trkpt>
      <trkpt lat="44.45289" lon="3.74855">
        <ele>1416</ele>
        <time>2018-04-01T01:14:01Z</time>
      </trkpt>
      <trkpt lat="44.45164" lon="3.74782">
        <ele>1413</ele>
        <time>2018-04-01T01:15:01Z</time>
      </trkpt>
      <trkpt lat="44.45144" lon="3.74766">
        <ele>1413</ele>
        <time>2018-04-01T01:16:01Z</time>
      </trkpt>
      <trkpt lat="44.45027" lon="3.74735">
        <ele>1420</ele>
        <time>2018-04-01T01:17:01Z</time>
      </trkpt>
      <trkpt lat="44.44988" lon="3.74702">
        <ele>1426</ele>
        <time>2018-04-01T01:18:01Z</time>
      </trkpt>
      <trkpt lat="44.44946" lon="3.74699">
        <ele>1428</ele>
        <time>2018-04-01T01:19:01Z</time>
      </trkpt>
      <trkpt lat="44.44874" lon="3.74668">
        <ele>1434</ele>
        <time>2018-04-01T01:20:01Z</time>
      </trkpt>
      <trkpt lat="44.44757" lon="3.74679">
        <ele>1440</ele>
        <time>2018-04-01T01:21:01Z</time>
      </trkpt>
      <trkpt lat="44.44527" lon="3.74756">
        <ele>1472</ele>
        <time>2018-04-01T01:22:01Z</time>
      </trkpt>
      <trkpt lat="44.44511" lon="3.74808">
        <ele>1472</ele>
        <time>2018-04-01T01:23:01Z</time>
      </trkpt>
      <trkpt lat="44.44403" lon="3.74829">
        <ele>1490</ele>
        <time>2018-04-01T01:24:01Z</time>
      </trkpt>
      <trkpt lat="44.44342" lon="3.74886">
        <ele>1494</ele>
        <time>2018-04-01T01:25:01Z</time>
      </trkpt>
      <trkpt lat="44.44261" lon="3.74938">
        <ele>1508</ele>
        <time>2018-04-01T01:26:01Z</time>
      </trkpt>
      <trkpt lat="44.44174" lon="3.7495">
        <ele>1518</ele>
        <time>2018-04-01T01:27:01Z</time>
      </trkpt>
      <trkpt lat="44.43903" lon="3.74936">
        <ele>1538</ele>
        <time>2018-04-01T01:28:01Z</time>
      </trkpt>
      <trkpt lat="44.43669" lon="3.74919">
        <ele>1557</ele>
        <time>2018-04-01T01:29:01Z</time>
      </trkpt>
      <trkpt lat="44.4358" lon="3.7493">
        <ele>1561</ele>
        <time>2018-04-01T01:30:01Z</time>
      </trkpt>
      <trkpt lat="44.43401" lon="3.74886">
        <ele>1569</ele>
        <time>2018-04-01T01:31:01Z</time>
      </trkpt>
      <trkpt lat="44.43304" lon="3.74887">
        <ele>1574</ele>
        <time>2018-04-01T01:32:01Z</time>
      </trkpt>
      <trkpt lat="44.4314" lon="3.74922">
        <ele>1591</ele>
        <time>2018-04-01T01:33:01Z</time>
      </trkpt>
      <trkpt lat="44.42946" lon="3.75">
        <ele>1613</ele>
        <time>2018-04-01T01:34:01Z</time>
      </trkpt>
      <trkpt lat="44.42843" lon="3.75037">
        <ele>1622</ele>
      </trkpt>
      <trkpt lat="44.42766" lon="3.75078">
        <ele>1631</ele>
        <time>2018-04-01T01:36:01Z</time>
      </trkpt>
      <trkpt lat="44.42689" lon="3.75118">
        <ele>1631</ele>
        <time>2018-04-01T01:37:01Z</time>
      </trkpt>
      <trkpt lat="44.4264" lon="3.75139">
        <ele>1634</ele>
      </trkpt>
      <trkpt lat="44.42646" lon="3.75059">
        <ele>1642</ele>
      </trkpt>
      <trkpt lat="44.42644" lon="3.74965">
        <ele>1653</ele>
      </trkpt>
      <trkpt lat="44.4267" lon="3.74664">
        <ele>1675</ele>
        <time>2018-04-01T01:40:01Z</time>
      </trkpt>
      <trkpt lat="44.42691" lon="3.74581">
        <ele>1680</ele>
        <time>2018-04-01T01:41:01Z</time>
      </trkpt>
      <trkpt lat="44.42742" lon="3.74516">
        <ele>1681</ele>
      </trkpt>
      <trkpt lat="44.4271" lon="3.74442">
        <ele>1680</ele>
        <time>2018-04-01T01:43:01Z</time>
      </trkpt>
      <trkpt lat="44.4266" lon="3.74272">
        <ele>1677</ele>
        <time>2018-04-01T01:44:01Z</time>
      </trkpt>
      <trkpt lat="44.42614" lon="3.74">
        <ele>1694</ele>
        <time>2018-04-01T01:45:01Z</time>
      </trkpt>
      <trkpt lat="44.42607" lon="3.73916">
        <ele>1697</ele>
        <time>2018-04-01T01:46:01Z</time>
      </trkpt>
      <trkpt lat="44.42451" lon="3.73871">
        <ele>1689</ele>
        <time>2018-04-01T01:47:01Z</time>
      </trkpt>
      <trkpt lat="44.42272" lon="3.73887">
        <ele>1666</ele>
        <time>2018-04-01T01:48:01Z</time>
      </trkpt>
      <trkpt lat="44.42246" lon="3.74025">
        <ele>1658</ele>
        <time>2018-04-01T01:49:01Z</time>
      </trkpt>
      <trkpt lat="44.42224" lon="3.74083">
        <ele>1657</ele>
        <time>2018-04-01T01:50:01Z</time>
      </trkpt>
      <trkpt lat="44.42181" lon="3.74035">
        <ele>1653</ele>
        <time>2018-04-01T01:51:01Z</time>
      </trkpt>
      <trkpt lat="44.42068" lon="3.7398">
        <ele>1628</ele>
      </trkpt>
      <trkpt lat="44.41953" lon="3.73934">
        <ele>1607</ele>
        <time>2018-04-01T01:52:01Z</time>
      </trkpt>
      <trkpt lat="44.41867" lon="3.73922">
        <ele>1589</ele>
        <time>2018-04-01T01:53:01Z</time>
      </trkpt>
      <trkpt lat="44.41809" lon="3.73941">
        <ele>1573</ele>
      </trkpt>
      <trkpt lat="44.41753" lon="3.73953">
        <ele>1567</ele>
        <time>2018-04-01T01:54:01Z</time>
      </trkpt>
      <trkpt lat="44.41692" lon="3.73908">
        <ele>1540</ele>
        <time>2018-04-01T01:55:01Z</time>
      </trkpt>
      <trkpt lat="44.4162" lon="3.73875">
        <ele>1520</ele>
        <time>2018-04-01T01:56:01Z</time>
      </trkpt>
      <trkpt lat="44.41486" lon="3.73769">
        <ele>1482</ele>
        <time>2018-04-01T01:57:01Z</time>
      </trkpt>
      <trkpt lat="44.41519" lon="3.73692">
        <ele>1482</ele>
        <time>2018-04-01T01:58:01Z</time>
      </trkpt>
      <trkpt lat="44.41306" lon="3.73805">
        <ele>1461</ele>
        <time>2018-04-01T01:59:01Z</time>
      </trkpt>
      <trkpt lat="44.41277" lon="3.73876">
        <ele>1461</ele>
        <time>2018-04-01T02:00:01Z</time>
      </trkpt>
      <trkpt lat="44.41264" lon="3.73869">
        <ele>1460</ele>
        <time>2018-04-01T02:01:01Z</time>
      </trkpt>
      <trkpt lat="44.41219" lon="3.73779">
        <ele>1453</ele>
        <time>2018-04-01T02:02:01Z</time>
      </trkpt>
      <trkpt lat="44.41161" lon="3.73636">
        <ele>1451</ele>
        <time>2018-04-01T02:03:01Z</time>
      </trkpt>
      <trkpt lat="44.41115" lon="3.73535">
        <ele>1446</ele>
      </trkpt>
      <trkpt lat="44.41056" lon="3.73439">
        <ele>1441</ele>
        <time>2018-04-01T02:04:01Z</time>
      </trkpt>
      <trkpt lat="44.41019" lon="3.73398">
        <ele>1435</ele>
        <time>2018-04-01T02:05:01Z</time>
      </trkpt>
      <trkpt lat="44.40931" lon="3.73353">
        <ele>1435</ele>
      </trkpt>
      <trkpt lat="44.40853" lon="3.73296">
        <ele>1431</ele>
        <time>2018-04-01T02:06:01Z</time>
      </trkpt>
      <trkpt lat="44.40759" lon="3.73165">
        <ele>1421</ele>
        <time>2018-04-01T02:07:01Z</time>
      </trkpt>
      <trkpt lat="44.40721" lon="3.73147">
        <ele>1420</ele>
        <time>2018-04-01T02:08:01Z</time>
      </trkpt>
      <trkpt lat="44.40617" lon="3.7313">
        <ele>1418</ele>
        <time>2018-04-01T02:09:01Z</time>
      </trkpt>
      <trkpt lat="44.40548" lon="3.7314">
        <ele>1411</ele>
        <time>2018-04-01T02:10:01Z</time>
      </trkpt>
      <trkpt lat="44.40545" lon="3.72951">
        <ele>1405</ele>
        <time>2018-04-01T02:11:01Z</time>
      </trkpt>
      <trkpt lat="44.40435" lon="3.72904">
        <ele>1390</ele>
        <time>2018-04-01T02:12:01Z</time>
      </trkpt>
      <trkpt lat="44.40363" lon="3.72893">
        <ele>1379</ele>
        <time>2018-04-01T02:13:01Z</time>
      </trkpt>
      <trkpt lat="44.40304" lon="3.72876">
        <ele>1367</ele>
        <time>2018-04-01T02:14:01Z</time>
      </trkpt>
      <trkpt lat="44.40235" lon="3.72885">
        <ele>1356</ele>
        <time>2018-04-01T02:15:01Z</time>
      </trkpt>
      <trkpt lat="44.40194" lon="3.72909">
        <ele>1353</ele>
        <time>2018-04-01T02:16:01Z</time>
      </trkpt>
      <trkpt lat="44.40208" lon="3.73074">
        <ele>1342</ele>
        <time>2018-04-01T02:17:01Z</time>
      </trkpt>
      <trkpt lat="44.40186" lon="3.73197">
        <ele>1334</ele>
        <time>2018-04-01T02:18:01Z</time>
      </trkpt>
      <trkpt lat="44.40161" lon="3.73259">
        <ele>1324</ele>
      </trkpt>
      <trkpt lat="44.40144" lon="3.7332">
        <ele>1320</ele>
        <time>2018-04-01T02:19:01Z</time>
      </trkpt>
      <trkpt lat="44.40134" lon="3.73372">
        <ele>1314</ele>
      </trkpt>
      <trkpt lat="44.40137" lon="3.73419">
        <ele>1309</ele>
      </trkpt>
      <trkpt lat="44.40138" lon="3.73465">
        <ele>1307</ele>
      </trkpt>
      <trkpt lat="44.4016" lon="3.73562">
        <ele>1301</ele>
        <time>2018-04-01T02:21:01Z</time>
      </trkpt>
      <trkpt lat="44.40147" lon="3.73713">
        <ele>1288</ele>
        <time>2018-04-01T02:22:01Z</time>
      </trkpt>
      <trkpt lat="44.40174" lon="3.73874">
        <ele>1287</ele>
      </trkpt>
      <trkpt lat="44.40206" lon="3.74032">
        <ele>1265</ele>
        <time>2018-04-01T02:23:01Z</time>
      </trkpt>
      <trkpt lat="44.40229" lon="3.74071">
        <ele>1264</ele>
        <time>2018-04-01T02:24:01Z</time>
      </trkpt>
      <trkpt lat="44.40266" lon="3.74092">
        <ele>1263</ele>
        <time>2018-04-01T02:25:01Z</time>
      </trkpt>
      <trkpt lat="44.40309" lon="3.74181">
        <ele>1252</ele>
        <time>2018-04-01T02:26:01Z</time>
      </trkpt>
      <trkpt lat="44.40349" lon="3.74228">
        <ele>1256</ele>
        <time>2018-04-01T02:27:01Z</time>
      </trkpt>
      <trkpt lat="44.40371" lon="3.74272">
        <ele>1251</ele>
        <time>2018-04-01T02:28:01Z</time>
      </trkpt>
      <trkpt lat="44.40414" lon="3.74307">
        <ele>1252</ele>
        <time>2018-04-01T02:29:01Z</time>
      </trkpt>
      <trkpt lat="44.40433" lon="3.74364">
        <ele>1256</ele>
        <time>2018-04-01T02:30:01Z</time>
      </trkpt>
      <trkpt lat="44.40423" lon="3.74416">
        <ele>1247</ele>
        <time>2018-04-01T02:31:01Z</time>
      </trkpt>
      <trkpt lat="44.40406" lon="3.7442">
        <ele>1241</ele>
        <time>2018-04-01T02:32:01Z</time>
      </trkpt>
      <trkpt lat="44.4042" lon="3.74464">
        <ele>1246</ele>
        <time>2018-04-01T02:33:01Z</time>
      </trkpt>
      <trkpt lat="44.40407" lon="3.74507">
        <ele>1235</ele>
        <time>2018-04-01T02:34:01Z</time>
      </trkpt>
      <trkpt lat="44.40361" lon="3.74533">
        <ele>1230</ele>
        <time>2018-04-01T02:35:01Z</time>
      </trkpt>
      <trkpt lat="44.40308" lon="3.74482">
        <ele>1227</ele>
        <time>2018-04-01T02:36:01Z</time>
      </trkpt>
      <trkpt lat="44.40281" lon="3.74484">
        <ele>1225</ele>
        <time>2018-04-01T02:37:01Z</time>
      </trkpt>
      <trkpt lat="44.40194" lon="3.74431">
        <ele>1217</ele>
        <time>2018-04-01T02:38:01Z</time>
      </trkpt>
      <trkpt lat="44.40098" lon="3.74428">
        <ele>1207</ele>
        <time>2018-04-01T02:39:01Z</time>
      </trkpt>
      <trkpt lat="44.4008" lon="3.74379">
        <ele>1207</ele>
        <time>2018-04-01T02:40:01Z</time>
      </trkpt>
      <trkpt lat="44.39947" lon="3.74332">
        <ele>1211</ele>
        <time>2018-04-01T02:41:01Z</time>
      </trkpt>
      <trkpt lat="44.39896" lon="3.74313">
        <ele>1210</ele>
      </trkpt>
      <trkpt lat="44.39847" lon="3.74294">
        <ele>1210</ele>
        <time>2018-04-01T02:42:01Z</time>
      </trkpt>
      <trkpt lat="44.3981" lon="3.743">
        <ele>1204</ele>
        <time>2018-04-01T02:43:01Z</time>
      </trkpt>
      <trkpt lat="44.39783" lon="3.74448">
        <ele>1192</ele>
        <time>2018-04-01T02:44:01Z</time>
      </trkpt>
      <trkpt lat="44.39751" lon="3.74508">
        <ele>1188</ele>
        <time>2018-04-01T02:45:01Z</time>
      </trkpt>
      <trkpt lat="44.39751" lon="3.74508">
        <ele>1188</ele>
        <time>2018-04-01T02:46:01Z</time>
      </trkpt>
      <trkpt lat="44.39684" lon="3.74506">
        <ele>1185</ele>
        <time>2018-04-01T02:47:01Z</time>
      </trkpt>
      <trkpt lat="44.39665" lon="3.74516">
        <ele>1183</ele>
        <time>2018-04-01T02:48:01Z</time>
      </trkpt>
      <trkpt lat="44.39633" lon="3.74505">
        <ele>1182</ele>
        <time>2018-04-01T02:49:01Z</time>
      </trkpt>
      <trkpt lat="44.39593" lon="3.7452">
        <ele>1181</ele>
        <time>2018-04-01T02:50:01Z</time>
      </trkpt>
      <trkpt lat="44.39499" lon="3.74533">
        <ele>1174</ele>
        <time>2018-04-01T02:51:01Z</time>
      </trkpt>
      <trkpt lat="44.39477" lon="3.74539">
        <ele>1173</ele>
        <time>2018-04-01T02:52:01Z</time>
      </trkpt>
      <trkpt lat="44.39454" lon="3.74549">
        <ele>1173</ele>
      </trkpt>
      <trkpt lat="44.39417" lon="3.74584">
        <ele>1173</ele>
      </trkpt>
      <trkpt lat="44.3939" lon="3.74615">
        <ele>1167</ele>
      </trkpt>
      <trkpt lat="44.3937" lon="3.74612">
        <ele>1166</ele>
        <time>2018-04-01T02:55:01Z</time>
      </trkpt>
      <trkpt lat="44.39358" lon="3.74595">
        <ele>1165</ele>
      </trkpt>
      <trkpt lat="44.39356" lon="3.74569">
        <ele>1163</ele>
      </trkpt>
      <trkpt lat="44.39356" lon="3.74544">
        <ele>1162</ele>
      </trkpt>
      <trkpt lat="44.39365" lon="3.74521">
        <ele>1161</ele>
        <time>2018-04-01T02:56:01Z</time>
      </trkpt>
      <trkpt lat="44.39392" lon="3.7445">
        <ele>1158</ele>
        <time>2018-04-01T02:57:01Z</time>
      </trkpt>
      <trkpt lat="44.39385" lon="3.74416">
        <ele>1157</ele>
      </trkpt>
      <trkpt lat="44.39364" lon="3.74394">
        <ele>1157</ele>
      </trkpt>
      <trkpt lat="44.3935" lon="3.74361">
        <ele>1157</ele>
      </trkpt>
      <trkpt lat="44.3933" lon="3.74344">
        <ele>1156</ele>
      </trkpt>
      <trkpt lat="44.39217" lon="3.74355">
        <ele>1148</ele>
      </trkpt>
      <trkpt lat="44.39204" lon="3.74343">
        <ele>1148</ele>
      </trkpt>
      <trkpt lat="44.39189" lon="3.74308">
        <ele>1155</ele>
      </trkpt>
      <trkpt lat="44.39157" lon="3.74299">
        <ele>1159</ele>
        <time>2018-04-01T03:00:01Z</time>
      </trkpt>
      <trkpt lat="44.39138" lon="3.74302">
        <ele>1160</ele>
      </trkpt>
      <trkpt lat="44.391" lon="3.74343">
        <ele>1149</ele>
      </trkpt>
      <trkpt lat="44.39055" lon="3.74364">
        <ele>1149</ele>
      </trkpt>
      <trkpt lat="44.39034" lon="3.74385">
        <ele>1148</ele>
      </trkpt>
      <trkpt lat="44.3902" lon="3.74405">
        <ele>1146</ele>
      </trkpt>
      <trkpt lat="44.38957" lon="3.7446">
        <ele>1141</ele>
        <time>2018-04-01T03:03:01Z</time>
      </trkpt>
      <trkpt lat="44.38931" lon="3.74473">
        <ele>1142</ele>
      </trkpt>
      <trkpt lat="44.38889" lon="3.74477">
        <ele>1143</ele>
        <time>2018-04-01T03:04:01Z</time>
      </trkpt>
      <trkpt lat="44.38857" lon="3.74468">
        <ele>1143</ele>
      </trkpt>
      <trkpt lat="44.38834" lon="3.74472">
        <ele>1142</ele>
        <time>2018-04-01T03:05:01Z</time>
      </trkpt>
      <trkpt lat="44.38747" lon="3.74496">
        <ele>1137</ele>
      </trkpt>
      <trkpt lat="44.38701" lon="3.74533">
        <ele>1136</ele>
      </trkpt>
      <trkpt lat="44.38672" lon="3.74545">
        <ele>1136</ele>
      </trkpt>
      <trkpt lat="44.38638" lon="3.74535">
        <ele>1135</ele>
      </trkpt>
      <trkpt lat="44.38606" lon="3.74523">
        <ele>1134</ele>
        <time>2018-04-01T03:08:01Z</time>
      </trkpt>
      <trkpt lat="44.38548" lon="3.74471">
        <ele>1132</ele>
        <time>2018-04-01T03:09:01Z</time>
      </trkpt>
      <trkpt lat="44.38522" lon="3.74461">
        <ele>1132</ele>
      </trkpt>
      <trkpt lat="44.38482" lon="3.74474">
        <ele>1128</ele>
        <time>2018-04-01T03:10:01Z</time>
      </trkpt>
      <trkpt lat="44.3844" lon="3.7448">
        <ele>1127</ele>
      </trkpt>
      <trkpt lat="44.38413" lon="3.74458">
        <ele>1125</ele>
        <time>2018-04-01T03:11:01Z</time>
      </trkpt>
      <trkpt lat="44.38385" lon="3.74455">
        <ele>1125</ele>
      </trkpt>
      <trkpt lat="44.38374" lon="3.74459">
        <ele>1124</ele>
        <time>2018-04-01T03:12:01Z</time>
      </trkpt>
      <trkpt lat="44.3835" lon="3.74455">
        <ele>1124</ele>
      </trkpt>
      <trkpt lat="44.3832" lon="3.74444">
        <ele>1123</ele>
      </trkpt>
      <trkpt lat="44.38298" lon="3.74459">
        <ele>1122</ele>
      </trkpt>
      <trkpt lat="44.38278" lon="3.74488">
        <ele>1122</ele>
      </trkpt>
      <trkpt lat="44.3825" lon="3.745">
        <ele>1121</ele>
      </trkpt>
      <trkpt lat="44.38223" lon="3.74524">
        <ele>1116</ele>
      </trkpt>
      <trkpt lat="44.38187" lon="3.74506">
        <ele>1117</ele>
      </trkpt>
      <trkpt lat="44.3817" lon="3.74503">
        <ele>1118</ele>
      </trkpt>
      <trkpt lat="44.38153" lon="3.74491">
        <ele>1117</ele>
      </trkpt>
      <trkpt lat="44.3813" lon="3.74485">
        <ele>1116</ele>
      </trkpt>
      <trkpt lat="44.38111" lon="3.7447">
        <ele>1115</ele>
      </trkpt>
      <trkpt lat="44.38093" lon="3.74472">
        <ele>1114</ele>
      </trkpt>
      <trkpt lat="44.3808" lon="3.74465">
        <ele>1110</ele>
      </trkpt>
      <trkpt lat="44.38065" lon="3.74486">
        <ele>1110</ele>
      </trkpt>
      <trkpt lat="44.38056" lon="3.74477">
        <ele>1109</ele>
      </trkpt>
      <trkpt lat="44.38052" lon="3.74451">
        <ele>1109</ele>
      </trkpt>
      <trkpt lat="44.38041" lon="3.74445">
        <ele>1109</ele>
      </trkpt>
      <trkpt lat="44.38026" lon="3.74448">
        <ele>1108</ele>
      </trkpt>
      <trkpt lat="44.38024" lon="3.74427">
        <ele>1109</ele>
      </trkpt>
      <trkpt lat="44.38015" lon="3.7441">
        <ele>1110</ele>
      </trkpt>
      <trkpt lat="44.37972" lon="3.74403">
        <ele>1111</ele>
      </trkpt>
      <trkpt lat="44.37945" lon="3.74383">
        <ele>1112</ele>
      </trkpt>
      <trkpt lat="44.37904" lon="3.74326">
        <ele>1120</ele>
      </trkpt>
      <trkpt lat="44.37856" lon="3.74295">
        <ele>1122</ele>
        <time>2018-04-01T03:16:01Z</time>
      </trkpt>
      <trkpt lat="44.37842" lon="3.74298">
        <ele>1122</ele>
      </trkpt>
      <trkpt lat="44.37825" lon="3.74314">
        <ele>1119</ele>
      </trkpt>
      <trkpt lat="44.3779" lon="3.74324">
        <ele>1120</ele>
      </trkpt>
      <trkpt lat="44.37774" lon="3.7434">
        <ele>1115</ele>
      </trkpt>
      <trkpt lat="44.37749" lon="3.74381">
        <ele>1113</ele>
      </trkpt>
      <trkpt lat="44.37688" lon="3.74362">
        <ele>1113</ele>
      </trkpt>
      <trkpt lat="44.37619" lon="3.74359">
        <ele>1103</ele>
      </trkpt>
      <trkpt lat="44.37569" lon="3.74252">
        <ele>1104</ele>
        <time>2018-04-01T03:19:01Z</time>
      </trkpt>
      <trkpt lat="44.3756" lon="3.74258">
        <ele>1104</ele>
      </trkpt>
      <trkpt lat="44.37544" lon="3.74285">
        <ele>1102</ele>
      </trkpt>
      <trkpt lat="44.37525" lon="3.74284">
        <ele>1103</ele>
      </trkpt>
      <trkpt lat="44.37466" lon="3.74328">
        <ele>1100</ele>
      </trkpt>
      <trkpt lat="44.37431" lon="3.74366">
        <ele>1093</ele>
      </trkpt>
      <trkpt lat="44.37422" lon="3.74406">
        <ele>1090</ele>
      </trkpt>
      <trkpt lat="44.37392" lon="3.74461">
        <ele>1082</ele>
      </trkpt>
      <trkpt lat="44.37368" lon="3.74498">
        <ele>1081</ele>
      </trkpt>
      <trkpt lat="44.37333" lon="3.74525">
        <ele>1074</ele>
        <time>2018-04-01T03:21:01Z</time>
      </trkpt>
      <trkpt lat="44.37299" lon="3.74529">
        <ele>1071</ele>
      </trkpt>
      <trkpt lat="44.37262" lon="3.74523">
        <ele>1069</ele>
      </trkpt>
      <trkpt lat="44.37245" lon="3.74537">
        <ele>1059</ele>
      </trkpt>
      <trkpt lat="44.3722" lon="3.74579">
        <ele>1057</ele>
      </trkpt>
      <trkpt lat="44.37197" lon="3.74596">
        <ele>1051</ele>
      </trkpt>
      <trkpt lat="44.37181" lon="3.74618">
        <ele>1049</ele>
        <time>2018-04-01T03:23:01Z</time>
      </trkpt>
      <trkpt lat="44.37151" lon="3.74604">
        <ele>1040</ele>
      </trkpt>
      <trkpt lat="44.3714" lon="3.74605">
        <ele>1038</ele>
      </trkpt>
      <trkpt lat="44.37132" lon="3.74625">
        <ele>1036</ele>
      </trkpt>
      <trkpt lat="44.37122" lon="3.74607">
        <ele>1035</ele>
      </trkpt>
      <trkpt lat="44.37086" lon="3.74616">
        <ele>1031</ele>
      </trkpt>
      <trkpt lat="44.37101" lon="3.74568">
        <ele>1031</ele>
      </trkpt>
      <trkpt lat="44.37111" lon="3.74507">
        <ele>1031</ele>
      </trkpt>
      <trkpt lat="44.37045" lon="3.74504">
        <ele>1014</ele>
      </trkpt>
      <trkpt lat="44.37013" lon="3.74486">
        <ele>1015</ele>
      </trkpt>
      <trkpt lat="44.36976" lon="3.74492">
        <ele>1004</ele>
      </trkpt>
      <trkpt lat="44.36977" lon="3.74508">
        <ele>997</ele>
      </trkpt>
      <trkpt lat="44.36968" lon="3.74509">
        <ele>995</ele>
      </trkpt>
      <trkpt lat="44.36922" lon="3.74495">
        <ele>988</ele>
      </trkpt>
      <trkpt lat="44.36883" lon="3.74468">
        <ele>981</ele>
      </trkpt>
      <trkpt lat="44.36862" lon="3.74451">
        <ele>980</ele>
      </trkpt>
      <trkpt lat="44.36811" lon="3.74444">
        <ele>962</ele>
      </trkpt>
      <trkpt lat="44.36781" lon="3.74433">
        <ele>957</ele>
      </trkpt>
      <trkpt lat="44.36747" lon="3.744">
        <ele>958</ele>
      </trkpt>
      <trkpt lat="44.36704" lon="3.74428">
        <ele>939</ele>
      </trkpt>
      <trkpt lat="44.36673" lon="3.74436">
        <ele>937</ele>
        <time>2018-04-01T03:29:01Z</time>
      </trkpt>
      <trkpt lat="44.36654" lon="3.74433">
        <ele>929</ele>
      </trkpt>
      <trkpt lat="44.36637" lon="3.74426">
        <ele>927</ele>
      </trkpt>
      <trkpt lat="44.36605" lon="3.74431">
        <ele>923</ele>
        <time>2018-04-01T03:30:01Z</time>
      </trkpt>
      <trkpt lat="44.36597" lon="3.74438">
        <ele>922</ele>
      </trkpt>
      <trkpt lat="44.36583" lon="3.7444">
        <ele>914</ele>
      </trkpt>
      <trkpt lat="44.36568" lon="3.74441">
        <ele>913</ele>
      </trkpt>
      <trkpt lat="44.36527" lon="3.74414">
        <ele>919</ele>
      </trkpt>
      <trkpt lat="44.36566" lon="3.74465">
        <ele>909</ele>
      </trkpt>
      <trkpt lat="44.36601" lon="3.74488">
        <ele>914</ele>
      </trkpt>
      <trkpt lat="44.36609" lon="3.74492">
        <ele>915</ele>
      </trkpt>
      <trkpt lat="44.36617" lon="3.74497">
        <ele>916</ele>
      </trkpt>
      <trkpt lat="44.36624" lon="3.74519">
        <ele>909</ele>
      </trkpt>
      <trkpt lat="44.36615" lon="3.74529">
        <ele>909</ele>
      </trkpt>
      <trkpt lat="44.36597" lon="3.74527">
        <ele>907</ele>
      </trkpt>
      <trkpt lat="44.36589" lon="3.74554">
        <ele>907</ele>
      </trkpt>
      <trkpt lat="44.36589" lon="3.74581">
        <ele>905</ele>
      </trkpt>
      <trkpt lat="44.36592" lon="3.74598">
        <ele>910</ele>
      </trkpt>
      <trkpt lat="44.36627" lon="3.74616">
        <ele>915</ele>
      </trkpt>
      <trkpt lat="44.36619" lon="3.74628">
        <ele>916</ele>
      </trkpt>
      <trkpt lat="44.36565" lon="3.74626">
        <ele>914</ele>
      </trkpt>
      <trkpt lat="44.3654" lon="3.74627">
        <ele>915</ele>
      </trkpt>
      <trkpt lat="44.36431" lon="3.7453">
        <ele>898</ele>
        <time>2018-04-01T03:34:01Z</time>
      </trkpt>
      <trkpt lat="44.3637" lon="3.74469">
        <ele>886</ele>
        <time>2018-04-01T03:35:01Z</time>
      </trkpt>
      <trkpt lat="44.36356" lon="3.74393">
        <ele>882</ele>
        <time>2018-04-01T03:36:01Z</time>
      </trkpt>
      <trkpt lat="44.36342" lon="3.74389">
        <ele>882</ele>
        <time>2018-04-01T03:37:01Z</time>
      </trkpt>
      <trkpt lat="44.36337" lon="3.74356">
        <ele>880</ele>
        <time>2018-04-01T03:38:01Z</time>
      </trkpt>
      <trkpt lat="44.36331" lon="3.74362">
        <ele>878</ele>
        <time>2018-04-01T03:39:01Z</time>
      </trkpt>
      <trkpt lat="44.36284" lon="3.74341">
        <ele>880</ele>
        <time>2018-04-01T03:40:01Z</time>
      </trkpt>
      <trkpt lat="44.36276" lon="3.7436">
        <ele>880</ele>
        <time>2018-04-01T03:41:01Z</time>
      </trkpt>
      <trkpt lat="44.36255" lon="3.74336">
        <ele>884</ele>
        <time>2018-04-01T03:42:01Z</time>
      </trkpt>
      <trkpt lat="44.36235" lon="3.74354">
        <ele>890</ele>
        <time>2018-04-01T03:43:01Z</time>
      </trkpt>
      <trkpt lat="44.36225" lon="3.74345">
        <ele>891</ele>
        <time>2018-04-01T03:44:01Z</time>
      </trkpt>
      <trkpt lat="44.36202" lon="3.74364">
        <ele>894</ele>
        <time>2018-04-01T03:45:01Z</time>
      </trkpt>
      <trkpt lat="44.36177" lon="3.7438">
        <ele>895</ele>
        <time>2018-04-01T03:46:01Z</time>
      </trkpt>
      <trkpt lat="44.36172" lon="3.74366">
        <ele>898</ele>
        <time>2018-04-01T03:47:01Z</time>
      </trkpt>
      <trkpt lat="44.36133" lon="3.74382">
        <ele>910</ele>
        <time>2018-04-01T03:48:01Z</time>
      </trkpt>
      <trkpt lat="44.36086" lon="3.74382">
        <ele>914</ele>
        <time>2018-04-01T03:49:01Z</time>
      </trkpt>
      <trkpt lat="44.3607" lon="3.74364">
        <ele>924</ele>
        <time>2018-04-01T03:50:01Z</time>
      </trkpt>
      <trkpt lat="44.36088" lon="3.74363">
        <ele>918</ele>
        <time>2018-04-01T03:51:01Z</time>
      </trkpt>
      <trkpt lat="44.36095" lon="3.74352">
        <ele>921</ele>
      </trkpt>
      <trkpt lat="44.361" lon="3.74338">
        <ele>923</ele>
        <time>2018-04-01T03:52:01Z</time>
      </trkpt>
      <trkpt lat="44.36089" lon="3.74323">
        <ele>934</ele>
        <time>2018-04-01T03:53:01Z</time>
      </trkpt>
      <trkpt lat="44.36105" lon="3.74297">
        <ele>936</ele>
        <time>2018-04-01T03:54:01Z</time>
      </trkpt>
      <trkpt lat="44.36088" lon="3.74292">
        <ele>938</ele>
        <time>2018-04-01T03:55:01Z</time>
      </trkpt>
      <trkpt lat="44.36106" lon="3.74265">
        <ele>942</ele>
        <time>2018-04-01T03:56:01Z</time>
      </trkpt>
      <trkpt lat="44.3614" lon="3.74183">
        <ele>960</ele>
        <time>2018-04-01T03:57:01Z</time>
      </trkpt>
      <trkpt lat="44.36157" lon="3.74141">
        <ele>973</ele>
      </trkpt>
      <trkpt lat="44.36176" lon="3.74101">
        <ele>966</ele>
        <time>2018-04-01T03:58:01Z</time>
      </trkpt>
      <trkpt lat="44.36165" lon="3.741">
        <ele>978</ele>
      </trkpt>
      <trkpt lat="44.36146" lon="3.74113">
        <ele>978</ele>
        <time>2018-04-01T03:59:01Z</time>
      </trkpt>
      <trkpt lat="44.36055" lon="3.74149">
        <ele>993</ele>
        <time>2018-04-01T04:00:01Z</time>
      </trkpt>
      <trkpt lat="44.36018" lon="3.74144">
        <ele>997</ele>
      </trkpt>
      <trkpt lat="44.35974" lon="3.7413">
        <ele>1008</ele>
        <time>2018-04-01T04:01:01Z</time>
      </trkpt>
      <trkpt lat="44.35949" lon="3.7413">
        <ele>1009</ele>
        <time>2018-04-01T04:02:01Z</time>
      </trkpt>
      <trkpt lat="44.35926" lon="3.74104">
        <ele>1016</ele>
        <time>2018-04-01T04:03:01Z</time>
      </trkpt>
      <trkpt lat="44.35846" lon="3.7406">
        <ele>1036</ele>
        <time>2018-04-01T04:04:01Z</time>
      </trkpt>
      <trkpt lat="44.3582" lon="3.74031">
        <ele>1050</ele>
        <time>2018-04-01T04:05:01Z</time>
      </trkpt>
      <trkpt lat="44.35777" lon="3.74031">
        <ele>1054</ele>
        <time>2018-04-01T04:06:01Z</time>
      </trkpt>
      <trkpt lat="44.35738" lon="3.74051">
        <ele>1061</ele>
        <time>2018-04-01T04:07:01Z</time>
      </trkpt>
      <trkpt lat="44.35684" lon="3.74059">
        <ele>1066</ele>
        <time>2018-04-01T04:08:01Z</time>
      </trkpt>
      <trkpt lat="44.35705" lon="3.74034">
        <ele>1069</ele>
        <time>2018-04-01T04:09:01Z</time>
      </trkpt>
      <trkpt lat="44.35563" lon="3.74055">
        <ele>1092</ele>
        <time>2018-04-01T04:10:01Z</time>
      </trkpt>
      <trkpt lat="44.35519" lon="3.74058">
        <ele>1094</ele>
        <time>2018-04-01T04:11:01Z</time>
      </trkpt>
      <trkpt lat="44.35483" lon="3.74041">
        <ele>1099</ele>
        <time>2018-04-01T04:12:01Z</time>
      </trkpt>
      <trkpt lat="44.35444" lon="3.74045">
        <ele>1099</ele>
      </trkpt>
      <trkpt lat="44.354" lon="3.74038">
        <ele>1101</ele>
        <time>2018-04-01T04:13:01Z</time>
      </trkpt>
      <trkpt lat="44.35296" lon="3.73981">
        <ele>1100</ele>
        <time>2018-04-01T04:14:01Z</time>
      </trkpt>
      <trkpt lat="44.35148" lon="3.73877">
        <ele>1107</ele>
        <time>2018-04-01T04:15:01Z</time>
      </trkpt>
      <trkpt lat="44.3506" lon="3.73789">
        <ele>1104</ele>
        <time>2018-04-01T04:16:01Z</time>
      </trkpt>
      <trkpt lat="44.34947" lon="3.73721">
        <ele>1101</ele>
        <time>2018-04-01T04:17:01Z</time>
      </trkpt>
      <trkpt lat="44.34924" lon="3.73719">
        <ele>1101</ele>
      </trkpt>
      <trkpt lat="44.349" lon="3.73707">
        <ele>1101</ele>
        <time>2018-04-01T04:18:01Z</time>
      </trkpt>
      <trkpt lat="44.34856" lon="3.73678">
        <ele>1101</ele>
        <time>2018-04-01T04:19:01Z</time>
      </trkpt>
      <trkpt lat="44.34796" lon="3.73686">
        <ele>1100</ele>
        <time>2018-04-01T04:20:01Z</time>
      </trkpt>
      <trkpt lat="44.3472" lon="3.73677">
        <ele>1101</ele>
        <time>2018-04-01T04:21:01Z</time>
      </trkpt>
      <trkpt lat="44.34671" lon="3.73731">
        <ele>1101</ele>
      </trkpt>
      <trkpt lat="44.34624" lon="3.7377">
        <ele>1099</ele>
        <time>2018-04-01T04:22:01Z</time>
      </trkpt>
      <trkpt lat="44.34583" lon="3.73768">
        <ele>1101</ele>
        <time>2018-04-01T04:23:01Z</time>
      </trkpt>
      <trkpt lat="44.34553" lon="3.73745">
        <ele>1101</ele>
        <time>2018-04-01T04:24:01Z</time>
      </trkpt>
      <trkpt lat="44.34479" lon="3.73753">
        <ele>1104</ele>
        <time>2018-04-01T04:25:01Z</time>
      </trkpt>
      <trkpt lat="44.34426" lon="3.73783">
        <ele>1104</ele>
        <time>2018-04-01T04:26:01Z</time>
      </trkpt>
      <trkpt lat="44.34338" lon="3.73788">
        <ele>1104</ele>
        <time>2018-04-01T04:27:01Z</time>
      </trkpt>
      <trkpt lat="44.34296" lon="3.73774">
        <ele>1101</ele>
        <time>2018-04-01T04:28:01Z</time>
      </trkpt>
      <trkpt lat="44.34276" lon="3.7378">
        <ele>1101</ele>
        <time>2018-04-01T04:29:01Z</time>
      </trkpt>
      <trkpt lat="44.34241" lon="3.73741">
        <ele>1097</ele>
        <time>2018-04-01T04:30:01Z</time>
      </trkpt>
      <trkpt lat="44.34199" lon="3.73784">
        <ele>1098</ele>
        <time>2018-04-01T04:31:01Z</time>
      </trkpt>
      <trkpt lat="44.34194" lon="3.73861">
        <ele>1096</ele>
        <time>2018-04-01T04:32:01Z</time>
      </trkpt>
      <trkpt lat="44.3408" lon="3.73937">
        <ele>1077</ele>
        <time>2018-04-01T04:33:01Z</time>
      </trkpt>
      <trkpt lat="44.34055" lon="3.73981">
        <ele>1074</ele>
        <time>2018-04-01T04:34:01Z</time>
      </trkpt>
      <trkpt lat="44.34023" lon="3.74018">
        <ele>1068</ele>
        <time>2018-04-01T04:35:01Z</time>
      </trkpt>
      <trkpt lat="44.33951" lon="3.74149">
        <ele>1058</ele>
        <time>2018-04-01T04:36:01Z</time>
      </trkpt>
      <trkpt lat="44.33899" lon="3.74299">
        <ele>1030</ele>
        <time>2018-04-01T04:37:01Z</time>
      </trkpt>
      <trkpt lat="44.33856" lon="3.74306">
        <ele>1030</ele>
        <time>2018-04-01T04:38:01Z</time>
      </trkpt>
      <trkpt lat="44.33833" lon="3.74318">
        <ele>1030</ele>
        <time>2018-04-01T04:39:01Z</time>
      </trkpt>
      <trkpt lat="44.33811" lon="3.74315">
        <ele>1034</ele>
        <time>2018-04-01T04:40:01Z</time>
      </trkpt>
      <trkpt lat="44.338" lon="3.74404">
        <ele>1020</ele>
        <time>2018-04-01T04:41:01Z</time>
      </trkpt>
      <trkpt lat="44.33757" lon="3.74461">
        <ele>1016</ele>
        <time>2018-04-01T04:42:01Z</time>
      </trkpt>
      <trkpt lat="44.33799" lon="3.74466">
        <ele>1015</ele>
        <time>2018-04-01T04:43:01Z</time>
      </trkpt>
      <trkpt lat="44.33833" lon="3.74446">
        <ele>1013</ele>
        <time>2018-04-01T04:44:01Z</time>
      </trkpt>
      <trkpt lat="44.33885" lon="3.74437">
        <ele>1010</ele>
        <time>2018-04-01T04:45:01Z</time>
      </trkpt>
      <trkpt lat="44.33927" lon="3.74419">
        <ele>1009</ele>
        <time>2018-04-01T04:46:01Z</time>
      </trkpt>
      <trkpt lat="44.33952" lon="3.74463">
        <ele>1013</ele>
        <time>2018-04-01T04:47:01Z</time>
      </trkpt>
      <trkpt lat="44.33952" lon="3.74557">
        <ele>1008</ele>
        <time>2018-04-01T04:48:01Z</time>
      </trkpt>
      <trkpt lat="44.33929" lon="3.74652">
        <ele>1005</ele>
        <time>2018-04-01T04:49:01Z</time>
      </trkpt>
      <trkpt lat="44.33937" lon="3.7471">
        <ele>1000</ele>
        <time>2018-04-01T04:50:01Z</time>
      </trkpt>
      <trkpt lat="44.33924" lon="3.7478">
        <ele>1002</ele>
        <time>2018-04-01T04:51:01Z</time>
      </trkpt>
      <trkpt lat="44.33912" lon="3.74908">
        <ele>1010</ele>
        <time>2018-04-01T04:52:01Z</time>
      </trkpt>
      <trkpt lat="44.33896" lon="3.74934">
        <ele>1012</ele>
        <time>2018-04-01T04:53:01Z</time>
      </trkpt>
      <trkpt lat="44.33838" lon="3.74963">
        <ele>1016</ele>
        <time>2018-04-01T04:54:01Z</time>
      </trkpt>
      <trkpt lat="44.33805" lon="3.74948">
        <ele>1028</ele>
        <time>2018-04-01T04:55:01Z</time>
      </trkpt>
      <trkpt lat="44.33752" lon="3.74979">
        <ele>1031</ele>
        <time>2018-04-01T04:56:01Z</time>
      </trkpt>
      <trkpt lat="44.33678" lon="3.74999">
        <ele>1047</ele>
        <time>2018-04-01T04:57:01Z</time>
      </trkpt>
      <trkpt lat="44.3344" lon="3.75165">
        <ele>1077</ele>
        <time>2018-04-01T04:58:01Z</time>
      </trkpt>
      <trkpt lat="44.33306" lon="3.75325">
        <ele>1084</ele>
        <time>2018-04-01T04:59:01Z</time>
      </trkpt>
      <trkpt lat="44.33221" lon="3.75355">
        <ele>1088</ele>
        <time>2018-04-01T05:00:01Z</time>
      </trkpt>
      <trkpt lat="44.33198" lon="3.7537">
        <ele>1089</ele>
        <time>2018-04-01T05:01:01Z</time>
      </trkpt>
      <trkpt lat="44.33172" lon="3.75373">
        <ele>1090</ele>
        <time>2018-04-01T05:02:01Z</time>
      </trkpt>
      <trkpt lat="44.33101" lon="3.75432">
        <ele>1107</ele>
        <time>2018-04-01T05:03:01Z</time>
      </trkpt>
      <trkpt lat="44.33027" lon="3.75428">
        <ele>1122</ele>
        <time>2018-04-01T05:04:01Z</time>
      </trkpt>
      <trkpt lat="44.32952" lon="3.75386">
        <ele>1140</ele>
        <time>2018-04-01T05:05:01Z</time>
      </trkpt>
      <trkpt lat="44.32912" lon="3.75283">
        <ele>1151</ele>
        <time>2018-04-01T05:06:01Z</time>
      </trkpt>
      <trkpt lat="44.32848" lon="3.75237">
        <ele>1146</ele>
        <time>2018-04-01T05:07:01Z</time>
      </trkpt>
      <trkpt lat="44.32745" lon="3.75219">
        <ele>1163</ele>
        <time>2018-04-01T05:08:01Z</time>
      </trkpt>
      <trkpt lat="44.32726" lon="3.75199">
        <ele>1163</ele>
        <time>2018-04-01T05:09:01Z</time>
      </trkpt>
      <trkpt lat="44.32689" lon="3.75113">
        <ele>1158</ele>
        <time>2018-04-01T05:10:01Z</time>
      </trkpt>
      <trkpt lat="44.32649" lon="3.7505">
        <ele>1167</ele>
        <time>2018-04-01T05:11:01Z</time>
      </trkpt>
      <trkpt lat="44.32526" lon="3.74909">
        <ele>1175</ele>
        <time>2018-04-01T05:12:01Z</time>
      </trkpt>
      <trkpt lat="44.32373" lon="3.74759">
        <ele>1202</ele>
        <time>2018-04-01T05:13:01Z</time>
      </trkpt>
      <trkpt lat="44.32307" lon="3.74723">
        <ele>1203</ele>
        <time>2018-04-01T05:14:01Z</time>
      </trkpt>
      <trkpt lat="44.32262" lon="3.74727">
        <ele>1207</ele>
        <time>2018-04-01T05:15:01Z</time>
      </trkpt>
      <trkpt lat="44.32204" lon="3.74756">
        <ele>1223</ele>
        <time>2018-04-01T05:16:01Z</time>
      </trkpt>
      <trkpt lat="44.32148" lon="3.74798">
        <ele>1223</ele>
        <time>2018-04-01T05:17:01Z</time>
      </trkpt>
      <trkpt lat="44.32126" lon="3.7482">
        <ele>1225</ele>
        <time>2018-04-01T05:18:01Z</time>
      </trkpt>
      <trkpt lat="44.3205" lon="3.7493">
        <ele>1262</ele>
        <time>2018-04-01T05:19:01Z</time>
      </trkpt>
      <trkpt lat="44.3202" lon="3.74935">
        <ele>1263</ele>
        <time>2018-04-01T05:20:01Z</time>
      </trkpt>
      <trkpt lat="44.31973" lon="3.74905">
        <ele>1261</ele>
        <time>2018-04-01T05:21:01Z</time>
      </trkpt>
      <trkpt lat="44.31928" lon="3.74855">
        <ele>1263</ele>
        <time>2018-04-01T05:22:01Z</time>
      </trkpt>
      <trkpt lat="44.31897" lon="3.74804">
        <ele>1271</ele>
        <time>2018-04-01T05:23:01Z</time>
      </trkpt>
      <trkpt lat="44.31806" lon="3.74699">
        <ele>1287</ele>
        <time>2018-04-01T05:24:01Z</time>
      </trkpt>
      <trkpt lat="44.31684" lon="3.74596">
        <ele>1302</ele>
        <time>2018-04-01T05:25:01Z</time>
      </trkpt>
      <trkpt lat="44.3167" lon="3.74515">
        <ele>1303</ele>
        <time>2018-04-01T05:26:01Z</time>
      </trkpt>
      <trkpt lat="44.31634" lon="3.74431">
        <ele>1308</ele>
        <time>2018-04-01T05:27:01Z</time>
      </trkpt>
      <trkpt lat="44.316" lon="3.7431">
        <ele>1317</ele>
        <time>2018-04-01T05:28:01Z</time>
      </trkpt>
      <trkpt lat="44.31584" lon="3.74218">
        <ele>1322</ele>
        <time>2018-04-01T05:29:01Z</time>
      </trkpt>
      <trkpt lat="44.3156" lon="3.74119">
        <ele>1334</ele>
        <time>2018-04-01T05:30:01Z</time>
      </trkpt>
      <trkpt lat="44.31532" lon="3.73928">
        <ele>1363</ele>
        <time>2018-04-01T05:31:01Z</time>
      </trkpt>
      <trkpt lat="44.3149" lon="3.73678">
        <ele>1392</ele>
        <time>2018-04-01T05:32:01Z</time>
      </trkpt>
      <trkpt lat="44.31556" lon="3.73603">
        <ele>1389</ele>
        <time>2018-04-01T05:33:01Z</time>
      </trkpt>
      <trkpt lat="44.31634" lon="3.73497">
        <ele>1373</ele>
        <time>2018-04-01T05:34:01Z</time>
      </trkpt>
      <trkpt lat="44.31707" lon="3.72986">
        <ele>1390</ele>
        <time>2018-04-01T05:35:01Z</time>
      </trkpt>
      <trkpt lat="44.31765" lon="3.72791">
        <ele>1407</ele>
        <time>2018-04-01T05:36:01Z</time>
      </trkpt>
      <trkpt lat="44.31727" lon="3.72505">
        <ele>1412</ele>
        <time>2018-04-01T05:37:01Z</time>
      </trkpt>
      <trkpt lat="44.31671" lon="3.72295">
        <ele>1402</ele>
        <time>2018-04-01T05:38:01Z</time>
      </trkpt>
      <trkpt lat="44.31663" lon="3.72168">
        <ele>1397</ele>
        <time>2018-04-01T05:39:01Z</time>
      </trkpt>
      <trkpt lat="44.31673" lon="3.72039">
        <ele>1381</ele>
        <time>2018-04-01T05:40:01Z</time>
      </trkpt>
      <trkpt lat="44.31816" lon="3.71788">
        <ele>1350</ele>
        <time>2018-04-01T05:41:01Z</time>
      </trkpt>
      <trkpt lat="44.31997" lon="3.71622">
        <ele>1304</ele>
        <time>2018-04-01T05:42:01Z</time>
      </trkpt>
      <trkpt lat="44.31917" lon="3.71501">
        <ele>1294</ele>
        <time>2018-04-01T05:43:01Z</time>
      </trkpt>
      <trkpt lat="44.31911" lon="3.71428">
        <ele>1285</ele>
        <time>2018-04-01T05:44:01Z</time>
      </trkpt>
      <trkpt lat="44.31891" lon="3.71385">
        <ele>1278</ele>
        <time>2018-04-01T05:45:01Z</time>
      </trkpt>
      <trkpt lat="44.31875" lon="3.71277">
        <ele>1261</ele>
        <time>2018-04-01T05:46:01Z</time>
      </trkpt>
      <trkpt lat="44.31873" lon="3.71216">
        <ele>1249</ele>
        <time>2018-04-01T05:47:01Z</time>
      </trkpt>
      <trkpt lat="44.31859" lon="3.71174">
        <ele>1246</ele>
        <time>2018-04-01T05:48:01Z</time>
      </trkpt>
      <trkpt lat="44.31827" lon="3.71141">
        <ele>1235</ele>
        <time>2018-04-01T05:49:01Z</time>
      </trkpt>
      <trkpt lat="44.3197" lon="3.70853">
        <ele>1198</ele>
        <time>2018-04-01T05:50:01Z</time>
      </trkpt>
      <trkpt lat="44.32006" lon="3.7084">
        <ele>1197</ele>
        <time>2018-04-01T05:51:01Z</time>
      </trkpt>
      <trkpt lat="44.32051" lon="3.70783">
        <ele>1191</ele>
        <time>2018-04-01T05:52:01Z</time>
      </trkpt>
      <trkpt lat="44.32084" lon="3.70692">
        <ele>1183</ele>
        <time>2018-04-01T05:53:01Z</time>
      </trkpt>
      <trkpt lat="44.32105" lon="3.70668">
        <ele>1182</ele>
        <time>2018-04-01T05:54:01Z</time>
      </trkpt>
      <trkpt lat="44.32126" lon="3.70606">
        <ele>1174</ele>
        <time>2018-04-01T05:55:01Z</time>
      </trkpt>
      <trkpt lat="44.32176" lon="3.70535">
        <ele>1172</ele>
        <time>2018-04-01T05:56:01Z</time>
      </trkpt>
      <trkpt lat="44.32186" lon="3.70492">
        <ele>1171</ele>
        <time>2018-04-01T05:57:01Z</time>
      </trkpt>
      <trkpt lat="44.32214" lon="3.7042">
        <ele>1171</ele>
        <time>2018-04-01T05:58:01Z</time>
      </trkpt>
      <trkpt lat="44.3222" lon="3.70364">
        <ele>1169</ele>
        <time>2018-04-01T05:59:01Z</time>
      </trkpt>
      <trkpt lat="44.32252" lon="3.70298">
        <ele>1170</ele>
        <time>2018-04-01T06:00:01Z</time>
      </trkpt>
      <trkpt lat="44.32278" lon="3.70166">
        <ele>1165</ele>
        <time>2018-04-01T06:01:01Z</time>
      </trkpt>
      <trkpt lat="44.32289" lon="3.70078">
        <ele>1157</ele>
        <time>2018-04-01T06:02:01Z</time>
      </trkpt>
      <trkpt lat="44.32311" lon="3.70031">
        <ele>1156</ele>
        <time>2018-04-01T06:03:01Z</time>
      </trkpt>
      <trkpt lat="44.32384" lon="3.69953">
        <ele>1143</ele>
        <time>2018-04-01T06:04:01Z</time>
      </trkpt>
      <trkpt lat="44.32446" lon="3.69827">
        <ele>1136</ele>
        <time>2018-04-01T06:05:01Z</time>
      </trkpt>
      <trkpt lat="44.3243" lon="3.69768">
        <ele>1133</ele>
        <time>2018-04-01T06:06:01Z</time>
      </trkpt>
      <trkpt lat="44.32444" lon="3.69753">
        <ele>1133</ele>
        <time>2018-04-01T06:07:01Z</time>
      </trkpt>
      <trkpt lat="44.32474" lon="3.69642">
        <ele>1118</ele>
        <time>2018-04-01T06:08:01Z</time>
      </trkpt>
      <trkpt lat="44.32495" lon="3.69576">
        <ele>1118</ele>
        <time>2018-04-01T06:09:01Z</time>
      </trkpt>
      <trkpt lat="44.3252" lon="3.69282">
        <ele>1113</ele>
        <time>2018-04-01T06:10:01Z</time>
      </trkpt>
      <trkpt lat="44.32549" lon="3.69088">
        <ele>1108</ele>
        <time>2018-04-01T06:11:01Z</time>
      </trkpt>
      <trkpt lat="44.32511" lon="3.68955">
        <ele>1095</ele>
        <time>2018-04-01T06:12:01Z</time>
      </trkpt>
      <trkpt lat="44.32496" lon="3.68871">
        <ele>1076</ele>
        <time>2018-04-01T06:13:01Z</time>
      </trkpt>
      <trkpt lat="44.32503" lon="3.68769">
        <ele>1089</ele>
        <time>2018-04-01T06:14:01Z</time>
      </trkpt>
      <trkpt lat="44.32497" lon="3.68731">
        <ele>1075</ele>
        <time>2018-04-01T06:15:01Z</time>
      </trkpt>
      <trkpt lat="44.32555" lon="3.68498">
        <ele>1076</ele>
        <time>2018-04-01T06:16:01Z</time>
      </trkpt>
      <trkpt lat="44.32617" lon="3.68279">
        <ele>1074</ele>
        <time>2018-04-01T06:17:01Z</time>
      </trkpt>
      <trkpt lat="44.32622" lon="3.6825">
        <ele>1074</ele>
        <time>2018-04-01T06:18:01Z</time>
      </trkpt>
      <trkpt lat="44.32624" lon="3.67984">
        <ele>1074</ele>
        <time>2018-04-01T06:19:01Z</time>
      </trkpt>
      <trkpt lat="44.32612" lon="3.67885">
        <ele>1072</ele>
        <time>2018-04-01T06:20:01Z</time>
      </trkpt>
      <trkpt lat="44.32655" lon="3.67716">
        <ele>1069</ele>
        <time>2018-04-01T06:21:01Z</time>
      </trkpt>
      <trkpt lat="44.32662" lon="3.67555">
        <ele>1068</ele>
        <time>2018-04-01T06:22:01Z</time>
      </trkpt>
      <trkpt lat="44.32639" lon="3.67449">
        <ele>1061</ele>
        <time>2018-04-01T06:23:01Z</time>
      </trkpt>
      <trkpt lat="44.32594" lon="3.67362">
        <ele>1054</ele>
        <time>2018-04-01T06:24:01Z</time>
      </trkpt>
      <trkpt lat="44.32527" lon="3.6728">
        <ele>1054</ele>
        <time>2018-04-01T06:25:01Z</time>
      </trkpt>
      <trkpt lat="44.3248" lon="3.67162">
        <ele>1043</ele>
        <time>2018-04-01T06:26:01Z</time>
      </trkpt>
      <trkpt lat="44.32496" lon="3.67056">
        <ele>1040</ele>
        <time>2018-04-01T06:27:01Z</time>
      </trkpt>
      <trkpt lat="44.3247" lon="3.67015">
        <ele>1040</ele>
        <time>2018-04-01T06:28:01Z</time>
      </trkpt>
      <trkpt lat="44.32459" lon="3.66953">
        <ele>1041</ele>
        <time>2018-04-01T06:29:01Z</time>
      </trkpt>
      <trkpt lat="44.32483" lon="3.66806">
        <ele>1045</ele>
        <time>2018-04-01T06:30:01Z</time>
      </trkpt>
      <trkpt lat="44.32488" lon="3.66693">
        <ele>1053</ele>
        <time>2018-04-01T06:31:01Z</time>
      </trkpt>
      <trkpt lat="44.32589" lon="3.6649">
        <ele>1057</ele>
        <time>2018-04-01T06:32:01Z</time>
      </trkpt>
      <trkpt lat="44.32641" lon="3.66412">
        <ele>1062</ele>
        <time>2018-04-01T06:33:01Z</time>
      </trkpt>
      <trkpt lat="44.32678" lon="3.66346">
        <ele>1056</ele>
        <time>2018-04-01T06:34:01Z</time>
      </trkpt>
      <trkpt lat="44.32719" lon="3.66323">
        <ele>1060</ele>
        <time>2018-04-01T06:35:01Z</time>
      </trkpt>
      <trkpt lat="44.32785" lon="3.66317">
        <ele>1038</ele>
        <time>2018-04-01T06:36:01Z</time>
      </trkpt>
      <trkpt lat="44.32802" lon="3.66286">
        <ele>1036</ele>
        <time>2018-04-01T06:37:01Z</time>
      </trkpt>
      <trkpt lat="44.32816" lon="3.66215">
        <ele>1040</ele>
        <time>2018-04-01T06:38:01Z</time>
      </trkpt>
      <trkpt lat="44.32807" lon="3.66169">
        <ele>1041</ele>
        <time>2018-04-01T06:39:01Z</time>
      </trkpt>
      <trkpt lat="44.3281" lon="3.66084">
        <ele>1046</ele>
        <time>2018-04-01T06:40:01Z</time>
      </trkpt>
      <trkpt lat="44.32852" lon="3.66027">
        <ele>1026</ele>
        <time>2018-04-01T06:41:01Z</time>
      </trkpt>
      <trkpt lat="44.32902" lon="3.65883">
        <ele>1031</ele>
        <time>2018-04-01T06:42:01Z</time>
      </trkpt>
      <trkpt lat="44.32894" lon="3.65812">
        <ele>1030</ele>
        <time>2018-04-01T06:43:01Z</time>
      </trkpt>
      <trkpt lat="44.32922" lon="3.65771">
        <ele>1016</ele>
        <time>2018-04-01T06:44:01Z</time>
      </trkpt>
      <trkpt lat="44.32923" lon="3.65727">
        <ele>1020</ele>
        <time>2018-04-01T06:45:01Z</time>
      </trkpt>
      <trkpt lat="44.32939" lon="3.65681">
        <ele>1018</ele>
        <time>2018-04-01T06:46:01Z</time>
      </trkpt>
      <trkpt lat="44.3291" lon="3.65598">
        <ele>1031</ele>
        <time>2018-04-01T06:47:01Z</time>
      </trkpt>
      <trkpt lat="44.3287" lon="3.6554">
        <ele>1027</ele>
        <time>2018-04-01T06:48:01Z</time>
      </trkpt>
      <trkpt lat="44.32829" lon="3.65373">
        <ele>1005</ele>
        <time>2018-04-01T06:49:01Z</time>
      </trkpt>
      <trkpt lat="44.32844" lon="3.6533">
        <ele>1013</ele>
        <time>2018-04-01T06:50:01Z</time>
      </trkpt>
      <trkpt lat="44.32929" lon="3.65255">
        <ele>1024</ele>
        <time>2018-04-01T06:51:01Z</time>
      </trkpt>
      <trkpt lat="44.32994" lon="3.65157">
        <ele>1016</ele>
        <time>2018-04-01T06:52:01Z</time>
      </trkpt>
      <trkpt lat="44.32984" lon="3.65051">
        <ele>1012</ele>
        <time>2018-04-01T06:53:01Z</time>
      </trkpt>
      <trkpt lat="44.32898" lon="3.64967">
        <ele>990</ele>
        <time>2018-04-01T06:54:01Z</time>
      </trkpt>
      <trkpt lat="44.32863" lon="3.6489">
        <ele>990</ele>
        <time>2018-04-01T06:55:01Z</time>
      </trkpt>
      <trkpt lat="44.32873" lon="3.64735">
        <ele>974</ele>
        <time>2018-04-01T06:56:01Z</time>
      </trkpt>
      <trkpt lat="44.32968" lon="3.64608">
        <ele>979</ele>
        <time>2018-04-01T06:57:01Z</time>
      </trkpt>
      <trkpt lat="44.32985" lon="3.6452">
        <ele>969</ele>
        <time>2018-04-01T06:58:01Z</time>
      </trkpt>
      <trkpt lat="44.32969" lon="3.64378">
        <ele>956</ele>
        <time>2018-04-01T06:59:01Z</time>
      </trkpt>
      <trkpt lat="44.32931" lon="3.64268">
        <ele>950</ele>
        <time>2018-04-01T07:00:01Z</time>
      </trkpt>
      <trkpt lat="44.32903" lon="3.64242">
        <ele>954</ele>
      </trkpt>
      <trkpt lat="44.32886" lon="3.64205">
        <ele>957</ele>
      </trkpt>
      <trkpt lat="44.32867" lon="3.64039">
        <ele>963</ele>
      </trkpt>
      <trkpt lat="44.32858" lon="3.63912">
        <ele>957</ele>
      </trkpt>
      <trkpt lat="44.32828" lon="3.63868">
        <ele>966</ele>
      </trkpt>
      <trkpt lat="44.32822" lon="3.63808">
        <ele>968</ele>
      </trkpt>
      <trkpt lat="44.32845" lon="3.63716">
        <ele>962</ele>
      </trkpt>
      <trkpt lat="44.32831" lon="3.63671">
        <ele>969</ele>
      </trkpt>
      <trkpt lat="44.32803" lon="3.63617">
        <ele>963</ele>
      </trkpt>
      <trkpt lat="44.32781" lon="3.63575">
        <ele>958</ele>
      </trkpt>
      <trkpt lat="44.32773" lon="3.63495">
        <ele>951</ele>
      </trkpt>
      <trkpt lat="44.32787" lon="3.63426">
        <ele>944</ele>
      </trkpt>
      <trkpt lat="44.32854" lon="3.63108">
        <ele>936</ele>
      </trkpt>
      <trkpt lat="44.32855" lon="3.6296">
        <ele>946</ele>
      </trkpt>
      <trkpt lat="44.32892" lon="3.62792">
        <ele>962</ele>
      </trkpt>
      <trkpt lat="44.32841" lon="3.62748">
        <ele>968</ele>
      </trkpt>
      <trkpt lat="44.32776" lon="3.62677">
        <ele>968</ele>
      </trkpt>
      <trkpt lat="44.32738" lon="3.62632">
        <ele>968</ele>
      </trkpt>
      <trkpt lat="44.32691" lon="3.62596">
        <ele>962</ele>
      </trkpt>
      <trkpt lat="44.32673" lon="3.62578">
        <ele>961</ele>
      </trkpt>
      <trkpt lat="44.32665" lon="3.62555">
        <ele>949</ele>
      </trkpt>
      <trkpt lat="44.32681" lon="3.62459">
        <ele>970</ele>
      </trkpt>
      <trkpt lat="44.32687" lon="3.62356">
        <ele>964</ele>
      </trkpt>
      <trkpt lat="44.32655" lon="3.62227">
        <ele>937</ele>
      </trkpt>
      <trkpt lat="44.32645" lon="3.6217">
        <ele>937</ele>
      </trkpt>
      <trkpt lat="44.3266" lon="3.62126">
        <ele>930</ele>
      </trkpt>
      <trkpt lat="44.32688" lon="3.62088">
        <ele>947</ele>
      </trkpt>
      <trkpt lat="44.32737" lon="3.62022">
        <ele>940</ele>
      </trkpt>
      <trkpt lat="44.32737" lon="3.61983">
        <ele>929</ele>
      </trkpt>
      <trkpt lat="44.32747" lon="3.61909">
        <ele>927</ele>
      </trkpt>
      <trkpt lat="44.32683" lon="3.61728">
        <ele>923</ele>
      </trkpt>
      <trkpt lat="44.32671" lon="3.61692">
        <ele>922</ele>
      </trkpt>
      <trkpt lat="44.32666" lon="3.61658">
        <ele>908</ele>
      </trkpt>
      <trkpt lat="44.32684" lon="3.61607">
        <ele>917</ele>
      </trkpt>
      <trkpt lat="44.32707" lon="3.61563">
        <ele>906</ele>
      </trkpt>
      <trkpt lat="44.32757" lon="3.61512">
        <ele>916</ele>
      </trkpt>
      <trkpt lat="44.32814" lon="3.61463">
        <ele>907</ele>
      </trkpt>
      <trkpt lat="44.32902" lon="3.61432">
        <ele>921</ele>
      </trkpt>
      <trkpt lat="44.32971" lon="3.6134">
        <ele>911</ele>
      </trkpt>
      <trkpt lat="44.33039" lon="3.61287">
        <ele>901</ele>
      </trkpt>
      <trkpt lat="44.33111" lon="3.61247">
        <ele>895</ele>
      </trkpt>
      <trkpt lat="44.3314" lon="3.61184">
        <ele>893</ele>
        <time>2018-04-01T07:54:01Z</time>
      </trkpt>
      <trkpt lat="44.33108" lon="3.6103">
        <ele>890</ele>
        <time>2018-04-01T07:55:01Z</time>
      </trkpt>
      <trkpt lat="44.33081" lon="3.60986">
        <ele>880</ele>
      </trkpt>
      <trkpt lat="44.33023" lon="3.60917">
        <ele>871</ele>
        <time>2018-04-01T07:56:01Z</time>
      </trkpt>
      <trkpt lat="44.32992" lon="3.60883">
        <ele>860</ele>
      </trkpt>
      <trkpt lat="44.3297" lon="3.60845">
        <ele>860</ele>
        <time>2018-04-01T07:57:01Z</time>
      </trkpt>
      <trkpt lat="44.32945" lon="3.60777">
        <ele>866</ele>
        <time>2018-04-01T07:58:01Z</time>
      </trkpt>
      <trkpt lat="44.32915" lon="3.60738">
        <ele>853</ele>
      </trkpt>
      <trkpt lat="44.32893" lon="3.60689">
        <ele>849</ele>
        <time>2018-04-01T07:59:01Z</time>
      </trkpt>
      <trkpt lat="44.32881" lon="3.60619">
        <ele>843</ele>
      </trkpt>
      <trkpt lat="44.3287" lon="3.6053">
        <ele>836</ele>
      </trkpt>
      <trkpt lat="44.32888" lon="3.60455">
        <ele>831</ele>
      </trkpt>
      <trkpt lat="44.32911" lon="3.60365">
        <ele>820</ele>
      </trkpt>
      <trkpt lat="44.32947" lon="3.60294">
        <ele>819</ele>
      </trkpt>
      <trkpt lat="44.32991" lon="3.60233">
        <ele>812</ele>
      </trkpt>
      <trkpt lat="44.32999" lon="3.60157">
        <ele>803</ele>
      </trkpt>
      <trkpt lat="44.33014" lon="3.60091">
        <ele>805</ele>
        <time>2018-04-01T08:03:01Z</time>
      </trkpt>
      <trkpt lat="44.33014" lon="3.60072">
        <ele>796</ele>
        <time>2018-04-01T08:04:01Z</time>
      </trkpt>
      <trkpt lat="44.33022" lon="3.60014">
        <ele>789</ele>
        <time>2018-04-01T08:05:01Z</time>
      </trkpt>
      <trkpt lat="44.33056" lon="3.59935">
        <ele>771</ele>
        <time>2018-04-01T08:06:01Z</time>
      </trkpt>
      <trkpt lat="44.3308" lon="3.59895">
        <ele>755</ele>
        <time>2018-04-01T08:07:01Z</time>
      </trkpt>
      <trkpt lat="44.33112" lon="3.59876">
        <ele>760</ele>
        <time>2018-04-01T08:08:01Z</time>
      </trkpt>
      <trkpt lat="44.33146" lon="3.59832">
        <ele>743</ele>
        <time>2018-04-01T08:09:01Z</time>
      </trkpt>
      <trkpt lat="44.33141" lon="3.59808">
        <ele>738</ele>
      </trkpt>
      <trkpt lat="44.33142" lon="3.59781">
        <ele>733</ele>
        <time>2018-04-01T08:10:01Z</time>
      </trkpt>
      <trkpt lat="44.33193" lon="3.59702">
        <ele>724</ele>
        <time>2018-04-01T08:11:01Z</time>
      </trkpt>
      <trkpt lat="44.33232" lon="3.59495">
        <ele>680</ele>
        <time>2018-04-01T08:12:01Z</time>
      </trkpt>
      <trkpt lat="44.33247" lon="3.5945">
        <ele>675</ele>
        <time>2018-04-01T08:13:01Z</time>
      </trkpt>
      <trkpt lat="44.33276" lon="3.59413">
        <ele>664</ele>
        <time>2018-04-01T08:14:01Z</time>
      </trkpt>
      <trkpt lat="44.3328" lon="3.59398">
        <ele>662</ele>
        <time>2018-04-01T08:15:01Z</time>
      </trkpt>
      <trkpt lat="44.33273" lon="3.59369">
        <ele>659</ele>
        <time>2018-04-01T08:16:01Z</time>
      </trkpt>
      <trkpt lat="44.33254" lon="3.59352">
        <ele>658</ele>
        <time>2018-04-01T08:17:01Z</time>
      </trkpt>
      <trkpt lat="44.3325" lon="3.59337">
        <ele>657</ele>
        <time>2018-04-01T08:18:01Z</time>
      </trkpt>
      <trkpt lat="44.33259" lon="3.59326">
        <ele>652</ele>
        <time>2018-04-01T08:19:01Z</time>
      </trkpt>
      <trkpt lat="44.33279" lon="3.59315">
        <ele>647</ele>
        <time>2018-04-01T08:20:01Z</time>
      </trkpt>
      <trkpt lat="44.33295" lon="3.59296">
        <ele>644</ele>
        <time>2018-04-01T08:21:01Z</time>
      </trkpt>
      <trkpt lat="44.33317" lon="3.59267">
        <ele>640</ele>
      </trkpt>
      <trkpt lat="44.33347" lon="3.59236">
        <ele>625</ele>
        <time>2018-04-01T08:23:01Z</time>
      </trkpt>
      <trkpt lat="44.33348" lon="3.59215">
        <ele>621</ele>
        <time>2018-04-01T08:24:01Z</time>
      </trkpt>
      <trkpt lat="44.33333" lon="3.59115">
        <ele>603</ele>
        <time>2018-04-01T08:25:01Z</time>
      </trkpt>
      <trkpt lat="44.33328" lon="3.59091">
        <ele>601</ele>
        <time>2018-04-01T08:26:01Z</time>
      </trkpt>
      <trkpt lat="44.33314" lon="3.5906">
        <ele>590</ele>
        <time>2018-04-01T08:27:01Z</time>
      </trkpt>
      <trkpt lat="44.33272" lon="3.59038">
        <ele>582</ele>
        <time>2018-04-01T08:28:01Z</time>
      </trkpt>
      <trkpt lat="44.33226" lon="3.59058">
        <ele>566</ele>
        <time>2018-04-01T08:29:01Z</time>
      </trkpt>
      <trkpt lat="44.33202" lon="3.59076">
        <ele>561</ele>
      </trkpt>
      <trkpt lat="44.33187" lon="3.59097">
        <ele>568</ele>
        <time>2018-04-01T08:30:01Z</time>
      </trkpt>
      <trkpt lat="44.33176" lon="3.59115">
        <ele>571</ele>
        <time>2018-04-01T08:31:01Z</time>
      </trkpt>
      <trkpt lat="44.33155" lon="3.59123">
        <ele>555</ele>
        <time>2018-04-01T08:32:01Z</time>
      </trkpt>
      <trkpt lat="44.33106" lon="3.59057">
        <ele>544</ele>
        <time>2018-04-01T08:33:01Z</time>
      </trkpt>
      <trkpt lat="44.33067" lon="3.5905">
        <ele>543</ele>
        <time>2018-04-01T08:34:01Z</time>
      </trkpt>
      <trkpt lat="44.32992" lon="3.59096">
        <ele>545</ele>
        <time>2018-04-01T08:35:01Z</time>
      </trkpt>
      <trkpt lat="44.32332" lon="3.59617">
        <ele>548</ele>
        <time>2018-04-01T08:36:01Z</time>
      </trkpt>
      <trkpt lat="44.32109" lon="3.59661">
        <ele>551</ele>
        <time>2018-04-01T08:37:01Z</time>
      </trkpt>
      <trkpt lat="44.3197" lon="3.59756">
        <ele>548</ele>
        <time>2018-04-01T08:38:01Z</time>
      </trkpt>
      <trkpt lat="44.31789" lon="3.59804">
        <ele>552</ele>
        <time>2018-04-01T08:39:01Z</time>
      </trkpt>
      <trkpt lat="44.31637" lon="3.59808">
        <ele>560</ele>
        <time>2018-04-01T08:40:01Z</time>
      </trkpt>
      <trkpt lat="44.31519" lon="3.59771">
        <ele>566</ele>
        <time>2018-04-01T08:41:01Z</time>
      </trkpt>
      <trkpt lat="44.31356" lon="3.5978">
        <ele>560</ele>
        <time>2018-04-01T08:42:01Z</time>
      </trkpt>
      <trkpt lat="44.31265" lon="3.59824">
        <ele>557</ele>
        <time>2018-04-01T08:43:01Z</time>
      </trkpt>
      <trkpt lat="44.31265" lon="3.59866">
        <ele>564</ele>
        <time>2018-04-01T08:44:01Z</time>
      </trkpt>
      <trkpt lat="44.31305" lon="3.59889">
        <ele>569</ele>
        <time>2018-04-01T08:45:01Z</time>
      </trkpt>
      <trkpt lat="44.3141" lon="3.59884">
        <ele>574</ele>
        <time>2018-04-01T08:46:01Z</time>
      </trkpt>
      <trkpt lat="44.31497" lon="3.59931">
        <ele>578</ele>
        <time>2018-04-01T08:47:01Z</time>
      </trkpt>
      <trkpt lat="44.31562" lon="3.59997">
        <ele>562</ele>
        <time>2018-04-01T08:48:01Z</time>
      </trkpt>
      <trkpt lat="44.31556" lon="3.60104">
        <ele>570</ele>
        <time>2018-04-01T08:49:01Z</time>
      </trkpt>
      <trkpt lat="44.31545" lon="3.60131">
        <ele>573</ele>
        <time>2018-04-01T08:50:01Z</time>
      </trkpt>
      <trkpt lat="44.3151" lon="3.60333">
        <ele>573</ele>
        <time>2018-04-01T08:51:01Z</time>
      </trkpt>
      <trkpt lat="44.31515" lon="3.60383">
        <ele>570</ele>
        <time>2018-04-01T08:52:01Z</time>
      </trkpt>
      <trkpt lat="44.31568" lon="3.60567">
        <ele>570</ele>
        <time>2018-04-01T08:53:01Z</time>
      </trkpt>
      <trkpt lat="44.31542" lon="3.60614">
        <ele>577</ele>
        <time>2018-04-01T08:54:01Z</time>
      </trkpt>
      <trkpt lat="44.31557" lon="3.60643">
        <ele>577</ele>
        <time>2018-04-01T08:55:01Z</time>
      </trkpt>
      <trkpt lat="44.3161" lon="3.6062">
        <ele>568</ele>
        <time>2018-04-01T08:56:01Z</time>
      </trkpt>
      <trkpt lat="44.31724" lon="3.60722">
        <ele>578</ele>
        <time>2018-04-01T08:57:01Z</time>
      </trkpt>
      <trkpt lat="44.31782" lon="3.60812">
        <ele>576</ele>
        <time>2018-04-01T08:58:01Z</time>
      </trkpt>
      <trkpt lat="44.3179" lon="3.60902">
        <ele>582</ele>
        <time>2018-04-01T08:59:01Z</time>
      </trkpt>
      <trkpt lat="44.31674" lon="3.61102">
        <ele>594</ele>
        <time>2018-04-01T09:00:01Z</time>
      </trkpt>
      <trkpt lat="44.31606" lon="3.61133">
        <ele>604</ele>
        <time>2018-04-01T09:01:01Z</time>
      </trkpt>
      <trkpt lat="44.31528" lon="3.61139">
        <ele>618</ele>
        <time>2018-04-01T09:02:01Z</time>
      </trkpt>
      <trkpt lat="44.31442" lon="3.61183">
        <ele>615</ele>
        <time>2018-04-01T09:03:01Z</time>
      </trkpt>
      <trkpt lat="44.31378" lon="3.61243">
        <ele>634</ele>
        <time>2018-04-01T09:04:01Z</time>
      </trkpt>
      <trkpt lat="44.31324" lon="3.61355">
        <ele>629</ele>
        <time>2018-04-01T09:05:01Z</time>
      </trkpt>
      <trkpt lat="44.31265" lon="3.6173">
        <ele>603</ele>
        <time>2018-04-01T09:06:01Z</time>
      </trkpt>
      <trkpt lat="44.31197" lon="3.61799">
        <ele>610</ele>
        <time>2018-04-01T09:07:01Z</time>
      </trkpt>
      <trkpt lat="44.31139" lon="3.61849">
        <ele>616</ele>
        <time>2018-04-01T09:08:01Z</time>
      </trkpt>
      <trkpt lat="44.31143" lon="3.61872">
        <ele>616</ele>
        <time>2018-04-01T09:09:01Z</time>
      </trkpt>
      <trkpt lat="44.31202" lon="3.61892">
        <ele>605</ele>
        <time>2018-04-01T09:10:01Z</time>
      </trkpt>
      <trkpt lat="44.3125" lon="3.61877">
        <ele>599</ele>
        <time>2018-04-01T09:11:01Z</time>
      </trkpt>
      <trkpt lat="44.313" lon="3.61885">
        <ele>588</ele>
        <time>2018-04-01T09:12:01Z</time>
      </trkpt>
      <trkpt lat="44.31301" lon="3.61902">
        <ele>588</ele>
        <time>2018-04-01T09:13:01Z</time>
      </trkpt>
      <trkpt lat="44.31251" lon="3.61948">
        <ele>598</ele>
        <time>2018-04-01T09:14:01Z</time>
      </trkpt>
      <trkpt lat="44.31243" lon="3.61994">
        <ele>610</ele>
        <time>2018-04-01T09:15:01Z</time>
      </trkpt>
      <trkpt lat="44.31252" lon="3.62067">
        <ele>609</ele>
        <time>2018-04-01T09:16:01Z</time>
      </trkpt>
      <trkpt lat="44.31358" lon="3.62288">
        <ele>623</ele>
        <time>2018-04-01T09:17:01Z</time>
      </trkpt>
      <trkpt lat="44.31461" lon="3.6239">
        <ele>619</ele>
        <time>2018-04-01T09:18:01Z</time>
      </trkpt>
      <trkpt lat="44.31545" lon="3.62438">
        <ele>610</ele>
        <time>2018-04-01T09:19:01Z</time>
      </trkpt>
      <trkpt lat="44.31556" lon="3.62481">
        <ele>613</ele>
        <time>2018-04-01T09:20:01Z</time>
      </trkpt>
      <trkpt lat="44.31585" lon="3.62534">
        <ele>597</ele>
        <time>2018-04-01T09:21:01Z</time>
      </trkpt>
      <trkpt lat="44.3148" lon="3.62594">
        <ele>625</ele>
        <time>2018-04-01T09:22:01Z</time>
      </trkpt>
      <trkpt lat="44.31422" lon="3.62659">
        <ele>623</ele>
        <time>2018-04-01T09:23:01Z</time>
      </trkpt>
      <trkpt lat="44.31283" lon="3.62866">
        <ele>617</ele>
        <time>2018-04-01T09:24:01Z</time>
      </trkpt>
      <trkpt lat="44.31244" lon="3.62958">
        <ele>631</ele>
        <time>2018-04-01T09:25:01Z</time>
      </trkpt>
      <trkpt lat="44.31233" lon="3.63018">
        <ele>620</ele>
        <time>2018-04-01T09:26:01Z</time>
      </trkpt>
      <trkpt lat="44.31178" lon="3.63085">
        <ele>636</ele>
        <time>2018-04-01T09:27:01Z</time>
      </trkpt>
      <trkpt lat="44.31106" lon="3.63143">
        <ele>656</ele>
        <time>2018-04-01T09:28:01Z</time>
      </trkpt>
      <trkpt lat="44.31029" lon="3.63142">
        <ele>675</ele>
        <time>2018-04-01T09:29:01Z</time>
      </trkpt>
      <trkpt lat="44.30861" lon="3.63052">
        <ele>704</ele>
        <time>2018-04-01T09:30:01Z</time>
      </trkpt>
      <trkpt lat="44.30855" lon="3.63065">
        <ele>703</ele>
        <time>2018-04-01T09:31:01Z</time>
      </trkpt>
      <trkpt lat="44.30895" lon="3.63134">
        <ele>701</ele>
        <time>2018-04-01T09:32:01Z</time>
      </trkpt>
      <trkpt lat="44.30935" lon="3.63229">
        <ele>691</ele>
        <time>2018-04-01T09:33:01Z</time>
      </trkpt>
      <trkpt lat="44.30951" lon="3.63366">
        <ele>700</ele>
        <time>2018-04-01T09:34:01Z</time>
      </trkpt>
      <trkpt lat="44.30978" lon="3.63364">
        <ele>695</ele>
        <time>2018-04-01T09:35:01Z</time>
      </trkpt>
      <trkpt lat="44.30905" lon="3.63537">
        <ele>695</ele>
        <time>2018-04-01T09:36:01Z</time>
      </trkpt>
      <trkpt lat="44.3081" lon="3.63655">
        <ele>694</ele>
        <time>2018-04-01T09:37:01Z</time>
      </trkpt>
      <trkpt lat="44.30761" lon="3.63715">
        <ele>684</ele>
        <time>2018-04-01T09:38:01Z</time>
      </trkpt>
      <trkpt lat="44.30682" lon="3.63915">
        <ele>678</ele>
        <time>2018-04-01T09:39:01Z</time>
      </trkpt>
      <trkpt lat="44.30616" lon="3.6399">
        <ele>685</ele>
        <time>2018-04-01T09:40:01Z</time>
      </trkpt>
      <trkpt lat="44.3065" lon="3.64118">
        <ele>657</ele>
        <time>2018-04-01T09:41:01Z</time>
      </trkpt>
      <trkpt lat="44.30601" lon="3.64157">
        <ele>666</ele>
        <time>2018-04-01T09:42:01Z</time>
      </trkpt>
      <trkpt lat="44.30639" lon="3.64387">
        <ele>672</ele>
        <time>2018-04-01T09:43:01Z</time>
      </trkpt>
      <trkpt lat="44.30567" lon="3.64601">
        <ele>684</ele>
        <time>2018-04-01T09:44:01Z</time>
      </trkpt>
      <trkpt lat="44.30497" lon="3.64659">
        <ele>700</ele>
        <time>2018-04-01T09:45:01Z</time>
      </trkpt>
      <trkpt lat="44.30515" lon="3.6479">
        <ele>675</ele>
        <time>2018-04-01T09:46:01Z</time>
      </trkpt>
      <trkpt lat="44.30452" lon="3.64966">
        <ele>700</ele>
        <time>2018-04-01T09:47:01Z</time>
      </trkpt>
      <trkpt lat="44.30397" lon="3.65026">
        <ele>708</ele>
        <time>2018-04-01T09:48:01Z</time>
      </trkpt>
      <trkpt lat="44.30334" lon="3.65075">
        <ele>708</ele>
        <time>2018-04-01T09:49:01Z</time>
      </trkpt>
      <trkpt lat="44.30257" lon="3.65161">
        <ele>719</ele>
        <time>2018-04-01T09:50:01Z</time>
      </trkpt>
      <trkpt lat="44.30269" lon="3.65202">
        <ele>711</ele>
        <time>2018-04-01T09:51:01Z</time>
      </trkpt>
      <trkpt lat="44.30273" lon="3.65352">
        <ele>723</ele>
        <time>2018-04-01T09:52:01Z</time>
      </trkpt>
      <trkpt lat="44.30299" lon="3.6548">
        <ele>729</ele>
        <time>2018-04-01T09:53:01Z</time>
      </trkpt>
      <trkpt lat="44.30319" lon="3.65514">
        <ele>730</ele>
        <time>2018-04-01T09:54:01Z</time>
      </trkpt>
      <trkpt lat="44.30348" lon="3.65624">
        <ele>718</ele>
        <time>2018-04-01T09:55:01Z</time>
      </trkpt>
      <trkpt lat="44.30341" lon="3.65715">
        <ele>713</ele>
        <time>2018-04-01T09:56:01Z</time>
      </trkpt>
      <trkpt lat="44.30275" lon="3.65809">
        <ele>721</ele>
        <time>2018-04-01T09:57:01Z</time>
      </trkpt>
      <trkpt lat="44.30149" lon="3.65902">
        <ele>731</ele>
        <time>2018-04-01T09:58:01Z</time>
      </trkpt>
      <trkpt lat="44.30114" lon="3.6586">
        <ele>737</ele>
        <time>2018-04-01T09:59:01Z</time>
      </trkpt>
      <trkpt lat="44.30079" lon="3.65848">
        <ele>740</ele>
        <time>2018-04-01T10:00:01Z</time>
      </trkpt>
      <trkpt lat="44.30055" lon="3.65865">
        <ele>735</ele>
        <time>2018-04-01T10:01:01Z</time>
      </trkpt>
      <trkpt lat="44.30022" lon="3.65848">
        <ele>736</ele>
        <time>2018-04-01T10:02:01Z</time>
      </trkpt>
      <trkpt lat="44.29993" lon="3.65816">
        <ele>745</ele>
        <time>2018-04-01T10:03:01Z</time>
      </trkpt>
      <trkpt lat="44.2995" lon="3.6581">
        <ele>745</ele>
        <time>2018-04-01T10:04:01Z</time>
      </trkpt>
      <trkpt lat="44.29902" lon="3.65832">
        <ele>737</ele>
        <time>2018-04-01T10:05:01Z</time>
      </trkpt>
      <trkpt lat="44.29953" lon="3.65866">
        <ele>724</ele>
        <time>2018-04-01T10:06:01Z</time>
      </trkpt>
      <trkpt lat="44.29998" lon="3.65942">
        <ele>704</ele>
        <time>2018-04-01T10:07:01Z</time>
      </trkpt>
      <trkpt lat="44.30025" lon="3.65995">
        <ele>705</ele>
        <time>2018-04-01T10:08:01Z</time>
      </trkpt>
      <trkpt lat="44.30113" lon="3.66041">
        <ele>694</ele>
        <time>2018-04-01T10:09:01Z</time>
      </trkpt>
      <trkpt lat="44.30191" lon="3.66054">
        <ele>683</ele>
        <time>2018-04-01T10:10:01Z</time>
      </trkpt>
      <trkpt lat="44.30382" lon="3.65887">
        <ele>672</ele>
        <time>2018-04-01T10:11:01Z</time>
      </trkpt>
      <trkpt lat="44.30315" lon="3.66063">
        <ele>652</ele>
        <time>2018-04-01T10:12:01Z</time>
      </trkpt>
      <trkpt lat="44.30253" lon="3.66217">
        <ele>623</ele>
        <time>2018-04-01T10:13:01Z</time>
      </trkpt>
      <trkpt lat="44.30216" lon="3.6627">
        <ele>619</ele>
        <time>2018-04-01T10:14:01Z</time>
      </trkpt>
      <trkpt lat="44.30207" lon="3.66304">
        <ele>617</ele>
        <time>2018-04-01T10:15:01Z</time>
      </trkpt>
      <trkpt lat="44.30225" lon="3.663">
        <ele>616</ele>
        <time>2018-04-01T10:16:01Z</time>
      </trkpt>
      <trkpt lat="44.3026" lon="3.66278">
        <ele>617</ele>
        <time>2018-04-01T10:17:01Z</time>
      </trkpt>
      <trkpt lat="44.30223" lon="3.66336">
        <ele>612</ele>
        <time>2018-04-01T10:18:01Z</time>
      </trkpt>
      <trkpt lat="44.30176" lon="3.66343">
        <ele>612</ele>
        <time>2018-04-01T10:19:01Z</time>
      </trkpt>
      <trkpt lat="44.3014" lon="3.66332">
        <ele>616</ele>
        <time>2018-04-01T10:20:01Z</time>
      </trkpt>
      <trkpt lat="44.30111" lon="3.6639">
        <ele>612</ele>
        <time>2018-04-01T10:21:01Z</time>
      </trkpt>
      <trkpt lat="44.30058" lon="3.66368">
        <ele>614</ele>
        <time>2018-04-01T10:22:01Z</time>
      </trkpt>
      <trkpt lat="44.29875" lon="3.6648">
        <ele>619</ele>
        <time>2018-04-01T10:23:01Z</time>
      </trkpt>
      <trkpt lat="44.2983" lon="3.66507">
        <ele>618</ele>
        <time>2018-04-01T10:24:01Z</time>
      </trkpt>
      <trkpt lat="44.29799" lon="3.66566">
        <ele>622</ele>
        <time>2018-04-01T10:25:01Z</time>
      </trkpt>
      <trkpt lat="44.2978" lon="3.66631">
        <ele>627</ele>
        <time>2018-04-01T10:26:01Z</time>
      </trkpt>
      <trkpt lat="44.29762" lon="3.66934">
        <ele>632</ele>
        <time>2018-04-01T10:27:01Z</time>
      </trkpt>
      <trkpt lat="44.29791" lon="3.67067">
        <ele>634</ele>
        <time>2018-04-01T10:28:01Z</time>
      </trkpt>
      <trkpt lat="44.29824" lon="3.67133">
        <ele>634</ele>
        <time>2018-04-01T10:29:01Z</time>
      </trkpt>
      <trkpt lat="44.29915" lon="3.67212">
        <ele>640</ele>
        <time>2018-04-01T10:30:01Z</time>
      </trkpt>
      <trkpt lat="44.29942" lon="3.67293">
        <ele>649</ele>
        <time>2018-04-01T10:31:01Z</time>
      </trkpt>
      <trkpt lat="44.29933" lon="3.67463">
        <ele>640</ele>
        <time>2018-04-01T10:32:01Z</time>
      </trkpt>
      <trkpt lat="44.29953" lon="3.67583">
        <ele>645</ele>
        <time>2018-04-01T10:33:01Z</time>
      </trkpt>
      <trkpt lat="44.30028" lon="3.67738">
        <ele>655</ele>
        <time>2018-04-01T10:34:01Z</time>
      </trkpt>
      <trkpt lat="44.30032" lon="3.67829">
        <ele>648</ele>
        <time>2018-04-01T10:35:01Z</time>
      </trkpt>
      <trkpt lat="44.2992" lon="3.68029">
        <ele>655</ele>
        <time>2018-04-01T10:36:01Z</time>
      </trkpt>
      <trkpt lat="44.29882" lon="3.68184">
        <ele>665</ele>
        <time>2018-04-01T10:37:01Z</time>
      </trkpt>
      <trkpt lat="44.29833" lon="3.68308">
        <ele>655</ele>
        <time>2018-04-01T10:38:01Z</time>
      </trkpt>
      <trkpt lat="44.29788" lon="3.68362">
        <ele>667</ele>
        <time>2018-04-01T10:39:01Z</time>
      </trkpt>
      <trkpt lat="44.29684" lon="3.6838">
        <ele>661</ele>
        <time>2018-04-01T10:40:01Z</time>
      </trkpt>
      <trkpt lat="44.29601" lon="3.68405">
        <ele>665</ele>
        <time>2018-04-01T10:41:01Z</time>
      </trkpt>
      <trkpt lat="44.29515" lon="3.68352">
        <ele>664</ele>
        <time>2018-04-01T10:42:01Z</time>
      </trkpt>
      <trkpt lat="44.29483" lon="3.68346">
        <ele>662</ele>
        <time>2018-04-01T10:43:01Z</time>
      </trkpt>
      <trkpt lat="44.2945" lon="3.68373">
        <ele>665</ele>
        <time>2018-04-01T10:44:01Z</time>
      </trkpt>
      <trkpt lat="44.29392" lon="3.68446">
        <ele>669</ele>
        <time>2018-04-01T10:45:01Z</time>
      </trkpt>
      <trkpt lat="44.29286" lon="3.6848">
        <ele>655</ele>
        <time>2018-04-01T10:46:01Z</time>
      </trkpt>
      <trkpt lat="44.29241" lon="3.68527">
        <ele>654</ele>
        <time>2018-04-01T10:47:01Z</time>
      </trkpt>
      <trkpt lat="44.2923" lon="3.68579">
        <ele>658</ele>
        <time>2018-04-01T10:48:01Z</time>
      </trkpt>
      <trkpt lat="44.29218" lon="3.68678">
        <ele>677</ele>
        <time>2018-04-01T10:49:01Z</time>
      </trkpt>
      <trkpt lat="44.29183" lon="3.68736">
        <ele>674</ele>
        <time>2018-04-01T10:50:01Z</time>
      </trkpt>
      <trkpt lat="44.29026" lon="3.68814">
        <ele>664</ele>
        <time>2018-04-01T10:51:01Z</time>
      </trkpt>
      <trkpt lat="44.28959" lon="3.68942">
        <ele>682</ele>
        <time>2018-04-01T10:52:01Z</time>
      </trkpt>
      <trkpt lat="44.28908" lon="3.68969">
        <ele>676</ele>
        <time>2018-04-01T10:53:01Z</time>
      </trkpt>
      <trkpt lat="44.28794" lon="3.68928">
        <ele>667</ele>
        <time>2018-04-01T10:54:01Z</time>
      </trkpt>
      <trkpt lat="44.28748" lon="3.68935">
        <ele>663</ele>
        <time>2018-04-01T10:55:01Z</time>
      </trkpt>
      <trkpt lat="44.28585" lon="3.69064">
        <ele>674</ele>
        <time>2018-04-01T10:56:01Z</time>
      </trkpt>
      <trkpt lat="44.28556" lon="3.69111">
        <ele>674</ele>
        <time>2018-04-01T10:57:01Z</time>
      </trkpt>
      <trkpt lat="44.28499" lon="3.69248">
        <ele>673</ele>
        <time>2018-04-01T10:58:01Z</time>
      </trkpt>
      <trkpt lat="44.28259" lon="3.69484">
        <ele>668</ele>
        <time>2018-04-01T10:59:01Z</time>
      </trkpt>
      <trkpt lat="44.28223" lon="3.69604">
        <ele>679</ele>
        <time>2018-04-01T11:00:01Z</time>
      </trkpt>
      <trkpt lat="44.28193" lon="3.69644">
        <ele>678</ele>
        <time>2018-04-01T11:01:01Z</time>
      </trkpt>
      <trkpt lat="44.28153" lon="3.69661">
        <ele>669</ele>
        <time>2018-04-01T11:02:01Z</time>
      </trkpt>
      <trkpt lat="44.28094" lon="3.69662">
        <ele>666</ele>
        <time>2018-04-01T11:03:01Z</time>
      </trkpt>
      <trkpt lat="44.28061" lon="3.69678">
        <ele>669</ele>
        <time>2018-04-01T11:04:01Z</time>
      </trkpt>
      <trkpt lat="44.28028" lon="3.69689">
        <ele>669</ele>
        <time>2018-04-01T11:05:01Z</time>
      </trkpt>
      <trkpt lat="44.27995" lon="3.69734">
        <ele>673</ele>
        <time>2018-04-01T11:06:01Z</time>
      </trkpt>
      <trkpt lat="44.27988" lon="3.69791">
        <ele>674</ele>
        <time>2018-04-01T11:07:01Z</time>
      </trkpt>
      <trkpt lat="44.27994" lon="3.69877">
        <ele>673</ele>
        <time>2018-04-01T11:08:01Z</time>
      </trkpt>
      <trkpt lat="44.27982" lon="3.6998">
        <ele>674</ele>
        <time>2018-04-01T11:09:01Z</time>
      </trkpt>
      <trkpt lat="44.27988" lon="3.70134">
        <ele>680</ele>
        <time>2018-04-01T11:10:01Z</time>
      </trkpt>
      <trkpt lat="44.27947" lon="3.70269">
        <ele>680</ele>
        <time>2018-04-01T11:11:01Z</time>
      </trkpt>
      <trkpt lat="44.27883" lon="3.70455">
        <ele>683</ele>
        <time>2018-04-01T11:12:01Z</time>
      </trkpt>
      <trkpt lat="44.27866" lon="3.70654">
        <ele>691</ele>
        <time>2018-04-01T11:13:01Z</time>
      </trkpt>
      <trkpt lat="44.27841" lon="3.70702">
        <ele>695</ele>
        <time>2018-04-01T11:14:01Z</time>
      </trkpt>
      <trkpt lat="44.27783" lon="3.70754">
        <ele>689</ele>
        <time>2018-04-01T11:15:01Z</time>
      </trkpt>
      <trkpt lat="44.27757" lon="3.70808">
        <ele>688</ele>
        <time>2018-04-01T11:16:01Z</time>
      </trkpt>
      <trkpt lat="44.27752" lon="3.70879">
        <ele>690</ele>
        <time>2018-04-01T11:17:01Z</time>
      </trkpt>
      <trkpt lat="44.27772" lon="3.7093">
        <ele>688</ele>
        <time>2018-04-01T11:18:01Z</time>
      </trkpt>
      <trkpt lat="44.27825" lon="3.71001">
        <ele>695</ele>
        <time>2018-04-01T11:19:01Z</time>
      </trkpt>
      <trkpt lat="44.27848" lon="3.71068">
        <ele>698</ele>
        <time>2018-04-01T11:20:01Z</time>
      </trkpt>
      <trkpt lat="44.27853" lon="3.71188">
        <ele>695</ele>
        <time>2018-04-01T11:21:01Z</time>
      </trkpt>
      <trkpt lat="44.27832" lon="3.7125">
        <ele>688</ele>
        <time>2018-04-01T11:22:01Z</time>
      </trkpt>
      <trkpt lat="44.27782" lon="3.71345">
        <ele>695</ele>
        <time>2018-04-01T11:23:01Z</time>
      </trkpt>
      <trkpt lat="44.27774" lon="3.71405">
        <ele>695</ele>
        <time>2018-04-01T11:24:01Z</time>
      </trkpt>
      <trkpt lat="44.27819" lon="3.71517">
        <ele>699</ele>
        <time>2018-04-01T11:25:01Z</time>
      </trkpt>
      <trkpt lat="44.27818" lon="3.7157">
        <ele>700</ele>
        <time>2018-04-01T11:26:01Z</time>
      </trkpt>
      <trkpt lat="44.278" lon="3.71662">
        <ele>703</ele>
        <time>2018-04-01T11:27:01Z</time>
      </trkpt>
      <trkpt lat="44.27802" lon="3.71837">
        <ele>705</ele>
        <time>2018-04-01T11:28:01Z</time>
      </trkpt>
      <trkpt lat="44.27781" lon="3.71957">
        <ele>699</ele>
        <time>2018-04-01T11:29:01Z</time>
      </trkpt>
      <trkpt lat="44.27781" lon="3.72038">
        <ele>697</ele>
        <time>2018-04-01T11:30:01Z</time>
      </trkpt>
      <trkpt lat="44.27806" lon="3.72253">
        <ele>700</ele>
        <time>2018-04-01T11:31:01Z</time>
      </trkpt>
      <trkpt lat="44.2779" lon="3.72349">
        <ele>706</ele>
        <time>2018-04-01T11:32:01Z</time>
      </trkpt>
      <trkpt lat="44.2775" lon="3.72403">
        <ele>704</ele>
        <time>2018-04-01T11:33:01Z</time>
      </trkpt>
      <trkpt lat="44.27654" lon="3.72474">
        <ele>699</ele>
        <time>2018-04-01T11:34:01Z</time>
      </trkpt>
      <trkpt lat="44.27554" lon="3.72588">
        <ele>703</ele>
        <time>2018-04-01T11:35:01Z</time>
      </trkpt>
      <trkpt lat="44.27491" lon="3.72655">
        <ele>704</ele>
        <time>2018-04-01T11:36:01Z</time>
      </trkpt>
      <trkpt lat="44.27477" lon="3.72751">
        <ele>709</ele>
        <time>2018-04-01T11:37:01Z</time>
      </trkpt>
      <trkpt lat="44.27472" lon="3.72856">
        <ele>708</ele>
        <time>2018-04-01T11:38:01Z</time>
      </trkpt>
      <trkpt lat="44.2744" lon="3.72947">
        <ele>709</ele>
        <time>2018-04-01T11:39:01Z</time>
      </trkpt>
      <trkpt lat="44.274" lon="3.72972">
        <ele>705</ele>
        <time>2018-04-01T11:40:01Z</time>
      </trkpt>
      <trkpt lat="44.273" lon="3.72976">
        <ele>704</ele>
        <time>2018-04-01T11:41:01Z</time>
      </trkpt>
      <trkpt lat="44.27219" lon="3.73012">
        <ele>708</ele>
        <time>2018-04-01T11:42:01Z</time>
      </trkpt>
      <trkpt lat="44.27167" lon="3.73044">
        <ele>707</ele>
        <time>2018-04-01T11:43:01Z</time>
      </trkpt>
      <trkpt lat="44.2714" lon="3.73078">
        <ele>704</ele>
        <time>2018-04-01T11:44:01Z</time>
      </trkpt>
      <trkpt lat="44.27077" lon="3.73002">
        <ele>711</ele>
        <time>2018-04-01T11:45:01Z</time>
      </trkpt>
      <trkpt lat="44.27055" lon="3.73006">
        <ele>713</ele>
        <time>2018-04-01T11:46:01Z</time>
      </trkpt>
      <trkpt lat="44.27032" lon="3.73055">
        <ele>711</ele>
        <time>2018-04-01T11:47:01Z</time>
      </trkpt>
      <trkpt lat="44.27" lon="3.7308">
        <ele>704</ele>
        <time>2018-04-01T11:48:01Z</time>
      </trkpt>
      <trkpt lat="44.26975" lon="3.73081">
        <ele>713</ele>
        <time>2018-04-01T11:49:01Z</time>
      </trkpt>
      <trkpt lat="44.26923" lon="3.73067">
        <ele>715</ele>
        <time>2018-04-01T11:50:01Z</time>
      </trkpt>
      <trkpt lat="44.26894" lon="3.73067">
        <ele>717</ele>
        <time>2018-04-01T11:51:01Z</time>
      </trkpt>
      <trkpt lat="44.26878" lon="3.73106">
        <ele>724</ele>
        <time>2018-04-01T11:52:01Z</time>
      </trkpt>
      <trkpt lat="44.26895" lon="3.73119">
        <ele>724</ele>
        <time>2018-04-01T11:53:01Z</time>
      </trkpt>
      <trkpt lat="44.26939" lon="3.73159">
        <ele>714</ele>
        <time>2018-04-01T11:54:01Z</time>
      </trkpt>
      <trkpt lat="44.26985" lon="3.73185">
        <ele>713</ele>
        <time>2018-04-01T11:55:01Z</time>
      </trkpt>
      <trkpt lat="44.27" lon="3.73212">
        <ele>709</ele>
        <time>2018-04-01T11:56:01Z</time>
      </trkpt>
      <trkpt lat="44.27002" lon="3.73325">
        <ele>719</ele>
        <time>2018-04-01T11:57:01Z</time>
      </trkpt>
      <trkpt lat="44.26951" lon="3.734">
        <ele>731</ele>
        <time>2018-04-01T11:58:01Z</time>
      </trkpt>
      <trkpt lat="44.26865" lon="3.73487">
        <ele>746</ele>
        <time>2018-04-01T11:59:01Z</time>
      </trkpt>
      <trkpt lat="44.26826" lon="3.73559">
        <ele>747</ele>
        <time>2018-04-01T12:00:01Z</time>
      </trkpt>
      <trkpt lat="44.26818" lon="3.73611">
        <ele>729</ele>
        <time>2018-04-01T12:01:01Z</time>
      </trkpt>
      <trkpt lat="44.26737" lon="3.73565">
        <ele>762</ele>
        <time>2018-04-01T12:02:01Z</time>
      </trkpt>
      <trkpt lat="44.267" lon="3.73564">
        <ele>766</ele>
        <time>2018-04-01T12:03:01Z</time>
      </trkpt>
      <trkpt lat="44.26644" lon="3.73535">
        <ele>775</ele>
        <time>2018-04-01T12:04:01Z</time>
      </trkpt>
      <trkpt lat="44.26574" lon="3.73554">
        <ele>775</ele>
        <time>2018-04-01T12:05:01Z</time>
      </trkpt>
      <trkpt lat="44.26527" lon="3.73583">
        <ele>774</ele>
        <time>2018-04-01T12:06:01Z</time>
      </trkpt>
      <trkpt lat="44.26512" lon="3.73568">
        <ele>774</ele>
        <time>2018-04-01T12:07:01Z</time>
      </trkpt>
      <trkpt lat="44.26574" lon="3.73517">
        <ele>784</ele>
        <time>2018-04-01T12:08:01Z</time>
      </trkpt>
      <trkpt lat="44.26618" lon="3.73464">
        <ele>800</ele>
        <time>2018-04-01T12:09:01Z</time>
      </trkpt>
      <trkpt lat="44.26752" lon="3.73467">
        <ele>788</ele>
        <time>2018-04-01T12:10:01Z</time>
      </trkpt>
      <trkpt lat="44.26777" lon="3.73426">
        <ele>793</ele>
        <time>2018-04-01T12:11:01Z</time>
      </trkpt>
      <trkpt lat="44.26799" lon="3.7335">
        <ele>803</ele>
        <time>2018-04-01T12:12:01Z</time>
      </trkpt>
      <trkpt lat="44.26829" lon="3.73288">
        <ele>799</ele>
        <time>2018-04-01T12:13:01Z</time>
      </trkpt>
      <trkpt lat="44.26798" lon="3.73244">
        <ele>787</ele>
        <time>2018-04-01T12:14:01Z</time>
      </trkpt>
      <trkpt lat="44.26667" lon="3.73271">
        <ele>817</ele>
        <time>2018-04-01T12:15:01Z</time>
      </trkpt>
      <trkpt lat="44.26524" lon="3.73259">
        <ele>826</ele>
        <time>2018-04-01T12:16:01Z</time>
      </trkpt>
      <trkpt lat="44.26468" lon="3.73254">
        <ele>832</ele>
        <time>2018-04-01T12:17:01Z</time>
      </trkpt>
      <trkpt lat="44.26428" lon="3.73222">
        <ele>837</ele>
        <time>2018-04-01T12:18:01Z</time>
      </trkpt>
      <trkpt lat="44.26403" lon="3.73131">
        <ele>850</ele>
        <time>2018-04-01T12:19:01Z</time>
      </trkpt>
      <trkpt lat="44.26358" lon="3.7307">
        <ele>848</ele>
        <time>2018-04-01T12:20:01Z</time>
      </trkpt>
      <trkpt lat="44.26311" lon="3.72974">
        <ele>861</ele>
        <time>2018-04-01T12:21:01Z</time>
      </trkpt>
      <trkpt lat="44.26323" lon="3.72897">
        <ele>855</ele>
        <time>2018-04-01T12:22:01Z</time>
      </trkpt>
      <trkpt lat="44.2628" lon="3.72717">
        <ele>848</ele>
        <time>2018-04-01T12:23:01Z</time>
      </trkpt>
      <trkpt lat="44.26237" lon="3.72686">
        <ele>851</ele>
        <time>2018-04-01T12:24:01Z</time>
      </trkpt>
      <trkpt lat="44.26177" lon="3.72693">
        <ele>850</ele>
        <time>2018-04-01T12:25:01Z</time>
      </trkpt>
      <trkpt lat="44.2612" lon="3.72762">
        <ele>870</ele>
        <time>2018-04-01T12:26:01Z</time>
      </trkpt>
      <trkpt lat="44.26033" lon="3.72791">
        <ele>874</ele>
        <time>2018-04-01T12:27:01Z</time>
      </trkpt>
      <trkpt lat="44.25993" lon="3.72767">
        <ele>874</ele>
        <time>2018-04-01T12:28:01Z</time>
      </trkpt>
      <trkpt lat="44.25926" lon="3.72752">
        <ele>883</ele>
        <time>2018-04-01T12:29:01Z</time>
      </trkpt>
      <trkpt lat="44.25904" lon="3.72702">
        <ele>884</ele>
        <time>2018-04-01T12:30:01Z</time>
      </trkpt>
      <trkpt lat="44.25877" lon="3.72644">
        <ele>879</ele>
        <time>2018-04-01T12:31:01Z</time>
      </trkpt>
      <trkpt lat="44.25875" lon="3.72579">
        <ele>867</ele>
        <time>2018-04-01T12:32:01Z</time>
      </trkpt>
      <trkpt lat="44.2572" lon="3.72453">
        <ele>898</ele>
        <time>2018-04-01T12:33:01Z</time>
      </trkpt>
      <trkpt lat="44.25692" lon="3.72444">
        <ele>899</ele>
        <time>2018-04-01T12:34:01Z</time>
      </trkpt>
      <trkpt lat="44.25628" lon="3.72449">
        <ele>915</ele>
        <time>2018-04-01T12:35:01Z</time>
      </trkpt>
      <trkpt lat="44.25552" lon="3.72401">
        <ele>912</ele>
        <time>2018-04-01T12:36:01Z</time>
      </trkpt>
      <trkpt lat="44.25515" lon="3.72391">
        <ele>915</ele>
        <time>2018-04-01T12:37:01Z</time>
      </trkpt>
      <trkpt lat="44.25458" lon="3.72401">
        <ele>920</ele>
        <time>2018-04-01T12:38:01Z</time>
      </trkpt>
      <trkpt lat="44.2544" lon="3.72421">
        <ele>938</ele>
        <time>2018-04-01T12:39:01Z</time>
      </trkpt>
      <trkpt lat="44.25334" lon="3.72435">
        <ele>941</ele>
        <time>2018-04-01T12:40:01Z</time>
      </trkpt>
      <trkpt lat="44.25267" lon="3.72418">
        <ele>946</ele>
        <time>2018-04-01T12:41:01Z</time>
      </trkpt>
      <trkpt lat="44.2516" lon="3.72411">
        <ele>946</ele>
        <time>2018-04-01T12:42:01Z</time>
      </trkpt>
      <trkpt lat="44.25094" lon="3.7239">
        <ele>940</ele>
        <time>2018-04-01T12:43:01Z</time>
      </trkpt>
      <trkpt lat="44.25012" lon="3.72433">
        <ele>957</ele>
        <time>2018-04-01T12:44:01Z</time>
      </trkpt>
      <trkpt lat="44.24899" lon="3.72387">
        <ele>942</ele>
        <time>2018-04-01T12:45:01Z</time>
      </trkpt>
      <trkpt lat="44.24851" lon="3.72386">
        <ele>941</ele>
        <time>2018-04-01T12:46:01Z</time>
      </trkpt>
      <trkpt lat="44.2477" lon="3.72474">
        <ele>960</ele>
        <time>2018-04-01T12:47:01Z</time>
      </trkpt>
      <trkpt lat="44.24753" lon="3.72508">
        <ele>969</ele>
        <time>2018-04-01T12:48:01Z</time>
      </trkpt>
      <trkpt lat="44.24586" lon="3.72556">
        <ele>961</ele>
        <time>2018-04-01T12:49:01Z</time>
      </trkpt>
      <trkpt lat="44.24515" lon="3.72561">
        <ele>955</ele>
        <time>2018-04-01T12:50:01Z</time>
      </trkpt>
      <trkpt lat="44.24471" lon="3.72551">
        <ele>952</ele>
        <time>2018-04-01T12:51:01Z</time>
      </trkpt>
      <trkpt lat="44.24438" lon="3.72561">
        <ele>951</ele>
        <time>2018-04-01T12:52:01Z</time>
      </trkpt>
      <trkpt lat="44.24409" lon="3.7263">
        <ele>948</ele>
        <time>2018-04-01T12:53:01Z</time>
      </trkpt>
      <trkpt lat="44.24367" lon="3.72646">
        <ele>945</ele>
        <time>2018-04-01T12:54:01Z</time>
      </trkpt>
      <trkpt lat="44.2434" lon="3.7262">
        <ele>944</ele>
        <time>2018-04-01T12:55:01Z</time>
      </trkpt>
      <trkpt lat="44.2435" lon="3.72669">
        <ele>939</ele>
        <time>2018-04-01T12:56:01Z</time>
      </trkpt>
      <trkpt lat="44.24382" lon="3.72721">
        <ele>940</ele>
        <time>2018-04-01T12:57:01Z</time>
      </trkpt>
      <trkpt lat="44.24384" lon="3.72843">
        <ele>932</ele>
        <time>2018-04-01T12:58:01Z</time>
      </trkpt>
      <trkpt lat="44.24377" lon="3.72986">
        <ele>931</ele>
        <time>2018-04-01T12:59:01Z</time>
      </trkpt>
      <trkpt lat="44.24356" lon="3.73036">
        <ele>935</ele>
        <time>2018-04-01T13:00:01Z</time>
      </trkpt>
      <trkpt lat="44.24296" lon="3.7308">
        <ele>906</ele>
        <time>2018-04-01T13:01:01Z</time>
      </trkpt>
      <trkpt lat="44.24164" lon="3.73232">
        <ele>887</ele>
        <time>2018-04-01T13:02:01Z</time>
      </trkpt>
      <trkpt lat="44.24126" lon="3.73268">
        <ele>889</ele>
        <time>2018-04-01T13:03:01Z</time>
      </trkpt>
      <trkpt lat="44.24115" lon="3.7334">
        <ele>894</ele>
        <time>2018-04-01T13:04:01Z</time>
      </trkpt>
      <trkpt lat="44.24104" lon="3.73375">
        <ele>895</ele>
        <time>2018-04-01T13:05:01Z</time>
      </trkpt>
      <trkpt lat="44.24069" lon="3.73403">
        <ele>877</ele>
        <time>2018-04-01T13:06:01Z</time>
      </trkpt>
      <trkpt lat="44.24046" lon="3.73502">
        <ele>867</ele>
        <time>2018-04-01T13:07:01Z</time>
      </trkpt>
      <trkpt lat="44.24032" lon="3.73442">
        <ele>869</ele>
        <time>2018-04-01T13:08:01Z</time>
      </trkpt>
      <trkpt lat="44.24052" lon="3.73302">
        <ele>862</ele>
        <time>2018-04-01T13:09:01Z</time>
      </trkpt>
      <trkpt lat="44.24048" lon="3.73243">
        <ele>850</ele>
        <time>2018-04-01T13:10:01Z</time>
      </trkpt>
      <trkpt lat="44.24066" lon="3.73162">
        <ele>836</ele>
        <time>2018-04-01T13:11:01Z</time>
      </trkpt>
      <trkpt lat="44.24002" lon="3.73219">
        <ele>841</ele>
        <time>2018-04-01T13:12:01Z</time>
      </trkpt>
      <trkpt lat="44.24007" lon="3.73276">
        <ele>851</ele>
        <time>2018-04-01T13:13:01Z</time>
      </trkpt>
      <trkpt lat="44.23936" lon="3.7339">
        <ele>833</ele>
        <time>2018-04-01T13:14:01Z</time>
      </trkpt>
      <trkpt lat="44.23936" lon="3.73481">
        <ele>830</ele>
        <time>2018-04-01T13:15:01Z</time>
      </trkpt>
      <trkpt lat="44.23987" lon="3.73559">
        <ele>838</ele>
        <time>2018-04-01T13:16:01Z</time>
      </trkpt>
      <trkpt lat="44.23938" lon="3.73606">
        <ele>832</ele>
        <time>2018-04-01T13:17:01Z</time>
      </trkpt>
      <trkpt lat="44.23888" lon="3.7369">
        <ele>819</ele>
        <time>2018-04-01T13:18:01Z</time>
      </trkpt>
      <trkpt lat="44.23885" lon="3.738">
        <ele>831</ele>
        <time>2018-04-01T13:19:01Z</time>
      </trkpt>
      <trkpt lat="44.23836" lon="3.73775">
        <ele>821</ele>
        <time>2018-04-01T13:20:01Z</time>
      </trkpt>
      <trkpt lat="44.23747" lon="3.73831">
        <ele>806</ele>
        <time>2018-04-01T13:21:01Z</time>
      </trkpt>
      <trkpt lat="44.23704" lon="3.73912">
        <ele>800</ele>
        <time>2018-04-01T13:22:01Z</time>
      </trkpt>
      <trkpt lat="44.2376" lon="3.74061">
        <ele>807</ele>
        <time>2018-04-01T13:23:01Z</time>
      </trkpt>
      <trkpt lat="44.23759" lon="3.74092">
        <ele>799</ele>
        <time>2018-04-01T13:24:01Z</time>
      </trkpt>
      <trkpt lat="44.23744" lon="3.74096">
        <ele>789</ele>
        <time>2018-04-01T13:25:01Z</time>
      </trkpt>
      <trkpt lat="44.23737" lon="3.74074">
        <ele>792</ele>
        <time>2018-04-01T13:26:01Z</time>
      </trkpt>
      <trkpt lat="44.23722" lon="3.7406">
        <ele>789</ele>
        <time>2018-04-01T13:27:01Z</time>
      </trkpt>
      <trkpt lat="44.23722" lon="3.74086">
        <ele>785</ele>
        <time>2018-04-01T13:28:01Z</time>
      </trkpt>
      <trkpt lat="44.23712" lon="3.74124">
        <ele>782</ele>
        <time>2018-04-01T13:29:01Z</time>
      </trkpt>
      <trkpt lat="44.23721" lon="3.74057">
        <ele>789</ele>
        <time>2018-04-01T13:30:01Z</time>
      </trkpt>
      <trkpt lat="44.23758" lon="3.74105">
        <ele>800</ele>
        <time>2018-04-01T13:31:01Z</time>
      </trkpt>
      <trkpt lat="44.23767" lon="3.74143">
        <ele>800</ele>
        <time>2018-04-01T13:32:01Z</time>
      </trkpt>
      <trkpt lat="44.23788" lon="3.74195">
        <ele>804</ele>
        <time>2018-04-01T13:33:01Z</time>
      </trkpt>
      <trkpt lat="44.23736" lon="3.7424">
        <ele>792</ele>
        <time>2018-04-01T13:34:01Z</time>
      </trkpt>
      <trkpt lat="44.23683" lon="3.74269">
        <ele>789</ele>
        <time>2018-04-01T13:35:01Z</time>
      </trkpt>
      <trkpt lat="44.23666" lon="3.74369">
        <ele>772</ele>
        <time>2018-04-01T13:36:01Z</time>
      </trkpt>
      <trkpt lat="44.23639" lon="3.7452">
        <ele>768</ele>
        <time>2018-04-01T13:37:01Z</time>
      </trkpt>
      <trkpt lat="44.23643" lon="3.74631">
        <ele>769</ele>
        <time>2018-04-01T13:38:01Z</time>
      </trkpt>
      <trkpt lat="44.23637" lon="3.74645">
        <ele>769</ele>
        <time>2018-04-01T13:39:01Z</time>
      </trkpt>
      <trkpt lat="44.23634" lon="3.74661">
        <ele>769</ele>
        <time>2018-04-01T13:40:01Z</time>
      </trkpt>
      <trkpt lat="44.2363" lon="3.74695">
        <ele>776</ele>
        <time>2018-04-01T13:41:01Z</time>
      </trkpt>
      <trkpt lat="44.23654" lon="3.74725">
        <ele>784</ele>
        <time>2018-04-01T13:42:01Z</time>
      </trkpt>
      <trkpt lat="44.23698" lon="3.74752">
        <ele>817</ele>
        <time>2018-04-01T13:43:01Z</time>
      </trkpt>
      <trkpt lat="44.23734" lon="3.748">
        <ele>830</ele>
        <time>2018-04-01T13:44:01Z</time>
      </trkpt>
      <trkpt lat="44.23792" lon="3.74847">
        <ele>866</ele>
        <time>2018-04-01T13:45:01Z</time>
      </trkpt>
      <trkpt lat="44.23863" lon="3.74861">
        <ele>895</ele>
        <time>2018-04-01T13:46:01Z</time>
      </trkpt>
      <trkpt lat="44.239" lon="3.74915">
        <ele>907</ele>
        <time>2018-04-01T13:47:01Z</time>
      </trkpt>
      <trkpt lat="44.239" lon="3.74968">
        <ele>901</ele>
        <time>2018-04-01T13:48:01Z</time>
      </trkpt>
      <trkpt lat="44.23979" lon="3.75054">
        <ele>925</ele>
        <time>2018-04-01T13:49:01Z</time>
      </trkpt>
      <trkpt lat="44.23965" lon="3.75108">
        <ele>925</ele>
        <time>2018-04-01T13:50:01Z</time>
      </trkpt>
      <trkpt lat="44.23936" lon="3.75133">
        <ele>924</ele>
        <time>2018-04-01T13:51:01Z</time>
      </trkpt>
      <trkpt lat="44.23892" lon="3.75108">
        <ele>913</ele>
        <time>2018-04-01T13:52:01Z</time>
      </trkpt>
      <trkpt lat="44.2386" lon="3.75129">
        <ele>914</ele>
        <time>2018-04-01T13:53:01Z</time>
      </trkpt>
      <trkpt lat="44.2384" lon="3.75157">
        <ele>918</ele>
        <time>2018-04-01T13:54:01Z</time>
      </trkpt>
      <trkpt lat="44.23821" lon="3.75173">
        <ele>922</ele>
        <time>2018-04-01T13:55:01Z</time>
      </trkpt>
      <trkpt lat="44.23776" lon="3.75204">
        <ele>922</ele>
        <time>2018-04-01T13:56:01Z</time>
      </trkpt>
      <trkpt lat="44.23731" lon="3.75247">
        <ele>916</ele>
        <time>2018-04-01T13:57:01Z</time>
      </trkpt>
      <trkpt lat="44.23706" lon="3.75303">
        <ele>924</ele>
        <time>2018-04-01T13:58:01Z</time>
      </trkpt>
      <trkpt lat="44.2369" lon="3.75367">
        <ele>937</ele>
        <time>2018-04-01T13:59:01Z</time>
      </trkpt>
      <trkpt lat="44.23666" lon="3.75387">
        <ele>929</ele>
        <time>2018-04-01T14:00:01Z</time>
      </trkpt>
      <trkpt lat="44.23608" lon="3.75398">
        <ele>927</ele>
        <time>2018-04-01T14:01:01Z</time>
      </trkpt>
      <trkpt lat="44.23548" lon="3.75413">
        <ele>917</ele>
        <time>2018-04-01T14:02:01Z</time>
      </trkpt>
      <trkpt lat="44.23502" lon="3.75452">
        <ele>932</ele>
        <time>2018-04-01T14:03:01Z</time>
      </trkpt>
      <trkpt lat="44.23452" lon="3.75523">
        <ele>936</ele>
        <time>2018-04-01T14:04:01Z</time>
      </trkpt>
      <trkpt lat="44.23435" lon="3.75587">
        <ele>945</ele>
        <time>2018-04-01T14:05:01Z</time>
      </trkpt>
      <trkpt lat="44.2343" lon="3.75654">
        <ele>948</ele>
        <time>2018-04-01T14:06:01Z</time>
      </trkpt>
      <trkpt lat="44.23436" lon="3.75749">
        <ele>956</ele>
        <time>2018-04-01T14:07:01Z</time>
      </trkpt>
      <trkpt lat="44.23423" lon="3.75838">
        <ele>964</ele>
        <time>2018-04-01T14:08:01Z</time>
      </trkpt>
      <trkpt lat="44.23437" lon="3.75879">
        <ele>976</ele>
        <time>2018-04-01T14:09:01Z</time>
      </trkpt>
      <trkpt lat="44.23384" lon="3.75955">
        <ele>970</ele>
        <time>2018-04-01T14:10:01Z</time>
      </trkpt>
      <trkpt lat="44.2338" lon="3.76114">
        <ele>975</ele>
        <time>2018-04-01T14:11:01Z</time>
      </trkpt>
      <trkpt lat="44.234" lon="3.76221">
        <ele>965</ele>
        <time>2018-04-01T14:12:01Z</time>
      </trkpt>
      <trkpt lat="44.23424" lon="3.76332">
        <ele>962</ele>
        <time>2018-04-01T14:13:01Z</time>
      </trkpt>
      <trkpt lat="44.23458" lon="3.76394">
        <ele>962</ele>
        <time>2018-04-01T14:14:01Z</time>
      </trkpt>
      <trkpt lat="44.23492" lon="3.76521">
        <ele>947</ele>
        <time>2018-04-01T14:15:01Z</time>
      </trkpt>
      <trkpt lat="44.23488" lon="3.7655">
        <ele>942</ele>
        <time>2018-04-01T14:16:01Z</time>
      </trkpt>
      <trkpt lat="44.235" lon="3.76575">
        <ele>943</ele>
        <time>2018-04-01T14:17:01Z</time>
      </trkpt>
      <trkpt lat="44.23549" lon="3.76598">
        <ele>947</ele>
        <time>2018-04-01T14:18:01Z</time>
      </trkpt>
      <trkpt lat="44.23509" lon="3.76605">
        <ele>943</ele>
        <time>2018-04-01T14:19:01Z</time>
      </trkpt>
      <trkpt lat="44.23567" lon="3.76645">
        <ele>942</ele>
        <time>2018-04-01T14:20:01Z</time>
      </trkpt>
      <trkpt lat="44.23604" lon="3.76654">
        <ele>951</ele>
        <time>2018-04-01T14:21:01Z</time>
      </trkpt>
      <trkpt lat="44.23616" lon="3.76699">
        <ele>945</ele>
        <time>2018-04-01T14:22:01Z</time>
      </trkpt>
      <trkpt lat="44.23587" lon="3.76872">
        <ele>933</ele>
        <time>2018-04-01T14:23:01Z</time>
      </trkpt>
      <trkpt lat="44.23598" lon="3.76969">
        <ele>926</ele>
        <time>2018-04-01T14:24:01Z</time>
      </trkpt>
      <trkpt lat="44.23635" lon="3.77113">
        <ele>916</ele>
        <time>2018-04-01T14:25:01Z</time>
      </trkpt>
      <trkpt lat="44.23639" lon="3.77163">
        <ele>916</ele>
        <time>2018-04-01T14:26:01Z</time>
      </trkpt>
      <trkpt lat="44.23653" lon="3.77212">
        <ele>907</ele>
        <time>2018-04-01T14:27:01Z</time>
      </trkpt>
      <trkpt lat="44.23613" lon="3.77208">
        <ele>901</ele>
        <time>2018-04-01T14:28:01Z</time>
      </trkpt>
      <trkpt lat="44.23624" lon="3.77238">
        <ele>901</ele>
        <time>2018-04-01T14:29:01Z</time>
      </trkpt>
      <trkpt lat="44.23656" lon="3.77263">
        <ele>904</ele>
        <time>2018-04-01T14:30:01Z</time>
      </trkpt>
      <trkpt lat="44.23659" lon="3.77291">
        <ele>902</ele>
        <time>2018-04-01T14:31:01Z</time>
      </trkpt>
      <trkpt lat="44.23631" lon="3.77336">
        <ele>908</ele>
        <time>2018-04-01T14:32:01Z</time>
      </trkpt>
      <trkpt lat="44.23601" lon="3.77348">
        <ele>903</ele>
        <time>2018-04-01T14:33:01Z</time>
      </trkpt>
      <trkpt lat="44.23565" lon="3.77342">
        <ele>893</ele>
        <time>2018-04-01T14:34:01Z</time>
      </trkpt>
      <trkpt lat="44.23513" lon="3.77355">
        <ele>889</ele>
        <time>2018-04-01T14:35:01Z</time>
      </trkpt>
      <trkpt lat="44.2346" lon="3.77435">
        <ele>896</ele>
        <time>2018-04-01T14:36:01Z</time>
      </trkpt>
      <trkpt lat="44.2341" lon="3.77495">
        <ele>887</ele>
        <time>2018-04-01T14:37:01Z</time>
      </trkpt>
      <trkpt lat="44.23384" lon="3.77541">
        <ele>891</ele>
        <time>2018-04-01T14:38:01Z</time>
      </trkpt>
      <trkpt lat="44.23207" lon="3.77747">
        <ele>884</ele>
        <time>2018-04-01T14:39:01Z</time>
      </trkpt>
      <trkpt lat="44.23215" lon="3.77819">
        <ele>885</ele>
        <time>2018-04-01T14:40:01Z</time>
      </trkpt>
      <trkpt lat="44.23138" lon="3.77961">
        <ele>884</ele>
        <time>2018-04-01T14:41:01Z</time>
      </trkpt>
      <trkpt lat="44.231" lon="3.78075">
        <ele>887</ele>
        <time>2018-04-01T14:42:01Z</time>
      </trkpt>
      <trkpt lat="44.23087" lon="3.78161">
        <ele>880</ele>
        <time>2018-04-01T14:43:01Z</time>
      </trkpt>
      <trkpt lat="44.23009" lon="3.7836">
        <ele>863</ele>
        <time>2018-04-01T14:44:01Z</time>
      </trkpt>
      <trkpt lat="44.22974" lon="3.78418">
        <ele>858</ele>
        <time>2018-04-01T14:45:01Z</time>
      </trkpt>
      <trkpt lat="44.22938" lon="3.78442">
        <ele>859</ele>
        <time>2018-04-01T14:46:01Z</time>
      </trkpt>
      <trkpt lat="44.22892" lon="3.7845">
        <ele>864</ele>
        <time>2018-04-01T14:47:01Z</time>
      </trkpt>
      <trkpt lat="44.22831" lon="3.78496">
        <ele>857</ele>
        <time>2018-04-01T14:48:01Z</time>
      </trkpt>
      <trkpt lat="44.22795" lon="3.78529">
        <ele>850</ele>
        <time>2018-04-01T14:49:01Z</time>
      </trkpt>
      <trkpt lat="44.22726" lon="3.78581">
        <ele>857</ele>
        <time>2018-04-01T14:50:01Z</time>
      </trkpt>
      <trkpt lat="44.22681" lon="3.78642">
        <ele>846</ele>
        <time>2018-04-01T14:51:01Z</time>
      </trkpt>
      <trkpt lat="44.2264" lon="3.78684">
        <ele>853</ele>
        <time>2018-04-01T14:52:01Z</time>
      </trkpt>
      <trkpt lat="44.22568" lon="3.78971">
        <ele>844</ele>
        <time>2018-04-01T14:53:01Z</time>
      </trkpt>
      <trkpt lat="44.22529" lon="3.78991">
        <ele>850</ele>
        <time>2018-04-01T14:54:01Z</time>
      </trkpt>
      <trkpt lat="44.22466" lon="3.7918">
        <ele>824</ele>
        <time>2018-04-01T14:55:01Z</time>
      </trkpt>
      <trkpt lat="44.22423" lon="3.79244">
        <ele>823</ele>
        <time>2018-04-01T14:56:01Z</time>
      </trkpt>
      <trkpt lat="44.22398" lon="3.79303">
        <ele>829</ele>
        <time>2018-04-01T14:57:01Z</time>
      </trkpt>
      <trkpt lat="44.22405" lon="3.79353">
        <ele>826</ele>
        <time>2018-04-01T14:58:01Z</time>
      </trkpt>
      <trkpt lat="44.22459" lon="3.79458">
        <ele>810</ele>
        <time>2018-04-01T14:59:01Z</time>
      </trkpt>
      <trkpt lat="44.22471" lon="3.7954">
        <ele>810</ele>
        <time>2018-04-01T15:00:01Z</time>
      </trkpt>
      <trkpt lat="44.22471" lon="3.79676">
        <ele>796</ele>
        <time>2018-04-01T15:01:01Z</time>
      </trkpt>
      <trkpt lat="44.22482" lon="3.79675">
        <ele>796</ele>
        <time>2018-04-01T15:02:01Z</time>
      </trkpt>
      <trkpt lat="44.22461" lon="3.79689">
        <ele>795</ele>
      </trkpt>
      <trkpt lat="44.22455" lon="3.7972">
        <ele>794</ele>
      </trkpt>
      <trkpt lat="44.22447" lon="3.79767">
        <ele>785</ele>
      </trkpt>
      <trkpt lat="44.22449" lon="3.79815">
        <ele>781</ele>
      </trkpt>
      <trkpt lat="44.22471" lon="3.79892">
        <ele>770</ele>
      </trkpt>
      <trkpt lat="44.22374" lon="3.79916">
        <ele>754</ele>
        <time>2018-04-01T15:07:01Z</time>
      </trkpt>
      <trkpt lat="44.22369" lon="3.79894">
        <ele>755</ele>
        <time>2018-04-01T15:08:01Z</time>
      </trkpt>
      <trkpt lat="44.22346" lon="3.79866">
        <ele>755</ele>
      </trkpt>
      <trkpt lat="44.22318" lon="3.79815">
        <ele>760</ele>
        <time>2018-04-01T15:09:01Z</time>
      </trkpt>
      <trkpt lat="44.22248" lon="3.79854">
        <ele>736</ele>
      </trkpt>
      <trkpt lat="44.22268" lon="3.79851">
        <ele>741</ele>
      </trkpt>
      <trkpt lat="44.2228" lon="3.79858">
        <ele>741</ele>
        <time>2018-04-01T15:11:01Z</time>
      </trkpt>
      <trkpt lat="44.22204" lon="3.79901">
        <ele>727</ele>
      </trkpt>
      <trkpt lat="44.22135" lon="3.79931">
        <ele>703</ele>
        <time>2018-04-01T15:12:01Z</time>
      </trkpt>
      <trkpt lat="44.22068" lon="3.79893">
        <ele>702</ele>
      </trkpt>
      <trkpt lat="44.22038" lon="3.79867">
        <ele>701</ele>
      </trkpt>
      <trkpt lat="44.22007" lon="3.79851">
        <ele>700</ele>
        <time>2018-04-01T15:13:01Z</time>
      </trkpt>
      <trkpt lat="44.2198" lon="3.79879">
        <ele>686</ele>
        <time>2018-04-01T15:14:01Z</time>
      </trkpt>
      <trkpt lat="44.21976" lon="3.79919">
        <ele>673</ele>
        <time>2018-04-01T15:15:01Z</time>
      </trkpt>
      <trkpt lat="44.2193" lon="3.79996">
        <ele>661</ele>
        <time>2018-04-01T15:16:01Z</time>
      </trkpt>
      <trkpt lat="44.21926" lon="3.80089">
        <ele>643</ele>
        <time>2018-04-01T15:17:01Z</time>
      </trkpt>
      <trkpt lat="44.21933" lon="3.80136">
        <ele>639</ele>
      </trkpt>
      <trkpt lat="44.21932" lon="3.80195">
        <ele>636</ele>
      </trkpt>
      <trkpt lat="44.21922" lon="3.80242">
        <ele>640</ele>
      </trkpt>
      <trkpt lat="44.21912" lon="3.80312">
        <ele>635</ele>
      </trkpt>
      <trkpt lat="44.21898" lon="3.80366">
        <ele>630</ele>
      </trkpt>
      <trkpt lat="44.21891" lon="3.80418">
        <ele>619</ele>
      </trkpt>
      <trkpt lat="44.219" lon="3.80426">
        <ele>619</ele>
      </trkpt>
      <trkpt lat="44.21923" lon="3.80405">
        <ele>620</ele>
      </trkpt>
      <trkpt lat="44.21952" lon="3.80365">
        <ele>616</ele>
      </trkpt>
      <trkpt lat="44.21973" lon="3.8035">
        <ele>612</ele>
      </trkpt>
      <trkpt lat="44.22001" lon="3.80335">
        <ele>603</ele>
      </trkpt>
      <trkpt lat="44.21993" lon="3.80366">
        <ele>609</ele>
      </trkpt>
      <trkpt lat="44.22008" lon="3.80362">
        <ele>591</ele>
      </trkpt>
      <trkpt lat="44.22032" lon="3.80339">
        <ele>589</ele>
      </trkpt>
      <trkpt lat="44.22037" lon="3.80353">
        <ele>587</ele>
      </trkpt>
      <trkpt lat="44.22038" lon="3.80376">
        <ele>584</ele>
      </trkpt>
      <trkpt lat="44.22048" lon="3.8041">
        <ele>579</ele>
      </trkpt>
      <trkpt lat="44.22052" lon="3.80443">
        <ele>563</ele>
        <time>2018-04-01T15:34:01Z</time>
      </trkpt>
      <trkpt lat="44.22031" lon="3.805">
        <ele>549</ele>
      </trkpt>
      <trkpt lat="44.22014" lon="3.80534">
        <ele>548</ele>
      </trkpt>
      <trkpt lat="44.22021" lon="3.80538">
        <ele>546</ele>
      </trkpt>
      <trkpt lat="44.22047" lon="3.80505">
        <ele>543</ele>
        <time>2018-04-01T15:36:01Z</time>
      </trkpt>
      <trkpt lat="44.22059" lon="3.805">
        <ele>539</ele>
      </trkpt>
      <trkpt lat="44.2207" lon="3.80501">
        <ele>536</ele>
      </trkpt>
      <trkpt lat="44.22051" lon="3.80524">
        <ele>540</ele>
      </trkpt>
      <trkpt lat="44.22033" lon="3.80564">
        <ele>540</ele>
        <time>2018-04-01T15:38:01Z</time>
      </trkpt>
      <trkpt lat="44.22025" lon="3.80608">
        <ele>526</ele>
      </trkpt>
      <trkpt lat="44.22016" lon="3.80627">
        <ele>524</ele>
      </trkpt>
      <trkpt lat="44.22013" lon="3.80645">
        <ele>523</ele>
      </trkpt>
      <trkpt lat="44.22013" lon="3.80709">
        <ele>506</ele>
        <time>2018-04-01T15:40:01Z</time>
      </trkpt>
      <trkpt lat="44.21972" lon="3.80793">
        <ele>507</ele>
      </trkpt>
      <trkpt lat="44.21929" lon="3.8087">
        <ele>498</ele>
        <time>2018-04-01T15:41:01Z</time>
      </trkpt>
      <trkpt lat="44.21889" lon="3.80908">
        <ele>498</ele>
      </trkpt>
      <trkpt lat="44.21856" lon="3.80926">
        <ele>491</ele>
        <time>2018-04-01T15:42:01Z</time>
      </trkpt>
      <trkpt lat="44.21843" lon="3.80896">
        <ele>498</ele>
        <time>2018-04-01T15:43:01Z</time>
      </trkpt>
      <trkpt lat="44.21833" lon="3.80891">
        <ele>495</ele>
      </trkpt>
      <trkpt lat="44.2182" lon="3.80896">
        <ele>495</ele>
        <time>2018-04-01T15:44:01Z</time>
      </trkpt>
      <trkpt lat="44.21757" lon="3.8084">
        <ele>495</ele>
        <time>2018-04-01T15:45:01Z</time>
      </trkpt>
      <trkpt lat="44.21702" lon="3.80831">
        <ele>497</ele>
        <time>2018-04-01T15:46:01Z</time>
      </trkpt>
      <trkpt lat="44.21601" lon="3.80763">
        <ele>494</ele>
        <time>2018-04-01T15:47:01Z</time>
      </trkpt>
      <trkpt lat="44.21593" lon="3.80749">
        <ele>499</ele>
      </trkpt>
      <trkpt lat="44.21591" lon="3.80732">
        <ele>502</ele>
        <time>2018-04-01T15:48:01Z</time>
      </trkpt>
      <trkpt lat="44.21603" lon="3.80706">
        <ele>507</ele>
      </trkpt>
      <trkpt lat="44.21611" lon="3.80679">
        <ele>509</ele>
        <time>2018-04-01T15:49:01Z</time>
      </trkpt>
      <trkpt lat="44.21603" lon="3.80664">
        <ele>518</ele>
      </trkpt>
      <trkpt lat="44.2159" lon="3.80659">
        <ele>515</ele>
        <time>2018-04-01T15:50:01Z</time>
      </trkpt>
      <trkpt lat="44.21556" lon="3.80679">
        <ele>509</ele>
      </trkpt>
      <trkpt lat="44.21522" lon="3.80707">
        <ele>509</ele>
        <time>2018-04-01T15:51:01Z</time>
      </trkpt>
      <trkpt lat="44.21484" lon="3.807">
        <ele>518</ele>
        <time>2018-04-01T15:52:01Z</time>
      </trkpt>
      <trkpt lat="44.21428" lon="3.8073">
        <ele>517</ele>
        <time>2018-04-01T15:53:01Z</time>
      </trkpt>
      <trkpt lat="44.2139" lon="3.80794">
        <ele>511</ele>
        <time>2018-04-01T15:54:01Z</time>
      </trkpt>
      <trkpt lat="44.21367" lon="3.80792">
        <ele>514</ele>
      </trkpt>
      <trkpt lat="44.21344" lon="3.80787">
        <ele>517</ele>
        <time>2018-04-01T15:55:01Z</time>
      </trkpt>
      <trkpt lat="44.2131" lon="3.80785">
        <ele>525</ele>
      </trkpt>
      <trkpt lat="44.2127" lon="3.80777">
        <ele>528</ele>
      </trkpt>
      <trkpt lat="44.21243" lon="3.80777">
        <ele>534</ele>
      </trkpt>
      <trkpt lat="44.21223" lon="3.80768">
        <ele>535</ele>
      </trkpt>
      <trkpt lat="44.21204" lon="3.80759">
        <ele>537</ele>
        <time>2018-04-01T15:57:01Z</time>
      </trkpt>
      <trkpt lat="44.21179" lon="3.8075">
        <ele>541</ele>
        <time>2018-04-01T15:58:01Z</time>
      </trkpt>
      <trkpt lat="44.21161" lon="3.80757">
        <ele>546</ele>
      </trkpt>
      <trkpt lat="44.21148" lon="3.80762">
        <ele>548</ele>
        <time>2018-04-01T16:00:01Z</time>
      </trkpt>
      <trkpt lat="44.21137" lon="3.80779">
        <ele>549</ele>
      </trkpt>
      <trkpt lat="44.21128" lon="3.80794">
        <ele>549</ele>
        <time>2018-04-01T16:02:01Z</time>
      </trkpt>
      <trkpt lat="44.21124" lon="3.80816">
        <ele>549</ele>
        <time>2018-04-01T16:03:01Z</time>
      </trkpt>
      <trkpt lat="44.2112" lon="3.80834">
        <ele>544</ele>
      </trkpt>
      <trkpt lat="44.21084" lon="3.80879">
        <ele>545</ele>
      </trkpt>
      <trkpt lat="44.21058" lon="3.80903">
        <ele>558</ele>
      </trkpt>
      <trkpt lat="44.21023" lon="3.80913">
        <ele>563</ele>
      </trkpt>
      <trkpt lat="44.2098" lon="3.8092">
        <ele>558</ele>
      </trkpt>
      <trkpt lat="44.20947" lon="3.80895">
        <ele>564</ele>
      </trkpt>
      <trkpt lat="44.20926" lon="3.80862">
        <ele>567</ele>
        <time>2018-04-01T16:08:01Z</time>
      </trkpt>
      <trkpt lat="44.20896" lon="3.80866">
        <ele>568</ele>
        <time>2018-04-01T16:09:01Z</time>
      </trkpt>
      <trkpt lat="44.20838" lon="3.80934">
        <ele>557</ele>
        <time>2018-04-01T16:10:01Z</time>
      </trkpt>
      <trkpt lat="44.20789" lon="3.81023">
        <ele>545</ele>
      </trkpt>
      <trkpt lat="44.20721" lon="3.8121">
        <ele>540</ele>
        <time>2018-04-01T16:12:01Z</time>
      </trkpt>
      <trkpt lat="44.20715" lon="3.81277">
        <ele>532</ele>
        <time>2018-04-01T16:13:01Z</time>
      </trkpt>
      <trkpt lat="44.20692" lon="3.813">
        <ele>532</ele>
        <time>2018-04-01T16:14:01Z</time>
      </trkpt>
      <trkpt lat="44.20644" lon="3.81303">
        <ele>534</ele>
        <time>2018-04-01T16:15:01Z</time>
      </trkpt>
      <trkpt lat="44.2062" lon="3.81459">
        <ele>517</ele>
      </trkpt>
      <trkpt lat="44.20611" lon="3.81488">
        <ele>517</ele>
        <time>2018-04-01T16:17:01Z</time>
      </trkpt>
      <trkpt lat="44.20602" lon="3.81545">
        <ele>507</ele>
        <time>2018-04-01T16:18:01Z</time>
      </trkpt>
      <trkpt lat="44.20588" lon="3.81588">
        <ele>509</ele>
      </trkpt>
      <trkpt lat="44.20568" lon="3.81632">
        <ele>514</ele>
        <time>2018-04-01T16:19:01Z</time>
      </trkpt>
      <trkpt lat="44.20525" lon="3.81697">
        <ele>507</ele>
        <time>2018-04-01T16:20:01Z</time>
      </trkpt>
      <trkpt lat="44.20489" lon="3.81714">
        <ele>517</ele>
        <time>2018-04-01T16:21:01Z</time>
      </trkpt>
      <trkpt lat="44.20457" lon="3.81776">
        <ele>509</ele>
        <time>2018-04-01T16:22:01Z</time>
      </trkpt>
      <trkpt lat="44.20448" lon="3.81827">
        <ele>506</ele>
      </trkpt>
      <trkpt lat="44.20429" lon="3.81883">
        <ele>498</ele>
        <time>2018-04-01T16:23:01Z</time>
      </trkpt>
      <trkpt lat="44.20424" lon="3.81951">
        <ele>491</ele>
        <time>2018-04-01T16:24:01Z</time>
      </trkpt>
      <trkpt lat="44.20396" lon="3.82002">
        <ele>498</ele>
        <time>2018-04-01T16:25:01Z</time>
      </trkpt>
      <trkpt lat="44.20394" lon="3.8204">
        <ele>498</ele>
      </trkpt>
      <trkpt lat="44.20396" lon="3.82086">
        <ele>487</ele>
        <time>2018-04-01T16:27:01Z</time>
      </trkpt>
      <trkpt lat="44.20382" lon="3.82139">
        <ele>484</ele>
        <time>2018-04-01T16:28:01Z</time>
      </trkpt>
      <trkpt lat="44.20332" lon="3.82173">
        <ele>488</ele>
      </trkpt>
      <trkpt lat="44.20308" lon="3.82234">
        <ele>479</ele>
      </trkpt>
      <trkpt lat="44.20285" lon="3.82315">
        <ele>468</ele>
        <time>2018-04-01T16:31:01Z</time>
      </trkpt>
      <trkpt lat="44.2026" lon="3.82352">
        <ele>464</ele>
      </trkpt>
      <trkpt lat="44.20247" lon="3.82379">
        <ele>467</ele>
        <time>2018-04-01T16:32:01Z</time>
      </trkpt>
      <trkpt lat="44.20243" lon="3.82402">
        <ele>466</ele>
      </trkpt>
      <trkpt lat="44.20243" lon="3.82489">
        <ele>468</ele>
      </trkpt>
      <trkpt lat="44.20251" lon="3.82527">
        <ele>459</ele>
      </trkpt>
      <trkpt lat="44.20263" lon="3.82598">
        <ele>463</ele>
        <time>2018-04-01T16:34:01Z</time>
      </trkpt>
      <trkpt lat="44.20247" lon="3.8266">
        <ele>473</ele>
      </trkpt>
      <trkpt lat="44.20226" lon="3.82713">
        <ele>477</ele>
      </trkpt>
      <trkpt lat="44.20222" lon="3.82735">
        <ele>476</ele>
      </trkpt>
      <trkpt lat="44.20232" lon="3.8279">
        <ele>466</ele>
        <time>2018-04-01T16:36:01Z</time>
      </trkpt>
      <trkpt lat="44.20199" lon="3.82781">
        <ele>470</ele>
        <time>2018-04-01T16:37:01Z</time>
      </trkpt>
      <trkpt lat="44.2017" lon="3.82803">
        <ele>468</ele>
      </trkpt>
      <trkpt lat="44.20172" lon="3.82814">
        <ele>466</ele>
      </trkpt>
      <trkpt lat="44.20195" lon="3.82812">
        <ele>467</ele>
      </trkpt>
      <trkpt lat="44.20201" lon="3.82816">
        <ele>466</ele>
      </trkpt>
      <trkpt lat="44.20194" lon="3.82825">
        <ele>466</ele>
      </trkpt>
      <trkpt lat="44.20173" lon="3.82836">
        <ele>459</ele>
        <time>2018-04-01T16:40:01Z</time>
      </trkpt>
      <trkpt lat="44.20142" lon="3.82887">
        <ele>457</ele>
        <time>2018-04-01T16:41:01Z</time>
      </trkpt>
      <trkpt lat="44.20105" lon="3.8291">
        <ele>458</ele>
      </trkpt>
      <trkpt lat="44.20061" lon="3.82921">
        <ele>460</ele>
        <time>2018-04-01T16:42:01Z</time>
      </trkpt>
      <trkpt lat="44.20039" lon="3.8296">
        <ele>461</ele>
        <time>2018-04-01T16:43:01Z</time>
      </trkpt>
      <trkpt lat="44.20056" lon="3.83004">
        <ele>445</ele>
        <time>2018-04-01T16:44:01Z</time>
      </trkpt>
      <trkpt lat="44.20048" lon="3.83078">
        <ele>441</ele>
        <time>2018-04-01T16:45:01Z</time>
      </trkpt>
      <trkpt lat="44.20019" lon="3.83141">
        <ele>435</ele>
      </trkpt>
      <trkpt lat="44.19986" lon="3.83189">
        <ele>434</ele>
        <time>2018-04-01T16:46:01Z</time>
      </trkpt>
      <trkpt lat="44.19973" lon="3.83199">
        <ele>432</ele>
      </trkpt>
      <trkpt lat="44.19958" lon="3.83201">
        <ele>432</ele>
        <time>2018-04-01T16:47:01Z</time>
      </trkpt>
      <trkpt lat="44.19909" lon="3.8318">
        <ele>439</ele>
        <time>2018-04-01T16:48:01Z</time>
      </trkpt>
      <trkpt lat="44.19879" lon="3.83182">
        <ele>439</ele>
        <time>2018-04-01T16:49:01Z</time>
      </trkpt>
      <trkpt lat="44.19879" lon="3.83221">
        <ele>434</ele>
        <time>2018-04-01T16:50:01Z</time>
      </trkpt>
      <trkpt lat="44.19862" lon="3.83274">
        <ele>418</ele>
      </trkpt>
      <trkpt lat="44.19838" lon="3.83326">
        <ele>411</ele>
        <time>2018-04-01T16:51:01Z</time>
      </trkpt>
      <trkpt lat="44.19827" lon="3.83332">
        <ele>409</ele>
      </trkpt>
      <trkpt lat="44.19819" lon="3.83334">
        <ele>401</ele>
        <time>2018-04-01T16:52:01Z</time>
      </trkpt>
      <trkpt lat="44.19773" lon="3.83303">
        <ele>408</ele>
        <time>2018-04-01T16:53:01Z</time>
      </trkpt>
      <trkpt lat="44.19729" lon="3.83244">
        <ele>422</ele>
        <time>2018-04-01T16:54:01Z</time>
      </trkpt>
      <trkpt lat="44.19709" lon="3.83245">
        <ele>424</ele>
      </trkpt>
      <trkpt lat="44.19695" lon="3.83253">
        <ele>409</ele>
        <time>2018-04-01T16:55:01Z</time>
      </trkpt>
      <trkpt lat="44.19693" lon="3.83278">
        <ele>407</ele>
      </trkpt>
      <trkpt lat="44.19697" lon="3.83329">
        <ele>402</ele>
        <time>2018-04-01T16:56:01Z</time>
      </trkpt>
      <trkpt lat="44.19676" lon="3.83347">
        <ele>393</ele>
      </trkpt>
      <trkpt lat="44.19655" lon="3.83358">
        <ele>397</ele>
        <time>2018-04-01T16:57:01Z</time>
      </trkpt>
      <trkpt lat="44.19631" lon="3.83342">
        <ele>399</ele>
        <time>2018-04-01T16:58:01Z</time>
      </trkpt>
      <trkpt lat="44.19615" lon="3.83366">
        <ele>398</ele>
        <time>2018-04-01T16:59:01Z</time>
      </trkpt>
      <trkpt lat="44.19573" lon="3.83391">
        <ele>405</ele>
        <time>2018-04-01T17:00:01Z</time>
      </trkpt>
      <trkpt lat="44.19562" lon="3.83444">
        <ele>392</ele>
        <time>2018-04-01T17:01:01Z</time>
      </trkpt>
      <trkpt lat="44.19522" lon="3.83496">
        <ele>391</ele>
        <time>2018-04-01T17:02:01Z</time>
      </trkpt>
      <trkpt lat="44.195" lon="3.83507">
        <ele>388</ele>
      </trkpt>
      <trkpt lat="44.19489" lon="3.83518">
        <ele>394</ele>
        <time>2018-04-01T17:03:01Z</time>
      </trkpt>
      <trkpt lat="44.19495" lon="3.83548">
        <ele>393</ele>
      </trkpt>
      <trkpt lat="44.1954" lon="3.83608">
        <ele>373</ele>
        <time>2018-04-01T17:05:01Z</time>
      </trkpt>
      <trkpt lat="44.19543" lon="3.8363">
        <ele>372</ele>
      </trkpt>
      <trkpt lat="44.1954" lon="3.83651">
        <ele>372</ele>
        <time>2018-04-01T17:06:01Z</time>
      </trkpt>
      <trkpt lat="44.19514" lon="3.83694">
        <ele>369</ele>
        <time>2018-04-01T17:07:01Z</time>
      </trkpt>
      <trkpt lat="44.19493" lon="3.83765">
        <ele>374</ele>
      </trkpt>
      <trkpt lat="44.19488" lon="3.83796">
        <ele>373</ele>
        <time>2018-04-01T17:08:01Z</time>
      </trkpt>
      <trkpt lat="44.19458" lon="3.8391">
        <ele>362</ele>
        <time>2018-04-01T17:09:01Z</time>
      </trkpt>
      <trkpt lat="44.19442" lon="3.83928">
        <ele>356</ele>
        <time>2018-04-01T17:10:01Z</time>
      </trkpt>
      <trkpt lat="44.19434" lon="3.83927">
        <ele>357</ele>
      </trkpt>
      <trkpt lat="44.19408" lon="3.83937">
        <ele>358</ele>
      </trkpt>
      <trkpt lat="44.19382" lon="3.83938">
        <ele>357</ele>
        <time>2018-04-01T17:11:01Z</time>
      </trkpt>
      <trkpt lat="44.19359" lon="3.83912">
        <ele>370</ele>
      </trkpt>
      <trkpt lat="44.19348" lon="3.83905">
        <ele>370</ele>
        <time>2018-04-01T17:12:01Z</time>
      </trkpt>
      <trkpt lat="44.19334" lon="3.83921">
        <ele>362</ele>
      </trkpt>
      <trkpt lat="44.19319" lon="3.83951">
        <ele>351</ele>
        <time>2018-04-01T17:13:01Z</time>
      </trkpt>
      <trkpt lat="44.1929" lon="3.83962">
        <ele>349</ele>
      </trkpt>
      <trkpt lat="44.19248" lon="3.83966">
        <ele>337</ele>
      </trkpt>
      <trkpt lat="44.19222" lon="3.83976">
        <ele>333</ele>
        <time>2018-04-01T17:14:01Z</time>
      </trkpt>
      <trkpt lat="44.19199" lon="3.83941">
        <ele>333</ele>
        <time>2018-04-01T17:15:01Z</time>
      </trkpt>
      <trkpt lat="44.19186" lon="3.83937">
        <ele>332</ele>
      </trkpt>
      <trkpt lat="44.19175" lon="3.83926">
        <ele>330</ele>
        <time>2018-04-01T17:16:01Z</time>
      </trkpt>
      <trkpt lat="44.19169" lon="3.8389">
        <ele>343</ele>
        <time>2018-04-01T17:17:01Z</time>
      </trkpt>
      <trkpt lat="44.19129" lon="3.83838">
        <ele>323</ele>
      </trkpt>
      <trkpt lat="44.19088" lon="3.83787">
        <ele>323</ele>
        <time>2018-04-01T17:18:01Z</time>
      </trkpt>
      <trkpt lat="44.19088" lon="3.83763">
        <ele>320</ele>
      </trkpt>
      <trkpt lat="44.19093" lon="3.83746">
        <ele>320</ele>
        <time>2018-04-01T17:19:01Z</time>
      </trkpt>
      <trkpt lat="44.19136" lon="3.8369">
        <ele>332</ele>
        <time>2018-04-01T17:20:01Z</time>
      </trkpt>
      <trkpt lat="44.19117" lon="3.83684">
        <ele>329</ele>
      </trkpt>
      <trkpt lat="44.19079" lon="3.83694">
        <ele>314</ele>
      </trkpt>
      <trkpt lat="44.19045" lon="3.83692">
        <ele>310</ele>
        <time>2018-04-01T17:21:01Z</time>
      </trkpt>
      <trkpt lat="44.18998" lon="3.83632">
        <ele>301</ele>
        <time>2018-04-01T17:22:01Z</time>
      </trkpt>
      <trkpt lat="44.18972" lon="3.83567">
        <ele>307</ele>
      </trkpt>
      <trkpt lat="44.18927" lon="3.83519">
        <ele>303</ele>
        <time>2018-04-01T17:24:01Z</time>
      </trkpt>
      <trkpt lat="44.18905" lon="3.83454">
        <ele>295</ele>
        <time>2018-04-01T17:25:01Z</time>
      </trkpt>
      <trkpt lat="44.18892" lon="3.83398">
        <ele>302</ele>
        <time>2018-04-01T17:26:01Z</time>
      </trkpt>
      <trkpt lat="44.18869" lon="3.83358">
        <ele>301</ele>
      </trkpt>
      <trkpt lat="44.18845" lon="3.83327">
        <ele>302</ele>
        <time>2018-04-01T17:27:01Z</time>
      </trkpt>
      <trkpt lat="44.18818" lon="3.83325">
        <ele>294</ele>
      </trkpt>
      <trkpt lat="44.18785" lon="3.83342">
        <ele>285</ele>
        <time>2018-04-01T17:28:01Z</time>
      </trkpt>
      <trkpt lat="44.18723" lon="3.83403">
        <ele>273</ele>
      </trkpt>
      <trkpt lat="44.18706" lon="3.83406">
        <ele>272</ele>
      </trkpt>
      <trkpt lat="44.18689" lon="3.83398">
        <ele>271</ele>
      </trkpt>
      <trkpt lat="44.18682" lon="3.8338">
        <ele>271</ele>
      </trkpt>
      <trkpt lat="44.18679" lon="3.83361">
        <ele>271</ele>
        <time>2018-04-01T17:31:01Z</time>
      </trkpt>
      <trkpt lat="44.18701" lon="3.83276">
        <ele>275</ele>
      </trkpt>
      <trkpt lat="44.18704" lon="3.8325">
        <ele>275</ele>
        <time>2018-04-01T17:32:01Z</time>
      </trkpt>
      <trkpt lat="44.18658" lon="3.83226">
        <ele>275</ele>
        <time>2018-04-01T17:33:01Z</time>
      </trkpt>
      <trkpt lat="44.18614" lon="3.83272">
        <ele>278</ele>
        <time>2018-04-01T17:34:01Z</time>
      </trkpt>
      <trkpt lat="44.1858" lon="3.83354">
        <ele>276</ele>
        <time>2018-04-01T17:35:01Z</time>
      </trkpt>
      <trkpt lat="44.18498" lon="3.83467">
        <ele>273</ele>
        <time>2018-04-01T17:36:01Z</time>
      </trkpt>
      <trkpt lat="44.18399" lon="3.83516">
        <ele>270</ele>
        <time>2018-04-01T17:37:01Z</time>
      </trkpt>
      <trkpt lat="44.18361" lon="3.83512">
        <ele>271</ele>
        <time>2018-04-01T17:38:01Z</time>
      </trkpt>
      <trkpt lat="44.18236" lon="3.83521">
        <ele>278</ele>
        <time>2018-04-01T17:39:01Z</time>
      </trkpt>
      <trkpt lat="44.18118" lon="3.83518">
        <ele>284</ele>
        <time>2018-04-01T17:40:01Z</time>
      </trkpt>
      <trkpt lat="44.18101" lon="3.83529">
        <ele>284</ele>
        <time>2018-04-01T17:41:01Z</time>
      </trkpt>
      <trkpt lat="44.18105" lon="3.83568">
        <ele>278</ele>
        <time>2018-04-01T17:42:01Z</time>
      </trkpt>
      <trkpt lat="44.18078" lon="3.83643">
        <ele>272</ele>
        <time>2018-04-01T17:43:01Z</time>
      </trkpt>
      <trkpt lat="44.18052" lon="3.83652">
        <ele>274</ele>
        <time>2018-04-01T17:44:01Z</time>
      </trkpt>
      <trkpt lat="44.17956" lon="3.83654">
        <ele>281</ele>
        <time>2018-04-01T17:45:01Z</time>
      </trkpt>
      <trkpt lat="44.17869" lon="3.83738">
        <ele>275</ele>
        <time>2018-04-01T17:46:01Z</time>
      </trkpt>
      <trkpt lat="44.17851" lon="3.83783">
        <ele>267</ele>
        <time>2018-04-01T17:47:01Z</time>
      </trkpt>
      <trkpt lat="44.17814" lon="3.83807">
        <ele>276</ele>
        <time>2018-04-01T17:48:01Z</time>
      </trkpt>
      <trkpt lat="44.17771" lon="3.8381">
        <ele>281</ele>
        <time>2018-04-01T17:49:01Z</time>
      </trkpt>
      <trkpt lat="44.17721" lon="3.83846">
        <ele>279</ele>
        <time>2018-04-01T17:50:01Z</time>
      </trkpt>
      <trkpt lat="44.17688" lon="3.83856">
        <ele>284</ele>
        <time>2018-04-01T17:51:01Z</time>
      </trkpt>
      <trkpt lat="44.17634" lon="3.83918">
        <ele>285</ele>
        <time>2018-04-01T17:52:01Z</time>
      </trkpt>
      <trkpt lat="44.17624" lon="3.83966">
        <ele>285</ele>
        <time>2018-04-01T17:53:01Z</time>
      </trkpt>
      <trkpt lat="44.17597" lon="3.84028">
        <ele>284</ele>
        <time>2018-04-01T17:54:01Z</time>
      </trkpt>
      <trkpt lat="44.1755" lon="3.8422">
        <ele>291</ele>
        <time>2018-04-01T17:55:01Z</time>
      </trkpt>
      <trkpt lat="44.17504" lon="3.84271">
        <ele>290</ele>
        <time>2018-04-01T17:56:01Z</time>
      </trkpt>
      <trkpt lat="44.17443" lon="3.84267">
        <ele>289</ele>
        <time>2018-04-01T17:57:01Z</time>
      </trkpt>
      <trkpt lat="44.1735" lon="3.84217">
        <ele>283</ele>
        <time>2018-04-01T17:58:01Z</time>
      </trkpt>
      <trkpt lat="44.17276" lon="3.84219">
        <ele>272</ele>
        <time>2018-04-01T17:59:01Z</time>
      </trkpt>
      <trkpt lat="44.17223" lon="3.84145">
        <ele>266</ele>
        <time>2018-04-01T18:00:01Z</time>
      </trkpt>
      <trkpt lat="44.17197" lon="3.84126">
        <ele>263</ele>
        <time>2018-04-01T18:01:01Z</time>
      </trkpt>
      <trkpt lat="44.17234" lon="3.84084">
        <ele>264</ele>
        <time>2018-04-01T18:02:01Z</time>
      </trkpt>
      <trkpt lat="44.17151" lon="3.83975">
        <ele>253</ele>
        <time>2018-04-01T18:03:01Z</time>
      </trkpt>
      <trkpt lat="44.17124" lon="3.8391">
        <ele>258</ele>
        <time>2018-04-01T18:04:01Z</time>
      </trkpt>
      <trkpt lat="44.17042" lon="3.83883">
        <ele>266</ele>
        <time>2018-04-01T18:05:01Z</time>
      </trkpt>
      <trkpt lat="44.16927" lon="3.8397">
        <ele>266</ele>
        <time>2018-04-01T18:06:01Z</time>
      </trkpt>
      <trkpt lat="44.16804" lon="3.84165">
        <ele>260</ele>
        <time>2018-04-01T18:07:01Z</time>
      </trkpt>
      <trkpt lat="44.16776" lon="3.8422">
        <ele>257</ele>
        <time>2018-04-01T18:08:01Z</time>
      </trkpt>
      <trkpt lat="44.16748" lon="3.84232">
        <ele>259</ele>
        <time>2018-04-01T18:09:01Z</time>
      </trkpt>
      <trkpt lat="44.16326" lon="3.84199">
        <ele>263</ele>
        <time>2018-04-01T18:10:01Z</time>
      </trkpt>
      <trkpt lat="44.16333" lon="3.84149">
        <ele>262</ele>
        <time>2018-04-01T18:11:01Z</time>
      </trkpt>
      <trkpt lat="44.16324" lon="3.84112">
        <ele>264</ele>
        <time>2018-04-01T18:12:01Z</time>
      </trkpt>
      <trkpt lat="44.16311" lon="3.84166">
        <ele>265</ele>
        <time>2018-04-01T18:13:01Z</time>
      </trkpt>
      <trkpt lat="44.1628" lon="3.84233">
        <ele>271</ele>
        <time>2018-04-01T18:14:01Z</time>
      </trkpt>
      <trkpt lat="44.16284" lon="3.8419">
        <ele>270</ele>
        <time>2018-04-01T18:15:01Z</time>
      </trkpt>
      <trkpt lat="44.16269" lon="3.84108">
        <ele>276</ele>
        <time>2018-04-01T18:16:01Z</time>
      </trkpt>
      <trkpt lat="44.16223" lon="3.84105">
        <ele>293</ele>
      </trkpt>
      <trkpt lat="44.16175" lon="3.8411">
        <ele>298</ele>
        <time>2018-04-01T18:18:01Z</time>
      </trkpt>
      <trkpt lat="44.1605" lon="3.84126">
        <ele>287</ele>
        <time>2018-04-01T18:19:01Z</time>
      </trkpt>
      <trkpt lat="44.15987" lon="3.84168">
        <ele>273</ele>
        <time>2018-04-01T18:20:01Z</time>
      </trkpt>
      <trkpt lat="44.15963" lon="3.84163">
        <ele>265</ele>
      </trkpt>
      <trkpt lat="44.15949" lon="3.84153">
        <ele>262</ele>
        <time>2018-04-01T18:22:01Z</time>
      </trkpt>
      <trkpt lat="44.15933" lon="3.84136">
        <ele>260</ele>
      </trkpt>
      <trkpt lat="44.1592" lon="3.84117">
        <ele>260</ele>
        <time>2018-04-01T18:23:01Z</time>
      </trkpt>
      <trkpt lat="44.159" lon="3.84115">
        <ele>246</ele>
      </trkpt>
      <trkpt lat="44.15899" lon="3.84149">
        <ele>246</ele>
      </trkpt>
      <trkpt lat="44.15897" lon="3.84166">
        <ele>246</ele>
      </trkpt>
      <trkpt lat="44.15852" lon="3.8407">
        <ele>242</ele>
        <time>2018-04-01T18:25:01Z</time>
      </trkpt>
      <trkpt lat="44.15812" lon="3.84049">
        <ele>238</ele>
        <time>2018-04-01T18:26:01Z</time>
      </trkpt>
      <trkpt lat="44.15684" lon="3.84063">
        <ele>236</ele>
        <time>2018-04-01T18:27:01Z</time>
      </trkpt>
      <trkpt lat="44.15678" lon="3.84121">
        <ele>237</ele>
        <time>2018-04-01T18:28:01Z</time>
      </trkpt>
      <trkpt lat="44.15655" lon="3.84132">
        <ele>246</ele>
        <time>2018-04-01T18:29:01Z</time>
      </trkpt>
      <trkpt lat="44.15675" lon="3.84147">
        <ele>240</ele>
        <time>2018-04-01T18:30:01Z</time>
      </trkpt>
      <trkpt lat="44.15676" lon="3.84225">
        <ele>252</ele>
        <time>2018-04-01T18:31:01Z</time>
      </trkpt>
      <trkpt lat="44.15686" lon="3.84263">
        <ele>260</ele>
        <time>2018-04-01T18:32:01Z</time>
      </trkpt>
      <trkpt lat="44.15657" lon="3.84233">
        <ele>267</ele>
        <time>2018-04-01T18:33:01Z</time>
      </trkpt>
      <trkpt lat="44.1563" lon="3.8419">
        <ele>265</ele>
        <time>2018-04-01T18:34:01Z</time>
      </trkpt>
      <trkpt lat="44.15639" lon="3.84254">
        <ele>279</ele>
        <time>2018-04-01T18:35:01Z</time>
      </trkpt>
      <trkpt lat="44.15663" lon="3.84314">
        <ele>281</ele>
        <time>2018-04-01T18:36:01Z</time>
      </trkpt>
      <trkpt lat="44.15666" lon="3.84335">
        <ele>278</ele>
      </trkpt>
      <trkpt lat="44.15662" lon="3.84388">
        <ele>281</ele>
        <time>2018-04-01T18:37:01Z</time>
      </trkpt>
      <trkpt lat="44.15653" lon="3.84378">
        <ele>282</ele>
      </trkpt>
      <trkpt lat="44.15635" lon="3.84326">
        <ele>285</ele>
        <time>2018-04-01T18:38:01Z</time>
      </trkpt>
      <trkpt lat="44.15576" lon="3.84261">
        <ele>298</ele>
        <time>2018-04-01T18:39:01Z</time>
      </trkpt>
      <trkpt lat="44.15525" lon="3.84223">
        <ele>299</ele>
      </trkpt>
      <trkpt lat="44.15479" lon="3.84179">
        <ele>310</ele>
        <time>2018-04-01T18:40:01Z</time>
      </trkpt>
      <trkpt lat="44.15379" lon="3.84124">
        <ele>333</ele>
      </trkpt>
      <trkpt lat="44.15353" lon="3.84081">
        <ele>333</ele>
      </trkpt>
      <trkpt lat="44.15335" lon="3.84026">
        <ele>328</ele>
        <time>2018-04-01T18:42:01Z</time>
      </trkpt>
      <trkpt lat="44.15312" lon="3.83987">
        <ele>340</ele>
      </trkpt>
      <trkpt lat="44.15285" lon="3.83955">
        <ele>342</ele>
        <time>2018-04-01T18:43:01Z</time>
      </trkpt>
      <trkpt lat="44.15172" lon="3.83922">
        <ele>371</ele>
        <time>2018-04-01T18:44:01Z</time>
      </trkpt>
      <trkpt lat="44.15126" lon="3.8389">
        <ele>376</ele>
      </trkpt>
      <trkpt lat="44.15093" lon="3.83858">
        <ele>376</ele>
        <time>2018-04-01T18:45:01Z</time>
      </trkpt>
      <trkpt lat="44.15004" lon="3.83826">
        <ele>396</ele>
        <time>2018-04-01T18:46:01Z</time>
      </trkpt>
      <trkpt lat="44.14959" lon="3.83795">
        <ele>407</ele>
        <time>2018-04-01T18:47:01Z</time>
      </trkpt>
      <trkpt lat="44.14817" lon="3.8373">
        <ele>436</ele>
        <time>2018-04-01T18:48:01Z</time>
      </trkpt>
      <trkpt lat="44.14767" lon="3.83747">
        <ele>444</ele>
        <time>2018-04-01T18:49:01Z</time>
      </trkpt>
      <trkpt lat="44.14736" lon="3.83729">
        <ele>452</ele>
      </trkpt>
      <trkpt lat="44.14646" lon="3.83657">
        <ele>469</ele>
        <time>2018-04-01T18:50:01Z</time>
      </trkpt>
      <trkpt lat="44.14594" lon="3.83552">
        <ele>474</ele>
      </trkpt>
      <trkpt lat="44.14571" lon="3.83516">
        <ele>487</ele>
        <time>2018-04-01T18:51:01Z</time>
      </trkpt>
      <trkpt lat="44.14557" lon="3.83512">
        <ele>490</ele>
        <time>2018-04-01T18:52:01Z</time>
      </trkpt>
      <trkpt lat="44.14485" lon="3.83396">
        <ele>506</ele>
        <time>2018-04-01T18:53:01Z</time>
      </trkpt>
      <trkpt lat="44.14483" lon="3.83413">
        <ele>505</ele>
        <time>2018-04-01T18:54:01Z</time>
      </trkpt>
      <trkpt lat="44.14491" lon="3.83458">
        <ele>511</ele>
        <time>2018-04-01T18:55:01Z</time>
      </trkpt>
      <trkpt lat="44.14487" lon="3.83541">
        <ele>507</ele>
        <time>2018-04-01T18:56:01Z</time>
      </trkpt>
      <trkpt lat="44.14467" lon="3.83548">
        <ele>506</ele>
        <time>2018-04-01T18:57:01Z</time>
      </trkpt>
      <trkpt lat="44.14423" lon="3.835">
        <ele>521</ele>
        <time>2018-04-01T18:58:01Z</time>
      </trkpt>
      <trkpt lat="44.14364" lon="3.83508">
        <ele>507</ele>
        <time>2018-04-01T18:59:01Z</time>
      </trkpt>
      <trkpt lat="44.14338" lon="3.83496">
        <ele>518</ele>
        <time>2018-04-01T19:00:01Z</time>
      </trkpt>
      <trkpt lat="44.14308" lon="3.83454">
        <ele>528</ele>
        <time>2018-04-01T19:01:01Z</time>
      </trkpt>
      <trkpt lat="44.1427" lon="3.8345">
        <ele>528</ele>
        <time>2018-04-01T19:02:01Z</time>
      </trkpt>
      <trkpt lat="44.14224" lon="3.83421">
        <ele>536</ele>
        <time>2018-04-01T19:03:01Z</time>
      </trkpt>
      <trkpt lat="44.14133" lon="3.83458">
        <ele>541</ele>
        <time>2018-04-01T19:04:01Z</time>
      </trkpt>
      <trkpt lat="44.14051" lon="3.83429">
        <ele>554</ele>
        <time>2018-04-01T19:05:01Z</time>
      </trkpt>
      <trkpt lat="44.13946" lon="3.8341">
        <ele>578</ele>
        <time>2018-04-01T19:06:01Z</time>
      </trkpt>
      <trkpt lat="44.13909" lon="3.83393">
        <ele>583</ele>
        <time>2018-04-01T19:07:01Z</time>
      </trkpt>
      <trkpt lat="44.1386" lon="3.83413">
        <ele>584</ele>
        <time>2018-04-01T19:08:01Z</time>
      </trkpt>
      <trkpt lat="44.13814" lon="3.83411">
        <ele>586</ele>
        <time>2018-04-01T19:09:01Z</time>
      </trkpt>
      <trkpt lat="44.13771" lon="3.83389">
        <ele>591</ele>
        <time>2018-04-01T19:10:01Z</time>
      </trkpt>
      <trkpt lat="44.13741" lon="3.83398">
        <ele>582</ele>
        <time>2018-04-01T19:11:01Z</time>
      </trkpt>
      <trkpt lat="44.13625" lon="3.8353">
        <ele>573</ele>
        <time>2018-04-01T19:12:01Z</time>
      </trkpt>
      <trkpt lat="44.1359" lon="3.83616">
        <ele>580</ele>
        <time>2018-04-01T19:13:01Z</time>
      </trkpt>
      <trkpt lat="44.13569" lon="3.83733">
        <ele>594</ele>
        <time>2018-04-01T19:14:01Z</time>
      </trkpt>
      <trkpt lat="44.13544" lon="3.83804">
        <ele>596</ele>
        <time>2018-04-01T19:15:01Z</time>
      </trkpt>
      <trkpt lat="44.13513" lon="3.83869">
        <ele>597</ele>
        <time>2018-04-01T19:16:01Z</time>
      </trkpt>
      <trkpt lat="44.13501" lon="3.83967">
        <ele>595</ele>
        <time>2018-04-01T19:17:01Z</time>
      </trkpt>
      <trkpt lat="44.13482" lon="3.8399">
        <ele>586</ele>
        <time>2018-04-01T19:18:01Z</time>
      </trkpt>
      <trkpt lat="44.13475" lon="3.83981">
        <ele>584</ele>
        <time>2018-04-01T19:19:01Z</time>
      </trkpt>
      <trkpt lat="44.13409" lon="3.84105">
        <ele>545</ele>
        <time>2018-04-01T19:20:01Z</time>
      </trkpt>
      <trkpt lat="44.13389" lon="3.84058">
        <ele>552</ele>
        <time>2018-04-01T19:21:01Z</time>
      </trkpt>
      <trkpt lat="44.13375" lon="3.84055">
        <ele>551</ele>
        <time>2018-04-01T19:22:01Z</time>
      </trkpt>
      <trkpt lat="44.13359" lon="3.84045">
        <ele>551</ele>
        <time>2018-04-01T19:23:01Z</time>
      </trkpt>
      <trkpt lat="44.13287" lon="3.84135">
        <ele>529</ele>
        <time>2018-04-01T19:24:01Z</time>
      </trkpt>
      <trkpt lat="44.13256" lon="3.84147">
        <ele>526</ele>
        <time>2018-04-01T19:25:01Z</time>
      </trkpt>
      <trkpt lat="44.13124" lon="3.84322">
        <ele>493</ele>
        <time>2018-04-01T19:26:01Z</time>
      </trkpt>
      <trkpt lat="44.1309" lon="3.84346">
        <ele>485</ele>
        <time>2018-04-01T19:27:01Z</time>
      </trkpt>
      <trkpt lat="44.13064" lon="3.84427">
        <ele>469</ele>
        <time>2018-04-01T19:28:01Z</time>
      </trkpt>
      <trkpt lat="44.1302" lon="3.84502">
        <ele>461</ele>
        <time>2018-04-01T19:29:01Z</time>
      </trkpt>
      <trkpt lat="44.13" lon="3.84554">
        <ele>462</ele>
        <time>2018-04-01T19:30:01Z</time>
      </trkpt>
      <trkpt lat="44.12897" lon="3.84638">
        <ele>451</ele>
        <time>2018-04-01T19:31:01Z</time>
      </trkpt>
      <trkpt lat="44.12745" lon="3.84708">
        <ele>449</ele>
        <time>2018-04-01T19:32:01Z</time>
      </trkpt>
      <trkpt lat="44.12645" lon="3.84718">
        <ele>436</ele>
        <time>2018-04-01T19:33:01Z</time>
      </trkpt>
      <trkpt lat="44.12553" lon="3.84771">
        <ele>426</ele>
        <time>2018-04-01T19:34:01Z</time>
      </trkpt>
      <trkpt lat="44.12471" lon="3.84791">
        <ele>412</ele>
        <time>2018-04-01T19:35:01Z</time>
      </trkpt>
      <trkpt lat="44.12388" lon="3.84787">
        <ele>402</ele>
      </trkpt>
      <trkpt lat="44.12307" lon="3.84774">
        <ele>394</ele>
        <time>2018-04-01T19:36:01Z</time>
      </trkpt>
      <trkpt lat="44.12231" lon="3.84791">
        <ele>387</ele>
        <time>2018-04-01T19:37:01Z</time>
      </trkpt>
      <trkpt lat="44.12207" lon="3.84785">
        <ele>386</ele>
        <time>2018-04-01T19:38:01Z</time>
      </trkpt>
      <trkpt lat="44.1217" lon="3.84805">
        <ele>384</ele>
        <time>2018-04-01T19:39:01Z</time>
      </trkpt>
      <trkpt lat="44.12094" lon="3.84812">
        <ele>372</ele>
        <time>2018-04-01T19:40:01Z</time>
      </trkpt>
      <trkpt lat="44.12015" lon="3.84862">
        <ele>360</ele>
        <time>2018-04-01T19:41:01Z</time>
      </trkpt>
      <trkpt lat="44.1189" lon="3.84918">
        <ele>326</ele>
        <time>2018-04-01T19:42:01Z</time>
      </trkpt>
      <trkpt lat="44.11899" lon="3.84844">
        <ele>330</ele>
        <time>2018-04-01T19:43:01Z</time>
      </trkpt>
      <trkpt lat="44.11956" lon="3.8469">
        <ele>322</ele>
        <time>2018-04-01T19:44:01Z</time>
      </trkpt>
      <trkpt lat="44.12031" lon="3.84543">
        <ele>298</ele>
        <time>2018-04-01T19:45:01Z</time>
      </trkpt>
      <trkpt lat="44.12139" lon="3.84505">
        <ele>302</ele>
        <time>2018-04-01T19:46:01Z</time>
      </trkpt>
      <trkpt lat="44.12024" lon="3.84475">
        <ele>274</ele>
        <time>2018-04-01T19:47:01Z</time>
      </trkpt>
      <trkpt lat="44.11922" lon="3.84545">
        <ele>272</ele>
        <time>2018-04-01T19:48:01Z</time>
      </trkpt>
      <trkpt lat="44.1191" lon="3.84588">
        <ele>269</ele>
        <time>2018-04-01T19:49:01Z</time>
      </trkpt>
      <trkpt lat="44.11856" lon="3.84623">
        <ele>262</ele>
        <time>2018-04-01T19:50:01Z</time>
      </trkpt>
      <trkpt lat="44.11817" lon="3.84698">
        <ele>256</ele>
        <time>2018-04-01T19:51:01Z</time>
      </trkpt>
      <trkpt lat="44.11744" lon="3.84752">
        <ele>243</ele>
        <time>2018-04-01T19:52:01Z</time>
      </trkpt>
      <trkpt lat="44.11722" lon="3.84783">
        <ele>242</ele>
        <time>2018-04-01T19:53:01Z</time>
      </trkpt>
      <trkpt lat="44.11646" lon="3.84845">
        <ele>228</ele>
        <time>2018-04-01T19:54:01Z</time>
      </trkpt>
      <trkpt lat="44.11559" lon="3.84955">
        <ele>214</ele>
        <time>2018-04-01T19:55:01Z</time>
      </trkpt>
      <trkpt lat="44.11546" lon="3.85037">
        <ele>214</ele>
        <time>2018-04-01T19:56:01Z</time>
      </trkpt>
      <trkpt lat="44.11514" lon="3.85099">
        <ele>212</ele>
        <time>2018-04-01T19:57:01Z</time>
      </trkpt>
      <trkpt lat="44.11506" lon="3.85188">
        <ele>218</ele>
        <time>2018-04-01T19:58:01Z</time>
      </trkpt>
      <trkpt lat="44.11472" lon="3.85328">
        <ele>212</ele>
        <time>2018-04-01T19:59:01Z</time>
      </trkpt>
      <trkpt lat="44.11407" lon="3.85438">
        <ele>206</ele>
        <time>2018-04-01T20:00:01Z</time>
      </trkpt>
      <trkpt lat="44.11368" lon="3.85573">
        <ele>210</ele>
        <time>2018-04-01T20:01:01Z</time>
      </trkpt>
      <trkpt lat="44.11274" lon="3.85765">
        <ele>210</ele>
        <time>2018-04-01T20:02:01Z</time>
      </trkpt>
      <trkpt lat="44.11237" lon="3.86066">
        <ele>213</ele>
        <time>2018-04-01T20:03:01Z</time>
      </trkpt>
      <trkpt lat="44.112" lon="3.86192">
        <ele>214</ele>
        <time>2018-04-01T20:04:01Z</time>
      </trkpt>
      <trkpt lat="44.11224" lon="3.86297">
        <ele>213</ele>
        <time>2018-04-01T20:05:01Z</time>
      </trkpt>
      <trkpt lat="44.11302" lon="3.86487">
        <ele>211</ele>
        <time>2018-04-01T20:06:01Z</time>
      </trkpt>
      <trkpt lat="44.11445" lon="3.86772">
        <ele>211</ele>
        <time>2018-04-01T20:07:01Z</time>
      </trkpt>
      <trkpt lat="44.11465" lon="3.86887">
        <ele>209</ele>
        <time>2018-04-01T20:08:01Z</time>
      </trkpt>
      <trkpt lat="44.11449" lon="3.87036">
        <ele>206</ele>
        <time>2018-04-01T20:09:01Z</time>
      </trkpt>
      <trkpt lat="44.11423" lon="3.87161">
        <ele>207</ele>
        <time>2018-04-01T20:10:01Z</time>
      </trkpt>
      <trkpt lat="44.11341" lon="3.87271">
        <ele>209</ele>
        <time>2018-04-01T20:11:01Z</time>
      </trkpt>
      <trkpt lat="44.11237" lon="3.87326">
        <ele>198</ele>
        <time>2018-04-01T20:12:01Z</time>
      </trkpt>
      <trkpt lat="44.11207" lon="3.87183">
        <ele>197</ele>
        <time>2018-04-01T20:13:01Z</time>
      </trkpt>
      <trkpt lat="44.11157" lon="3.87205">
        <ele>200</ele>
        <time>2018-04-01T20:14:01Z</time>
      </trkpt>
      <trkpt lat="44.11069" lon="3.87184">
        <ele>203</ele>
        <time>2018-04-01T20:15:01Z</time>
      </trkpt>
      <trkpt lat="44.11002" lon="3.87183">
        <ele>204</ele>
        <time>2018-04-01T20:16:01Z</time>
      </trkpt>
      <trkpt lat="44.10975" lon="3.87224">
        <ele>201</ele>
        <time>2018-04-01T20:17:01Z</time>
      </trkpt>
      <trkpt lat="44.10905" lon="3.87215">
        <ele>212</ele>
        <time>2018-04-01T20:18:01Z</time>
      </trkpt>
      <trkpt lat="44.10777" lon="3.87285">
        <ele>208</ele>
        <time>2018-04-01T20:19:01Z</time>
      </trkpt>
      <trkpt lat="44.10707" lon="3.8735">
        <ele>214</ele>
        <time>2018-04-01T20:20:01Z</time>
      </trkpt>
      <trkpt lat="44.10657" lon="3.87454">
        <ele>222</ele>
        <time>2018-04-01T20:21:01Z</time>
      </trkpt>
      <trkpt lat="44.10619" lon="3.87579">
        <ele>210</ele>
        <time>2018-04-01T20:22:01Z</time>
      </trkpt>
      <trkpt lat="44.10573" lon="3.87704">
        <ele>206</ele>
        <time>2018-04-01T20:23:01Z</time>
      </trkpt>
      <trkpt lat="44.10503" lon="3.87828">
        <ele>191</ele>
        <time>2018-04-01T20:24:01Z</time>
      </trkpt>
      <trkpt lat="44.10512" lon="3.87862">
        <ele>188</ele>
        <time>2018-04-01T20:25:01Z</time>
      </trkpt>
      <trkpt lat="44.10436" lon="3.88037">
        <ele>188</ele>
        <time>2018-04-01T20:26:01Z</time>
      </trkpt>
      <trkpt lat="44.10387" lon="3.87997">
        <ele>199</ele>
        <time>2018-04-01T20:27:01Z</time>
      </trkpt>
      <trkpt lat="44.10242" lon="3.88321">
        <ele>190</ele>
        <time>2018-04-01T20:28:01Z</time>
      </trkpt>
      <trkpt lat="44.10534" lon="3.88478">
        <ele>194</ele>
        <time>2018-04-01T20:29:01Z</time>
      </trkpt>
      <trkpt lat="44.1063" lon="3.88563">
        <ele>194</ele>
        <time>2018-04-01T20:30:01Z</time>
      </trkpt>
      <trkpt lat="44.10677" lon="3.88646">
        <ele>200</ele>
        <time>2018-04-01T20:31:01Z</time>
      </trkpt>
      <trkpt lat="44.10721" lon="3.88761">
        <ele>199</ele>
        <time>2018-04-01T20:32:01Z</time>
      </trkpt>
      <trkpt lat="44.1075" lon="3.88783">
        <ele>202</ele>
        <time>2018-04-01T20:33:01Z</time>
      </trkpt>
      <trkpt lat="44.10769" lon="3.88786">
        <ele>203</ele>
        <time>2018-04-01T20:34:01Z</time>
      </trkpt>
      <trkpt lat="44.10793" lon="3.88883">
        <ele>204</ele>
        <time>2018-04-01T20:35:01Z</time>
      </trkpt>
      <trkpt lat="44.10802" lon="3.89014">
        <ele>217</ele>
        <time>2018-04-01T20:36:01Z</time>
      </trkpt>
      <trkpt lat="44.10848" lon="3.89141">
        <ele>226</ele>
        <time>2018-04-01T20:37:01Z</time>
      </trkpt>
      <trkpt lat="44.10856" lon="3.89188">
        <ele>231</ele>
        <time>2018-04-01T20:38:01Z</time>
      </trkpt>
      <trkpt lat="44.10875" lon="3.89225">
        <ele>231</ele>
        <time>2018-04-01T20:39:01Z</time>
      </trkpt>
      <trkpt lat="44.10872" lon="3.89269">
        <ele>235</ele>
        <time>2018-04-01T20:40:01Z</time>
      </trkpt>
      <trkpt lat="44.10861" lon="3.89302">
        <ele>237</ele>
        <time>2018-04-01T20:41:01Z</time>
      </trkpt>
      <trkpt lat="44.10884" lon="3.89383">
        <ele>240</ele>
        <time>2018-04-01T20:42:01Z</time>
      </trkpt>
      <trkpt lat="44.10895" lon="3.89491">
        <ele>250</ele>
        <time>2018-04-01T20:43:01Z</time>
      </trkpt>
      <trkpt lat="44.10952" lon="3.8961">
        <ele>262</ele>
        <time>2018-04-01T20:44:01Z</time>
      </trkpt>
      <trkpt lat="44.10966" lon="3.89652">
        <ele>264</ele>
        <time>2018-04-01T20:45:01Z</time>
      </trkpt>
      <trkpt lat="44.1101" lon="3.8972">
        <ele>277</ele>
        <time>2018-04-01T20:46:01Z</time>
      </trkpt>
      <trkpt lat="44.11036" lon="3.89698">
        <ele>275</ele>
        <time>2018-04-01T20:47:01Z</time>
      </trkpt>
      <trkpt lat="44.11058" lon="3.89696">
        <ele>275</ele>
        <time>2018-04-01T20:48:01Z</time>
      </trkpt>
      <trkpt lat="44.11106" lon="3.89742">
        <ele>286</ele>
        <time>2018-04-01T20:49:01Z</time>
      </trkpt>
      <trkpt lat="44.11057" lon="3.89739">
        <ele>280</ele>
        <time>2018-04-01T20:50:01Z</time>
      </trkpt>
      <trkpt lat="44.11085" lon="3.89758">
        <ele>291</ele>
        <time>2018-04-01T20:51:01Z</time>
      </trkpt>
      <trkpt lat="44.11112" lon="3.8978">
        <ele>299</ele>
        <time>2018-04-01T20:52:01Z</time>
      </trkpt>
      <trkpt lat="44.11137" lon="3.89773">
        <ele>299</ele>
        <time>2018-04-01T20:53:01Z</time>
      </trkpt>
      <trkpt lat="44.1117" lon="3.89779">
        <ele>298</ele>
        <time>2018-04-01T20:54:01Z</time>
      </trkpt>
      <trkpt lat="44.1118" lon="3.89799">
        <ele>300</ele>
        <time>2018-04-01T20:55:01Z</time>
      </trkpt>
      <trkpt lat="44.11176" lon="3.89839">
        <ele>311</ele>
        <time>2018-04-01T20:56:01Z</time>
      </trkpt>
      <trkpt lat="44.11274" lon="3.89883">
        <ele>305</ele>
        <time>2018-04-01T20:57:01Z</time>
      </trkpt>
      <trkpt lat="44.11314" lon="3.89961">
        <ele>317</ele>
        <time>2018-04-01T20:58:01Z</time>
      </trkpt>
      <trkpt lat="44.11343" lon="3.8996">
        <ele>307</ele>
        <time>2018-04-01T20:59:01Z</time>
      </trkpt>
      <trkpt lat="44.11358" lon="3.89972">
        <ele>307</ele>
        <time>2018-04-01T21:00:01Z</time>
      </trkpt>
      <trkpt lat="44.11318" lon="3.90077">
        <ele>322</ele>
        <time>2018-04-01T21:01:01Z</time>
      </trkpt>
      <trkpt lat="44.11361" lon="3.90117">
        <ele>309</ele>
        <time>2018-04-01T21:02:01Z</time>
      </trkpt>
      <trkpt lat="44.1139" lon="3.90168">
        <ele>318</ele>
        <time>2018-04-01T21:03:01Z</time>
      </trkpt>
      <trkpt lat="44.11437" lon="3.9015">
        <ele>298</ele>
        <time>2018-04-01T21:04:01Z</time>
      </trkpt>
      <trkpt lat="44.11477" lon="3.9019">
        <ele>306</ele>
        <time>2018-04-01T21:05:01Z</time>
      </trkpt>
      <trkpt lat="44.11518" lon="3.90266">
        <ele>304</ele>
        <time>2018-04-01T21:06:01Z</time>
      </trkpt>
      <trkpt lat="44.11539" lon="3.90364">
        <ele>304</ele>
        <time>2018-04-01T21:07:01Z</time>
      </trkpt>
      <trkpt lat="44.11498" lon="3.9045">
        <ele>330</ele>
        <time>2018-04-01T21:08:01Z</time>
      </trkpt>
      <trkpt lat="44.11529" lon="3.90584">
        <ele>318</ele>
        <time>2018-04-01T21:09:01Z</time>
      </trkpt>
      <trkpt lat="44.11502" lon="3.90634">
        <ele>323</ele>
        <time>2018-04-01T21:10:01Z</time>
      </trkpt>
      <trkpt lat="44.11554" lon="3.90698">
        <ele>322</ele>
        <time>2018-04-01T21:11:01Z</time>
      </trkpt>
      <trkpt lat="44.11583" lon="3.90758">
        <ele>320</ele>
        <time>2018-04-01T21:12:01Z</time>
      </trkpt>
      <trkpt lat="44.11626" lon="3.90797">
        <ele>305</ele>
        <time>2018-04-01T21:13:01Z</time>
      </trkpt>
      <trkpt lat="44.11646" lon="3.90842">
        <ele>312</ele>
        <time>2018-04-01T21:14:01Z</time>
      </trkpt>
      <trkpt lat="44.11687" lon="3.90846">
        <ele>297</ele>
        <time>2018-04-01T21:15:01Z</time>
      </trkpt>
      <trkpt lat="44.11705" lon="3.90884">
        <ele>298</ele>
        <time>2018-04-01T21:16:01Z</time>
      </trkpt>
      <trkpt lat="44.11726" lon="3.90883">
        <ele>295</ele>
        <time>2018-04-01T21:17:01Z</time>
      </trkpt>
      <trkpt lat="44.11756" lon="3.90857">
        <ele>281</ele>
        <time>2018-04-01T21:18:01Z</time>
      </trkpt>
      <trkpt lat="44.11756" lon="3.90857">
        <ele>281</ele>
        <time>2018-04-01T21:19:01Z</time>
      </trkpt>
      <trkpt lat="44.11781" lon="3.90857">
        <ele>280</ele>
        <time>2018-04-01T21:20:01Z</time>
      </trkpt>
      <trkpt lat="44.11812" lon="3.90843">
        <ele>277</ele>
        <time>2018-04-01T21:21:01Z</time>
      </trkpt>
      <trkpt lat="44.11851" lon="3.9085">
        <ele>269</ele>
        <time>2018-04-01T21:22:01Z</time>
      </trkpt>
      <trkpt lat="44.11897" lon="3.90827">
        <ele>259</ele>
        <time>2018-04-01T21:23:01Z</time>
      </trkpt>
      <trkpt lat="44.11924" lon="3.90829">
        <ele>256</ele>
        <time>2018-04-01T21:24:01Z</time>
      </trkpt>
      <trkpt lat="44.11963" lon="3.90775">
        <ele>248</ele>
        <time>2018-04-01T21:25:01Z</time>
      </trkpt>
      <trkpt lat="44.12011" lon="3.90733">
        <ele>242</ele>
        <time>2018-04-01T21:26:01Z</time>
      </trkpt>
      <trkpt lat="44.12042" lon="3.9073">
        <ele>241</ele>
        <time>2018-04-01T21:27:01Z</time>
      </trkpt>
      <trkpt lat="44.12103" lon="3.90797">
        <ele>236</ele>
        <time>2018-04-01T21:28:01Z</time>
      </trkpt>
      <trkpt lat="44.12179" lon="3.90779">
        <ele>234</ele>
        <time>2018-04-01T21:29:01Z</time>
      </trkpt>
      <trkpt lat="44.12191" lon="3.90842">
        <ele>233</ele>
        <time>2018-04-01T21:30:01Z</time>
      </trkpt>
      <trkpt lat="44.12209" lon="3.90859">
        <ele>233</ele>
        <time>2018-04-01T21:31:01Z</time>
      </trkpt>
      <trkpt lat="44.12211" lon="3.90915">
        <ele>233</ele>
        <time>2018-04-01T21:32:01Z</time>
      </trkpt>
      <trkpt lat="44.12194" lon="3.90949">
        <ele>227</ele>
        <time>2018-04-01T21:33:01Z</time>
      </trkpt>
      <trkpt lat="44.12223" lon="3.90975">
        <ele>227</ele>
        <time>2018-04-01T21:34:01Z</time>
      </trkpt>
      <trkpt lat="44.12237" lon="3.91015">
        <ele>223</ele>
        <time>2018-04-01T21:35:01Z</time>
      </trkpt>
      <trkpt lat="44.12265" lon="3.91003">
        <ele>229</ele>
        <time>2018-04-01T21:36:01Z</time>
      </trkpt>
      <trkpt lat="44.12269" lon="3.91026">
        <ele>229</ele>
        <time>2018-04-01T21:37:01Z</time>
      </trkpt>
      <trkpt lat="44.12235" lon="3.91076">
        <ele>221</ele>
        <time>2018-04-01T21:38:01Z</time>
      </trkpt>
      <trkpt lat="44.12188" lon="3.9106">
        <ele>216</ele>
        <time>2018-04-01T21:39:01Z</time>
      </trkpt>
      <trkpt lat="44.1217" lon="3.91079">
        <ele>210</ele>
        <time>2018-04-01T21:40:01Z</time>
      </trkpt>
      <trkpt lat="44.12186" lon="3.91155">
        <ele>209</ele>
        <time>2018-04-01T21:41:01Z</time>
      </trkpt>
      <trkpt lat="44.12239" lon="3.91246">
        <ele>199</ele>
        <time>2018-04-01T21:42:01Z</time>
      </trkpt>
      <trkpt lat="44.12239" lon="3.91292">
        <ele>193</ele>
        <time>2018-04-01T21:43:01Z</time>
      </trkpt>
      <trkpt lat="44.1227" lon="3.9137">
        <ele>188</ele>
        <time>2018-04-01T21:44:01Z</time>
      </trkpt>
      <trkpt lat="44.12335" lon="3.91461">
        <ele>179</ele>
        <time>2018-04-01T21:45:01Z</time>
      </trkpt>
      <trkpt lat="44.12362" lon="3.91469">
        <ele>178</ele>
        <time>2018-04-01T21:46:01Z</time>
      </trkpt>
      <trkpt lat="44.12397" lon="3.91442">
        <ele>180</ele>
        <time>2018-04-01T21:47:01Z</time>
      </trkpt>
      <trkpt lat="44.12427" lon="3.91467">
        <ele>185</ele>
        <time>2018-04-01T21:48:01Z</time>
      </trkpt>
      <trkpt lat="44.12431" lon="3.91523">
        <ele>182</ele>
        <time>2018-04-01T21:49:01Z</time>
      </trkpt>
      <trkpt lat="44.12423" lon="3.9159">
        <ele>177</ele>
        <time>2018-04-01T21:50:01Z</time>
      </trkpt>
      <trkpt lat="44.12407" lon="3.91625">
        <ele>174</ele>
        <time>2018-04-01T21:51:01Z</time>
      </trkpt>
      <trkpt lat="44.12418" lon="3.91655">
        <ele>178</ele>
        <time>2018-04-01T21:52:01Z</time>
      </trkpt>
      <trkpt lat="44.12523" lon="3.9169">
        <ele>189</ele>
        <time>2018-04-01T21:53:01Z</time>
      </trkpt>
      <trkpt lat="44.12536" lon="3.91777">
        <ele>191</ele>
        <time>2018-04-01T21:54:01Z</time>
      </trkpt>
      <trkpt lat="44.12576" lon="3.91725">
        <ele>192</ele>
        <time>2018-04-01T21:55:01Z</time>
      </trkpt>
      <trkpt lat="44.12601" lon="3.91751">
        <ele>200</ele>
        <time>2018-04-01T21:56:01Z</time>
      </trkpt>
      <trkpt lat="44.12609" lon="3.91759">
        <ele>202</ele>
      </trkpt>
      <trkpt lat="44.12624" lon="3.91754">
        <ele>204</ele>
      </trkpt>
      <trkpt lat="44.12639" lon="3.91769">
        <ele>207</ele>
        <time>2018-04-01T21:57:01Z</time>
      </trkpt>
      <trkpt lat="44.12642" lon="3.9175">
        <ele>207</ele>
      </trkpt>
      <trkpt lat="44.12666" lon="3.91756">
        <ele>211</ele>
      </trkpt>
      <trkpt lat="44.12685" lon="3.91781">
        <ele>221</ele>
      </trkpt>
      <trkpt lat="44.12727" lon="3.91802">
        <ele>227</ele>
      </trkpt>
      <trkpt lat="44.12745" lon="3.91827">
        <ele>235</ele>
      </trkpt>
      <trkpt lat="44.12781" lon="3.91847">
        <ele>250</ele>
      </trkpt>
      <trkpt lat="44.12801" lon="3.91843">
        <ele>255</ele>
      </trkpt>
      <trkpt lat="44.12815" lon="3.9185">
        <ele>257</ele>
      </trkpt>
      <trkpt lat="44.12826" lon="3.91799">
        <ele>253</ele>
      </trkpt>
      <trkpt lat="44.1282" lon="3.91772">
        <ele>252</ele>
      </trkpt>
      <trkpt lat="44.12805" lon="3.91751">
        <ele>250</ele>
      </trkpt>
      <trkpt lat="44.12813" lon="3.91721">
        <ele>244</ele>
      </trkpt>
      <trkpt lat="44.12845" lon="3.91717">
        <ele>258</ele>
      </trkpt>
      <trkpt lat="44.12876" lon="3.91703">
        <ele>259</ele>
      </trkpt>
      <trkpt lat="44.12903" lon="3.91697">
        <ele>260</ele>
      </trkpt>
      <trkpt lat="44.12922" lon="3.91709">
        <ele>267</ele>
      </trkpt>
      <trkpt lat="44.12923" lon="3.91727">
        <ele>270</ele>
      </trkpt>
      <trkpt lat="44.12916" lon="3.91742">
        <ele>271</ele>
        <time>2018-04-01T22:06:01Z</time>
      </trkpt>
      <trkpt lat="44.12918" lon="3.91758">
        <ele>278</ele>
      </trkpt>
      <trkpt lat="44.12917" lon="3.91809">
        <ele>287</ele>
      </trkpt>
      <trkpt lat="44.12923" lon="3.91821">
        <ele>289</ele>
        <time>2018-04-01T22:08:01Z</time>
      </trkpt>
      <trkpt lat="44.12944" lon="3.91847">
        <ele>299</ele>
      </trkpt>
      <trkpt lat="44.12953" lon="3.91879">
        <ele>303</ele>
        <time>2018-04-01T22:09:01Z</time>
      </trkpt>
      <trkpt lat="44.12967" lon="3.91933">
        <ele>318</ele>
      </trkpt>
      <trkpt lat="44.12973" lon="3.91958">
        <ele>321</ele>
      </trkpt>
      <trkpt lat="44.12989" lon="3.91978">
        <ele>328</ele>
      </trkpt>
      <trkpt lat="44.13068" lon="3.92018">
        <ele>349</ele>
      </trkpt>
      <trkpt lat="44.13095" lon="3.92055">
        <ele>358</ele>
      </trkpt>
      <trkpt lat="44.1313" lon="3.92147">
        <ele>377</ele>
        <time>2018-04-01T22:12:01Z</time>
      </trkpt>
      <trkpt lat="44.13122" lon="3.92257">
        <ele>388</ele>
        <time>2018-04-01T22:13:01Z</time>
      </trkpt>
      <trkpt lat="44.13143" lon="3.92308">
        <ele>389</ele>
        <time>2018-04-01T22:14:01Z</time>
      </trkpt>
      <trkpt lat="44.13156" lon="3.92348">
        <ele>393</ele>
        <time>2018-04-01T22:15:01Z</time>
      </trkpt>
      <trkpt lat="44.13187" lon="3.9237">
        <ele>390</ele>
        <time>2018-04-01T22:16:01Z</time>
      </trkpt>
      <trkpt lat="44.1317" lon="3.92451">
        <ele>397</ele>
        <time>2018-04-01T22:17:01Z</time>
      </trkpt>
      <trkpt lat="44.13197" lon="3.92505">
        <ele>409</ele>
        <time>2018-04-01T22:18:01Z</time>
      </trkpt>
      <trkpt lat="44.13233" lon="3.92512">
        <ele>405</ele>
        <time>2018-04-01T22:19:01Z</time>
      </trkpt>
      <trkpt lat="44.13366" lon="3.92604">
        <ele>408</ele>
        <time>2018-04-01T22:20:01Z</time>
      </trkpt>
      <trkpt lat="44.134" lon="3.92659">
        <ele>408</ele>
        <time>2018-04-01T22:21:01Z</time>
      </trkpt>
      <trkpt lat="44.13412" lon="3.92763">
        <ele>429</ele>
        <time>2018-04-01T22:22:01Z</time>
      </trkpt>
      <trkpt lat="44.13484" lon="3.92977">
        <ele>450</ele>
        <time>2018-04-01T22:23:01Z</time>
      </trkpt>
      <trkpt lat="44.13506" lon="3.92967">
        <ele>450</ele>
        <time>2018-04-01T22:24:01Z</time>
      </trkpt>
      <trkpt lat="44.13495" lon="3.92921">
        <ele>441</ele>
        <time>2018-04-01T22:25:01Z</time>
      </trkpt>
      <trkpt lat="44.13504" lon="3.92874">
        <ele>440</ele>
        <time>2018-04-01T22:26:01Z</time>
      </trkpt>
      <trkpt lat="44.13509" lon="3.92885">
        <ele>441</ele>
      </trkpt>
      <trkpt lat="44.13508" lon="3.92904">
        <ele>441</ele>
      </trkpt>
      <trkpt lat="44.13513" lon="3.92918">
        <ele>444</ele>
        <time>2018-04-01T22:27:01Z</time>
      </trkpt>
      <trkpt lat="44.13522" lon="3.92873">
        <ele>442</ele>
        <time>2018-04-01T22:28:01Z</time>
      </trkpt>
      <trkpt lat="44.13533" lon="3.92858">
        <ele>442</ele>
      </trkpt>
      <trkpt lat="44.1355" lon="3.92847">
        <ele>443</ele>
        <time>2018-04-01T22:29:01Z</time>
      </trkpt>
      <trkpt lat="44.13596" lon="3.9286">
        <ele>454</ele>
        <time>2018-04-01T22:30:01Z</time>
      </trkpt>
      <trkpt lat="44.1373" lon="3.9294">
        <ele>485</ele>
        <time>2018-04-01T22:31:01Z</time>
      </trkpt>
      <trkpt lat="44.1388" lon="3.92957">
        <ele>511</ele>
        <time>2018-04-01T22:32:01Z</time>
      </trkpt>
      <trkpt lat="44.13919" lon="3.92951">
        <ele>526</ele>
        <time>2018-04-01T22:33:01Z</time>
      </trkpt>
      <trkpt lat="44.13961" lon="3.92918">
        <ele>529</ele>
        <time>2018-04-01T22:34:01Z</time>
      </trkpt>
      <trkpt lat="44.14001" lon="3.92867">
        <ele>529</ele>
        <time>2018-04-01T22:35:01Z</time>
      </trkpt>
      <trkpt lat="44.14021" lon="3.92833">
        <ele>520</ele>
        <time>2018-04-01T22:36:01Z</time>
      </trkpt>
      <trkpt lat="44.14069" lon="3.92818">
        <ele>523</ele>
        <time>2018-04-01T22:37:01Z</time>
      </trkpt>
      <trkpt lat="44.14155" lon="3.92868">
        <ele>533</ele>
        <time>2018-04-01T22:38:01Z</time>
      </trkpt>
      <trkpt lat="44.14179" lon="3.9289">
        <ele>538</ele>
        <time>2018-04-01T22:39:01Z</time>
      </trkpt>
      <trkpt lat="44.14211" lon="3.92882">
        <ele>538</ele>
        <time>2018-04-01T22:40:01Z</time>
      </trkpt>
      <trkpt lat="44.14254" lon="3.92856">
        <ele>545</ele>
        <time>2018-04-01T22:41:01Z</time>
      </trkpt>
      <trkpt lat="44.14385" lon="3.92683">
        <ele>540</ele>
        <time>2018-04-01T22:42:01Z</time>
      </trkpt>
      <trkpt lat="44.14389" lon="3.92741">
        <ele>544</ele>
        <time>2018-04-01T22:43:01Z</time>
      </trkpt>
      <trkpt lat="44.14334" lon="3.92799">
        <ele>552</ele>
        <time>2018-04-01T22:44:01Z</time>
      </trkpt>
      <trkpt lat="44.14278" lon="3.92884">
        <ele>554</ele>
        <time>2018-04-01T22:45:01Z</time>
      </trkpt>
      <trkpt lat="44.14204" lon="3.92952">
        <ele>561</ele>
        <time>2018-04-01T22:46:01Z</time>
      </trkpt>
      <trkpt lat="44.14169" lon="3.92956">
        <ele>560</ele>
        <time>2018-04-01T22:47:01Z</time>
      </trkpt>
      <trkpt lat="44.14139" lon="3.92918">
        <ele>553</ele>
        <time>2018-04-01T22:48:01Z</time>
      </trkpt>
      <trkpt lat="44.14078" lon="3.92885">
        <ele>537</ele>
        <time>2018-04-01T22:49:01Z</time>
      </trkpt>
      <trkpt lat="44.14042" lon="3.92891">
        <ele>534</ele>
        <time>2018-04-01T22:50:01Z</time>
      </trkpt>
      <trkpt lat="44.13996" lon="3.92938">
        <ele>534</ele>
        <time>2018-04-01T22:51:01Z</time>
      </trkpt>
      <trkpt lat="44.1389" lon="3.9308">
        <ele>536</ele>
        <time>2018-04-01T22:52:01Z</time>
      </trkpt>
      <trkpt lat="44.1392" lon="3.93154">
        <ele>560</ele>
        <time>2018-04-01T22:53:01Z</time>
      </trkpt>
      <trkpt lat="44.13901" lon="3.93223">
        <ele>551</ele>
        <time>2018-04-01T22:54:01Z</time>
      </trkpt>
      <trkpt lat="44.13823" lon="3.93348">
        <ele>555</ele>
        <time>2018-04-01T22:55:01Z</time>
      </trkpt>
      <trkpt lat="44.13813" lon="3.93393">
        <ele>561</ele>
        <time>2018-04-01T22:56:01Z</time>
      </trkpt>
      <trkpt lat="44.1365" lon="3.93515">
        <ele>555</ele>
        <time>2018-04-01T22:57:01Z</time>
      </trkpt>
      <trkpt lat="44.13658" lon="3.93557">
        <ele>554</ele>
        <time>2018-04-01T22:58:01Z</time>
      </trkpt>
      <trkpt lat="44.13714" lon="3.93618">
        <ele>569</ele>
        <time>2018-04-01T22:59:01Z</time>
      </trkpt>
      <trkpt lat="44.13769" lon="3.93651">
        <ele>579</ele>
        <time>2018-04-01T23:00:01Z</time>
      </trkpt>
      <trkpt lat="44.1387" lon="3.93646">
        <ele>590</ele>
        <time>2018-04-01T23:01:01Z</time>
      </trkpt>
      <trkpt lat="44.13961" lon="3.93663">
        <ele>595</ele>
        <time>2018-04-01T23:02:01Z</time>
      </trkpt>
      <trkpt lat="44.14028" lon="3.93636">
        <ele>602</ele>
        <time>2018-04-01T23:03:01Z</time>
      </trkpt>
      <trkpt lat="44.14069" lon="3.93584">
        <ele>606</ele>
        <time>2018-04-01T23:04:01Z</time>
      </trkpt>
      <trkpt lat="44.14084" lon="3.93585">
        <ele>609</ele>
        <time>2018-04-01T23:05:01Z</time>
      </trkpt>
      <trkpt lat="44.14094" lon="3.93631">
        <ele>611</ele>
        <time>2018-04-01T23:06:01Z</time>
      </trkpt>
      <trkpt lat="44.14118" lon="3.93686">
        <ele>614</ele>
        <time>2018-04-01T23:07:01Z</time>
      </trkpt>
      <trkpt lat="44.14083" lon="3.93727">
        <ele>600</ele>
        <time>2018-04-01T23:08:01Z</time>
      </trkpt>
      <trkpt lat="44.14053" lon="3.93788">
        <ele>605</ele>
        <time>2018-04-01T23:09:01Z</time>
      </trkpt>
      <trkpt lat="44.14052" lon="3.93829">
        <ele>610</ele>
        <time>2018-04-01T23:10:01Z</time>
      </trkpt>
      <trkpt lat="44.14033" lon="3.93851">
        <ele>621</ele>
        <time>2018-04-01T23:11:01Z</time>
      </trkpt>
      <trkpt lat="44.13954" lon="3.93876">
        <ele>608</ele>
        <time>2018-04-01T23:12:01Z</time>
      </trkpt>
      <trkpt lat="44.13871" lon="3.9395">
        <ele>614</ele>
        <time>2018-04-01T23:13:01Z</time>
      </trkpt>
      <trkpt lat="44.13741" lon="3.94146">
        <ele>620</ele>
        <time>2018-04-01T23:14:01Z</time>
      </trkpt>
      <trkpt lat="44.13748" lon="3.94169">
        <ele>626</ele>
        <time>2018-04-01T23:15:01Z</time>
      </trkpt>
      <trkpt lat="44.13769" lon="3.94166">
        <ele>629</ele>
        <time>2018-04-01T23:16:01Z</time>
      </trkpt>
      <trkpt lat="44.13813" lon="3.9413">
        <ele>631</ele>
        <time>2018-04-01T23:17:01Z</time>
      </trkpt>
      <trkpt lat="44.13943" lon="3.94202">
        <ele>648</ele>
        <time>2018-04-01T23:18:01Z</time>
      </trkpt>
      <trkpt lat="44.14016" lon="3.94278">
        <ele>648</ele>
        <time>2018-04-01T23:19:01Z</time>
      </trkpt>
      <trkpt lat="44.14136" lon="3.94347">
        <ele>645</ele>
        <time>2018-04-01T23:20:01Z</time>
      </trkpt>
      <trkpt lat="44.14187" lon="3.94395">
        <ele>643</ele>
        <time>2018-04-01T23:21:01Z</time>
      </trkpt>
      <trkpt lat="44.14201" lon="3.94443">
        <ele>640</ele>
        <time>2018-04-01T23:22:01Z</time>
      </trkpt>
      <trkpt lat="44.14136" lon="3.94573">
        <ele>652</ele>
        <time>2018-04-01T23:23:01Z</time>
      </trkpt>
      <trkpt lat="44.14129" lon="3.94709">
        <ele>657</ele>
        <time>2018-04-01T23:24:01Z</time>
      </trkpt>
      <trkpt lat="44.14115" lon="3.94749">
        <ele>657</ele>
        <time>2018-04-01T23:25:01Z</time>
      </trkpt>
      <trkpt lat="44.1414" lon="3.94812">
        <ele>652</ele>
        <time>2018-04-01T23:26:01Z</time>
      </trkpt>
      <trkpt lat="44.14162" lon="3.94946">
        <ele>635</ele>
        <time>2018-04-01T23:27:01Z</time>
      </trkpt>
      <trkpt lat="44.14161" lon="3.9497">
        <ele>632</ele>
        <time>2018-04-01T23:28:01Z</time>
      </trkpt>
      <trkpt lat="44.14172" lon="3.95024">
        <ele>619</ele>
        <time>2018-04-01T23:29:01Z</time>
      </trkpt>
      <trkpt lat="44.14189" lon="3.9507">
        <ele>611</ele>
      </trkpt>
      <trkpt lat="44.14232" lon="3.95141">
        <ele>596</ele>
        <time>2018-04-01T23:30:01Z</time>
      </trkpt>
      <trkpt lat="44.14238" lon="3.95196">
        <ele>587</ele>
        <time>2018-04-01T23:31:01Z</time>
      </trkpt>
      <trkpt lat="44.14226" lon="3.95249">
        <ele>584</ele>
      </trkpt>
      <trkpt lat="44.14216" lon="3.95268">
        <ele>581</ele>
      </trkpt>
      <trkpt lat="44.14212" lon="3.95314">
        <ele>581</ele>
      </trkpt>
      <trkpt lat="44.14201" lon="3.95353">
        <ele>586</ele>
        <time>2018-04-01T23:32:01Z</time>
      </trkpt>
      <trkpt lat="44.14198" lon="3.95416">
        <ele>591</ele>
      </trkpt>
      <trkpt lat="44.14198" lon="3.95478">
        <ele>598</ele>
        <time>2018-04-01T23:33:01Z</time>
      </trkpt>
      <trkpt lat="44.14222" lon="3.95568">
        <ele>599</ele>
      </trkpt>
      <trkpt lat="44.14256" lon="3.95653">
        <ele>596</ele>
        <time>2018-04-01T23:34:01Z</time>
      </trkpt>
      <trkpt lat="44.1427" lon="3.95745">
        <ele>597</ele>
        <time>2018-04-01T23:35:01Z</time>
      </trkpt>
      <trkpt lat="44.14257" lon="3.95795">
        <ele>592</ele>
        <time>2018-04-01T23:36:01Z</time>
      </trkpt>
      <trkpt lat="44.14264" lon="3.95841">
        <ele>589</ele>
      </trkpt>
      <trkpt lat="44.14279" lon="3.95895">
        <ele>581</ele>
        <time>2018-04-01T23:37:01Z</time>
      </trkpt>
      <trkpt lat="44.14278" lon="3.95927">
        <ele>579</ele>
      </trkpt>
      <trkpt lat="44.14271" lon="3.9596">
        <ele>578</ele>
        <time>2018-04-01T23:38:01Z</time>
      </trkpt>
      <trkpt lat="44.14275" lon="3.95984">
        <ele>578</ele>
      </trkpt>
      <trkpt lat="44.14309" lon="3.96062">
        <ele>580</ele>
        <time>2018-04-01T23:40:01Z</time>
      </trkpt>
      <trkpt lat="44.14287" lon="3.96271">
        <ele>632</ele>
        <time>2018-04-01T23:41:01Z</time>
      </trkpt>
      <trkpt lat="44.14286" lon="3.96427">
        <ele>655</ele>
        <time>2018-04-01T23:42:01Z</time>
      </trkpt>
      <trkpt lat="44.14302" lon="3.96565">
        <ele>647</ele>
        <time>2018-04-01T23:43:01Z</time>
      </trkpt>
      <trkpt lat="44.14298" lon="3.96635">
        <ele>636</ele>
      </trkpt>
      <trkpt lat="44.14301" lon="3.96709">
        <ele>623</ele>
        <time>2018-04-01T23:44:01Z</time>
      </trkpt>
      <trkpt lat="44.14293" lon="3.96751">
        <ele>617</ele>
      </trkpt>
      <trkpt lat="44.14277" lon="3.96863">
        <ele>615</ele>
        <time>2018-04-01T23:45:01Z</time>
      </trkpt>
      <trkpt lat="44.1421" lon="3.97004">
        <ele>609</ele>
        <time>2018-04-01T23:46:01Z</time>
      </trkpt>
      <trkpt lat="44.14181" lon="3.97162">
        <ele>606</ele>
        <time>2018-04-01T23:47:01Z</time>
      </trkpt>
      <trkpt lat="44.14202" lon="3.97291">
        <ele>603</ele>
      </trkpt>
      <trkpt lat="44.14218" lon="3.97356">
        <ele>604</ele>
        <time>2018-04-01T23:48:01Z</time>
      </trkpt>
      <trkpt lat="44.1422" lon="3.97437">
        <ele>603</ele>
      </trkpt>
      <trkpt lat="44.14215" lon="3.97514">
        <ele>607</ele>
        <time>2018-04-01T23:49:01Z</time>
      </trkpt>
      <trkpt lat="44.14218" lon="3.97581">
        <ele>611</ele>
        <time>2018-04-01T23:50:01Z</time>
      </trkpt>
      <trkpt lat="44.14152" lon="3.97811">
        <ele>635</ele>
        <time>2018-04-01T23:51:01Z</time>
      </trkpt>
      <trkpt lat="44.14153" lon="3.97904">
        <ele>631</ele>
        <time>2018-04-01T23:52:01Z</time>
      </trkpt>
      <trkpt lat="44.14192" lon="3.97976">
        <ele>609</ele>
        <time>2018-04-01T23:53:01Z</time>
      </trkpt>
      <trkpt lat="44.1421" lon="3.98072">
        <ele>595</ele>
        <time>2018-04-01T23:54:01Z</time>
      </trkpt>
      <trkpt lat="44.14217" lon="3.98187">
        <ele>565</ele>
        <time>2018-04-01T23:55:01Z</time>
      </trkpt>
      <trkpt lat="44.14203" lon="3.98272">
        <ele>552</ele>
        <time>2018-04-01T23:56:01Z</time>
      </trkpt>
      <trkpt lat="44.14195" lon="3.98503">
        <ele>529</ele>
        <time>2018-04-01T23:57:01Z</time>
      </trkpt>
      <trkpt lat="44.14195" lon="3.98638">
        <ele>525</ele>
        <time>2018-04-01T23:58:01Z</time>
      </trkpt>
      <trkpt lat="44.14131" lon="3.98882">
        <ele>514</ele>
        <time>2018-04-01T23:59:01Z</time>
      </trkpt>
      <trkpt lat="44.14057" lon="3.9909">
        <ele>488</ele>
        <time>2018-04-02T00:00:01Z</time>
      </trkpt>
      <trkpt lat="44.14025" lon="3.99155">
        <ele>486</ele>
      </trkpt>
      <trkpt lat="44.13988" lon="3.99216">
        <ele>486</ele>
        <time>2018-04-02T00:01:01Z</time>
      </trkpt>
      <trkpt lat="44.13956" lon="3.99254">
        <ele>487</ele>
      </trkpt>
      <trkpt lat="44.1391" lon="3.99322">
        <ele>496</ele>
      </trkpt>
      <trkpt lat="44.13879" lon="3.99372">
        <ele>498</ele>
        <time>2018-04-02T00:02:01Z</time>
      </trkpt>
      <trkpt lat="44.13856" lon="3.99452">
        <ele>501</ele>
      </trkpt>
      <trkpt lat="44.13849" lon="3.99496">
        <ele>505</ele>
      </trkpt>
      <trkpt lat="44.13838" lon="3.99534">
        <ele>502</ele>
        <time>2018-04-02T00:03:01Z</time>
      </trkpt>
      <trkpt lat="44.13813" lon="3.99562">
        <ele>511</ele>
        <time>2018-04-02T00:04:01Z</time>
      </trkpt>
      <trkpt lat="44.13802" lon="3.99593">
        <ele>516</ele>
        <time>2018-04-02T00:05:01Z</time>
      </trkpt>
      <trkpt lat="44.13773" lon="3.99632">
        <ele>517</ele>
        <time>2018-04-02T00:06:01Z</time>
      </trkpt>
      <trkpt lat="44.13773" lon="3.99672">
        <ele>518</ele>
      </trkpt>
      <trkpt lat="44.13778" lon="3.99717">
        <ele>516</ele>
      </trkpt>
      <trkpt lat="44.13775" lon="3.99778">
        <ele>515</ele>
      </trkpt>
      <trkpt lat="44.13782" lon="3.9989">
        <ele>513</ele>
        <time>2018-04-02T00:07:01Z</time>
      </trkpt>
      <trkpt lat="44.13767" lon="4.00021">
        <ele>519</ele>
      </trkpt>
      <trkpt lat="44.13758" lon="4.00049">
        <ele>521</ele>
      </trkpt>
      <trkpt lat="44.13744" lon="4.00133">
        <ele>530</ele>
        <time>2018-04-02T00:08:01Z</time>
      </trkpt>
      <trkpt lat="44.13726" lon="4.00176">
        <ele>527</ele>
      </trkpt>
      <trkpt lat="44.13686" lon="4.00247">
        <ele>528</ele>
        <time>2018-04-02T00:09:01Z</time>
      </trkpt>
      <trkpt lat="44.13683" lon="4.00285">
        <ele>513</ele>
      </trkpt>
      <trkpt lat="44.13676" lon="4.00325">
        <ele>510</ele>
        <time>2018-04-02T00:10:01Z</time>
      </trkpt>
      <trkpt lat="44.13653" lon="4.00371">
        <ele>493</ele>
      </trkpt>
      <trkpt lat="44.13646" lon="4.00408">
        <ele>487</ele>
      </trkpt>
      <trkpt lat="44.13599" lon="4.00531">
        <ele>468</ele>
        <time>2018-04-02T00:11:01Z</time>
      </trkpt>
      <trkpt lat="44.13602" lon="4.00588">
        <ele>471</ele>
      </trkpt>
      <trkpt lat="44.13601" lon="4.00642">
        <ele>468</ele>
        <time>2018-04-02T00:12:01Z</time>
      </trkpt>
      <trkpt lat="44.13606" lon="4.00695">
        <ele>461</ele>
        <time>2018-04-02T00:13:01Z</time>
      </trkpt>
      <trkpt lat="44.13583" lon="4.00767">
        <ele>473</ele>
        <time>2018-04-02T00:14:01Z</time>
      </trkpt>
      <trkpt lat="44.13556" lon="4.00805">
        <ele>469</ele>
      </trkpt>
      <trkpt lat="44.13529" lon="4.00836">
        <ele>462</ele>
        <time>2018-04-02T00:15:01Z</time>
      </trkpt>
      <trkpt lat="44.13532" lon="4.00888">
        <ele>461</ele>
        <time>2018-04-02T00:16:01Z</time>
      </trkpt>
      <trkpt lat="44.13524" lon="4.00891">
        <ele>462</ele>
        <time>2018-04-02T00:17:01Z</time>
      </trkpt>
      <trkpt lat="44.13531" lon="4.00952">
        <ele>468</ele>
        <time>2018-04-02T00:18:01Z</time>
      </trkpt>
      <trkpt lat="44.13553" lon="4.01002">
        <ele>478</ele>
        <time>2018-04-02T00:19:01Z</time>
      </trkpt>
      <trkpt lat="44.13569" lon="4.01055">
        <ele>482</ele>
        <time>2018-04-02T00:20:01Z</time>
      </trkpt>
      <trkpt lat="44.13602" lon="4.01108">
        <ele>482</ele>
        <time>2018-04-02T00:21:01Z</time>
      </trkpt>
      <trkpt lat="44.13602" lon="4.01148">
        <ele>486</ele>
        <time>2018-04-02T00:22:01Z</time>
      </trkpt>
      <trkpt lat="44.1358" lon="4.01192">
        <ele>501</ele>
        <time>2018-04-02T00:23:01Z</time>
      </trkpt>
      <trkpt lat="44.13572" lon="4.01222">
        <ele>503</ele>
        <time>2018-04-02T00:24:01Z</time>
      </trkpt>
      <trkpt lat="44.13538" lon="4.01237">
        <ele>503</ele>
        <time>2018-04-02T00:25:01Z</time>
      </trkpt>
      <trkpt lat="44.13473" lon="4.01337">
        <ele>526</ele>
        <time>2018-04-02T00:26:01Z</time>
      </trkpt>
      <trkpt lat="44.13451" lon="4.01374">
        <ele>528</ele>
      </trkpt>
      <trkpt lat="44.13436" lon="4.01383">
        <ele>529</ele>
      </trkpt>
      <trkpt lat="44.13407" lon="4.01388">
        <ele>523</ele>
        <time>2018-04-02T00:28:01Z</time>
      </trkpt>
      <trkpt lat="44.13346" lon="4.01442">
        <ele>527</ele>
        <time>2018-04-02T00:29:01Z</time>
      </trkpt>
      <trkpt lat="44.13387" lon="4.01494">
        <ele>532</ele>
      </trkpt>
      <trkpt lat="44.13442" lon="4.0155">
        <ele>532</ele>
      </trkpt>
      <trkpt lat="44.13457" lon="4.01618">
        <ele>520</ele>
      </trkpt>
      <trkpt lat="44.13465" lon="4.01718">
        <ele>515</ele>
        <time>2018-04-02T00:32:01Z</time>
      </trkpt>
      <trkpt lat="44.13436" lon="4.01821">
        <ele>522</ele>
        <time>2018-04-02T00:33:01Z</time>
      </trkpt>
      <trkpt lat="44.13433" lon="4.01926">
        <ele>525</ele>
      </trkpt>
      <trkpt lat="44.13399" lon="4.02051">
        <ele>541</ele>
        <time>2018-04-02T00:35:01Z</time>
      </trkpt>
      <trkpt lat="44.13362" lon="4.02081">
        <ele>544</ele>
      </trkpt>
      <trkpt lat="44.13346" lon="4.0211">
        <ele>548</ele>
      </trkpt>
      <trkpt lat="44.13355" lon="4.02144">
        <ele>549</ele>
      </trkpt>
      <trkpt lat="44.13324" lon="4.022">
        <ele>545</ele>
      </trkpt>
      <trkpt lat="44.13335" lon="4.02227">
        <ele>549</ele>
        <time>2018-04-02T00:38:01Z</time>
      </trkpt>
      <trkpt lat="44.13385" lon="4.02276">
        <ele>548</ele>
        <time>2018-04-02T00:39:01Z</time>
      </trkpt>
      <trkpt lat="44.134" lon="4.0232">
        <ele>550</ele>
      </trkpt>
      <trkpt lat="44.1342" lon="4.02351">
        <ele>546</ele>
      </trkpt>
      <trkpt lat="44.13431" lon="4.02389">
        <ele>541</ele>
      </trkpt>
      <trkpt lat="44.13424" lon="4.0248">
        <ele>525</ele>
      </trkpt>
      <trkpt lat="44.13444" lon="4.02523">
        <ele>514</ele>
      </trkpt>
      <trkpt lat="44.13453" lon="4.02601">
        <ele>503</ele>
      </trkpt>
      <trkpt lat="44.13447" lon="4.02653">
        <ele>501</ele>
      </trkpt>
      <trkpt lat="44.13453" lon="4.02673">
        <ele>496</ele>
        <time>2018-04-02T00:41:01Z</time>
      </trkpt>
      <trkpt lat="44.13443" lon="4.02744">
        <ele>496</ele>
      </trkpt>
      <trkpt lat="44.13453" lon="4.02763">
        <ele>493</ele>
      </trkpt>
      <trkpt lat="44.13454" lon="4.02804">
        <ele>493</ele>
      </trkpt>
      <trkpt lat="44.13462" lon="4.02837">
        <ele>491</ele>
      </trkpt>
      <trkpt lat="44.1346" lon="4.02874">
        <ele>491</ele>
      </trkpt>
      <trkpt lat="44.13472" lon="4.02911">
        <ele>491</ele>
      </trkpt>
      <trkpt lat="44.1347" lon="4.02951">
        <ele>486</ele>
      </trkpt>
      <trkpt lat="44.13493" lon="4.02987">
        <ele>483</ele>
      </trkpt>
      <trkpt lat="44.13504" lon="4.03059">
        <ele>470</ele>
      </trkpt>
      <trkpt lat="44.13532" lon="4.03138">
        <ele>470</ele>
        <time>2018-04-02T00:43:01Z</time>
      </trkpt>
      <trkpt lat="44.13559" lon="4.03188">
        <ele>473</ele>
        <time>2018-04-02T00:44:01Z</time>
      </trkpt>
      <trkpt lat="44.13557" lon="4.03206">
        <ele>473</ele>
      </trkpt>
      <trkpt lat="44.13566" lon="4.0325">
        <ele>476</ele>
      </trkpt>
      <trkpt lat="44.13553" lon="4.03306">
        <ele>472</ele>
      </trkpt>
      <trkpt lat="44.13555" lon="4.03332">
        <ele>472</ele>
      </trkpt>
      <trkpt lat="44.13562" lon="4.0336">
        <ele>468</ele>
      </trkpt>
      <trkpt lat="44.13564" lon="4.03401">
        <ele>466</ele>
      </trkpt>
      <trkpt lat="44.13553" lon="4.03454">
        <ele>459</ele>
      </trkpt>
      <trkpt lat="44.13562" lon="4.03518">
        <ele>460</ele>
      </trkpt>
      <trkpt lat="44.13554" lon="4.03569">
        <ele>463</ele>
      </trkpt>
      <trkpt lat="44.13559" lon="4.03628">
        <ele>468</ele>
      </trkpt>
      <trkpt lat="44.13546" lon="4.0366">
        <ele>468</ele>
        <time>2018-04-02T00:48:01Z</time>
      </trkpt>
      <trkpt lat="44.13505" lon="4.03704">
        <ele>461</ele>
      </trkpt>
      <trkpt lat="44.13496" lon="4.0376">
        <ele>450</ele>
      </trkpt>
      <trkpt lat="44.1347" lon="4.03793">
        <ele>438</ele>
        <time>2018-04-02T00:50:01Z</time>
      </trkpt>
      <trkpt lat="44.1348" lon="4.03875">
        <ele>421</ele>
      </trkpt>
      <trkpt lat="44.13473" lon="4.03899">
        <ele>417</ele>
      </trkpt>
      <trkpt lat="44.13473" lon="4.03932">
        <ele>404</ele>
      </trkpt>
      <trkpt lat="44.13487" lon="4.03998">
        <ele>395</ele>
      </trkpt>
      <trkpt lat="44.13494" lon="4.04058">
        <ele>380</ele>
      </trkpt>
      <trkpt lat="44.13512" lon="4.04107">
        <ele>361</ele>
      </trkpt>
      <trkpt lat="44.13521" lon="4.04133">
        <ele>357</ele>
      </trkpt>
      <trkpt lat="44.13538" lon="4.04163">
        <ele>353</ele>
      </trkpt>
      <trkpt lat="44.13547" lon="4.04239">
        <ele>338</ele>
      </trkpt>
      <trkpt lat="44.13557" lon="4.04283">
        <ele>325</ele>
      </trkpt>
      <trkpt lat="44.13545" lon="4.04299">
        <ele>324</ele>
      </trkpt>
      <trkpt lat="44.13531" lon="4.04295">
        <ele>324</ele>
      </trkpt>
      <trkpt lat="44.13508" lon="4.04275">
        <ele>328</ele>
      </trkpt>
      <trkpt lat="44.1348" lon="4.04278">
        <ele>323</ele>
      </trkpt>
      <trkpt lat="44.13457" lon="4.04273">
        <ele>321</ele>
      </trkpt>
      <trkpt lat="44.13459" lon="4.04285">
        <ele>320</ele>
      </trkpt>
      <trkpt lat="44.13493" lon="4.04293">
        <ele>321</ele>
      </trkpt>
      <trkpt lat="44.13503" lon="4.04307">
        <ele>322</ele>
      </trkpt>
      <trkpt lat="44.13511" lon="4.04347">
        <ele>312</ele>
      </trkpt>
      <trkpt lat="44.13533" lon="4.04385">
        <ele>308</ele>
        <time>2018-04-02T01:04:01Z</time>
      </trkpt>
      <trkpt lat="44.1353" lon="4.04439">
        <ele>303</ele>
        <time>2018-04-02T01:05:01Z</time>
      </trkpt>
      <trkpt lat="44.13549" lon="4.04478">
        <ele>304</ele>
        <time>2018-04-02T01:06:01Z</time>
      </trkpt>
      <trkpt lat="44.13518" lon="4.04554">
        <ele>311</ele>
        <time>2018-04-02T01:07:01Z</time>
      </trkpt>
      <trkpt lat="44.13447" lon="4.04667">
        <ele>317</ele>
      </trkpt>
      <trkpt lat="44.13335" lon="4.04809">
        <ele>312</ele>
        <time>2018-04-02T01:09:01Z</time>
      </trkpt>
      <trkpt lat="44.13285" lon="4.04862">
        <ele>299</ele>
        <time>2018-04-02T01:10:01Z</time>
      </trkpt>
      <trkpt lat="44.13264" lon="4.04939">
        <ele>298</ele>
        <time>2018-04-02T01:11:01Z</time>
      </trkpt>
      <trkpt lat="44.13281" lon="4.05017">
        <ele>292</ele>
        <time>2018-04-02T01:12:01Z</time>
      </trkpt>
      <trkpt lat="44.13328" lon="4.05073">
        <ele>290</ele>
        <time>2018-04-02T01:13:01Z</time>
      </trkpt>
      <trkpt lat="44.13368" lon="4.05103">
        <ele>284</ele>
        <time>2018-04-02T01:14:01Z</time>
      </trkpt>
      <trkpt lat="44.13405" lon="4.05112">
        <ele>286</ele>
      </trkpt>
      <trkpt lat="44.13415" lon="4.05144">
        <ele>282</ele>
      </trkpt>
      <trkpt lat="44.13418" lon="4.05181">
        <ele>285</ele>
      </trkpt>
      <trkpt lat="44.13416" lon="4.05217">
        <ele>274</ele>
      </trkpt>
      <trkpt lat="44.13395" lon="4.05249">
        <ele>273</ele>
        <time>2018-04-02T01:17:01Z</time>
      </trkpt>
      <trkpt lat="44.13364" lon="4.05288">
        <ele>266</ele>
      </trkpt>
      <trkpt lat="44.13316" lon="4.05364">
        <ele>254</ele>
        <time>2018-04-02T01:18:01Z</time>
      </trkpt>
      <trkpt lat="44.13254" lon="4.05424">
        <ele>252</ele>
        <time>2018-04-02T01:19:01Z</time>
      </trkpt>
      <trkpt lat="44.13247" lon="4.05443">
        <ele>249</ele>
      </trkpt>
      <trkpt lat="44.13249" lon="4.05463">
        <ele>249</ele>
      </trkpt>
      <trkpt lat="44.13263" lon="4.05459">
        <ele>253</ele>
      </trkpt>
      <trkpt lat="44.1328" lon="4.05445">
        <ele>253</ele>
        <time>2018-04-02T01:21:01Z</time>
      </trkpt>
      <trkpt lat="44.13312" lon="4.05464">
        <ele>253</ele>
      </trkpt>
      <trkpt lat="44.13331" lon="4.05477">
        <ele>252</ele>
      </trkpt>
      <trkpt lat="44.13347" lon="4.05478">
        <ele>254</ele>
        <time>2018-04-02T01:22:01Z</time>
      </trkpt>
      <trkpt lat="44.13366" lon="4.05474">
        <ele>255</ele>
      </trkpt>
      <trkpt lat="44.13384" lon="4.05476">
        <ele>255</ele>
      </trkpt>
      <trkpt lat="44.13411" lon="4.05474">
        <ele>255</ele>
      </trkpt>
      <trkpt lat="44.13425" lon="4.05489">
        <ele>257</ele>
        <time>2018-04-02T01:24:01Z</time>
      </trkpt>
      <trkpt lat="44.13429" lon="4.05526">
        <ele>254</ele>
      </trkpt>
      <trkpt lat="44.13436" lon="4.05564">
        <ele>253</ele>
      </trkpt>
      <trkpt lat="44.13445" lon="4.05569">
        <ele>254</ele>
      </trkpt>
      <trkpt lat="44.13467" lon="4.05552">
        <ele>256</ele>
      </trkpt>
      <trkpt lat="44.13488" lon="4.0556">
        <ele>258</ele>
      </trkpt>
      <trkpt lat="44.13501" lon="4.05588">
        <ele>261</ele>
      </trkpt>
      <trkpt lat="44.13512" lon="4.05622">
        <ele>262</ele>
      </trkpt>
      <trkpt lat="44.13519" lon="4.05674">
        <ele>266</ele>
        <time>2018-04-02T01:28:01Z</time>
      </trkpt>
      <trkpt lat="44.13535" lon="4.05724">
        <ele>266</ele>
      </trkpt>
      <trkpt lat="44.13579" lon="4.0577">
        <ele>269</ele>
      </trkpt>
      <trkpt lat="44.13572" lon="4.05837">
        <ele>274</ele>
      </trkpt>
      <trkpt lat="44.13566" lon="4.05876">
        <ele>273</ele>
      </trkpt>
      <trkpt lat="44.13557" lon="4.05928">
        <ele>271</ele>
        <time>2018-04-02T01:31:01Z</time>
      </trkpt>
      <trkpt lat="44.13561" lon="4.05985">
        <ele>269</ele>
      </trkpt>
      <trkpt lat="44.13571" lon="4.06007">
        <ele>268</ele>
        <time>2018-04-02T01:32:01Z</time>
      </trkpt>
      <trkpt lat="44.13551" lon="4.06013">
        <ele>265</ele>
      </trkpt>
      <trkpt lat="44.13519" lon="4.06035">
        <ele>262</ele>
        <time>2018-04-02T01:33:01Z</time>
      </trkpt>
      <trkpt lat="44.13509" lon="4.06054">
        <ele>262</ele>
        <time>2018-04-02T01:34:01Z</time>
      </trkpt>
      <trkpt lat="44.13507" lon="4.06073">
        <ele>262</ele>
      </trkpt>
      <trkpt lat="44.13498" lon="4.06098">
        <ele>258</ele>
      </trkpt>
      <trkpt lat="44.13491" lon="4.06118">
        <ele>255</ele>
      </trkpt>
      <trkpt lat="44.13465" lon="4.06142">
        <ele>253</ele>
      </trkpt>
      <trkpt lat="44.13398" lon="4.06197">
        <ele>235</ele>
        <time>2018-04-02T01:38:01Z</time>
      </trkpt>
      <trkpt lat="44.13364" lon="4.06261">
        <ele>220</ele>
        <time>2018-04-02T01:39:01Z</time>
      </trkpt>
      <trkpt lat="44.13332" lon="4.06278">
        <ele>216</ele>
      </trkpt>
      <trkpt lat="44.13318" lon="4.06298">
        <ele>214</ele>
        <time>2018-04-02T01:40:01Z</time>
      </trkpt>
      <trkpt lat="44.1331" lon="4.06326">
        <ele>213</ele>
      </trkpt>
      <trkpt lat="44.13292" lon="4.0636">
        <ele>207</ele>
      </trkpt>
      <trkpt lat="44.13292" lon="4.06404">
        <ele>206</ele>
      </trkpt>
      <trkpt lat="44.13296" lon="4.06447">
        <ele>202</ele>
      </trkpt>
      <trkpt lat="44.1327" lon="4.06478">
        <ele>201</ele>
      </trkpt>
      <trkpt lat="44.13242" lon="4.06498">
        <ele>198</ele>
      </trkpt>
      <trkpt lat="44.13217" lon="4.06538">
        <ele>194</ele>
      </trkpt>
      <trkpt lat="44.13207" lon="4.06555">
        <ele>193</ele>
      </trkpt>
      <trkpt lat="44.13196" lon="4.06592">
        <ele>187</ele>
      </trkpt>
      <trkpt lat="44.13211" lon="4.06571">
        <ele>192</ele>
      </trkpt>
      <trkpt lat="44.13223" lon="4.06565">
        <ele>193</ele>
      </trkpt>
      <trkpt lat="44.13237" lon="4.06579">
        <ele>192</ele>
      </trkpt>
      <trkpt lat="44.13218" lon="4.06674">
        <ele>176</ele>
        <time>2018-04-02T01:47:01Z</time>
      </trkpt>
      <trkpt lat="44.13231" lon="4.06711">
        <ele>172</ele>
        <time>2018-04-02T01:48:01Z</time>
      </trkpt>
      <trkpt lat="44.13177" lon="4.06712">
        <ele>170</ele>
        <time>2018-04-02T01:49:01Z</time>
      </trkpt>
      <trkpt lat="44.13122" lon="4.06687">
        <ele>166</ele>
        <time>2018-04-02T01:50:01Z</time>
      </trkpt>
      <trkpt lat="44.13114" lon="4.06703">
        <ele>165</ele>
        <time>2018-04-02T01:51:01Z</time>
      </trkpt>
      <trkpt lat="44.13116" lon="4.06745">
        <ele>162</ele>
        <time>2018-04-02T01:52:01Z</time>
      </trkpt>
      <trkpt lat="44.131" lon="4.0676">
        <ele>155</ele>
        <time>2018-04-02T01:53:01Z</time>
      </trkpt>
      <trkpt lat="44.13056" lon="4.06765">
        <ele>152</ele>
        <time>2018-04-02T01:54:01Z</time>
      </trkpt>
      <trkpt lat="44.13038" lon="4.06798">
        <ele>150</ele>
        <time>2018-04-02T01:55:01Z</time>
      </trkpt>
      <trkpt lat="44.13042" lon="4.069">
        <ele>146</ele>
        <time>2018-04-02T01:56:01Z</time>
      </trkpt>
      <trkpt lat="44.13005" lon="4.06919">
        <ele>143</ele>
        <time>2018-04-02T01:57:01Z</time>
      </trkpt>
      <trkpt lat="44.1295" lon="4.06993">
        <ele>144</ele>
        <time>2018-04-02T01:58:01Z</time>
      </trkpt>
      <trkpt lat="44.12882" lon="4.07028">
        <ele>141</ele>
        <time>2018-04-02T01:59:01Z</time>
      </trkpt>
      <trkpt lat="44.12804" lon="4.0709">
        <ele>136</ele>
        <time>2018-04-02T02:00:01Z</time>
      </trkpt>
      <trkpt lat="44.12671" lon="4.07073">
        <ele>140</ele>
        <time>2018-04-02T02:01:01Z</time>
      </trkpt>
      <trkpt lat="44.12655" lon="4.0717">
        <ele>131</ele>
        <time>2018-04-02T02:02:01Z</time>
      </trkpt>
      <trkpt lat="44.12597" lon="4.0716">
        <ele>130</ele>
        <time>2018-04-02T02:03:01Z</time>
      </trkpt>
      <trkpt lat="44.12533" lon="4.07123">
        <ele>131</ele>
        <time>2018-04-02T02:04:01Z</time>
      </trkpt>
      <trkpt lat="44.12483" lon="4.07104">
        <ele>132</ele>
        <time>2018-04-02T02:05:01Z</time>
      </trkpt>
      <trkpt lat="44.12424" lon="4.07101">
        <ele>133</ele>
        <time>2018-04-02T02:06:01Z</time>
      </trkpt>
      <trkpt lat="44.12414" lon="4.07236">
        <ele>131</ele>
        <time>2018-04-02T02:07:01Z</time>
      </trkpt>
      <trkpt lat="44.1243" lon="4.07258">
        <ele>134</ele>
      </trkpt>
      <trkpt lat="44.12434" lon="4.07324">
        <ele>136</ele>
        <time>2018-04-02T02:09:01Z</time>
      </trkpt>
      <trkpt lat="44.12443" lon="4.07432">
        <ele>139</ele>
        <time>2018-04-02T02:10:01Z</time>
      </trkpt>
      <trkpt lat="44.12458" lon="4.07665">
        <ele>142</ele>
      </trkpt>
      <trkpt lat="44.12474" lon="4.07664">
        <ele>142</ele>
        <time>2018-04-02T02:12:01Z</time>
      </trkpt>
      <trkpt lat="44.12505" lon="4.07656">
        <ele>145</ele>
        <time>2018-04-02T02:13:01Z</time>
      </trkpt>
      <trkpt lat="44.12524" lon="4.07686">
        <ele>144</ele>
        <time>2018-04-02T02:14:01Z</time>
      </trkpt>
      <trkpt lat="44.12621" lon="4.07976">
        <ele>139</ele>
      </trkpt>
      <trkpt lat="44.12617" lon="4.08003">
        <ele>139</ele>
      </trkpt>
      <trkpt lat="44.12628" lon="4.08013">
        <ele>138</ele>
      </trkpt>
      <trkpt lat="44.12696" lon="4.08216">
        <ele>138</ele>
      </trkpt>
      <trkpt lat="44.12708" lon="4.08248">
        <ele>138</ele>
      </trkpt>
      <trkpt lat="44.12766" lon="4.08405">
        <ele>138</ele>
      </trkpt>
      <trkpt lat="44.12772" lon="4.08475">
        <ele>137</ele>
        <time>2018-04-02T02:17:01Z</time>
      </trkpt>
      <trkpt lat="44.12772" lon="4.08553">
        <ele>137</ele>
      </trkpt>
    </trkseg>
  </trk>
</gpx>